<?xml version="1.0" encoding="UTF-8" standalone="no" ?>
<gpx xmlns="http://www.topografix.com/GPX/1/1" xmlns:xsi="http://www.w3.org/2001/XMLSchema-instance" xsi:schemaLocation="http://www.topografix.com/GPX/1/1 http://www.topografix.com/GPX/1/1/gpx.xsd" version="1.1" creator="VisuGPX - https://www.visugpx.com">
  <metadata>
    <name>Baugé en Anjou</name>
    <desc><![CDATA[Circuit balisé en jaune au départ de la piscine de Baugé en Anjou.]]></desc>
  </metadata>
  <trk>
    <name><![CDATA[Chemin de Fougère]]></name>
    <desc><![CDATA[]]></desc>
    <trkseg>
      <trkpt lat="47.53803" lon="-0.09519">
        <ele>54</ele>
        <time>2013-04-21T12:20:15.854Z</time>
      </trkpt>
      <trkpt lat="47.53802" lon="-0.09513">
        <ele>54</ele>
        <time>2013-04-21T12:20:31.000Z</time>
      </trkpt>
      <trkpt lat="47.53805" lon="-0.09504">
        <ele>53</ele>
        <time>2013-04-21T12:20:32.000Z</time>
      </trkpt>
      <trkpt lat="47.53806" lon="-0.09498">
        <ele>52</ele>
        <time>2013-04-21T12:20:37.000Z</time>
      </trkpt>
      <trkpt lat="47.5381" lon="-0.09491">
        <ele>52</ele>
        <time>2013-04-21T12:20:38.000Z</time>
      </trkpt>
      <trkpt lat="47.5381" lon="-0.09489">
        <ele>52</ele>
        <time>2013-04-21T12:20:42.000Z</time>
      </trkpt>
      <trkpt lat="47.53811" lon="-0.09483">
        <ele>52</ele>
        <time>2013-04-21T12:20:43.000Z</time>
      </trkpt>
      <trkpt lat="47.53811" lon="-0.09477">
        <ele>52</ele>
        <time>2013-04-21T12:20:47.000Z</time>
      </trkpt>
      <trkpt lat="47.53811" lon="-0.09477">
        <ele>52</ele>
        <time>2013-04-21T12:20:48.000Z</time>
      </trkpt>
      <trkpt lat="47.53812" lon="-0.09471">
        <ele>52</ele>
        <time>2013-04-21T12:20:51.000Z</time>
      </trkpt>
      <trkpt lat="47.53812" lon="-0.09468">
        <ele>52</ele>
        <time>2013-04-21T12:20:52.000Z</time>
      </trkpt>
      <trkpt lat="47.53814" lon="-0.09464">
        <ele>52</ele>
        <time>2013-04-21T12:20:55.000Z</time>
      </trkpt>
      <trkpt lat="47.53814" lon="-0.09462">
        <ele>52</ele>
        <time>2013-04-21T12:20:56.000Z</time>
      </trkpt>
      <trkpt lat="47.53816" lon="-0.09456">
        <ele>52</ele>
        <time>2013-04-21T12:21:03.000Z</time>
      </trkpt>
      <trkpt lat="47.53817" lon="-0.09455">
        <ele>52</ele>
        <time>2013-04-21T12:21:04.000Z</time>
      </trkpt>
      <trkpt lat="47.53819" lon="-0.0945">
        <ele>52</ele>
        <time>2013-04-21T12:21:07.000Z</time>
      </trkpt>
      <trkpt lat="47.5382" lon="-0.09448">
        <ele>52</ele>
        <time>2013-04-21T12:21:08.000Z</time>
      </trkpt>
      <trkpt lat="47.53822" lon="-0.09444">
        <ele>52</ele>
        <time>2013-04-21T12:21:11.000Z</time>
      </trkpt>
      <trkpt lat="47.53823" lon="-0.09443">
        <ele>52</ele>
        <time>2013-04-21T12:21:12.000Z</time>
      </trkpt>
      <trkpt lat="47.53826" lon="-0.0944">
        <ele>52</ele>
        <time>2013-04-21T12:21:15.000Z</time>
      </trkpt>
      <trkpt lat="47.53826" lon="-0.09438">
        <ele>52</ele>
        <time>2013-04-21T12:21:16.000Z</time>
      </trkpt>
      <trkpt lat="47.53828" lon="-0.09433">
        <ele>51</ele>
        <time>2013-04-21T12:21:19.000Z</time>
      </trkpt>
      <trkpt lat="47.53828" lon="-0.09432">
        <ele>51</ele>
        <time>2013-04-21T12:21:20.000Z</time>
      </trkpt>
      <trkpt lat="47.53831" lon="-0.09427">
        <ele>51</ele>
        <time>2013-04-21T12:21:24.000Z</time>
      </trkpt>
      <trkpt lat="47.53832" lon="-0.09426">
        <ele>51</ele>
        <time>2013-04-21T12:21:25.000Z</time>
      </trkpt>
      <trkpt lat="47.53833" lon="-0.0942">
        <ele>50</ele>
        <time>2013-04-21T12:21:33.000Z</time>
      </trkpt>
      <trkpt lat="47.53833" lon="-0.09419">
        <ele>50</ele>
        <time>2013-04-21T12:21:34.000Z</time>
      </trkpt>
      <trkpt lat="47.53836" lon="-0.09415">
        <ele>50</ele>
        <time>2013-04-21T12:21:38.000Z</time>
      </trkpt>
      <trkpt lat="47.53837" lon="-0.09414">
        <ele>50</ele>
        <time>2013-04-21T12:21:39.000Z</time>
      </trkpt>
      <trkpt lat="47.5384" lon="-0.09411">
        <ele>50</ele>
        <time>2013-04-21T12:21:44.000Z</time>
      </trkpt>
      <trkpt lat="47.5384" lon="-0.0941">
        <ele>50</ele>
        <time>2013-04-21T12:21:45.000Z</time>
      </trkpt>
      <trkpt lat="47.53843" lon="-0.09406">
        <ele>50</ele>
        <time>2013-04-21T12:21:48.000Z</time>
      </trkpt>
      <trkpt lat="47.53843" lon="-0.09405">
        <ele>50</ele>
        <time>2013-04-21T12:21:49.000Z</time>
      </trkpt>
      <trkpt lat="47.53846" lon="-0.09401">
        <ele>50</ele>
        <time>2013-04-21T12:21:53.000Z</time>
      </trkpt>
      <trkpt lat="47.53847" lon="-0.094">
        <ele>50</ele>
        <time>2013-04-21T12:21:54.000Z</time>
      </trkpt>
      <trkpt lat="47.5385" lon="-0.09396">
        <ele>50</ele>
        <time>2013-04-21T12:21:59.000Z</time>
      </trkpt>
      <trkpt lat="47.53851" lon="-0.09396">
        <ele>50</ele>
        <time>2013-04-21T12:22:00.000Z</time>
      </trkpt>
      <trkpt lat="47.53854" lon="-0.09394">
        <ele>50</ele>
        <time>2013-04-21T12:22:04.000Z</time>
      </trkpt>
      <trkpt lat="47.53856" lon="-0.09393">
        <ele>50</ele>
        <time>2013-04-21T12:22:05.000Z</time>
      </trkpt>
      <trkpt lat="47.5386" lon="-0.09392">
        <ele>50</ele>
        <time>2013-04-21T12:22:09.000Z</time>
      </trkpt>
      <trkpt lat="47.5386" lon="-0.09392">
        <ele>50</ele>
        <time>2013-04-21T12:22:10.000Z</time>
      </trkpt>
      <trkpt lat="47.53864" lon="-0.09393">
        <ele>50</ele>
        <time>2013-04-21T12:22:14.000Z</time>
      </trkpt>
      <trkpt lat="47.53865" lon="-0.09394">
        <ele>50</ele>
        <time>2013-04-21T12:22:15.000Z</time>
      </trkpt>
      <trkpt lat="47.53869" lon="-0.09395">
        <ele>50</ele>
        <time>2013-04-21T12:22:19.000Z</time>
      </trkpt>
      <trkpt lat="47.5387" lon="-0.09395">
        <ele>50</ele>
        <time>2013-04-21T12:22:20.000Z</time>
      </trkpt>
      <trkpt lat="47.53873" lon="-0.09397">
        <ele>50</ele>
        <time>2013-04-21T12:22:23.000Z</time>
      </trkpt>
      <trkpt lat="47.53874" lon="-0.09398">
        <ele>50</ele>
        <time>2013-04-21T12:22:24.000Z</time>
      </trkpt>
      <trkpt lat="47.53877" lon="-0.09401">
        <ele>50</ele>
        <time>2013-04-21T12:22:29.000Z</time>
      </trkpt>
      <trkpt lat="47.53878" lon="-0.09401">
        <ele>50</ele>
        <time>2013-04-21T12:22:30.000Z</time>
      </trkpt>
      <trkpt lat="47.53882" lon="-0.09402">
        <ele>50</ele>
        <time>2013-04-21T12:22:33.000Z</time>
      </trkpt>
      <trkpt lat="47.53883" lon="-0.09402">
        <ele>50</ele>
        <time>2013-04-21T12:22:34.000Z</time>
      </trkpt>
      <trkpt lat="47.53887" lon="-0.09404">
        <ele>50</ele>
        <time>2013-04-21T12:22:40.000Z</time>
      </trkpt>
      <trkpt lat="47.53888" lon="-0.09406">
        <ele>50</ele>
        <time>2013-04-21T12:22:41.000Z</time>
      </trkpt>
      <trkpt lat="47.53891" lon="-0.09409">
        <ele>50</ele>
        <time>2013-04-21T12:22:45.000Z</time>
      </trkpt>
      <trkpt lat="47.53892" lon="-0.0941">
        <ele>50</ele>
        <time>2013-04-21T12:22:46.000Z</time>
      </trkpt>
      <trkpt lat="47.53895" lon="-0.09412">
        <ele>50</ele>
        <time>2013-04-21T12:22:49.000Z</time>
      </trkpt>
      <trkpt lat="47.53896" lon="-0.09412">
        <ele>50</ele>
        <time>2013-04-21T12:22:50.000Z</time>
      </trkpt>
      <trkpt lat="47.539" lon="-0.09414">
        <ele>49</ele>
        <time>2013-04-21T12:22:55.000Z</time>
      </trkpt>
      <trkpt lat="47.53901" lon="-0.09413">
        <ele>49</ele>
        <time>2013-04-21T12:22:56.000Z</time>
      </trkpt>
      <trkpt lat="47.53904" lon="-0.09414">
        <ele>49</ele>
        <time>2013-04-21T12:23:00.000Z</time>
      </trkpt>
      <trkpt lat="47.53905" lon="-0.09415">
        <ele>49</ele>
        <time>2013-04-21T12:23:01.000Z</time>
      </trkpt>
      <trkpt lat="47.53909" lon="-0.09417">
        <ele>49</ele>
        <time>2013-04-21T12:23:04.000Z</time>
      </trkpt>
      <trkpt lat="47.53911" lon="-0.09418">
        <ele>49</ele>
        <time>2013-04-21T12:23:05.000Z</time>
      </trkpt>
      <trkpt lat="47.53915" lon="-0.0942">
        <ele>49</ele>
        <time>2013-04-21T12:23:08.000Z</time>
      </trkpt>
      <trkpt lat="47.53915" lon="-0.0942">
        <ele>49</ele>
        <time>2013-04-21T12:23:09.000Z</time>
      </trkpt>
      <trkpt lat="47.53919" lon="-0.09422">
        <ele>49</ele>
        <time>2013-04-21T12:23:14.000Z</time>
      </trkpt>
      <trkpt lat="47.5392" lon="-0.09423">
        <ele>49</ele>
        <time>2013-04-21T12:23:15.000Z</time>
      </trkpt>
      <trkpt lat="47.53924" lon="-0.09424">
        <ele>49</ele>
        <time>2013-04-21T12:23:19.000Z</time>
      </trkpt>
      <trkpt lat="47.53925" lon="-0.09425">
        <ele>49</ele>
        <time>2013-04-21T12:23:20.000Z</time>
      </trkpt>
      <trkpt lat="47.53928" lon="-0.09426">
        <ele>49</ele>
        <time>2013-04-21T12:23:22.000Z</time>
      </trkpt>
      <trkpt lat="47.53929" lon="-0.09426">
        <ele>49</ele>
        <time>2013-04-21T12:23:23.000Z</time>
      </trkpt>
      <trkpt lat="47.53933" lon="-0.09427">
        <ele>49</ele>
        <time>2013-04-21T12:23:26.000Z</time>
      </trkpt>
      <trkpt lat="47.53934" lon="-0.09428">
        <ele>49</ele>
        <time>2013-04-21T12:23:27.000Z</time>
      </trkpt>
      <trkpt lat="47.53937" lon="-0.0943">
        <ele>49</ele>
        <time>2013-04-21T12:23:30.000Z</time>
      </trkpt>
      <trkpt lat="47.53938" lon="-0.0943">
        <ele>49</ele>
        <time>2013-04-21T12:23:31.000Z</time>
      </trkpt>
      <trkpt lat="47.53942" lon="-0.09427">
        <ele>49</ele>
        <time>2013-04-21T12:23:39.000Z</time>
      </trkpt>
      <trkpt lat="47.53943" lon="-0.09426">
        <ele>49</ele>
        <time>2013-04-21T12:23:40.000Z</time>
      </trkpt>
      <trkpt lat="47.53945" lon="-0.09422">
        <ele>50</ele>
        <time>2013-04-21T12:23:41.000Z</time>
      </trkpt>
      <trkpt lat="47.53947" lon="-0.0942">
        <ele>50</ele>
        <time>2013-04-21T12:23:42.000Z</time>
      </trkpt>
      <trkpt lat="47.53951" lon="-0.09417">
        <ele>50</ele>
        <time>2013-04-21T12:23:46.000Z</time>
      </trkpt>
      <trkpt lat="47.53951" lon="-0.09417">
        <ele>50</ele>
        <time>2013-04-21T12:23:47.000Z</time>
      </trkpt>
      <trkpt lat="47.53954" lon="-0.09411">
        <ele>50</ele>
        <time>2013-04-21T12:23:50.000Z</time>
      </trkpt>
      <trkpt lat="47.53954" lon="-0.0941">
        <ele>50</ele>
        <time>2013-04-21T12:23:51.000Z</time>
      </trkpt>
      <trkpt lat="47.53957" lon="-0.09404">
        <ele>50</ele>
        <time>2013-04-21T12:23:55.000Z</time>
      </trkpt>
      <trkpt lat="47.53958" lon="-0.09403">
        <ele>50</ele>
        <time>2013-04-21T12:23:56.000Z</time>
      </trkpt>
      <trkpt lat="47.53958" lon="-0.09398">
        <ele>50</ele>
        <time>2013-04-21T12:24:00.000Z</time>
      </trkpt>
      <trkpt lat="47.53959" lon="-0.09396">
        <ele>50</ele>
        <time>2013-04-21T12:24:01.000Z</time>
      </trkpt>
      <trkpt lat="47.53958" lon="-0.09391">
        <ele>50</ele>
        <time>2013-04-21T12:24:04.000Z</time>
      </trkpt>
      <trkpt lat="47.53958" lon="-0.09389">
        <ele>50</ele>
        <time>2013-04-21T12:24:05.000Z</time>
      </trkpt>
      <trkpt lat="47.53958" lon="-0.09383">
        <ele>50</ele>
        <time>2013-04-21T12:24:09.000Z</time>
      </trkpt>
      <trkpt lat="47.53958" lon="-0.09382">
        <ele>50</ele>
        <time>2013-04-21T12:24:10.000Z</time>
      </trkpt>
      <trkpt lat="47.53958" lon="-0.09376">
        <ele>50</ele>
        <time>2013-04-21T12:24:13.000Z</time>
      </trkpt>
      <trkpt lat="47.53959" lon="-0.09375">
        <ele>50</ele>
        <time>2013-04-21T12:24:14.000Z</time>
      </trkpt>
      <trkpt lat="47.53959" lon="-0.09369">
        <ele>50</ele>
        <time>2013-04-21T12:24:17.000Z</time>
      </trkpt>
      <trkpt lat="47.53959" lon="-0.09367">
        <ele>50</ele>
        <time>2013-04-21T12:24:18.000Z</time>
      </trkpt>
      <trkpt lat="47.53959" lon="-0.09361">
        <ele>50</ele>
        <time>2013-04-21T12:24:21.000Z</time>
      </trkpt>
      <trkpt lat="47.5396" lon="-0.09359">
        <ele>50</ele>
        <time>2013-04-21T12:24:22.000Z</time>
      </trkpt>
      <trkpt lat="47.53959" lon="-0.09353">
        <ele>50</ele>
        <time>2013-04-21T12:24:25.000Z</time>
      </trkpt>
      <trkpt lat="47.53959" lon="-0.09352">
        <ele>50</ele>
        <time>2013-04-21T12:24:26.000Z</time>
      </trkpt>
      <trkpt lat="47.53959" lon="-0.09347">
        <ele>50</ele>
        <time>2013-04-21T12:24:31.000Z</time>
      </trkpt>
      <trkpt lat="47.53959" lon="-0.09345">
        <ele>50</ele>
        <time>2013-04-21T12:24:32.000Z</time>
      </trkpt>
      <trkpt lat="47.5396" lon="-0.09339">
        <ele>50</ele>
        <time>2013-04-21T12:24:34.000Z</time>
      </trkpt>
      <trkpt lat="47.5396" lon="-0.09338">
        <ele>50</ele>
        <time>2013-04-21T12:24:35.000Z</time>
      </trkpt>
      <trkpt lat="47.53961" lon="-0.09332">
        <ele>51</ele>
        <time>2013-04-21T12:24:38.000Z</time>
      </trkpt>
      <trkpt lat="47.53961" lon="-0.0933">
        <ele>51</ele>
        <time>2013-04-21T12:24:39.000Z</time>
      </trkpt>
      <trkpt lat="47.53962" lon="-0.09324">
        <ele>51</ele>
        <time>2013-04-21T12:24:43.000Z</time>
      </trkpt>
      <trkpt lat="47.53962" lon="-0.09323">
        <ele>51</ele>
        <time>2013-04-21T12:24:44.000Z</time>
      </trkpt>
      <trkpt lat="47.53963" lon="-0.09317">
        <ele>51</ele>
        <time>2013-04-21T12:24:47.000Z</time>
      </trkpt>
      <trkpt lat="47.53964" lon="-0.09316">
        <ele>51</ele>
        <time>2013-04-21T12:24:48.000Z</time>
      </trkpt>
      <trkpt lat="47.53964" lon="-0.0931">
        <ele>51</ele>
        <time>2013-04-21T12:24:52.000Z</time>
      </trkpt>
      <trkpt lat="47.53964" lon="-0.09309">
        <ele>51</ele>
        <time>2013-04-21T12:24:53.000Z</time>
      </trkpt>
      <trkpt lat="47.53965" lon="-0.09302">
        <ele>51</ele>
        <time>2013-04-21T12:24:57.000Z</time>
      </trkpt>
      <trkpt lat="47.53965" lon="-0.09301">
        <ele>51</ele>
        <time>2013-04-21T12:24:58.000Z</time>
      </trkpt>
      <trkpt lat="47.53965" lon="-0.09296">
        <ele>51</ele>
        <time>2013-04-21T12:25:02.000Z</time>
      </trkpt>
      <trkpt lat="47.53966" lon="-0.09293">
        <ele>51</ele>
        <time>2013-04-21T12:25:03.000Z</time>
      </trkpt>
      <trkpt lat="47.53966" lon="-0.09288">
        <ele>51</ele>
        <time>2013-04-21T12:25:05.000Z</time>
      </trkpt>
      <trkpt lat="47.53966" lon="-0.09287">
        <ele>51</ele>
        <time>2013-04-21T12:25:06.000Z</time>
      </trkpt>
      <trkpt lat="47.53967" lon="-0.09281">
        <ele>51</ele>
        <time>2013-04-21T12:25:09.000Z</time>
      </trkpt>
      <trkpt lat="47.53967" lon="-0.09278">
        <ele>51</ele>
        <time>2013-04-21T12:25:10.000Z</time>
      </trkpt>
      <trkpt lat="47.53967" lon="-0.09273">
        <ele>51</ele>
        <time>2013-04-21T12:25:12.000Z</time>
      </trkpt>
      <trkpt lat="47.53967" lon="-0.09271">
        <ele>52</ele>
        <time>2013-04-21T12:25:13.000Z</time>
      </trkpt>
      <trkpt lat="47.53968" lon="-0.09265">
        <ele>52</ele>
        <time>2013-04-21T12:25:18.000Z</time>
      </trkpt>
      <trkpt lat="47.53968" lon="-0.09264">
        <ele>52</ele>
        <time>2013-04-21T12:25:19.000Z</time>
      </trkpt>
      <trkpt lat="47.53969" lon="-0.09258">
        <ele>52</ele>
        <time>2013-04-21T12:25:23.000Z</time>
      </trkpt>
      <trkpt lat="47.53969" lon="-0.09257">
        <ele>52</ele>
        <time>2013-04-21T12:25:24.000Z</time>
      </trkpt>
      <trkpt lat="47.5397" lon="-0.09251">
        <ele>52</ele>
        <time>2013-04-21T12:25:30.000Z</time>
      </trkpt>
      <trkpt lat="47.5397" lon="-0.09248">
        <ele>53</ele>
        <time>2013-04-21T12:25:31.000Z</time>
      </trkpt>
      <trkpt lat="47.53972" lon="-0.09242">
        <ele>53</ele>
        <time>2013-04-21T12:25:35.000Z</time>
      </trkpt>
      <trkpt lat="47.53972" lon="-0.0924">
        <ele>53</ele>
        <time>2013-04-21T12:25:36.000Z</time>
      </trkpt>
      <trkpt lat="47.53972" lon="-0.09235">
        <ele>54</ele>
        <time>2013-04-21T12:25:39.000Z</time>
      </trkpt>
      <trkpt lat="47.53972" lon="-0.09234">
        <ele>54</ele>
        <time>2013-04-21T12:25:40.000Z</time>
      </trkpt>
      <trkpt lat="47.53973" lon="-0.09228">
        <ele>54</ele>
        <time>2013-04-21T12:25:45.000Z</time>
      </trkpt>
      <trkpt lat="47.53973" lon="-0.09227">
        <ele>54</ele>
        <time>2013-04-21T12:25:46.000Z</time>
      </trkpt>
      <trkpt lat="47.53974" lon="-0.09222">
        <ele>54</ele>
        <time>2013-04-21T12:25:53.000Z</time>
      </trkpt>
      <trkpt lat="47.53975" lon="-0.0922">
        <ele>54</ele>
        <time>2013-04-21T12:25:54.000Z</time>
      </trkpt>
      <trkpt lat="47.53977" lon="-0.09213">
        <ele>54</ele>
        <time>2013-04-21T12:25:55.000Z</time>
      </trkpt>
      <trkpt lat="47.53976" lon="-0.09207">
        <ele>54</ele>
        <time>2013-04-21T12:26:02.000Z</time>
      </trkpt>
      <trkpt lat="47.53976" lon="-0.09206">
        <ele>54</ele>
        <time>2013-04-21T12:26:03.000Z</time>
      </trkpt>
      <trkpt lat="47.53977" lon="-0.09201">
        <ele>54</ele>
        <time>2013-04-21T12:26:06.000Z</time>
      </trkpt>
      <trkpt lat="47.53978" lon="-0.09199">
        <ele>54</ele>
        <time>2013-04-21T12:26:07.000Z</time>
      </trkpt>
      <trkpt lat="47.53979" lon="-0.09195">
        <ele>54</ele>
        <time>2013-04-21T12:26:08.000Z</time>
      </trkpt>
      <trkpt lat="47.53979" lon="-0.09191">
        <ele>54</ele>
        <time>2013-04-21T12:26:09.000Z</time>
      </trkpt>
      <trkpt lat="47.53979" lon="-0.09184">
        <ele>54</ele>
        <time>2013-04-21T12:26:12.000Z</time>
      </trkpt>
      <trkpt lat="47.53979" lon="-0.09182">
        <ele>54</ele>
        <time>2013-04-21T12:26:13.000Z</time>
      </trkpt>
      <trkpt lat="47.5398" lon="-0.09176">
        <ele>54</ele>
        <time>2013-04-21T12:26:16.000Z</time>
      </trkpt>
      <trkpt lat="47.53981" lon="-0.09175">
        <ele>54</ele>
        <time>2013-04-21T12:26:17.000Z</time>
      </trkpt>
      <trkpt lat="47.53984" lon="-0.09171">
        <ele>54</ele>
        <time>2013-04-21T12:26:21.000Z</time>
      </trkpt>
      <trkpt lat="47.53984" lon="-0.0917">
        <ele>54</ele>
        <time>2013-04-21T12:26:22.000Z</time>
      </trkpt>
      <trkpt lat="47.53985" lon="-0.09164">
        <ele>56</ele>
        <time>2013-04-21T12:26:26.000Z</time>
      </trkpt>
      <trkpt lat="47.53986" lon="-0.09163">
        <ele>56</ele>
        <time>2013-04-21T12:26:27.000Z</time>
      </trkpt>
      <trkpt lat="47.53987" lon="-0.09159">
        <ele>56</ele>
        <time>2013-04-21T12:26:30.000Z</time>
      </trkpt>
      <trkpt lat="47.53989" lon="-0.09157">
        <ele>56</ele>
        <time>2013-04-21T12:26:31.000Z</time>
      </trkpt>
      <trkpt lat="47.53989" lon="-0.09152">
        <ele>56</ele>
        <time>2013-04-21T12:26:34.000Z</time>
      </trkpt>
      <trkpt lat="47.53989" lon="-0.0915">
        <ele>56</ele>
        <time>2013-04-21T12:26:35.000Z</time>
      </trkpt>
      <trkpt lat="47.53991" lon="-0.09144">
        <ele>56</ele>
        <time>2013-04-21T12:26:38.000Z</time>
      </trkpt>
      <trkpt lat="47.53992" lon="-0.09142">
        <ele>56</ele>
        <time>2013-04-21T12:26:39.000Z</time>
      </trkpt>
      <trkpt lat="47.53994" lon="-0.09137">
        <ele>57</ele>
        <time>2013-04-21T12:26:43.000Z</time>
      </trkpt>
      <trkpt lat="47.53995" lon="-0.09136">
        <ele>57</ele>
        <time>2013-04-21T12:26:44.000Z</time>
      </trkpt>
      <trkpt lat="47.53997" lon="-0.09131">
        <ele>57</ele>
        <time>2013-04-21T12:26:47.000Z</time>
      </trkpt>
      <trkpt lat="47.53997" lon="-0.09129">
        <ele>57</ele>
        <time>2013-04-21T12:26:48.000Z</time>
      </trkpt>
      <trkpt lat="47.53998" lon="-0.09123">
        <ele>57</ele>
        <time>2013-04-21T12:26:53.000Z</time>
      </trkpt>
      <trkpt lat="47.53998" lon="-0.09122">
        <ele>57</ele>
        <time>2013-04-21T12:26:54.000Z</time>
      </trkpt>
      <trkpt lat="47.54" lon="-0.09116">
        <ele>57</ele>
        <time>2013-04-21T12:26:57.000Z</time>
      </trkpt>
      <trkpt lat="47.54001" lon="-0.09114">
        <ele>55</ele>
        <time>2013-04-21T12:26:58.000Z</time>
      </trkpt>
      <trkpt lat="47.54002" lon="-0.09108">
        <ele>55</ele>
        <time>2013-04-21T12:27:02.000Z</time>
      </trkpt>
      <trkpt lat="47.54003" lon="-0.09107">
        <ele>55</ele>
        <time>2013-04-21T12:27:03.000Z</time>
      </trkpt>
      <trkpt lat="47.54003" lon="-0.09101">
        <ele>56</ele>
        <time>2013-04-21T12:27:07.000Z</time>
      </trkpt>
      <trkpt lat="47.54002" lon="-0.09099">
        <ele>56</ele>
        <time>2013-04-21T12:27:08.000Z</time>
      </trkpt>
      <trkpt lat="47.54003" lon="-0.09094">
        <ele>56</ele>
        <time>2013-04-21T12:27:11.000Z</time>
      </trkpt>
      <trkpt lat="47.54003" lon="-0.09092">
        <ele>56</ele>
        <time>2013-04-21T12:27:12.000Z</time>
      </trkpt>
      <trkpt lat="47.54003" lon="-0.09087">
        <ele>57</ele>
        <time>2013-04-21T12:27:15.000Z</time>
      </trkpt>
      <trkpt lat="47.54002" lon="-0.09086">
        <ele>57</ele>
        <time>2013-04-21T12:27:16.000Z</time>
      </trkpt>
      <trkpt lat="47.54003" lon="-0.0908">
        <ele>57</ele>
        <time>2013-04-21T12:27:21.000Z</time>
      </trkpt>
      <trkpt lat="47.54004" lon="-0.09078">
        <ele>57</ele>
        <time>2013-04-21T12:27:22.000Z</time>
      </trkpt>
      <trkpt lat="47.54003" lon="-0.09072">
        <ele>56</ele>
        <time>2013-04-21T12:27:25.000Z</time>
      </trkpt>
      <trkpt lat="47.54003" lon="-0.0907">
        <ele>56</ele>
        <time>2013-04-21T12:27:26.000Z</time>
      </trkpt>
      <trkpt lat="47.54003" lon="-0.09064">
        <ele>56</ele>
        <time>2013-04-21T12:27:31.000Z</time>
      </trkpt>
      <trkpt lat="47.54003" lon="-0.09063">
        <ele>56</ele>
        <time>2013-04-21T12:27:32.000Z</time>
      </trkpt>
      <trkpt lat="47.54005" lon="-0.09058">
        <ele>55</ele>
        <time>2013-04-21T12:27:36.000Z</time>
      </trkpt>
      <trkpt lat="47.54005" lon="-0.09057">
        <ele>55</ele>
        <time>2013-04-21T12:27:37.000Z</time>
      </trkpt>
      <trkpt lat="47.54006" lon="-0.09053">
        <ele>55</ele>
        <time>2013-04-21T12:27:39.000Z</time>
      </trkpt>
      <trkpt lat="47.54006" lon="-0.09051">
        <ele>55</ele>
        <time>2013-04-21T12:27:40.000Z</time>
      </trkpt>
      <trkpt lat="47.54007" lon="-0.09044">
        <ele>55</ele>
        <time>2013-04-21T12:27:44.000Z</time>
      </trkpt>
      <trkpt lat="47.54007" lon="-0.09043">
        <ele>55</ele>
        <time>2013-04-21T12:27:45.000Z</time>
      </trkpt>
      <trkpt lat="47.54009" lon="-0.09038">
        <ele>55</ele>
        <time>2013-04-21T12:27:48.000Z</time>
      </trkpt>
      <trkpt lat="47.54009" lon="-0.09036">
        <ele>55</ele>
        <time>2013-04-21T12:27:49.000Z</time>
      </trkpt>
      <trkpt lat="47.54011" lon="-0.09031">
        <ele>55</ele>
        <time>2013-04-21T12:27:53.000Z</time>
      </trkpt>
      <trkpt lat="47.54012" lon="-0.09029">
        <ele>55</ele>
        <time>2013-04-21T12:27:54.000Z</time>
      </trkpt>
      <trkpt lat="47.54013" lon="-0.09025">
        <ele>55</ele>
        <time>2013-04-21T12:27:57.000Z</time>
      </trkpt>
      <trkpt lat="47.54014" lon="-0.09023">
        <ele>55</ele>
        <time>2013-04-21T12:27:58.000Z</time>
      </trkpt>
      <trkpt lat="47.54016" lon="-0.09018">
        <ele>55</ele>
        <time>2013-04-21T12:28:02.000Z</time>
      </trkpt>
      <trkpt lat="47.54016" lon="-0.09017">
        <ele>55</ele>
        <time>2013-04-21T12:28:03.000Z</time>
      </trkpt>
      <trkpt lat="47.54018" lon="-0.09011">
        <ele>55</ele>
        <time>2013-04-21T12:28:10.000Z</time>
      </trkpt>
      <trkpt lat="47.54018" lon="-0.09009">
        <ele>55</ele>
        <time>2013-04-21T12:28:11.000Z</time>
      </trkpt>
      <trkpt lat="47.54019" lon="-0.09003">
        <ele>55</ele>
        <time>2013-04-21T12:28:16.000Z</time>
      </trkpt>
      <trkpt lat="47.5402" lon="-0.09001">
        <ele>55</ele>
        <time>2013-04-21T12:28:17.000Z</time>
      </trkpt>
      <trkpt lat="47.54023" lon="-0.08997">
        <ele>54</ele>
        <time>2013-04-21T12:28:20.000Z</time>
      </trkpt>
      <trkpt lat="47.54024" lon="-0.08995">
        <ele>54</ele>
        <time>2013-04-21T12:28:21.000Z</time>
      </trkpt>
      <trkpt lat="47.54026" lon="-0.08991">
        <ele>54</ele>
        <time>2013-04-21T12:28:24.000Z</time>
      </trkpt>
      <trkpt lat="47.54026" lon="-0.08989">
        <ele>54</ele>
        <time>2013-04-21T12:28:25.000Z</time>
      </trkpt>
      <trkpt lat="47.54027" lon="-0.08982">
        <ele>54</ele>
        <time>2013-04-21T12:28:28.000Z</time>
      </trkpt>
      <trkpt lat="47.54028" lon="-0.08981">
        <ele>54</ele>
        <time>2013-04-21T12:28:29.000Z</time>
      </trkpt>
      <trkpt lat="47.5403" lon="-0.08975">
        <ele>54</ele>
        <time>2013-04-21T12:28:32.000Z</time>
      </trkpt>
      <trkpt lat="47.5403" lon="-0.08974">
        <ele>54</ele>
        <time>2013-04-21T12:28:33.000Z</time>
      </trkpt>
      <trkpt lat="47.54031" lon="-0.08969">
        <ele>54</ele>
        <time>2013-04-21T12:28:40.000Z</time>
      </trkpt>
      <trkpt lat="47.54032" lon="-0.08967">
        <ele>54</ele>
        <time>2013-04-21T12:28:41.000Z</time>
      </trkpt>
      <trkpt lat="47.54032" lon="-0.08962">
        <ele>54</ele>
        <time>2013-04-21T12:28:44.000Z</time>
      </trkpt>
      <trkpt lat="47.54033" lon="-0.08961">
        <ele>54</ele>
        <time>2013-04-21T12:28:45.000Z</time>
      </trkpt>
      <trkpt lat="47.54035" lon="-0.08955">
        <ele>54</ele>
        <time>2013-04-21T12:28:52.000Z</time>
      </trkpt>
      <trkpt lat="47.54035" lon="-0.0895">
        <ele>54</ele>
        <time>2013-04-21T12:28:53.000Z</time>
      </trkpt>
      <trkpt lat="47.54037" lon="-0.08944">
        <ele>54</ele>
        <time>2013-04-21T12:29:00.000Z</time>
      </trkpt>
      <trkpt lat="47.54037" lon="-0.08943">
        <ele>54</ele>
        <time>2013-04-21T12:29:01.000Z</time>
      </trkpt>
      <trkpt lat="47.54038" lon="-0.0894">
        <ele>54</ele>
        <time>2013-04-21T12:29:04.000Z</time>
      </trkpt>
      <trkpt lat="47.54038" lon="-0.08936">
        <ele>54</ele>
        <time>2013-04-21T12:29:05.000Z</time>
      </trkpt>
      <trkpt lat="47.54035" lon="-0.08931">
        <ele>54</ele>
        <time>2013-04-21T12:29:13.000Z</time>
      </trkpt>
      <trkpt lat="47.54035" lon="-0.08929">
        <ele>54</ele>
        <time>2013-04-21T12:29:14.000Z</time>
      </trkpt>
      <trkpt lat="47.54035" lon="-0.08924">
        <ele>54</ele>
        <time>2013-04-21T12:29:17.000Z</time>
      </trkpt>
      <trkpt lat="47.54036" lon="-0.08922">
        <ele>54</ele>
        <time>2013-04-21T12:29:18.000Z</time>
      </trkpt>
      <trkpt lat="47.54035" lon="-0.08916">
        <ele>54</ele>
        <time>2013-04-21T12:29:23.000Z</time>
      </trkpt>
      <trkpt lat="47.54035" lon="-0.08915">
        <ele>54</ele>
        <time>2013-04-21T12:29:24.000Z</time>
      </trkpt>
      <trkpt lat="47.54035" lon="-0.08909">
        <ele>54</ele>
        <time>2013-04-21T12:29:30.000Z</time>
      </trkpt>
      <trkpt lat="47.54034" lon="-0.08908">
        <ele>54</ele>
        <time>2013-04-21T12:29:31.000Z</time>
      </trkpt>
      <trkpt lat="47.54034" lon="-0.08903">
        <ele>54</ele>
        <time>2013-04-21T12:29:35.000Z</time>
      </trkpt>
      <trkpt lat="47.54035" lon="-0.08901">
        <ele>54</ele>
        <time>2013-04-21T12:29:36.000Z</time>
      </trkpt>
      <trkpt lat="47.54036" lon="-0.08897">
        <ele>54</ele>
        <time>2013-04-21T12:29:39.000Z</time>
      </trkpt>
      <trkpt lat="47.54037" lon="-0.08896">
        <ele>54</ele>
        <time>2013-04-21T12:29:40.000Z</time>
      </trkpt>
      <trkpt lat="47.54039" lon="-0.08891">
        <ele>54</ele>
        <time>2013-04-21T12:29:44.000Z</time>
      </trkpt>
      <trkpt lat="47.5404" lon="-0.08888">
        <ele>54</ele>
        <time>2013-04-21T12:29:45.000Z</time>
      </trkpt>
      <trkpt lat="47.54042" lon="-0.08883">
        <ele>54</ele>
        <time>2013-04-21T12:29:49.000Z</time>
      </trkpt>
      <trkpt lat="47.54043" lon="-0.08882">
        <ele>54</ele>
        <time>2013-04-21T12:29:50.000Z</time>
      </trkpt>
      <trkpt lat="47.54043" lon="-0.08878">
        <ele>54</ele>
        <time>2013-04-21T12:29:54.000Z</time>
      </trkpt>
      <trkpt lat="47.54043" lon="-0.08874">
        <ele>54</ele>
        <time>2013-04-21T12:29:55.000Z</time>
      </trkpt>
      <trkpt lat="47.54043" lon="-0.08869">
        <ele>54</ele>
        <time>2013-04-21T12:30:02.000Z</time>
      </trkpt>
      <trkpt lat="47.54043" lon="-0.08866">
        <ele>54</ele>
        <time>2013-04-21T12:30:03.000Z</time>
      </trkpt>
      <trkpt lat="47.54046" lon="-0.08861">
        <ele>54</ele>
        <time>2013-04-21T12:30:07.000Z</time>
      </trkpt>
      <trkpt lat="47.54047" lon="-0.0886">
        <ele>54</ele>
        <time>2013-04-21T12:30:08.000Z</time>
      </trkpt>
      <trkpt lat="47.54047" lon="-0.08856">
        <ele>54</ele>
        <time>2013-04-21T12:30:11.000Z</time>
      </trkpt>
      <trkpt lat="47.54047" lon="-0.08851">
        <ele>54</ele>
        <time>2013-04-21T12:30:12.000Z</time>
      </trkpt>
      <trkpt lat="47.54048" lon="-0.08847">
        <ele>54</ele>
        <time>2013-04-21T12:30:15.000Z</time>
      </trkpt>
      <trkpt lat="47.54048" lon="-0.08845">
        <ele>54</ele>
        <time>2013-04-21T12:30:16.000Z</time>
      </trkpt>
      <trkpt lat="47.5405" lon="-0.08839">
        <ele>54</ele>
        <time>2013-04-21T12:30:21.000Z</time>
      </trkpt>
      <trkpt lat="47.5405" lon="-0.08838">
        <ele>54</ele>
        <time>2013-04-21T12:30:22.000Z</time>
      </trkpt>
      <trkpt lat="47.5405" lon="-0.08832">
        <ele>55</ele>
        <time>2013-04-21T12:30:26.000Z</time>
      </trkpt>
      <trkpt lat="47.54051" lon="-0.08829">
        <ele>55</ele>
        <time>2013-04-21T12:30:27.000Z</time>
      </trkpt>
      <trkpt lat="47.54053" lon="-0.08824">
        <ele>56</ele>
        <time>2013-04-21T12:30:30.000Z</time>
      </trkpt>
      <trkpt lat="47.54053" lon="-0.08822">
        <ele>56</ele>
        <time>2013-04-21T12:30:31.000Z</time>
      </trkpt>
      <trkpt lat="47.54054" lon="-0.08818">
        <ele>56</ele>
        <time>2013-04-21T12:30:34.000Z</time>
      </trkpt>
      <trkpt lat="47.54055" lon="-0.08816">
        <ele>56</ele>
        <time>2013-04-21T12:30:35.000Z</time>
      </trkpt>
      <trkpt lat="47.54056" lon="-0.08811">
        <ele>56</ele>
        <time>2013-04-21T12:30:40.000Z</time>
      </trkpt>
      <trkpt lat="47.54056" lon="-0.08809">
        <ele>56</ele>
        <time>2013-04-21T12:30:41.000Z</time>
      </trkpt>
      <trkpt lat="47.54058" lon="-0.08804">
        <ele>56</ele>
        <time>2013-04-21T12:30:46.000Z</time>
      </trkpt>
      <trkpt lat="47.54059" lon="-0.08802">
        <ele>56</ele>
        <time>2013-04-21T12:30:47.000Z</time>
      </trkpt>
      <trkpt lat="47.5406" lon="-0.08796">
        <ele>56</ele>
        <time>2013-04-21T12:30:50.000Z</time>
      </trkpt>
      <trkpt lat="47.5406" lon="-0.08796">
        <ele>56</ele>
        <time>2013-04-21T12:30:51.000Z</time>
      </trkpt>
      <trkpt lat="47.54061" lon="-0.08791">
        <ele>56</ele>
        <time>2013-04-21T12:30:55.000Z</time>
      </trkpt>
      <trkpt lat="47.54062" lon="-0.08789">
        <ele>56</ele>
        <time>2013-04-21T12:30:56.000Z</time>
      </trkpt>
      <trkpt lat="47.54064" lon="-0.08786">
        <ele>56</ele>
        <time>2013-04-21T12:30:57.000Z</time>
      </trkpt>
      <trkpt lat="47.54065" lon="-0.08783">
        <ele>56</ele>
        <time>2013-04-21T12:30:58.000Z</time>
      </trkpt>
      <trkpt lat="47.54067" lon="-0.08779">
        <ele>56</ele>
        <time>2013-04-21T12:31:01.000Z</time>
      </trkpt>
      <trkpt lat="47.54068" lon="-0.08777">
        <ele>56</ele>
        <time>2013-04-21T12:31:02.000Z</time>
      </trkpt>
      <trkpt lat="47.5407" lon="-0.08771">
        <ele>56</ele>
        <time>2013-04-21T12:31:06.000Z</time>
      </trkpt>
      <trkpt lat="47.5407" lon="-0.08771">
        <ele>56</ele>
        <time>2013-04-21T12:31:07.000Z</time>
      </trkpt>
      <trkpt lat="47.54073" lon="-0.08766">
        <ele>57</ele>
        <time>2013-04-21T12:31:14.000Z</time>
      </trkpt>
      <trkpt lat="47.54074" lon="-0.08765">
        <ele>57</ele>
        <time>2013-04-21T12:31:15.000Z</time>
      </trkpt>
      <trkpt lat="47.54075" lon="-0.0876">
        <ele>57</ele>
        <time>2013-04-21T12:31:17.000Z</time>
      </trkpt>
      <trkpt lat="47.54075" lon="-0.08755">
        <ele>57</ele>
        <time>2013-04-21T12:31:18.000Z</time>
      </trkpt>
      <trkpt lat="47.54076" lon="-0.08749">
        <ele>58</ele>
        <time>2013-04-21T12:31:22.000Z</time>
      </trkpt>
      <trkpt lat="47.54077" lon="-0.08748">
        <ele>58</ele>
        <time>2013-04-21T12:31:23.000Z</time>
      </trkpt>
      <trkpt lat="47.54079" lon="-0.08743">
        <ele>58</ele>
        <time>2013-04-21T12:31:26.000Z</time>
      </trkpt>
      <trkpt lat="47.5408" lon="-0.08742">
        <ele>58</ele>
        <time>2013-04-21T12:31:27.000Z</time>
      </trkpt>
      <trkpt lat="47.54082" lon="-0.08737">
        <ele>58</ele>
        <time>2013-04-21T12:31:30.000Z</time>
      </trkpt>
      <trkpt lat="47.54082" lon="-0.08736">
        <ele>59</ele>
        <time>2013-04-21T12:31:31.000Z</time>
      </trkpt>
      <trkpt lat="47.54082" lon="-0.0873">
        <ele>59</ele>
        <time>2013-04-21T12:31:37.000Z</time>
      </trkpt>
      <trkpt lat="47.54083" lon="-0.08728">
        <ele>59</ele>
        <time>2013-04-21T12:31:38.000Z</time>
      </trkpt>
      <trkpt lat="47.54083" lon="-0.08722">
        <ele>59</ele>
        <time>2013-04-21T12:31:40.000Z</time>
      </trkpt>
      <trkpt lat="47.54083" lon="-0.08721">
        <ele>60</ele>
        <time>2013-04-21T12:31:41.000Z</time>
      </trkpt>
      <trkpt lat="47.54086" lon="-0.08716">
        <ele>57</ele>
        <time>2013-04-21T12:31:44.000Z</time>
      </trkpt>
      <trkpt lat="47.54087" lon="-0.08715">
        <ele>57</ele>
        <time>2013-04-21T12:31:45.000Z</time>
      </trkpt>
      <trkpt lat="47.54088" lon="-0.08709">
        <ele>57</ele>
        <time>2013-04-21T12:31:48.000Z</time>
      </trkpt>
      <trkpt lat="47.54089" lon="-0.08707">
        <ele>57</ele>
        <time>2013-04-21T12:31:49.000Z</time>
      </trkpt>
      <trkpt lat="47.54092" lon="-0.08703">
        <ele>57</ele>
        <time>2013-04-21T12:31:55.000Z</time>
      </trkpt>
      <trkpt lat="47.54093" lon="-0.08702">
        <ele>57</ele>
        <time>2013-04-21T12:31:56.000Z</time>
      </trkpt>
      <trkpt lat="47.54096" lon="-0.08699">
        <ele>57</ele>
        <time>2013-04-21T12:32:02.000Z</time>
      </trkpt>
      <trkpt lat="47.54096" lon="-0.08698">
        <ele>57</ele>
        <time>2013-04-21T12:32:03.000Z</time>
      </trkpt>
      <trkpt lat="47.54098" lon="-0.08695">
        <ele>57</ele>
        <time>2013-04-21T12:32:07.000Z</time>
      </trkpt>
      <trkpt lat="47.54099" lon="-0.08693">
        <ele>57</ele>
        <time>2013-04-21T12:32:08.000Z</time>
      </trkpt>
      <trkpt lat="47.54102" lon="-0.0869">
        <ele>57</ele>
        <time>2013-04-21T12:32:11.000Z</time>
      </trkpt>
      <trkpt lat="47.54103" lon="-0.08688">
        <ele>58</ele>
        <time>2013-04-21T12:32:12.000Z</time>
      </trkpt>
      <trkpt lat="47.54105" lon="-0.08683">
        <ele>58</ele>
        <time>2013-04-21T12:32:16.000Z</time>
      </trkpt>
      <trkpt lat="47.54106" lon="-0.08682">
        <ele>58</ele>
        <time>2013-04-21T12:32:17.000Z</time>
      </trkpt>
      <trkpt lat="47.54109" lon="-0.08679">
        <ele>57</ele>
        <time>2013-04-21T12:32:22.000Z</time>
      </trkpt>
      <trkpt lat="47.5411" lon="-0.08678">
        <ele>57</ele>
        <time>2013-04-21T12:32:23.000Z</time>
      </trkpt>
      <trkpt lat="47.54112" lon="-0.08675">
        <ele>57</ele>
        <time>2013-04-21T12:32:25.000Z</time>
      </trkpt>
      <trkpt lat="47.54114" lon="-0.08673">
        <ele>57</ele>
        <time>2013-04-21T12:32:26.000Z</time>
      </trkpt>
      <trkpt lat="47.54116" lon="-0.08669">
        <ele>57</ele>
        <time>2013-04-21T12:32:29.000Z</time>
      </trkpt>
      <trkpt lat="47.54117" lon="-0.08666">
        <ele>60</ele>
        <time>2013-04-21T12:32:30.000Z</time>
      </trkpt>
      <trkpt lat="47.54119" lon="-0.08661">
        <ele>60</ele>
        <time>2013-04-21T12:32:34.000Z</time>
      </trkpt>
      <trkpt lat="47.5412" lon="-0.0866">
        <ele>60</ele>
        <time>2013-04-21T12:32:35.000Z</time>
      </trkpt>
      <trkpt lat="47.54123" lon="-0.08658">
        <ele>60</ele>
        <time>2013-04-21T12:32:38.000Z</time>
      </trkpt>
      <trkpt lat="47.54124" lon="-0.08656">
        <ele>60</ele>
        <time>2013-04-21T12:32:39.000Z</time>
      </trkpt>
      <trkpt lat="47.54127" lon="-0.08651">
        <ele>60</ele>
        <time>2013-04-21T12:32:43.000Z</time>
      </trkpt>
      <trkpt lat="47.54129" lon="-0.08649">
        <ele>60</ele>
        <time>2013-04-21T12:32:44.000Z</time>
      </trkpt>
      <trkpt lat="47.5413" lon="-0.08644">
        <ele>60</ele>
        <time>2013-04-21T12:32:48.000Z</time>
      </trkpt>
      <trkpt lat="47.54131" lon="-0.08643">
        <ele>60</ele>
        <time>2013-04-21T12:32:49.000Z</time>
      </trkpt>
      <trkpt lat="47.54133" lon="-0.08639">
        <ele>60</ele>
        <time>2013-04-21T12:32:52.000Z</time>
      </trkpt>
      <trkpt lat="47.54134" lon="-0.08637">
        <ele>60</ele>
        <time>2013-04-21T12:32:53.000Z</time>
      </trkpt>
      <trkpt lat="47.54136" lon="-0.08632">
        <ele>60</ele>
        <time>2013-04-21T12:32:59.000Z</time>
      </trkpt>
      <trkpt lat="47.54137" lon="-0.08632">
        <ele>60</ele>
        <time>2013-04-21T12:33:00.000Z</time>
      </trkpt>
      <trkpt lat="47.54139" lon="-0.08627">
        <ele>60</ele>
        <time>2013-04-21T12:33:11.000Z</time>
      </trkpt>
      <trkpt lat="47.54141" lon="-0.08627">
        <ele>60</ele>
        <time>2013-04-21T12:33:12.000Z</time>
      </trkpt>
      <trkpt lat="47.54143" lon="-0.08627">
        <ele>60</ele>
        <time>2013-04-21T12:33:14.000Z</time>
      </trkpt>
      <trkpt lat="47.54146" lon="-0.08625">
        <ele>60</ele>
        <time>2013-04-21T12:33:15.000Z</time>
      </trkpt>
      <trkpt lat="47.54149" lon="-0.08623">
        <ele>60</ele>
        <time>2013-04-21T12:33:17.000Z</time>
      </trkpt>
      <trkpt lat="47.5415" lon="-0.08623">
        <ele>60</ele>
        <time>2013-04-21T12:33:18.000Z</time>
      </trkpt>
      <trkpt lat="47.54153" lon="-0.08621">
        <ele>60</ele>
        <time>2013-04-21T12:33:24.000Z</time>
      </trkpt>
      <trkpt lat="47.54156" lon="-0.08619">
        <ele>60</ele>
        <time>2013-04-21T12:33:25.000Z</time>
      </trkpt>
      <trkpt lat="47.54159" lon="-0.08617">
        <ele>60</ele>
        <time>2013-04-21T12:33:27.000Z</time>
      </trkpt>
      <trkpt lat="47.5416" lon="-0.08615">
        <ele>60</ele>
        <time>2013-04-21T12:33:28.000Z</time>
      </trkpt>
      <trkpt lat="47.54162" lon="-0.08611">
        <ele>61</ele>
        <time>2013-04-21T12:33:35.000Z</time>
      </trkpt>
      <trkpt lat="47.54163" lon="-0.0861">
        <ele>61</ele>
        <time>2013-04-21T12:33:36.000Z</time>
      </trkpt>
      <trkpt lat="47.54167" lon="-0.08607">
        <ele>58</ele>
        <time>2013-04-21T12:33:38.000Z</time>
      </trkpt>
      <trkpt lat="47.54168" lon="-0.08607">
        <ele>58</ele>
        <time>2013-04-21T12:33:39.000Z</time>
      </trkpt>
      <trkpt lat="47.54172" lon="-0.08604">
        <ele>58</ele>
        <time>2013-04-21T12:33:45.000Z</time>
      </trkpt>
      <trkpt lat="47.54173" lon="-0.08604">
        <ele>58</ele>
        <time>2013-04-21T12:33:46.000Z</time>
      </trkpt>
      <trkpt lat="47.54177" lon="-0.08602">
        <ele>58</ele>
        <time>2013-04-21T12:33:53.000Z</time>
      </trkpt>
      <trkpt lat="47.54177" lon="-0.08601">
        <ele>58</ele>
        <time>2013-04-21T12:33:54.000Z</time>
      </trkpt>
      <trkpt lat="47.54179" lon="-0.08597">
        <ele>59</ele>
        <time>2013-04-21T12:34:02.000Z</time>
      </trkpt>
      <trkpt lat="47.5418" lon="-0.08596">
        <ele>59</ele>
        <time>2013-04-21T12:34:03.000Z</time>
      </trkpt>
      <trkpt lat="47.54181" lon="-0.08591">
        <ele>59</ele>
        <time>2013-04-21T12:34:12.000Z</time>
      </trkpt>
      <trkpt lat="47.54182" lon="-0.0859">
        <ele>59</ele>
        <time>2013-04-21T12:34:13.000Z</time>
      </trkpt>
      <trkpt lat="47.54184" lon="-0.08586">
        <ele>59</ele>
        <time>2013-04-21T12:34:22.000Z</time>
      </trkpt>
      <trkpt lat="47.54185" lon="-0.08584">
        <ele>59</ele>
        <time>2013-04-21T12:34:23.000Z</time>
      </trkpt>
      <trkpt lat="47.54187" lon="-0.08579">
        <ele>62</ele>
        <time>2013-04-21T12:34:28.000Z</time>
      </trkpt>
      <trkpt lat="47.54188" lon="-0.08579">
        <ele>62</ele>
        <time>2013-04-21T12:34:29.000Z</time>
      </trkpt>
      <trkpt lat="47.54192" lon="-0.08576">
        <ele>62</ele>
        <time>2013-04-21T12:34:34.000Z</time>
      </trkpt>
      <trkpt lat="47.54192" lon="-0.08576">
        <ele>62</ele>
        <time>2013-04-21T12:34:35.000Z</time>
      </trkpt>
      <trkpt lat="47.54196" lon="-0.08572">
        <ele>62</ele>
        <time>2013-04-21T12:34:39.000Z</time>
      </trkpt>
      <trkpt lat="47.54196" lon="-0.08572">
        <ele>62</ele>
        <time>2013-04-21T12:34:40.000Z</time>
      </trkpt>
      <trkpt lat="47.542" lon="-0.08571">
        <ele>62</ele>
        <time>2013-04-21T12:34:46.000Z</time>
      </trkpt>
      <trkpt lat="47.54201" lon="-0.0857">
        <ele>62</ele>
        <time>2013-04-21T12:34:47.000Z</time>
      </trkpt>
      <trkpt lat="47.54205" lon="-0.08567">
        <ele>62</ele>
        <time>2013-04-21T12:34:51.000Z</time>
      </trkpt>
      <trkpt lat="47.54206" lon="-0.08566">
        <ele>62</ele>
        <time>2013-04-21T12:34:52.000Z</time>
      </trkpt>
      <trkpt lat="47.5421" lon="-0.08565">
        <ele>62</ele>
        <time>2013-04-21T12:34:56.000Z</time>
      </trkpt>
      <trkpt lat="47.54212" lon="-0.08565">
        <ele>61</ele>
        <time>2013-04-21T12:34:57.000Z</time>
      </trkpt>
      <trkpt lat="47.54216" lon="-0.08565">
        <ele>61</ele>
        <time>2013-04-21T12:35:04.000Z</time>
      </trkpt>
      <trkpt lat="47.54216" lon="-0.08565">
        <ele>61</ele>
        <time>2013-04-21T12:35:05.000Z</time>
      </trkpt>
      <trkpt lat="47.54219" lon="-0.08564">
        <ele>61</ele>
        <time>2013-04-21T12:35:08.000Z</time>
      </trkpt>
      <trkpt lat="47.54221" lon="-0.08563">
        <ele>61</ele>
        <time>2013-04-21T12:35:09.000Z</time>
      </trkpt>
      <trkpt lat="47.54222" lon="-0.08561">
        <ele>61</ele>
        <time>2013-04-21T12:35:10.000Z</time>
      </trkpt>
      <trkpt lat="47.54225" lon="-0.08559">
        <ele>61</ele>
        <time>2013-04-21T12:35:11.000Z</time>
      </trkpt>
      <trkpt lat="47.54227" lon="-0.08556">
        <ele>61</ele>
        <time>2013-04-21T12:35:13.000Z</time>
      </trkpt>
      <trkpt lat="47.54229" lon="-0.08555">
        <ele>61</ele>
        <time>2013-04-21T12:35:14.000Z</time>
      </trkpt>
      <trkpt lat="47.54232" lon="-0.08552">
        <ele>61</ele>
        <time>2013-04-21T12:35:17.000Z</time>
      </trkpt>
      <trkpt lat="47.54233" lon="-0.08551">
        <ele>61</ele>
        <time>2013-04-21T12:35:18.000Z</time>
      </trkpt>
      <trkpt lat="47.54237" lon="-0.08548">
        <ele>61</ele>
        <time>2013-04-21T12:35:23.000Z</time>
      </trkpt>
      <trkpt lat="47.54237" lon="-0.08547">
        <ele>61</ele>
        <time>2013-04-21T12:35:24.000Z</time>
      </trkpt>
      <trkpt lat="47.54241" lon="-0.08548">
        <ele>61</ele>
        <time>2013-04-21T12:35:29.000Z</time>
      </trkpt>
      <trkpt lat="47.54242" lon="-0.08548">
        <ele>61</ele>
        <time>2013-04-21T12:35:30.000Z</time>
      </trkpt>
      <trkpt lat="47.54247" lon="-0.08548">
        <ele>61</ele>
        <time>2013-04-21T12:35:37.000Z</time>
      </trkpt>
      <trkpt lat="47.54249" lon="-0.08548">
        <ele>61</ele>
        <time>2013-04-21T12:35:38.000Z</time>
      </trkpt>
      <trkpt lat="47.54252" lon="-0.08545">
        <ele>58</ele>
        <time>2013-04-21T12:35:43.000Z</time>
      </trkpt>
      <trkpt lat="47.54253" lon="-0.08544">
        <ele>58</ele>
        <time>2013-04-21T12:35:44.000Z</time>
      </trkpt>
      <trkpt lat="47.54257" lon="-0.08543">
        <ele>58</ele>
        <time>2013-04-21T12:35:46.000Z</time>
      </trkpt>
      <trkpt lat="47.54259" lon="-0.08542">
        <ele>58</ele>
        <time>2013-04-21T12:35:47.000Z</time>
      </trkpt>
      <trkpt lat="47.54262" lon="-0.08539">
        <ele>58</ele>
        <time>2013-04-21T12:35:52.000Z</time>
      </trkpt>
      <trkpt lat="47.54263" lon="-0.08537">
        <ele>58</ele>
        <time>2013-04-21T12:35:53.000Z</time>
      </trkpt>
      <trkpt lat="47.54261" lon="-0.08531">
        <ele>59</ele>
        <time>2013-04-21T12:36:05.000Z</time>
      </trkpt>
      <trkpt lat="47.54261" lon="-0.0853">
        <ele>59</ele>
        <time>2013-04-21T12:36:06.000Z</time>
      </trkpt>
      <trkpt lat="47.54262" lon="-0.08524">
        <ele>59</ele>
        <time>2013-04-21T12:36:11.000Z</time>
      </trkpt>
      <trkpt lat="47.54262" lon="-0.08523">
        <ele>59</ele>
        <time>2013-04-21T12:36:12.000Z</time>
      </trkpt>
      <trkpt lat="47.54262" lon="-0.08516">
        <ele>60</ele>
        <time>2013-04-21T12:36:18.000Z</time>
      </trkpt>
      <trkpt lat="47.54262" lon="-0.08515">
        <ele>60</ele>
        <time>2013-04-21T12:36:19.000Z</time>
      </trkpt>
      <trkpt lat="47.54262" lon="-0.08509">
        <ele>60</ele>
        <time>2013-04-21T12:36:23.000Z</time>
      </trkpt>
      <trkpt lat="47.54262" lon="-0.08507">
        <ele>60</ele>
        <time>2013-04-21T12:36:24.000Z</time>
      </trkpt>
      <trkpt lat="47.54261" lon="-0.08502">
        <ele>60</ele>
        <time>2013-04-21T12:36:28.000Z</time>
      </trkpt>
      <trkpt lat="47.54262" lon="-0.08499">
        <ele>63</ele>
        <time>2013-04-21T12:36:29.000Z</time>
      </trkpt>
      <trkpt lat="47.54261" lon="-0.08493">
        <ele>63</ele>
        <time>2013-04-21T12:36:38.000Z</time>
      </trkpt>
      <trkpt lat="47.54261" lon="-0.08492">
        <ele>63</ele>
        <time>2013-04-21T12:36:39.000Z</time>
      </trkpt>
      <trkpt lat="47.54261" lon="-0.08486">
        <ele>63</ele>
        <time>2013-04-21T12:36:45.000Z</time>
      </trkpt>
      <trkpt lat="47.54261" lon="-0.08485">
        <ele>63</ele>
        <time>2013-04-21T12:36:46.000Z</time>
      </trkpt>
      <trkpt lat="47.5426" lon="-0.0848">
        <ele>63</ele>
        <time>2013-04-21T12:36:51.000Z</time>
      </trkpt>
      <trkpt lat="47.5426" lon="-0.08478">
        <ele>63</ele>
        <time>2013-04-21T12:36:52.000Z</time>
      </trkpt>
      <trkpt lat="47.5426" lon="-0.08473">
        <ele>64</ele>
        <time>2013-04-21T12:36:54.000Z</time>
      </trkpt>
      <trkpt lat="47.5426" lon="-0.08471">
        <ele>64</ele>
        <time>2013-04-21T12:36:55.000Z</time>
      </trkpt>
      <trkpt lat="47.5426" lon="-0.08464">
        <ele>64</ele>
        <time>2013-04-21T12:36:59.000Z</time>
      </trkpt>
      <trkpt lat="47.5426" lon="-0.08464">
        <ele>64</ele>
        <time>2013-04-21T12:37:00.000Z</time>
      </trkpt>
      <trkpt lat="47.54261" lon="-0.08458">
        <ele>64</ele>
        <time>2013-04-21T12:37:07.000Z</time>
      </trkpt>
      <trkpt lat="47.54261" lon="-0.08456">
        <ele>64</ele>
        <time>2013-04-21T12:37:08.000Z</time>
      </trkpt>
      <trkpt lat="47.5426" lon="-0.0845">
        <ele>65</ele>
        <time>2013-04-21T12:37:14.000Z</time>
      </trkpt>
      <trkpt lat="47.5426" lon="-0.08449">
        <ele>65</ele>
        <time>2013-04-21T12:37:15.000Z</time>
      </trkpt>
      <trkpt lat="47.54259" lon="-0.08443">
        <ele>65</ele>
        <time>2013-04-21T12:37:19.000Z</time>
      </trkpt>
      <trkpt lat="47.54259" lon="-0.08442">
        <ele>65</ele>
        <time>2013-04-21T12:37:20.000Z</time>
      </trkpt>
      <trkpt lat="47.54261" lon="-0.08437">
        <ele>66</ele>
        <time>2013-04-21T12:37:26.000Z</time>
      </trkpt>
      <trkpt lat="47.54261" lon="-0.08436">
        <ele>66</ele>
        <time>2013-04-21T12:37:27.000Z</time>
      </trkpt>
      <trkpt lat="47.54262" lon="-0.0843">
        <ele>66</ele>
        <time>2013-04-21T12:37:31.000Z</time>
      </trkpt>
      <trkpt lat="47.54262" lon="-0.08429">
        <ele>66</ele>
        <time>2013-04-21T12:37:32.000Z</time>
      </trkpt>
      <trkpt lat="47.54263" lon="-0.08422">
        <ele>67</ele>
        <time>2013-04-21T12:37:37.000Z</time>
      </trkpt>
      <trkpt lat="47.54262" lon="-0.08421">
        <ele>67</ele>
        <time>2013-04-21T12:37:38.000Z</time>
      </trkpt>
      <trkpt lat="47.54262" lon="-0.08415">
        <ele>69</ele>
        <time>2013-04-21T12:37:42.000Z</time>
      </trkpt>
      <trkpt lat="47.54263" lon="-0.08414">
        <ele>69</ele>
        <time>2013-04-21T12:37:43.000Z</time>
      </trkpt>
      <trkpt lat="47.54262" lon="-0.08408">
        <ele>69</ele>
        <time>2013-04-21T12:37:46.000Z</time>
      </trkpt>
      <trkpt lat="47.54262" lon="-0.08407">
        <ele>69</ele>
        <time>2013-04-21T12:37:47.000Z</time>
      </trkpt>
      <trkpt lat="47.54261" lon="-0.08401">
        <ele>69</ele>
        <time>2013-04-21T12:37:51.000Z</time>
      </trkpt>
      <trkpt lat="47.54261" lon="-0.084">
        <ele>69</ele>
        <time>2013-04-21T12:37:52.000Z</time>
      </trkpt>
      <trkpt lat="47.5426" lon="-0.08393">
        <ele>69</ele>
        <time>2013-04-21T12:37:57.000Z</time>
      </trkpt>
      <trkpt lat="47.5426" lon="-0.08391">
        <ele>69</ele>
        <time>2013-04-21T12:37:58.000Z</time>
      </trkpt>
      <trkpt lat="47.54259" lon="-0.08385">
        <ele>69</ele>
        <time>2013-04-21T12:38:02.000Z</time>
      </trkpt>
      <trkpt lat="47.54258" lon="-0.08384">
        <ele>69</ele>
        <time>2013-04-21T12:38:03.000Z</time>
      </trkpt>
      <trkpt lat="47.54255" lon="-0.08381">
        <ele>69</ele>
        <time>2013-04-21T12:38:09.000Z</time>
      </trkpt>
      <trkpt lat="47.54254" lon="-0.0838">
        <ele>69</ele>
        <time>2013-04-21T12:38:10.000Z</time>
      </trkpt>
      <trkpt lat="47.54251" lon="-0.08379">
        <ele>69</ele>
        <time>2013-04-21T12:38:13.000Z</time>
      </trkpt>
      <trkpt lat="47.54249" lon="-0.08379">
        <ele>74</ele>
        <time>2013-04-21T12:38:14.000Z</time>
      </trkpt>
      <trkpt lat="47.54245" lon="-0.08379">
        <ele>74</ele>
        <time>2013-04-21T12:38:18.000Z</time>
      </trkpt>
      <trkpt lat="47.54242" lon="-0.08378">
        <ele>74</ele>
        <time>2013-04-21T12:38:19.000Z</time>
      </trkpt>
      <trkpt lat="47.54239" lon="-0.08375">
        <ele>74</ele>
        <time>2013-04-21T12:38:21.000Z</time>
      </trkpt>
      <trkpt lat="47.54237" lon="-0.08374">
        <ele>75</ele>
        <time>2013-04-21T12:38:22.000Z</time>
      </trkpt>
      <trkpt lat="47.54234" lon="-0.08372">
        <ele>75</ele>
        <time>2013-04-21T12:38:26.000Z</time>
      </trkpt>
      <trkpt lat="47.54233" lon="-0.08371">
        <ele>75</ele>
        <time>2013-04-21T12:38:27.000Z</time>
      </trkpt>
      <trkpt lat="47.5423" lon="-0.08366">
        <ele>75</ele>
        <time>2013-04-21T12:38:33.000Z</time>
      </trkpt>
      <trkpt lat="47.5423" lon="-0.08365">
        <ele>75</ele>
        <time>2013-04-21T12:38:34.000Z</time>
      </trkpt>
      <trkpt lat="47.54226" lon="-0.08363">
        <ele>75</ele>
        <time>2013-04-21T12:38:36.000Z</time>
      </trkpt>
      <trkpt lat="47.54225" lon="-0.08362">
        <ele>75</ele>
        <time>2013-04-21T12:38:37.000Z</time>
      </trkpt>
      <trkpt lat="47.54221" lon="-0.08361">
        <ele>76</ele>
        <time>2013-04-21T12:38:42.000Z</time>
      </trkpt>
      <trkpt lat="47.54221" lon="-0.08361">
        <ele>76</ele>
        <time>2013-04-21T12:38:43.000Z</time>
      </trkpt>
      <trkpt lat="47.54219" lon="-0.08366">
        <ele>76</ele>
        <time>2013-04-21T12:39:04.000Z</time>
      </trkpt>
      <trkpt lat="47.5422" lon="-0.08367">
        <ele>76</ele>
        <time>2013-04-21T12:39:05.000Z</time>
      </trkpt>
      <trkpt lat="47.54221" lon="-0.08371">
        <ele>75</ele>
        <time>2013-04-21T12:39:08.000Z</time>
      </trkpt>
      <trkpt lat="47.54223" lon="-0.08374">
        <ele>75</ele>
        <time>2013-04-21T12:39:09.000Z</time>
      </trkpt>
      <trkpt lat="47.5422" lon="-0.08369">
        <ele>76</ele>
        <time>2013-04-21T12:39:58.000Z</time>
      </trkpt>
      <trkpt lat="47.54219" lon="-0.08369">
        <ele>76</ele>
        <time>2013-04-21T12:39:59.000Z</time>
      </trkpt>
      <trkpt lat="47.54215" lon="-0.08368">
        <ele>76</ele>
        <time>2013-04-21T12:40:09.000Z</time>
      </trkpt>
      <trkpt lat="47.54214" lon="-0.08368">
        <ele>76</ele>
        <time>2013-04-21T12:40:10.000Z</time>
      </trkpt>
      <trkpt lat="47.54215" lon="-0.08361">
        <ele>76</ele>
        <time>2013-04-21T12:40:45.000Z</time>
      </trkpt>
      <trkpt lat="47.54216" lon="-0.0836">
        <ele>76</ele>
        <time>2013-04-21T12:40:46.000Z</time>
      </trkpt>
      <trkpt lat="47.54216" lon="-0.08354">
        <ele>76</ele>
        <time>2013-04-21T12:40:51.000Z</time>
      </trkpt>
      <trkpt lat="47.54216" lon="-0.08352">
        <ele>76</ele>
        <time>2013-04-21T12:40:52.000Z</time>
      </trkpt>
      <trkpt lat="47.54217" lon="-0.08348">
        <ele>76</ele>
        <time>2013-04-21T12:40:56.000Z</time>
      </trkpt>
      <trkpt lat="47.54218" lon="-0.08346">
        <ele>76</ele>
        <time>2013-04-21T12:40:57.000Z</time>
      </trkpt>
      <trkpt lat="47.54219" lon="-0.0834">
        <ele>76</ele>
        <time>2013-04-21T12:41:00.000Z</time>
      </trkpt>
      <trkpt lat="47.54219" lon="-0.08338">
        <ele>76</ele>
        <time>2013-04-21T12:41:01.000Z</time>
      </trkpt>
      <trkpt lat="47.5422" lon="-0.08333">
        <ele>78</ele>
        <time>2013-04-21T12:41:03.000Z</time>
      </trkpt>
      <trkpt lat="47.54221" lon="-0.08331">
        <ele>78</ele>
        <time>2013-04-21T12:41:04.000Z</time>
      </trkpt>
      <trkpt lat="47.54223" lon="-0.08326">
        <ele>78</ele>
        <time>2013-04-21T12:41:08.000Z</time>
      </trkpt>
      <trkpt lat="47.54224" lon="-0.08324">
        <ele>77</ele>
        <time>2013-04-21T12:41:09.000Z</time>
      </trkpt>
      <trkpt lat="47.54226" lon="-0.0832">
        <ele>77</ele>
        <time>2013-04-21T12:41:13.000Z</time>
      </trkpt>
      <trkpt lat="47.54226" lon="-0.08318">
        <ele>78</ele>
        <time>2013-04-21T12:41:14.000Z</time>
      </trkpt>
      <trkpt lat="47.54229" lon="-0.08313">
        <ele>78</ele>
        <time>2013-04-21T12:41:18.000Z</time>
      </trkpt>
      <trkpt lat="47.5423" lon="-0.08311">
        <ele>78</ele>
        <time>2013-04-21T12:41:19.000Z</time>
      </trkpt>
      <trkpt lat="47.5423" lon="-0.08306">
        <ele>78</ele>
        <time>2013-04-21T12:41:23.000Z</time>
      </trkpt>
      <trkpt lat="47.54231" lon="-0.08304">
        <ele>78</ele>
        <time>2013-04-21T12:41:24.000Z</time>
      </trkpt>
      <trkpt lat="47.54233" lon="-0.08299">
        <ele>78</ele>
        <time>2013-04-21T12:41:29.000Z</time>
      </trkpt>
      <trkpt lat="47.54233" lon="-0.08297">
        <ele>78</ele>
        <time>2013-04-21T12:41:30.000Z</time>
      </trkpt>
      <trkpt lat="47.54232" lon="-0.08291">
        <ele>79</ele>
        <time>2013-04-21T12:41:34.000Z</time>
      </trkpt>
      <trkpt lat="47.54232" lon="-0.08289">
        <ele>79</ele>
        <time>2013-04-21T12:41:35.000Z</time>
      </trkpt>
      <trkpt lat="47.54232" lon="-0.08284">
        <ele>79</ele>
        <time>2013-04-21T12:41:40.000Z</time>
      </trkpt>
      <trkpt lat="47.54232" lon="-0.08282">
        <ele>79</ele>
        <time>2013-04-21T12:41:41.000Z</time>
      </trkpt>
      <trkpt lat="47.5423" lon="-0.08277">
        <ele>79</ele>
        <time>2013-04-21T12:41:56.000Z</time>
      </trkpt>
      <trkpt lat="47.54231" lon="-0.08275">
        <ele>80</ele>
        <time>2013-04-21T12:41:57.000Z</time>
      </trkpt>
      <trkpt lat="47.54233" lon="-0.08269">
        <ele>80</ele>
        <time>2013-04-21T12:42:02.000Z</time>
      </trkpt>
      <trkpt lat="47.54233" lon="-0.08268">
        <ele>80</ele>
        <time>2013-04-21T12:42:03.000Z</time>
      </trkpt>
      <trkpt lat="47.54236" lon="-0.08264">
        <ele>80</ele>
        <time>2013-04-21T12:42:16.000Z</time>
      </trkpt>
      <trkpt lat="47.54237" lon="-0.08264">
        <ele>80</ele>
        <time>2013-04-21T12:42:17.000Z</time>
      </trkpt>
      <trkpt lat="47.54241" lon="-0.08262">
        <ele>80</ele>
        <time>2013-04-21T12:42:22.000Z</time>
      </trkpt>
      <trkpt lat="47.54243" lon="-0.08262">
        <ele>80</ele>
        <time>2013-04-21T12:42:23.000Z</time>
      </trkpt>
      <trkpt lat="47.54246" lon="-0.0826">
        <ele>80</ele>
        <time>2013-04-21T12:42:25.000Z</time>
      </trkpt>
      <trkpt lat="47.54247" lon="-0.08259">
        <ele>80</ele>
        <time>2013-04-21T12:42:26.000Z</time>
      </trkpt>
      <trkpt lat="47.54251" lon="-0.08259">
        <ele>78</ele>
        <time>2013-04-21T12:42:29.000Z</time>
      </trkpt>
      <trkpt lat="47.54253" lon="-0.08257">
        <ele>78</ele>
        <time>2013-04-21T12:42:30.000Z</time>
      </trkpt>
      <trkpt lat="47.54256" lon="-0.08254">
        <ele>78</ele>
        <time>2013-04-21T12:42:32.000Z</time>
      </trkpt>
      <trkpt lat="47.54258" lon="-0.08252">
        <ele>78</ele>
        <time>2013-04-21T12:42:33.000Z</time>
      </trkpt>
      <trkpt lat="47.54261" lon="-0.0825">
        <ele>79</ele>
        <time>2013-04-21T12:42:37.000Z</time>
      </trkpt>
      <trkpt lat="47.54262" lon="-0.08248">
        <ele>79</ele>
        <time>2013-04-21T12:42:38.000Z</time>
      </trkpt>
      <trkpt lat="47.54263" lon="-0.08243">
        <ele>79</ele>
        <time>2013-04-21T12:42:41.000Z</time>
      </trkpt>
      <trkpt lat="47.54263" lon="-0.0824">
        <ele>79</ele>
        <time>2013-04-21T12:42:42.000Z</time>
      </trkpt>
      <trkpt lat="47.54263" lon="-0.08234">
        <ele>79</ele>
        <time>2013-04-21T12:42:47.000Z</time>
      </trkpt>
      <trkpt lat="47.54263" lon="-0.08233">
        <ele>79</ele>
        <time>2013-04-21T12:42:48.000Z</time>
      </trkpt>
      <trkpt lat="47.54265" lon="-0.08228">
        <ele>79</ele>
        <time>2013-04-21T12:42:50.000Z</time>
      </trkpt>
      <trkpt lat="47.54266" lon="-0.08226">
        <ele>79</ele>
        <time>2013-04-21T12:42:51.000Z</time>
      </trkpt>
      <trkpt lat="47.54267" lon="-0.08221">
        <ele>79</ele>
        <time>2013-04-21T12:42:54.000Z</time>
      </trkpt>
      <trkpt lat="47.54268" lon="-0.08219">
        <ele>79</ele>
        <time>2013-04-21T12:42:55.000Z</time>
      </trkpt>
      <trkpt lat="47.54271" lon="-0.08215">
        <ele>79</ele>
        <time>2013-04-21T12:43:05.000Z</time>
      </trkpt>
      <trkpt lat="47.54272" lon="-0.08214">
        <ele>79</ele>
        <time>2013-04-21T12:43:06.000Z</time>
      </trkpt>
      <trkpt lat="47.54273" lon="-0.08209">
        <ele>79</ele>
        <time>2013-04-21T12:43:09.000Z</time>
      </trkpt>
      <trkpt lat="47.54273" lon="-0.08208">
        <ele>79</ele>
        <time>2013-04-21T12:43:10.000Z</time>
      </trkpt>
      <trkpt lat="47.54276" lon="-0.08203">
        <ele>79</ele>
        <time>2013-04-21T12:43:15.000Z</time>
      </trkpt>
      <trkpt lat="47.54277" lon="-0.08203">
        <ele>79</ele>
        <time>2013-04-21T12:43:16.000Z</time>
      </trkpt>
      <trkpt lat="47.54279" lon="-0.08199">
        <ele>79</ele>
        <time>2013-04-21T12:43:21.000Z</time>
      </trkpt>
      <trkpt lat="47.5428" lon="-0.08198">
        <ele>79</ele>
        <time>2013-04-21T12:43:22.000Z</time>
      </trkpt>
      <trkpt lat="47.54282" lon="-0.08193">
        <ele>79</ele>
        <time>2013-04-21T12:43:25.000Z</time>
      </trkpt>
      <trkpt lat="47.54282" lon="-0.08191">
        <ele>79</ele>
        <time>2013-04-21T12:43:26.000Z</time>
      </trkpt>
      <trkpt lat="47.54285" lon="-0.08185">
        <ele>79</ele>
        <time>2013-04-21T12:43:31.000Z</time>
      </trkpt>
      <trkpt lat="47.54286" lon="-0.08184">
        <ele>79</ele>
        <time>2013-04-21T12:43:32.000Z</time>
      </trkpt>
      <trkpt lat="47.54289" lon="-0.08181">
        <ele>79</ele>
        <time>2013-04-21T12:43:36.000Z</time>
      </trkpt>
      <trkpt lat="47.5429" lon="-0.0818">
        <ele>79</ele>
        <time>2013-04-21T12:43:37.000Z</time>
      </trkpt>
      <trkpt lat="47.5429" lon="-0.08175">
        <ele>79</ele>
        <time>2013-04-21T12:43:41.000Z</time>
      </trkpt>
      <trkpt lat="47.54291" lon="-0.08172">
        <ele>79</ele>
        <time>2013-04-21T12:43:42.000Z</time>
      </trkpt>
      <trkpt lat="47.54291" lon="-0.08166">
        <ele>80</ele>
        <time>2013-04-21T12:43:44.000Z</time>
      </trkpt>
      <trkpt lat="47.54291" lon="-0.08163">
        <ele>80</ele>
        <time>2013-04-21T12:43:45.000Z</time>
      </trkpt>
      <trkpt lat="47.54291" lon="-0.08157">
        <ele>80</ele>
        <time>2013-04-21T12:43:47.000Z</time>
      </trkpt>
      <trkpt lat="47.54291" lon="-0.08156">
        <ele>80</ele>
        <time>2013-04-21T12:43:48.000Z</time>
      </trkpt>
      <trkpt lat="47.54289" lon="-0.08151">
        <ele>80</ele>
        <time>2013-04-21T12:43:51.000Z</time>
      </trkpt>
      <trkpt lat="47.54288" lon="-0.0815">
        <ele>80</ele>
        <time>2013-04-21T12:43:52.000Z</time>
      </trkpt>
      <trkpt lat="47.54286" lon="-0.08147">
        <ele>80</ele>
        <time>2013-04-21T12:43:57.000Z</time>
      </trkpt>
      <trkpt lat="47.54283" lon="-0.08144">
        <ele>80</ele>
        <time>2013-04-21T12:43:58.000Z</time>
      </trkpt>
      <trkpt lat="47.5428" lon="-0.08143">
        <ele>80</ele>
        <time>2013-04-21T12:44:01.000Z</time>
      </trkpt>
      <trkpt lat="47.54278" lon="-0.08142">
        <ele>80</ele>
        <time>2013-04-21T12:44:02.000Z</time>
      </trkpt>
      <trkpt lat="47.54274" lon="-0.08141">
        <ele>81</ele>
        <time>2013-04-21T12:44:07.000Z</time>
      </trkpt>
      <trkpt lat="47.54273" lon="-0.0814">
        <ele>81</ele>
        <time>2013-04-21T12:44:08.000Z</time>
      </trkpt>
      <trkpt lat="47.54269" lon="-0.08137">
        <ele>81</ele>
        <time>2013-04-21T12:44:09.000Z</time>
      </trkpt>
      <trkpt lat="47.54266" lon="-0.08135">
        <ele>81</ele>
        <time>2013-04-21T12:44:10.000Z</time>
      </trkpt>
      <trkpt lat="47.54263" lon="-0.08133">
        <ele>81</ele>
        <time>2013-04-21T12:44:17.000Z</time>
      </trkpt>
      <trkpt lat="47.5426" lon="-0.08132">
        <ele>81</ele>
        <time>2013-04-21T12:44:18.000Z</time>
      </trkpt>
      <trkpt lat="47.54256" lon="-0.08129">
        <ele>81</ele>
        <time>2013-04-21T12:44:20.000Z</time>
      </trkpt>
      <trkpt lat="47.54255" lon="-0.08128">
        <ele>81</ele>
        <time>2013-04-21T12:44:21.000Z</time>
      </trkpt>
      <trkpt lat="47.54253" lon="-0.08127">
        <ele>81</ele>
        <time>2013-04-21T12:44:24.000Z</time>
      </trkpt>
      <trkpt lat="47.54251" lon="-0.08124">
        <ele>81</ele>
        <time>2013-04-21T12:44:25.000Z</time>
      </trkpt>
      <trkpt lat="47.54248" lon="-0.08121">
        <ele>84</ele>
        <time>2013-04-21T12:44:29.000Z</time>
      </trkpt>
      <trkpt lat="47.54247" lon="-0.08121">
        <ele>84</ele>
        <time>2013-04-21T12:44:30.000Z</time>
      </trkpt>
      <trkpt lat="47.54243" lon="-0.0812">
        <ele>84</ele>
        <time>2013-04-21T12:44:33.000Z</time>
      </trkpt>
      <trkpt lat="47.54242" lon="-0.0812">
        <ele>84</ele>
        <time>2013-04-21T12:44:34.000Z</time>
      </trkpt>
      <trkpt lat="47.54238" lon="-0.08115">
        <ele>84</ele>
        <time>2013-04-21T12:44:41.000Z</time>
      </trkpt>
      <trkpt lat="47.54238" lon="-0.08115">
        <ele>84</ele>
        <time>2013-04-21T12:44:42.000Z</time>
      </trkpt>
      <trkpt lat="47.54235" lon="-0.0811">
        <ele>84</ele>
        <time>2013-04-21T12:44:46.000Z</time>
      </trkpt>
      <trkpt lat="47.54234" lon="-0.0811">
        <ele>84</ele>
        <time>2013-04-21T12:44:47.000Z</time>
      </trkpt>
      <trkpt lat="47.5423" lon="-0.08108">
        <ele>84</ele>
        <time>2013-04-21T12:44:51.000Z</time>
      </trkpt>
      <trkpt lat="47.54229" lon="-0.08107">
        <ele>84</ele>
        <time>2013-04-21T12:44:52.000Z</time>
      </trkpt>
      <trkpt lat="47.54226" lon="-0.08104">
        <ele>84</ele>
        <time>2013-04-21T12:44:55.000Z</time>
      </trkpt>
      <trkpt lat="47.54225" lon="-0.08104">
        <ele>84</ele>
        <time>2013-04-21T12:44:56.000Z</time>
      </trkpt>
      <trkpt lat="47.54221" lon="-0.081">
        <ele>84</ele>
        <time>2013-04-21T12:45:02.000Z</time>
      </trkpt>
      <trkpt lat="47.54218" lon="-0.08099">
        <ele>84</ele>
        <time>2013-04-21T12:45:03.000Z</time>
      </trkpt>
      <trkpt lat="47.54215" lon="-0.08095">
        <ele>85</ele>
        <time>2013-04-21T12:45:09.000Z</time>
      </trkpt>
      <trkpt lat="47.54215" lon="-0.08094">
        <ele>85</ele>
        <time>2013-04-21T12:45:10.000Z</time>
      </trkpt>
      <trkpt lat="47.54213" lon="-0.08088">
        <ele>85</ele>
        <time>2013-04-21T12:45:12.000Z</time>
      </trkpt>
      <trkpt lat="47.54213" lon="-0.08088">
        <ele>85</ele>
        <time>2013-04-21T12:45:13.000Z</time>
      </trkpt>
      <trkpt lat="47.54212" lon="-0.08086">
        <ele>85</ele>
        <time>2013-04-21T12:45:14.000Z</time>
      </trkpt>
      <trkpt lat="47.54209" lon="-0.08083">
        <ele>83</ele>
        <time>2013-04-21T12:45:15.000Z</time>
      </trkpt>
      <trkpt lat="47.54204" lon="-0.08081">
        <ele>83</ele>
        <time>2013-04-21T12:45:19.000Z</time>
      </trkpt>
      <trkpt lat="47.54203" lon="-0.0808">
        <ele>83</ele>
        <time>2013-04-21T12:45:20.000Z</time>
      </trkpt>
      <trkpt lat="47.54201" lon="-0.08075">
        <ele>83</ele>
        <time>2013-04-21T12:45:26.000Z</time>
      </trkpt>
      <trkpt lat="47.54201" lon="-0.08075">
        <ele>83</ele>
        <time>2013-04-21T12:45:27.000Z</time>
      </trkpt>
      <trkpt lat="47.54196" lon="-0.08073">
        <ele>84</ele>
        <time>2013-04-21T12:45:30.000Z</time>
      </trkpt>
      <trkpt lat="47.54196" lon="-0.08073">
        <ele>84</ele>
        <time>2013-04-21T12:45:31.000Z</time>
      </trkpt>
      <trkpt lat="47.54193" lon="-0.0807">
        <ele>84</ele>
        <time>2013-04-21T12:45:35.000Z</time>
      </trkpt>
      <trkpt lat="47.54189" lon="-0.08066">
        <ele>84</ele>
        <time>2013-04-21T12:45:36.000Z</time>
      </trkpt>
      <trkpt lat="47.54187" lon="-0.08063">
        <ele>84</ele>
        <time>2013-04-21T12:45:38.000Z</time>
      </trkpt>
      <trkpt lat="47.54186" lon="-0.08061">
        <ele>84</ele>
        <time>2013-04-21T12:45:39.000Z</time>
      </trkpt>
      <trkpt lat="47.54181" lon="-0.08059">
        <ele>84</ele>
        <time>2013-04-21T12:45:44.000Z</time>
      </trkpt>
      <trkpt lat="47.54181" lon="-0.08059">
        <ele>84</ele>
        <time>2013-04-21T12:45:45.000Z</time>
      </trkpt>
      <trkpt lat="47.54178" lon="-0.08056">
        <ele>84</ele>
        <time>2013-04-21T12:45:48.000Z</time>
      </trkpt>
      <trkpt lat="47.54177" lon="-0.08055">
        <ele>84</ele>
        <time>2013-04-21T12:45:49.000Z</time>
      </trkpt>
      <trkpt lat="47.54174" lon="-0.08051">
        <ele>83</ele>
        <time>2013-04-21T12:45:53.000Z</time>
      </trkpt>
      <trkpt lat="47.54173" lon="-0.0805">
        <ele>83</ele>
        <time>2013-04-21T12:45:54.000Z</time>
      </trkpt>
      <trkpt lat="47.54169" lon="-0.08048">
        <ele>83</ele>
        <time>2013-04-21T12:45:57.000Z</time>
      </trkpt>
      <trkpt lat="47.54168" lon="-0.08047">
        <ele>83</ele>
        <time>2013-04-21T12:45:58.000Z</time>
      </trkpt>
      <trkpt lat="47.54165" lon="-0.08042">
        <ele>83</ele>
        <time>2013-04-21T12:46:08.000Z</time>
      </trkpt>
      <trkpt lat="47.54162" lon="-0.0804">
        <ele>83</ele>
        <time>2013-04-21T12:46:09.000Z</time>
      </trkpt>
      <trkpt lat="47.54158" lon="-0.08037">
        <ele>83</ele>
        <time>2013-04-21T12:46:15.000Z</time>
      </trkpt>
      <trkpt lat="47.54155" lon="-0.08035">
        <ele>83</ele>
        <time>2013-04-21T12:46:16.000Z</time>
      </trkpt>
      <trkpt lat="47.54152" lon="-0.08034">
        <ele>83</ele>
        <time>2013-04-21T12:46:17.000Z</time>
      </trkpt>
      <trkpt lat="47.5415" lon="-0.08033">
        <ele>83</ele>
        <time>2013-04-21T12:46:18.000Z</time>
      </trkpt>
      <trkpt lat="47.54147" lon="-0.08034">
        <ele>83</ele>
        <time>2013-04-21T12:46:20.000Z</time>
      </trkpt>
      <trkpt lat="47.54145" lon="-0.08036">
        <ele>83</ele>
        <time>2013-04-21T12:46:21.000Z</time>
      </trkpt>
      <trkpt lat="47.54143" lon="-0.08041">
        <ele>83</ele>
        <time>2013-04-21T12:46:25.000Z</time>
      </trkpt>
      <trkpt lat="47.54142" lon="-0.08042">
        <ele>83</ele>
        <time>2013-04-21T12:46:26.000Z</time>
      </trkpt>
      <trkpt lat="47.54138" lon="-0.0804">
        <ele>83</ele>
        <time>2013-04-21T12:46:32.000Z</time>
      </trkpt>
      <trkpt lat="47.54136" lon="-0.08039">
        <ele>83</ele>
        <time>2013-04-21T12:46:33.000Z</time>
      </trkpt>
      <trkpt lat="47.54135" lon="-0.08041">
        <ele>83</ele>
        <time>2013-04-21T12:46:34.000Z</time>
      </trkpt>
      <trkpt lat="47.54136" lon="-0.08046">
        <ele>83</ele>
        <time>2013-04-21T12:46:35.000Z</time>
      </trkpt>
      <trkpt lat="47.54137" lon="-0.08052">
        <ele>83</ele>
        <time>2013-04-21T12:46:42.000Z</time>
      </trkpt>
      <trkpt lat="47.54136" lon="-0.08057">
        <ele>83</ele>
        <time>2013-04-21T12:46:43.000Z</time>
      </trkpt>
      <trkpt lat="47.54133" lon="-0.08062">
        <ele>84</ele>
        <time>2013-04-21T12:46:45.000Z</time>
      </trkpt>
      <trkpt lat="47.54133" lon="-0.08064">
        <ele>84</ele>
        <time>2013-04-21T12:46:46.000Z</time>
      </trkpt>
      <trkpt lat="47.54133" lon="-0.08069">
        <ele>84</ele>
        <time>2013-04-21T12:46:52.000Z</time>
      </trkpt>
      <trkpt lat="47.54133" lon="-0.08071">
        <ele>84</ele>
        <time>2013-04-21T12:46:53.000Z</time>
      </trkpt>
      <trkpt lat="47.54132" lon="-0.08075">
        <ele>84</ele>
        <time>2013-04-21T12:46:56.000Z</time>
      </trkpt>
      <trkpt lat="47.54132" lon="-0.0808">
        <ele>84</ele>
        <time>2013-04-21T12:46:57.000Z</time>
      </trkpt>
      <trkpt lat="47.54132" lon="-0.08085">
        <ele>85</ele>
        <time>2013-04-21T12:46:59.000Z</time>
      </trkpt>
      <trkpt lat="47.54132" lon="-0.08089">
        <ele>85</ele>
        <time>2013-04-21T12:47:00.000Z</time>
      </trkpt>
      <trkpt lat="47.5413" lon="-0.08092">
        <ele>85</ele>
        <time>2013-04-21T12:47:01.000Z</time>
      </trkpt>
      <trkpt lat="47.54129" lon="-0.08095">
        <ele>85</ele>
        <time>2013-04-21T12:47:02.000Z</time>
      </trkpt>
      <trkpt lat="47.54127" lon="-0.081">
        <ele>85</ele>
        <time>2013-04-21T12:47:05.000Z</time>
      </trkpt>
      <trkpt lat="47.54126" lon="-0.08101">
        <ele>85</ele>
        <time>2013-04-21T12:47:06.000Z</time>
      </trkpt>
      <trkpt lat="47.54125" lon="-0.08106">
        <ele>84</ele>
        <time>2013-04-21T12:47:13.000Z</time>
      </trkpt>
      <trkpt lat="47.54124" lon="-0.08107">
        <ele>84</ele>
        <time>2013-04-21T12:47:14.000Z</time>
      </trkpt>
      <trkpt lat="47.54124" lon="-0.08113">
        <ele>84</ele>
        <time>2013-04-21T12:47:18.000Z</time>
      </trkpt>
      <trkpt lat="47.54123" lon="-0.08114">
        <ele>84</ele>
        <time>2013-04-21T12:47:19.000Z</time>
      </trkpt>
      <trkpt lat="47.54122" lon="-0.0812">
        <ele>84</ele>
        <time>2013-04-21T12:47:21.000Z</time>
      </trkpt>
      <trkpt lat="47.54122" lon="-0.08122">
        <ele>84</ele>
        <time>2013-04-21T12:47:22.000Z</time>
      </trkpt>
      <trkpt lat="47.5412" lon="-0.08128">
        <ele>84</ele>
        <time>2013-04-21T12:47:28.000Z</time>
      </trkpt>
      <trkpt lat="47.5412" lon="-0.08129">
        <ele>84</ele>
        <time>2013-04-21T12:47:29.000Z</time>
      </trkpt>
      <trkpt lat="47.54119" lon="-0.08132">
        <ele>84</ele>
        <time>2013-04-21T12:47:31.000Z</time>
      </trkpt>
      <trkpt lat="47.54118" lon="-0.08135">
        <ele>84</ele>
        <time>2013-04-21T12:47:32.000Z</time>
      </trkpt>
      <trkpt lat="47.54118" lon="-0.08142">
        <ele>84</ele>
        <time>2013-04-21T12:47:35.000Z</time>
      </trkpt>
      <trkpt lat="47.54118" lon="-0.08144">
        <ele>84</ele>
        <time>2013-04-21T12:47:36.000Z</time>
      </trkpt>
      <trkpt lat="47.54117" lon="-0.0815">
        <ele>84</ele>
        <time>2013-04-21T12:47:40.000Z</time>
      </trkpt>
      <trkpt lat="47.54117" lon="-0.08152">
        <ele>84</ele>
        <time>2013-04-21T12:47:41.000Z</time>
      </trkpt>
      <trkpt lat="47.54115" lon="-0.08157">
        <ele>84</ele>
        <time>2013-04-21T12:47:46.000Z</time>
      </trkpt>
      <trkpt lat="47.54115" lon="-0.08158">
        <ele>84</ele>
        <time>2013-04-21T12:47:47.000Z</time>
      </trkpt>
      <trkpt lat="47.54113" lon="-0.08162">
        <ele>84</ele>
        <time>2013-04-21T12:47:50.000Z</time>
      </trkpt>
      <trkpt lat="47.54112" lon="-0.08164">
        <ele>84</ele>
        <time>2013-04-21T12:47:51.000Z</time>
      </trkpt>
      <trkpt lat="47.5411" lon="-0.08169">
        <ele>84</ele>
        <time>2013-04-21T12:47:54.000Z</time>
      </trkpt>
      <trkpt lat="47.5411" lon="-0.08172">
        <ele>84</ele>
        <time>2013-04-21T12:47:55.000Z</time>
      </trkpt>
      <trkpt lat="47.54107" lon="-0.08176">
        <ele>84</ele>
        <time>2013-04-21T12:48:00.000Z</time>
      </trkpt>
      <trkpt lat="47.54107" lon="-0.08178">
        <ele>84</ele>
        <time>2013-04-21T12:48:01.000Z</time>
      </trkpt>
      <trkpt lat="47.54105" lon="-0.08184">
        <ele>84</ele>
        <time>2013-04-21T12:48:05.000Z</time>
      </trkpt>
      <trkpt lat="47.54105" lon="-0.08184">
        <ele>84</ele>
        <time>2013-04-21T12:48:06.000Z</time>
      </trkpt>
      <trkpt lat="47.54104" lon="-0.08187">
        <ele>84</ele>
        <time>2013-04-21T12:48:08.000Z</time>
      </trkpt>
      <trkpt lat="47.54104" lon="-0.08191">
        <ele>84</ele>
        <time>2013-04-21T12:48:09.000Z</time>
      </trkpt>
      <trkpt lat="47.54103" lon="-0.08197">
        <ele>84</ele>
        <time>2013-04-21T12:48:14.000Z</time>
      </trkpt>
      <trkpt lat="47.54101" lon="-0.08198">
        <ele>84</ele>
        <time>2013-04-21T12:48:15.000Z</time>
      </trkpt>
      <trkpt lat="47.54098" lon="-0.08201">
        <ele>84</ele>
        <time>2013-04-21T12:48:19.000Z</time>
      </trkpt>
      <trkpt lat="47.54097" lon="-0.08206">
        <ele>84</ele>
        <time>2013-04-21T12:48:20.000Z</time>
      </trkpt>
      <trkpt lat="47.54096" lon="-0.0821">
        <ele>84</ele>
        <time>2013-04-21T12:48:22.000Z</time>
      </trkpt>
      <trkpt lat="47.54096" lon="-0.08212">
        <ele>84</ele>
        <time>2013-04-21T12:48:23.000Z</time>
      </trkpt>
      <trkpt lat="47.54095" lon="-0.08218">
        <ele>84</ele>
        <time>2013-04-21T12:48:27.000Z</time>
      </trkpt>
      <trkpt lat="47.54095" lon="-0.0822">
        <ele>84</ele>
        <time>2013-04-21T12:48:28.000Z</time>
      </trkpt>
      <trkpt lat="47.54094" lon="-0.08223">
        <ele>84</ele>
        <time>2013-04-21T12:48:31.000Z</time>
      </trkpt>
      <trkpt lat="47.54093" lon="-0.08225">
        <ele>84</ele>
        <time>2013-04-21T12:48:32.000Z</time>
      </trkpt>
      <trkpt lat="47.54091" lon="-0.0823">
        <ele>84</ele>
        <time>2013-04-21T12:48:38.000Z</time>
      </trkpt>
      <trkpt lat="47.5409" lon="-0.08232">
        <ele>83</ele>
        <time>2013-04-21T12:48:39.000Z</time>
      </trkpt>
      <trkpt lat="47.54089" lon="-0.08236">
        <ele>83</ele>
        <time>2013-04-21T12:48:41.000Z</time>
      </trkpt>
      <trkpt lat="47.54088" lon="-0.08239">
        <ele>83</ele>
        <time>2013-04-21T12:48:42.000Z</time>
      </trkpt>
      <trkpt lat="47.54086" lon="-0.08243">
        <ele>83</ele>
        <time>2013-04-21T12:48:45.000Z</time>
      </trkpt>
      <trkpt lat="47.54086" lon="-0.08245">
        <ele>83</ele>
        <time>2013-04-21T12:48:46.000Z</time>
      </trkpt>
      <trkpt lat="47.54087" lon="-0.08252">
        <ele>83</ele>
        <time>2013-04-21T12:48:48.000Z</time>
      </trkpt>
      <trkpt lat="47.54087" lon="-0.08253">
        <ele>83</ele>
        <time>2013-04-21T12:48:49.000Z</time>
      </trkpt>
      <trkpt lat="47.54086" lon="-0.08258">
        <ele>83</ele>
        <time>2013-04-21T12:48:52.000Z</time>
      </trkpt>
      <trkpt lat="47.54086" lon="-0.08261">
        <ele>83</ele>
        <time>2013-04-21T12:48:53.000Z</time>
      </trkpt>
      <trkpt lat="47.54085" lon="-0.08267">
        <ele>83</ele>
        <time>2013-04-21T12:48:58.000Z</time>
      </trkpt>
      <trkpt lat="47.54085" lon="-0.08268">
        <ele>83</ele>
        <time>2013-04-21T12:48:59.000Z</time>
      </trkpt>
      <trkpt lat="47.54084" lon="-0.08274">
        <ele>83</ele>
        <time>2013-04-21T12:49:02.000Z</time>
      </trkpt>
      <trkpt lat="47.54084" lon="-0.08276">
        <ele>83</ele>
        <time>2013-04-21T12:49:03.000Z</time>
      </trkpt>
      <trkpt lat="47.54084" lon="-0.08281">
        <ele>83</ele>
        <time>2013-04-21T12:49:08.000Z</time>
      </trkpt>
      <trkpt lat="47.54084" lon="-0.08283">
        <ele>83</ele>
        <time>2013-04-21T12:49:09.000Z</time>
      </trkpt>
      <trkpt lat="47.54083" lon="-0.08289">
        <ele>81</ele>
        <time>2013-04-21T12:49:12.000Z</time>
      </trkpt>
      <trkpt lat="47.54083" lon="-0.08291">
        <ele>81</ele>
        <time>2013-04-21T12:49:13.000Z</time>
      </trkpt>
      <trkpt lat="47.54083" lon="-0.08297">
        <ele>81</ele>
        <time>2013-04-21T12:49:15.000Z</time>
      </trkpt>
      <trkpt lat="47.54083" lon="-0.08298">
        <ele>81</ele>
        <time>2013-04-21T12:49:16.000Z</time>
      </trkpt>
      <trkpt lat="47.54081" lon="-0.08304">
        <ele>82</ele>
        <time>2013-04-21T12:49:19.000Z</time>
      </trkpt>
      <trkpt lat="47.5408" lon="-0.08305">
        <ele>82</ele>
        <time>2013-04-21T12:49:20.000Z</time>
      </trkpt>
      <trkpt lat="47.5408" lon="-0.0831">
        <ele>82</ele>
        <time>2013-04-21T12:49:24.000Z</time>
      </trkpt>
      <trkpt lat="47.5408" lon="-0.08312">
        <ele>82</ele>
        <time>2013-04-21T12:49:25.000Z</time>
      </trkpt>
      <trkpt lat="47.54079" lon="-0.08317">
        <ele>82</ele>
        <time>2013-04-21T12:49:27.000Z</time>
      </trkpt>
      <trkpt lat="47.54078" lon="-0.08319">
        <ele>82</ele>
        <time>2013-04-21T12:49:28.000Z</time>
      </trkpt>
      <trkpt lat="47.54077" lon="-0.08325">
        <ele>82</ele>
        <time>2013-04-21T12:49:32.000Z</time>
      </trkpt>
      <trkpt lat="47.54077" lon="-0.08328">
        <ele>82</ele>
        <time>2013-04-21T12:49:33.000Z</time>
      </trkpt>
      <trkpt lat="47.54076" lon="-0.08334">
        <ele>82</ele>
        <time>2013-04-21T12:49:36.000Z</time>
      </trkpt>
      <trkpt lat="47.54075" lon="-0.08335">
        <ele>82</ele>
        <time>2013-04-21T12:49:37.000Z</time>
      </trkpt>
      <trkpt lat="47.54074" lon="-0.08341">
        <ele>82</ele>
        <time>2013-04-21T12:49:40.000Z</time>
      </trkpt>
      <trkpt lat="47.54074" lon="-0.08344">
        <ele>82</ele>
        <time>2013-04-21T12:49:41.000Z</time>
      </trkpt>
      <trkpt lat="47.54073" lon="-0.08349">
        <ele>82</ele>
        <time>2013-04-21T12:49:44.000Z</time>
      </trkpt>
      <trkpt lat="47.54073" lon="-0.08351">
        <ele>82</ele>
        <time>2013-04-21T12:49:45.000Z</time>
      </trkpt>
      <trkpt lat="47.54072" lon="-0.08357">
        <ele>82</ele>
        <time>2013-04-21T12:49:48.000Z</time>
      </trkpt>
      <trkpt lat="47.54071" lon="-0.08359">
        <ele>82</ele>
        <time>2013-04-21T12:49:49.000Z</time>
      </trkpt>
      <trkpt lat="47.5407" lon="-0.08365">
        <ele>81</ele>
        <time>2013-04-21T12:49:53.000Z</time>
      </trkpt>
      <trkpt lat="47.5407" lon="-0.08367">
        <ele>81</ele>
        <time>2013-04-21T12:49:54.000Z</time>
      </trkpt>
      <trkpt lat="47.54068" lon="-0.08372">
        <ele>81</ele>
        <time>2013-04-21T12:49:58.000Z</time>
      </trkpt>
      <trkpt lat="47.54067" lon="-0.08374">
        <ele>81</ele>
        <time>2013-04-21T12:49:59.000Z</time>
      </trkpt>
      <trkpt lat="47.54065" lon="-0.08379">
        <ele>81</ele>
        <time>2013-04-21T12:50:03.000Z</time>
      </trkpt>
      <trkpt lat="47.54064" lon="-0.0838">
        <ele>81</ele>
        <time>2013-04-21T12:50:04.000Z</time>
      </trkpt>
      <trkpt lat="47.54061" lon="-0.08385">
        <ele>81</ele>
        <time>2013-04-21T12:50:08.000Z</time>
      </trkpt>
      <trkpt lat="47.5406" lon="-0.08385">
        <ele>81</ele>
        <time>2013-04-21T12:50:09.000Z</time>
      </trkpt>
      <trkpt lat="47.54058" lon="-0.08389">
        <ele>81</ele>
        <time>2013-04-21T12:50:13.000Z</time>
      </trkpt>
      <trkpt lat="47.54058" lon="-0.08391">
        <ele>81</ele>
        <time>2013-04-21T12:50:14.000Z</time>
      </trkpt>
      <trkpt lat="47.54053" lon="-0.08391">
        <ele>81</ele>
        <time>2013-04-21T12:50:18.000Z</time>
      </trkpt>
      <trkpt lat="47.54052" lon="-0.08391">
        <ele>81</ele>
        <time>2013-04-21T12:50:19.000Z</time>
      </trkpt>
      <trkpt lat="47.54049" lon="-0.08391">
        <ele>81</ele>
        <time>2013-04-21T12:50:24.000Z</time>
      </trkpt>
      <trkpt lat="47.54048" lon="-0.08391">
        <ele>81</ele>
        <time>2013-04-21T12:50:25.000Z</time>
      </trkpt>
      <trkpt lat="47.54044" lon="-0.08393">
        <ele>81</ele>
        <time>2013-04-21T12:50:29.000Z</time>
      </trkpt>
      <trkpt lat="47.54043" lon="-0.08396">
        <ele>81</ele>
        <time>2013-04-21T12:50:30.000Z</time>
      </trkpt>
      <trkpt lat="47.54041" lon="-0.08401">
        <ele>81</ele>
        <time>2013-04-21T12:50:32.000Z</time>
      </trkpt>
      <trkpt lat="47.5404" lon="-0.08403">
        <ele>81</ele>
        <time>2013-04-21T12:50:33.000Z</time>
      </trkpt>
      <trkpt lat="47.54039" lon="-0.08408">
        <ele>81</ele>
        <time>2013-04-21T12:50:35.000Z</time>
      </trkpt>
      <trkpt lat="47.54038" lon="-0.08411">
        <ele>81</ele>
        <time>2013-04-21T12:50:36.000Z</time>
      </trkpt>
      <trkpt lat="47.54039" lon="-0.08417">
        <ele>81</ele>
        <time>2013-04-21T12:50:39.000Z</time>
      </trkpt>
      <trkpt lat="47.54039" lon="-0.08418">
        <ele>80</ele>
        <time>2013-04-21T12:50:40.000Z</time>
      </trkpt>
      <trkpt lat="47.54039" lon="-0.08422">
        <ele>80</ele>
        <time>2013-04-21T12:50:42.000Z</time>
      </trkpt>
      <trkpt lat="47.54038" lon="-0.08425">
        <ele>80</ele>
        <time>2013-04-21T12:50:43.000Z</time>
      </trkpt>
      <trkpt lat="47.54035" lon="-0.08429">
        <ele>80</ele>
        <time>2013-04-21T12:50:46.000Z</time>
      </trkpt>
      <trkpt lat="47.54035" lon="-0.08432">
        <ele>80</ele>
        <time>2013-04-21T12:50:47.000Z</time>
      </trkpt>
      <trkpt lat="47.54033" lon="-0.08434">
        <ele>80</ele>
        <time>2013-04-21T12:50:50.000Z</time>
      </trkpt>
      <trkpt lat="47.54031" lon="-0.08436">
        <ele>80</ele>
        <time>2013-04-21T12:50:51.000Z</time>
      </trkpt>
      <trkpt lat="47.54028" lon="-0.0844">
        <ele>80</ele>
        <time>2013-04-21T12:50:55.000Z</time>
      </trkpt>
      <trkpt lat="47.54027" lon="-0.08441">
        <ele>80</ele>
        <time>2013-04-21T12:50:56.000Z</time>
      </trkpt>
      <trkpt lat="47.54023" lon="-0.08443">
        <ele>80</ele>
        <time>2013-04-21T12:51:06.000Z</time>
      </trkpt>
      <trkpt lat="47.54023" lon="-0.08445">
        <ele>80</ele>
        <time>2013-04-21T12:51:07.000Z</time>
      </trkpt>
      <trkpt lat="47.54021" lon="-0.08449">
        <ele>80</ele>
        <time>2013-04-21T12:51:11.000Z</time>
      </trkpt>
      <trkpt lat="47.5402" lon="-0.08451">
        <ele>80</ele>
        <time>2013-04-21T12:51:12.000Z</time>
      </trkpt>
      <trkpt lat="47.54017" lon="-0.08455">
        <ele>80</ele>
        <time>2013-04-21T12:51:14.000Z</time>
      </trkpt>
      <trkpt lat="47.54015" lon="-0.08456">
        <ele>80</ele>
        <time>2013-04-21T12:51:15.000Z</time>
      </trkpt>
      <trkpt lat="47.54011" lon="-0.08458">
        <ele>80</ele>
        <time>2013-04-21T12:51:18.000Z</time>
      </trkpt>
      <trkpt lat="47.5401" lon="-0.0846">
        <ele>80</ele>
        <time>2013-04-21T12:51:19.000Z</time>
      </trkpt>
      <trkpt lat="47.54006" lon="-0.08463">
        <ele>80</ele>
        <time>2013-04-21T12:51:25.000Z</time>
      </trkpt>
      <trkpt lat="47.54005" lon="-0.08463">
        <ele>80</ele>
        <time>2013-04-21T12:51:26.000Z</time>
      </trkpt>
      <trkpt lat="47.54004" lon="-0.0846">
        <ele>80</ele>
        <time>2013-04-21T12:51:27.000Z</time>
      </trkpt>
      <trkpt lat="47.54001" lon="-0.08458">
        <ele>80</ele>
        <time>2013-04-21T12:51:28.000Z</time>
      </trkpt>
      <trkpt lat="47.53998" lon="-0.08458">
        <ele>79</ele>
        <time>2013-04-21T12:51:30.000Z</time>
      </trkpt>
      <trkpt lat="47.53996" lon="-0.08457">
        <ele>79</ele>
        <time>2013-04-21T12:51:31.000Z</time>
      </trkpt>
      <trkpt lat="47.53991" lon="-0.08456">
        <ele>78</ele>
        <time>2013-04-21T12:51:34.000Z</time>
      </trkpt>
      <trkpt lat="47.53989" lon="-0.08457">
        <ele>78</ele>
        <time>2013-04-21T12:51:35.000Z</time>
      </trkpt>
      <trkpt lat="47.53988" lon="-0.08463">
        <ele>78</ele>
        <time>2013-04-21T12:51:37.000Z</time>
      </trkpt>
      <trkpt lat="47.53987" lon="-0.08465">
        <ele>79</ele>
        <time>2013-04-21T12:51:38.000Z</time>
      </trkpt>
      <trkpt lat="47.53984" lon="-0.08469">
        <ele>79</ele>
        <time>2013-04-21T12:51:44.000Z</time>
      </trkpt>
      <trkpt lat="47.53982" lon="-0.08469">
        <ele>78</ele>
        <time>2013-04-21T12:51:45.000Z</time>
      </trkpt>
      <trkpt lat="47.53981" lon="-0.08472">
        <ele>78</ele>
        <time>2013-04-21T12:51:47.000Z</time>
      </trkpt>
      <trkpt lat="47.53981" lon="-0.08476">
        <ele>79</ele>
        <time>2013-04-21T12:51:48.000Z</time>
      </trkpt>
      <trkpt lat="47.53979" lon="-0.08481">
        <ele>79</ele>
        <time>2013-04-21T12:51:51.000Z</time>
      </trkpt>
      <trkpt lat="47.53978" lon="-0.08482">
        <ele>79</ele>
        <time>2013-04-21T12:51:52.000Z</time>
      </trkpt>
      <trkpt lat="47.53975" lon="-0.08485">
        <ele>78</ele>
        <time>2013-04-21T12:51:57.000Z</time>
      </trkpt>
      <trkpt lat="47.53974" lon="-0.08485">
        <ele>78</ele>
        <time>2013-04-21T12:51:58.000Z</time>
      </trkpt>
      <trkpt lat="47.5397" lon="-0.08485">
        <ele>78</ele>
        <time>2013-04-21T12:52:02.000Z</time>
      </trkpt>
      <trkpt lat="47.53969" lon="-0.08485">
        <ele>78</ele>
        <time>2013-04-21T12:52:03.000Z</time>
      </trkpt>
      <trkpt lat="47.53966" lon="-0.08483">
        <ele>78</ele>
        <time>2013-04-21T12:52:13.000Z</time>
      </trkpt>
      <trkpt lat="47.53965" lon="-0.08482">
        <ele>78</ele>
        <time>2013-04-21T12:52:14.000Z</time>
      </trkpt>
      <trkpt lat="47.5396" lon="-0.08482">
        <ele>78</ele>
        <time>2013-04-21T12:52:18.000Z</time>
      </trkpt>
      <trkpt lat="47.53959" lon="-0.08481">
        <ele>78</ele>
        <time>2013-04-21T12:52:19.000Z</time>
      </trkpt>
      <trkpt lat="47.53956" lon="-0.08476">
        <ele>78</ele>
        <time>2013-04-21T12:52:26.000Z</time>
      </trkpt>
      <trkpt lat="47.53956" lon="-0.08476">
        <ele>78</ele>
        <time>2013-04-21T12:52:27.000Z</time>
      </trkpt>
      <trkpt lat="47.53954" lon="-0.08471">
        <ele>78</ele>
        <time>2013-04-21T12:52:35.000Z</time>
      </trkpt>
      <trkpt lat="47.53953" lon="-0.08469">
        <ele>78</ele>
        <time>2013-04-21T12:52:36.000Z</time>
      </trkpt>
      <trkpt lat="47.53951" lon="-0.08464">
        <ele>78</ele>
        <time>2013-04-21T12:52:41.000Z</time>
      </trkpt>
      <trkpt lat="47.5395" lon="-0.08463">
        <ele>78</ele>
        <time>2013-04-21T12:52:42.000Z</time>
      </trkpt>
      <trkpt lat="47.53949" lon="-0.08458">
        <ele>78</ele>
        <time>2013-04-21T12:52:46.000Z</time>
      </trkpt>
      <trkpt lat="47.53948" lon="-0.08455">
        <ele>78</ele>
        <time>2013-04-21T12:52:47.000Z</time>
      </trkpt>
      <trkpt lat="47.53947" lon="-0.0845">
        <ele>78</ele>
        <time>2013-04-21T12:52:49.000Z</time>
      </trkpt>
      <trkpt lat="47.53946" lon="-0.08449">
        <ele>78</ele>
        <time>2013-04-21T12:52:50.000Z</time>
      </trkpt>
      <trkpt lat="47.53945" lon="-0.08443">
        <ele>78</ele>
        <time>2013-04-21T12:52:53.000Z</time>
      </trkpt>
      <trkpt lat="47.53944" lon="-0.08442">
        <ele>78</ele>
        <time>2013-04-21T12:52:54.000Z</time>
      </trkpt>
      <trkpt lat="47.53942" lon="-0.08436">
        <ele>78</ele>
        <time>2013-04-21T12:52:58.000Z</time>
      </trkpt>
      <trkpt lat="47.53941" lon="-0.08435">
        <ele>78</ele>
        <time>2013-04-21T12:52:59.000Z</time>
      </trkpt>
      <trkpt lat="47.53939" lon="-0.0843">
        <ele>78</ele>
        <time>2013-04-21T12:53:02.000Z</time>
      </trkpt>
      <trkpt lat="47.53938" lon="-0.08429">
        <ele>78</ele>
        <time>2013-04-21T12:53:03.000Z</time>
      </trkpt>
      <trkpt lat="47.53936" lon="-0.08424">
        <ele>78</ele>
        <time>2013-04-21T12:53:06.000Z</time>
      </trkpt>
      <trkpt lat="47.53935" lon="-0.08423">
        <ele>78</ele>
        <time>2013-04-21T12:53:07.000Z</time>
      </trkpt>
      <trkpt lat="47.53932" lon="-0.0842">
        <ele>77</ele>
        <time>2013-04-21T12:53:11.000Z</time>
      </trkpt>
      <trkpt lat="47.53931" lon="-0.08419">
        <ele>77</ele>
        <time>2013-04-21T12:53:12.000Z</time>
      </trkpt>
      <trkpt lat="47.53928" lon="-0.08415">
        <ele>78</ele>
        <time>2013-04-21T12:53:15.000Z</time>
      </trkpt>
      <trkpt lat="47.53927" lon="-0.08413">
        <ele>77</ele>
        <time>2013-04-21T12:53:16.000Z</time>
      </trkpt>
      <trkpt lat="47.53924" lon="-0.08409">
        <ele>77</ele>
        <time>2013-04-21T12:53:19.000Z</time>
      </trkpt>
      <trkpt lat="47.53923" lon="-0.08407">
        <ele>78</ele>
        <time>2013-04-21T12:53:20.000Z</time>
      </trkpt>
      <trkpt lat="47.53922" lon="-0.08403">
        <ele>78</ele>
        <time>2013-04-21T12:53:23.000Z</time>
      </trkpt>
      <trkpt lat="47.53921" lon="-0.08401">
        <ele>78</ele>
        <time>2013-04-21T12:53:24.000Z</time>
      </trkpt>
      <trkpt lat="47.53919" lon="-0.08397">
        <ele>78</ele>
        <time>2013-04-21T12:53:29.000Z</time>
      </trkpt>
      <trkpt lat="47.53918" lon="-0.08395">
        <ele>78</ele>
        <time>2013-04-21T12:53:30.000Z</time>
      </trkpt>
      <trkpt lat="47.53916" lon="-0.08391">
        <ele>77</ele>
        <time>2013-04-21T12:53:34.000Z</time>
      </trkpt>
      <trkpt lat="47.53916" lon="-0.08389">
        <ele>77</ele>
        <time>2013-04-21T12:53:35.000Z</time>
      </trkpt>
      <trkpt lat="47.53915" lon="-0.08383">
        <ele>78</ele>
        <time>2013-04-21T12:53:40.000Z</time>
      </trkpt>
      <trkpt lat="47.53915" lon="-0.08382">
        <ele>78</ele>
        <time>2013-04-21T12:53:41.000Z</time>
      </trkpt>
      <trkpt lat="47.53913" lon="-0.08378">
        <ele>78</ele>
        <time>2013-04-21T12:53:45.000Z</time>
      </trkpt>
      <trkpt lat="47.53913" lon="-0.08376">
        <ele>78</ele>
        <time>2013-04-21T12:53:46.000Z</time>
      </trkpt>
      <trkpt lat="47.53911" lon="-0.0837">
        <ele>78</ele>
        <time>2013-04-21T12:53:50.000Z</time>
      </trkpt>
      <trkpt lat="47.53911" lon="-0.08368">
        <ele>78</ele>
        <time>2013-04-21T12:53:51.000Z</time>
      </trkpt>
      <trkpt lat="47.53908" lon="-0.08363">
        <ele>78</ele>
        <time>2013-04-21T12:53:54.000Z</time>
      </trkpt>
      <trkpt lat="47.53907" lon="-0.08361">
        <ele>78</ele>
        <time>2013-04-21T12:53:55.000Z</time>
      </trkpt>
      <trkpt lat="47.53904" lon="-0.08358">
        <ele>78</ele>
        <time>2013-04-21T12:54:00.000Z</time>
      </trkpt>
      <trkpt lat="47.53904" lon="-0.08356">
        <ele>78</ele>
        <time>2013-04-21T12:54:01.000Z</time>
      </trkpt>
      <trkpt lat="47.53901" lon="-0.08352">
        <ele>78</ele>
        <time>2013-04-21T12:54:05.000Z</time>
      </trkpt>
      <trkpt lat="47.53901" lon="-0.08351">
        <ele>78</ele>
        <time>2013-04-21T12:54:06.000Z</time>
      </trkpt>
      <trkpt lat="47.53899" lon="-0.08347">
        <ele>78</ele>
        <time>2013-04-21T12:54:09.000Z</time>
      </trkpt>
      <trkpt lat="47.53898" lon="-0.08345">
        <ele>78</ele>
        <time>2013-04-21T12:54:10.000Z</time>
      </trkpt>
      <trkpt lat="47.53898" lon="-0.08339">
        <ele>78</ele>
        <time>2013-04-21T12:54:12.000Z</time>
      </trkpt>
      <trkpt lat="47.53897" lon="-0.08337">
        <ele>78</ele>
        <time>2013-04-21T12:54:13.000Z</time>
      </trkpt>
      <trkpt lat="47.53895" lon="-0.08332">
        <ele>79</ele>
        <time>2013-04-21T12:54:16.000Z</time>
      </trkpt>
      <trkpt lat="47.53894" lon="-0.08331">
        <ele>79</ele>
        <time>2013-04-21T12:54:17.000Z</time>
      </trkpt>
      <trkpt lat="47.53893" lon="-0.08325">
        <ele>79</ele>
        <time>2013-04-21T12:54:20.000Z</time>
      </trkpt>
      <trkpt lat="47.53892" lon="-0.08324">
        <ele>79</ele>
        <time>2013-04-21T12:54:21.000Z</time>
      </trkpt>
      <trkpt lat="47.5389" lon="-0.08318">
        <ele>79</ele>
        <time>2013-04-21T12:54:23.000Z</time>
      </trkpt>
      <trkpt lat="47.53889" lon="-0.08316">
        <ele>79</ele>
        <time>2013-04-21T12:54:24.000Z</time>
      </trkpt>
      <trkpt lat="47.53887" lon="-0.08311">
        <ele>79</ele>
        <time>2013-04-21T12:54:27.000Z</time>
      </trkpt>
      <trkpt lat="47.53887" lon="-0.08309">
        <ele>79</ele>
        <time>2013-04-21T12:54:28.000Z</time>
      </trkpt>
      <trkpt lat="47.53886" lon="-0.08303">
        <ele>79</ele>
        <time>2013-04-21T12:54:32.000Z</time>
      </trkpt>
      <trkpt lat="47.53886" lon="-0.08302">
        <ele>79</ele>
        <time>2013-04-21T12:54:33.000Z</time>
      </trkpt>
      <trkpt lat="47.53885" lon="-0.08297">
        <ele>79</ele>
        <time>2013-04-21T12:54:37.000Z</time>
      </trkpt>
      <trkpt lat="47.53884" lon="-0.08295">
        <ele>79</ele>
        <time>2013-04-21T12:54:38.000Z</time>
      </trkpt>
      <trkpt lat="47.53882" lon="-0.08289">
        <ele>79</ele>
        <time>2013-04-21T12:54:41.000Z</time>
      </trkpt>
      <trkpt lat="47.53881" lon="-0.08287">
        <ele>79</ele>
        <time>2013-04-21T12:54:42.000Z</time>
      </trkpt>
      <trkpt lat="47.5388" lon="-0.08282">
        <ele>79</ele>
        <time>2013-04-21T12:54:45.000Z</time>
      </trkpt>
      <trkpt lat="47.53879" lon="-0.08281">
        <ele>79</ele>
        <time>2013-04-21T12:54:46.000Z</time>
      </trkpt>
      <trkpt lat="47.53877" lon="-0.08275">
        <ele>79</ele>
        <time>2013-04-21T12:54:50.000Z</time>
      </trkpt>
      <trkpt lat="47.53877" lon="-0.08273">
        <ele>79</ele>
        <time>2013-04-21T12:54:51.000Z</time>
      </trkpt>
      <trkpt lat="47.53874" lon="-0.08269">
        <ele>79</ele>
        <time>2013-04-21T12:54:54.000Z</time>
      </trkpt>
      <trkpt lat="47.53873" lon="-0.08267">
        <ele>79</ele>
        <time>2013-04-21T12:54:55.000Z</time>
      </trkpt>
      <trkpt lat="47.53871" lon="-0.08264">
        <ele>79</ele>
        <time>2013-04-21T12:54:57.000Z</time>
      </trkpt>
      <trkpt lat="47.5387" lon="-0.08262">
        <ele>79</ele>
        <time>2013-04-21T12:54:58.000Z</time>
      </trkpt>
      <trkpt lat="47.53867" lon="-0.08258">
        <ele>80</ele>
        <time>2013-04-21T12:55:02.000Z</time>
      </trkpt>
      <trkpt lat="47.53867" lon="-0.08256">
        <ele>80</ele>
        <time>2013-04-21T12:55:03.000Z</time>
      </trkpt>
      <trkpt lat="47.53867" lon="-0.0825">
        <ele>80</ele>
        <time>2013-04-21T12:55:48.000Z</time>
      </trkpt>
      <trkpt lat="47.53867" lon="-0.08249">
        <ele>80</ele>
        <time>2013-04-21T12:55:49.000Z</time>
      </trkpt>
      <trkpt lat="47.53865" lon="-0.08243">
        <ele>80</ele>
        <time>2013-04-21T12:55:56.000Z</time>
      </trkpt>
      <trkpt lat="47.53865" lon="-0.08243">
        <ele>80</ele>
        <time>2013-04-21T12:55:57.000Z</time>
      </trkpt>
      <trkpt lat="47.53861" lon="-0.0824">
        <ele>80</ele>
        <time>2013-04-21T12:56:35.000Z</time>
      </trkpt>
      <trkpt lat="47.53861" lon="-0.0824">
        <ele>80</ele>
        <time>2013-04-21T12:56:36.000Z</time>
      </trkpt>
      <trkpt lat="47.53862" lon="-0.08234">
        <ele>80</ele>
        <time>2013-04-21T12:56:56.000Z</time>
      </trkpt>
      <trkpt lat="47.53862" lon="-0.0823">
        <ele>80</ele>
        <time>2013-04-21T12:56:57.000Z</time>
      </trkpt>
      <trkpt lat="47.53862" lon="-0.08225">
        <ele>80</ele>
        <time>2013-04-21T12:56:59.000Z</time>
      </trkpt>
      <trkpt lat="47.53862" lon="-0.08223">
        <ele>80</ele>
        <time>2013-04-21T12:57:00.000Z</time>
      </trkpt>
      <trkpt lat="47.53859" lon="-0.08218">
        <ele>79</ele>
        <time>2013-04-21T12:57:06.000Z</time>
      </trkpt>
      <trkpt lat="47.53859" lon="-0.08217">
        <ele>79</ele>
        <time>2013-04-21T12:57:07.000Z</time>
      </trkpt>
      <trkpt lat="47.53859" lon="-0.08212">
        <ele>79</ele>
        <time>2013-04-21T12:57:17.000Z</time>
      </trkpt>
      <trkpt lat="47.53858" lon="-0.0821">
        <ele>79</ele>
        <time>2013-04-21T12:57:18.000Z</time>
      </trkpt>
      <trkpt lat="47.53858" lon="-0.08207">
        <ele>79</ele>
        <time>2013-04-21T12:57:20.000Z</time>
      </trkpt>
      <trkpt lat="47.53858" lon="-0.08204">
        <ele>79</ele>
        <time>2013-04-21T12:57:21.000Z</time>
      </trkpt>
      <trkpt lat="47.53858" lon="-0.08198">
        <ele>79</ele>
        <time>2013-04-21T12:57:24.000Z</time>
      </trkpt>
      <trkpt lat="47.53857" lon="-0.08197">
        <ele>79</ele>
        <time>2013-04-21T12:57:25.000Z</time>
      </trkpt>
      <trkpt lat="47.53857" lon="-0.0819">
        <ele>79</ele>
        <time>2013-04-21T12:57:30.000Z</time>
      </trkpt>
      <trkpt lat="47.53856" lon="-0.08189">
        <ele>79</ele>
        <time>2013-04-21T12:57:31.000Z</time>
      </trkpt>
      <trkpt lat="47.53855" lon="-0.08184">
        <ele>79</ele>
        <time>2013-04-21T12:57:33.000Z</time>
      </trkpt>
      <trkpt lat="47.53855" lon="-0.08183">
        <ele>79</ele>
        <time>2013-04-21T12:57:34.000Z</time>
      </trkpt>
      <trkpt lat="47.53853" lon="-0.08177">
        <ele>79</ele>
        <time>2013-04-21T12:57:39.000Z</time>
      </trkpt>
      <trkpt lat="47.53852" lon="-0.08176">
        <ele>79</ele>
        <time>2013-04-21T12:57:40.000Z</time>
      </trkpt>
      <trkpt lat="47.5385" lon="-0.08172">
        <ele>79</ele>
        <time>2013-04-21T12:57:43.000Z</time>
      </trkpt>
      <trkpt lat="47.53849" lon="-0.0817">
        <ele>79</ele>
        <time>2013-04-21T12:57:44.000Z</time>
      </trkpt>
      <trkpt lat="47.53846" lon="-0.08165">
        <ele>78</ele>
        <time>2013-04-21T12:57:50.000Z</time>
      </trkpt>
      <trkpt lat="47.53845" lon="-0.08164">
        <ele>78</ele>
        <time>2013-04-21T12:57:51.000Z</time>
      </trkpt>
      <trkpt lat="47.53845" lon="-0.08164">
        <ele>78</ele>
        <time>2013-04-21T12:57:52.000Z</time>
      </trkpt>
      <trkpt lat="47.53844" lon="-0.08157">
        <ele>78</ele>
        <time>2013-04-21T12:57:53.000Z</time>
      </trkpt>
      <trkpt lat="47.53843" lon="-0.08154">
        <ele>79</ele>
        <time>2013-04-21T12:57:54.000Z</time>
      </trkpt>
      <trkpt lat="47.53842" lon="-0.08151">
        <ele>79</ele>
        <time>2013-04-21T12:57:55.000Z</time>
      </trkpt>
      <trkpt lat="47.53841" lon="-0.08148">
        <ele>79</ele>
        <time>2013-04-21T12:57:57.000Z</time>
      </trkpt>
      <trkpt lat="47.53839" lon="-0.08144">
        <ele>79</ele>
        <time>2013-04-21T12:57:58.000Z</time>
      </trkpt>
      <trkpt lat="47.53837" lon="-0.0814">
        <ele>79</ele>
        <time>2013-04-21T12:58:04.000Z</time>
      </trkpt>
      <trkpt lat="47.53836" lon="-0.08138">
        <ele>79</ele>
        <time>2013-04-21T12:58:05.000Z</time>
      </trkpt>
      <trkpt lat="47.53835" lon="-0.08132">
        <ele>79</ele>
        <time>2013-04-21T12:58:10.000Z</time>
      </trkpt>
      <trkpt lat="47.53834" lon="-0.0813">
        <ele>79</ele>
        <time>2013-04-21T12:58:11.000Z</time>
      </trkpt>
      <trkpt lat="47.53832" lon="-0.08124">
        <ele>78</ele>
        <time>2013-04-21T12:58:15.000Z</time>
      </trkpt>
      <trkpt lat="47.53832" lon="-0.08123">
        <ele>78</ele>
        <time>2013-04-21T12:58:16.000Z</time>
      </trkpt>
      <trkpt lat="47.53831" lon="-0.08117">
        <ele>78</ele>
        <time>2013-04-21T12:58:21.000Z</time>
      </trkpt>
      <trkpt lat="47.5383" lon="-0.08115">
        <ele>78</ele>
        <time>2013-04-21T12:58:22.000Z</time>
      </trkpt>
      <trkpt lat="47.53827" lon="-0.08112">
        <ele>78</ele>
        <time>2013-04-21T12:58:24.000Z</time>
      </trkpt>
      <trkpt lat="47.53826" lon="-0.08111">
        <ele>78</ele>
        <time>2013-04-21T12:58:25.000Z</time>
      </trkpt>
      <trkpt lat="47.53824" lon="-0.08107">
        <ele>78</ele>
        <time>2013-04-21T12:58:31.000Z</time>
      </trkpt>
      <trkpt lat="47.53824" lon="-0.08105">
        <ele>78</ele>
        <time>2013-04-21T12:58:32.000Z</time>
      </trkpt>
      <trkpt lat="47.53822" lon="-0.08101">
        <ele>78</ele>
        <time>2013-04-21T12:58:34.000Z</time>
      </trkpt>
      <trkpt lat="47.53821" lon="-0.08098">
        <ele>78</ele>
        <time>2013-04-21T12:58:35.000Z</time>
      </trkpt>
      <trkpt lat="47.53817" lon="-0.08095">
        <ele>78</ele>
        <time>2013-04-21T12:58:38.000Z</time>
      </trkpt>
      <trkpt lat="47.53816" lon="-0.08094">
        <ele>78</ele>
        <time>2013-04-21T12:58:39.000Z</time>
      </trkpt>
      <trkpt lat="47.53813" lon="-0.0809">
        <ele>78</ele>
        <time>2013-04-21T12:58:43.000Z</time>
      </trkpt>
      <trkpt lat="47.53812" lon="-0.08088">
        <ele>78</ele>
        <time>2013-04-21T12:58:44.000Z</time>
      </trkpt>
      <trkpt lat="47.5381" lon="-0.08083">
        <ele>79</ele>
        <time>2013-04-21T12:58:49.000Z</time>
      </trkpt>
      <trkpt lat="47.53809" lon="-0.0808">
        <ele>79</ele>
        <time>2013-04-21T12:58:50.000Z</time>
      </trkpt>
      <trkpt lat="47.53807" lon="-0.08074">
        <ele>79</ele>
        <time>2013-04-21T12:58:54.000Z</time>
      </trkpt>
      <trkpt lat="47.53805" lon="-0.08072">
        <ele>79</ele>
        <time>2013-04-21T12:58:55.000Z</time>
      </trkpt>
      <trkpt lat="47.53802" lon="-0.08069">
        <ele>79</ele>
        <time>2013-04-21T12:58:58.000Z</time>
      </trkpt>
      <trkpt lat="47.53802" lon="-0.08068">
        <ele>79</ele>
        <time>2013-04-21T12:58:59.000Z</time>
      </trkpt>
      <trkpt lat="47.538" lon="-0.08063">
        <ele>79</ele>
        <time>2013-04-21T12:59:04.000Z</time>
      </trkpt>
      <trkpt lat="47.53799" lon="-0.08061">
        <ele>79</ele>
        <time>2013-04-21T12:59:05.000Z</time>
      </trkpt>
      <trkpt lat="47.53796" lon="-0.08057">
        <ele>79</ele>
        <time>2013-04-21T12:59:09.000Z</time>
      </trkpt>
      <trkpt lat="47.53795" lon="-0.08055">
        <ele>79</ele>
        <time>2013-04-21T12:59:10.000Z</time>
      </trkpt>
      <trkpt lat="47.53792" lon="-0.08054">
        <ele>79</ele>
        <time>2013-04-21T12:59:13.000Z</time>
      </trkpt>
      <trkpt lat="47.53791" lon="-0.08053">
        <ele>79</ele>
        <time>2013-04-21T12:59:14.000Z</time>
      </trkpt>
      <trkpt lat="47.53787" lon="-0.08049">
        <ele>79</ele>
        <time>2013-04-21T12:59:18.000Z</time>
      </trkpt>
      <trkpt lat="47.53787" lon="-0.08048">
        <ele>79</ele>
        <time>2013-04-21T12:59:19.000Z</time>
      </trkpt>
      <trkpt lat="47.53788" lon="-0.08043">
        <ele>79</ele>
        <time>2013-04-21T12:59:23.000Z</time>
      </trkpt>
      <trkpt lat="47.53788" lon="-0.08042">
        <ele>79</ele>
        <time>2013-04-21T12:59:24.000Z</time>
      </trkpt>
      <trkpt lat="47.53787" lon="-0.08037">
        <ele>79</ele>
        <time>2013-04-21T12:59:27.000Z</time>
      </trkpt>
      <trkpt lat="47.53786" lon="-0.08035">
        <ele>79</ele>
        <time>2013-04-21T12:59:28.000Z</time>
      </trkpt>
      <trkpt lat="47.53785" lon="-0.08029">
        <ele>79</ele>
        <time>2013-04-21T12:59:32.000Z</time>
      </trkpt>
      <trkpt lat="47.53784" lon="-0.08029">
        <ele>79</ele>
        <time>2013-04-21T12:59:33.000Z</time>
      </trkpt>
      <trkpt lat="47.53781" lon="-0.08024">
        <ele>79</ele>
        <time>2013-04-21T12:59:40.000Z</time>
      </trkpt>
      <trkpt lat="47.5378" lon="-0.08023">
        <ele>79</ele>
        <time>2013-04-21T12:59:41.000Z</time>
      </trkpt>
      <trkpt lat="47.53779" lon="-0.08017">
        <ele>79</ele>
        <time>2013-04-21T12:59:45.000Z</time>
      </trkpt>
      <trkpt lat="47.53779" lon="-0.08016">
        <ele>79</ele>
        <time>2013-04-21T12:59:46.000Z</time>
      </trkpt>
      <trkpt lat="47.53775" lon="-0.08014">
        <ele>79</ele>
        <time>2013-04-21T12:59:51.000Z</time>
      </trkpt>
      <trkpt lat="47.53774" lon="-0.08014">
        <ele>79</ele>
        <time>2013-04-21T12:59:52.000Z</time>
      </trkpt>
      <trkpt lat="47.53772" lon="-0.08017">
        <ele>79</ele>
        <time>2013-04-21T12:59:57.000Z</time>
      </trkpt>
      <trkpt lat="47.5377" lon="-0.08016">
        <ele>79</ele>
        <time>2013-04-21T12:59:58.000Z</time>
      </trkpt>
      <trkpt lat="47.53766" lon="-0.08015">
        <ele>79</ele>
        <time>2013-04-21T13:00:00.000Z</time>
      </trkpt>
      <trkpt lat="47.53765" lon="-0.08015">
        <ele>79</ele>
        <time>2013-04-21T13:00:01.000Z</time>
      </trkpt>
      <trkpt lat="47.5376" lon="-0.08014">
        <ele>79</ele>
        <time>2013-04-21T13:00:04.000Z</time>
      </trkpt>
      <trkpt lat="47.53758" lon="-0.08013">
        <ele>79</ele>
        <time>2013-04-21T13:00:05.000Z</time>
      </trkpt>
      <trkpt lat="47.53755" lon="-0.0801">
        <ele>79</ele>
        <time>2013-04-21T13:00:19.000Z</time>
      </trkpt>
      <trkpt lat="47.53754" lon="-0.0801">
        <ele>79</ele>
        <time>2013-04-21T13:00:20.000Z</time>
      </trkpt>
      <trkpt lat="47.5375" lon="-0.08012">
        <ele>79</ele>
        <time>2013-04-21T13:00:23.000Z</time>
      </trkpt>
      <trkpt lat="47.53748" lon="-0.08012">
        <ele>79</ele>
        <time>2013-04-21T13:00:24.000Z</time>
      </trkpt>
      <trkpt lat="47.53744" lon="-0.08013">
        <ele>79</ele>
        <time>2013-04-21T13:00:32.000Z</time>
      </trkpt>
      <trkpt lat="47.53743" lon="-0.08013">
        <ele>79</ele>
        <time>2013-04-21T13:00:33.000Z</time>
      </trkpt>
      <trkpt lat="47.53739" lon="-0.08015">
        <ele>79</ele>
        <time>2013-04-21T13:00:41.000Z</time>
      </trkpt>
      <trkpt lat="47.53738" lon="-0.08014">
        <ele>79</ele>
        <time>2013-04-21T13:00:42.000Z</time>
      </trkpt>
      <trkpt lat="47.53733" lon="-0.08013">
        <ele>79</ele>
        <time>2013-04-21T13:00:45.000Z</time>
      </trkpt>
      <trkpt lat="47.53732" lon="-0.08013">
        <ele>79</ele>
        <time>2013-04-21T13:00:46.000Z</time>
      </trkpt>
      <trkpt lat="47.53728" lon="-0.08016">
        <ele>79</ele>
        <time>2013-04-21T13:00:50.000Z</time>
      </trkpt>
      <trkpt lat="47.53728" lon="-0.08017">
        <ele>79</ele>
        <time>2013-04-21T13:00:51.000Z</time>
      </trkpt>
      <trkpt lat="47.53724" lon="-0.0802">
        <ele>79</ele>
        <time>2013-04-21T13:00:55.000Z</time>
      </trkpt>
      <trkpt lat="47.53723" lon="-0.08021">
        <ele>79</ele>
        <time>2013-04-21T13:00:56.000Z</time>
      </trkpt>
      <trkpt lat="47.53719" lon="-0.08024">
        <ele>79</ele>
        <time>2013-04-21T13:01:00.000Z</time>
      </trkpt>
      <trkpt lat="47.53718" lon="-0.08025">
        <ele>79</ele>
        <time>2013-04-21T13:01:01.000Z</time>
      </trkpt>
      <trkpt lat="47.53715" lon="-0.08028">
        <ele>78</ele>
        <time>2013-04-21T13:01:06.000Z</time>
      </trkpt>
      <trkpt lat="47.53715" lon="-0.0803">
        <ele>78</ele>
        <time>2013-04-21T13:01:07.000Z</time>
      </trkpt>
      <trkpt lat="47.53712" lon="-0.08034">
        <ele>78</ele>
        <time>2013-04-21T13:01:11.000Z</time>
      </trkpt>
      <trkpt lat="47.53711" lon="-0.08036">
        <ele>78</ele>
        <time>2013-04-21T13:01:12.000Z</time>
      </trkpt>
      <trkpt lat="47.53707" lon="-0.08037">
        <ele>78</ele>
        <time>2013-04-21T13:01:15.000Z</time>
      </trkpt>
      <trkpt lat="47.53706" lon="-0.08037">
        <ele>78</ele>
        <time>2013-04-21T13:01:16.000Z</time>
      </trkpt>
      <trkpt lat="47.53703" lon="-0.08039">
        <ele>78</ele>
        <time>2013-04-21T13:01:18.000Z</time>
      </trkpt>
      <trkpt lat="47.53701" lon="-0.0804">
        <ele>78</ele>
        <time>2013-04-21T13:01:19.000Z</time>
      </trkpt>
      <trkpt lat="47.53697" lon="-0.08042">
        <ele>78</ele>
        <time>2013-04-21T13:01:25.000Z</time>
      </trkpt>
      <trkpt lat="47.53697" lon="-0.08042">
        <ele>78</ele>
        <time>2013-04-21T13:01:26.000Z</time>
      </trkpt>
      <trkpt lat="47.53693" lon="-0.08044">
        <ele>78</ele>
        <time>2013-04-21T13:01:29.000Z</time>
      </trkpt>
      <trkpt lat="47.53692" lon="-0.08043">
        <ele>78</ele>
        <time>2013-04-21T13:01:30.000Z</time>
      </trkpt>
      <trkpt lat="47.53689" lon="-0.08045">
        <ele>78</ele>
        <time>2013-04-21T13:01:33.000Z</time>
      </trkpt>
      <trkpt lat="47.53687" lon="-0.08046">
        <ele>78</ele>
        <time>2013-04-21T13:01:34.000Z</time>
      </trkpt>
      <trkpt lat="47.53683" lon="-0.08047">
        <ele>78</ele>
        <time>2013-04-21T13:01:37.000Z</time>
      </trkpt>
      <trkpt lat="47.53682" lon="-0.08048">
        <ele>78</ele>
        <time>2013-04-21T13:01:38.000Z</time>
      </trkpt>
      <trkpt lat="47.53678" lon="-0.08048">
        <ele>78</ele>
        <time>2013-04-21T13:01:41.000Z</time>
      </trkpt>
      <trkpt lat="47.53677" lon="-0.08049">
        <ele>78</ele>
        <time>2013-04-21T13:01:42.000Z</time>
      </trkpt>
      <trkpt lat="47.53673" lon="-0.08051">
        <ele>78</ele>
        <time>2013-04-21T13:01:46.000Z</time>
      </trkpt>
      <trkpt lat="47.53673" lon="-0.08053">
        <ele>78</ele>
        <time>2013-04-21T13:01:47.000Z</time>
      </trkpt>
      <trkpt lat="47.53669" lon="-0.08054">
        <ele>78</ele>
        <time>2013-04-21T13:01:50.000Z</time>
      </trkpt>
      <trkpt lat="47.53668" lon="-0.08054">
        <ele>79</ele>
        <time>2013-04-21T13:01:51.000Z</time>
      </trkpt>
      <trkpt lat="47.53665" lon="-0.08057">
        <ele>78</ele>
        <time>2013-04-21T13:01:54.000Z</time>
      </trkpt>
      <trkpt lat="47.53663" lon="-0.08058">
        <ele>78</ele>
        <time>2013-04-21T13:01:55.000Z</time>
      </trkpt>
      <trkpt lat="47.5366" lon="-0.08061">
        <ele>78</ele>
        <time>2013-04-21T13:01:58.000Z</time>
      </trkpt>
      <trkpt lat="47.53658" lon="-0.08061">
        <ele>78</ele>
        <time>2013-04-21T13:01:59.000Z</time>
      </trkpt>
      <trkpt lat="47.53655" lon="-0.08059">
        <ele>78</ele>
        <time>2013-04-21T13:02:01.000Z</time>
      </trkpt>
      <trkpt lat="47.53654" lon="-0.08059">
        <ele>78</ele>
        <time>2013-04-21T13:02:02.000Z</time>
      </trkpt>
      <trkpt lat="47.5365" lon="-0.0806">
        <ele>78</ele>
        <time>2013-04-21T13:02:05.000Z</time>
      </trkpt>
      <trkpt lat="47.53649" lon="-0.0806">
        <ele>78</ele>
        <time>2013-04-21T13:02:06.000Z</time>
      </trkpt>
      <trkpt lat="47.53645" lon="-0.08061">
        <ele>78</ele>
        <time>2013-04-21T13:02:10.000Z</time>
      </trkpt>
      <trkpt lat="47.53644" lon="-0.08061">
        <ele>78</ele>
        <time>2013-04-21T13:02:11.000Z</time>
      </trkpt>
      <trkpt lat="47.53639" lon="-0.08063">
        <ele>78</ele>
        <time>2013-04-21T13:02:15.000Z</time>
      </trkpt>
      <trkpt lat="47.53639" lon="-0.08064">
        <ele>78</ele>
        <time>2013-04-21T13:02:16.000Z</time>
      </trkpt>
      <trkpt lat="47.53636" lon="-0.08067">
        <ele>78</ele>
        <time>2013-04-21T13:02:19.000Z</time>
      </trkpt>
      <trkpt lat="47.53635" lon="-0.08068">
        <ele>78</ele>
        <time>2013-04-21T13:02:20.000Z</time>
      </trkpt>
      <trkpt lat="47.53631" lon="-0.08068">
        <ele>78</ele>
        <time>2013-04-21T13:02:23.000Z</time>
      </trkpt>
      <trkpt lat="47.5363" lon="-0.08068">
        <ele>78</ele>
        <time>2013-04-21T13:02:24.000Z</time>
      </trkpt>
      <trkpt lat="47.53626" lon="-0.08071">
        <ele>78</ele>
        <time>2013-04-21T13:02:27.000Z</time>
      </trkpt>
      <trkpt lat="47.53625" lon="-0.08072">
        <ele>78</ele>
        <time>2013-04-21T13:02:28.000Z</time>
      </trkpt>
      <trkpt lat="47.53621" lon="-0.08071">
        <ele>78</ele>
        <time>2013-04-21T13:02:32.000Z</time>
      </trkpt>
      <trkpt lat="47.5362" lon="-0.08071">
        <ele>78</ele>
        <time>2013-04-21T13:02:33.000Z</time>
      </trkpt>
      <trkpt lat="47.53616" lon="-0.08069">
        <ele>78</ele>
        <time>2013-04-21T13:02:36.000Z</time>
      </trkpt>
      <trkpt lat="47.53616" lon="-0.08068">
        <ele>78</ele>
        <time>2013-04-21T13:02:37.000Z</time>
      </trkpt>
      <trkpt lat="47.53614" lon="-0.08063">
        <ele>78</ele>
        <time>2013-04-21T13:02:44.000Z</time>
      </trkpt>
      <trkpt lat="47.53614" lon="-0.08062">
        <ele>78</ele>
        <time>2013-04-21T13:02:45.000Z</time>
      </trkpt>
      <trkpt lat="47.5361" lon="-0.08059">
        <ele>78</ele>
        <time>2013-04-21T13:02:49.000Z</time>
      </trkpt>
      <trkpt lat="47.53609" lon="-0.08059">
        <ele>78</ele>
        <time>2013-04-21T13:02:50.000Z</time>
      </trkpt>
      <trkpt lat="47.53605" lon="-0.08061">
        <ele>78</ele>
        <time>2013-04-21T13:02:55.000Z</time>
      </trkpt>
      <trkpt lat="47.53605" lon="-0.08059">
        <ele>78</ele>
        <time>2013-04-21T13:02:56.000Z</time>
      </trkpt>
      <trkpt lat="47.53601" lon="-0.08055">
        <ele>78</ele>
        <time>2013-04-21T13:03:00.000Z</time>
      </trkpt>
      <trkpt lat="47.536" lon="-0.08052">
        <ele>78</ele>
        <time>2013-04-21T13:03:01.000Z</time>
      </trkpt>
      <trkpt lat="47.53598" lon="-0.08047">
        <ele>77</ele>
        <time>2013-04-21T13:03:03.000Z</time>
      </trkpt>
      <trkpt lat="47.53597" lon="-0.08045">
        <ele>77</ele>
        <time>2013-04-21T13:03:04.000Z</time>
      </trkpt>
      <trkpt lat="47.53595" lon="-0.08041">
        <ele>77</ele>
        <time>2013-04-21T13:03:09.000Z</time>
      </trkpt>
      <trkpt lat="47.53594" lon="-0.08038">
        <ele>77</ele>
        <time>2013-04-21T13:03:10.000Z</time>
      </trkpt>
      <trkpt lat="47.53592" lon="-0.08033">
        <ele>77</ele>
        <time>2013-04-21T13:03:13.000Z</time>
      </trkpt>
      <trkpt lat="47.53591" lon="-0.08031">
        <ele>77</ele>
        <time>2013-04-21T13:03:14.000Z</time>
      </trkpt>
      <trkpt lat="47.53589" lon="-0.08027">
        <ele>77</ele>
        <time>2013-04-21T13:03:17.000Z</time>
      </trkpt>
      <trkpt lat="47.53588" lon="-0.08026">
        <ele>77</ele>
        <time>2013-04-21T13:03:18.000Z</time>
      </trkpt>
      <trkpt lat="47.53586" lon="-0.08021">
        <ele>77</ele>
        <time>2013-04-21T13:03:23.000Z</time>
      </trkpt>
      <trkpt lat="47.53586" lon="-0.08019">
        <ele>77</ele>
        <time>2013-04-21T13:03:24.000Z</time>
      </trkpt>
      <trkpt lat="47.53584" lon="-0.08013">
        <ele>77</ele>
        <time>2013-04-21T13:03:28.000Z</time>
      </trkpt>
      <trkpt lat="47.53584" lon="-0.08012">
        <ele>77</ele>
        <time>2013-04-21T13:03:29.000Z</time>
      </trkpt>
      <trkpt lat="47.53582" lon="-0.08007">
        <ele>76</ele>
        <time>2013-04-21T13:03:33.000Z</time>
      </trkpt>
      <trkpt lat="47.53581" lon="-0.08005">
        <ele>76</ele>
        <time>2013-04-21T13:03:34.000Z</time>
      </trkpt>
      <trkpt lat="47.53579" lon="-0.08001">
        <ele>76</ele>
        <time>2013-04-21T13:03:37.000Z</time>
      </trkpt>
      <trkpt lat="47.53579" lon="-0.07999">
        <ele>76</ele>
        <time>2013-04-21T13:03:38.000Z</time>
      </trkpt>
      <trkpt lat="47.53577" lon="-0.07994">
        <ele>76</ele>
        <time>2013-04-21T13:03:41.000Z</time>
      </trkpt>
      <trkpt lat="47.53576" lon="-0.07993">
        <ele>76</ele>
        <time>2013-04-21T13:03:42.000Z</time>
      </trkpt>
      <trkpt lat="47.53574" lon="-0.07987">
        <ele>76</ele>
        <time>2013-04-21T13:03:46.000Z</time>
      </trkpt>
      <trkpt lat="47.53574" lon="-0.07985">
        <ele>76</ele>
        <time>2013-04-21T13:03:47.000Z</time>
      </trkpt>
      <trkpt lat="47.53572" lon="-0.07979">
        <ele>76</ele>
        <time>2013-04-21T13:03:54.000Z</time>
      </trkpt>
      <trkpt lat="47.53571" lon="-0.07977">
        <ele>76</ele>
        <time>2013-04-21T13:03:55.000Z</time>
      </trkpt>
      <trkpt lat="47.53569" lon="-0.07972">
        <ele>76</ele>
        <time>2013-04-21T13:03:58.000Z</time>
      </trkpt>
      <trkpt lat="47.53569" lon="-0.0797">
        <ele>76</ele>
        <time>2013-04-21T13:03:59.000Z</time>
      </trkpt>
      <trkpt lat="47.53568" lon="-0.07965">
        <ele>76</ele>
        <time>2013-04-21T13:04:04.000Z</time>
      </trkpt>
      <trkpt lat="47.53567" lon="-0.07963">
        <ele>76</ele>
        <time>2013-04-21T13:04:05.000Z</time>
      </trkpt>
      <trkpt lat="47.53565" lon="-0.07957">
        <ele>76</ele>
        <time>2013-04-21T13:04:09.000Z</time>
      </trkpt>
      <trkpt lat="47.53565" lon="-0.07957">
        <ele>76</ele>
        <time>2013-04-21T13:04:10.000Z</time>
      </trkpt>
      <trkpt lat="47.53562" lon="-0.07952">
        <ele>76</ele>
        <time>2013-04-21T13:04:13.000Z</time>
      </trkpt>
      <trkpt lat="47.53561" lon="-0.07951">
        <ele>76</ele>
        <time>2013-04-21T13:04:14.000Z</time>
      </trkpt>
      <trkpt lat="47.53558" lon="-0.07947">
        <ele>76</ele>
        <time>2013-04-21T13:04:17.000Z</time>
      </trkpt>
      <trkpt lat="47.53557" lon="-0.07945">
        <ele>76</ele>
        <time>2013-04-21T13:04:18.000Z</time>
      </trkpt>
      <trkpt lat="47.53555" lon="-0.07939">
        <ele>76</ele>
        <time>2013-04-21T13:04:23.000Z</time>
      </trkpt>
      <trkpt lat="47.53555" lon="-0.07938">
        <ele>76</ele>
        <time>2013-04-21T13:04:24.000Z</time>
      </trkpt>
      <trkpt lat="47.53552" lon="-0.07934">
        <ele>76</ele>
        <time>2013-04-21T13:04:27.000Z</time>
      </trkpt>
      <trkpt lat="47.53551" lon="-0.07932">
        <ele>76</ele>
        <time>2013-04-21T13:04:28.000Z</time>
      </trkpt>
      <trkpt lat="47.53548" lon="-0.07929">
        <ele>76</ele>
        <time>2013-04-21T13:04:31.000Z</time>
      </trkpt>
      <trkpt lat="47.53547" lon="-0.07928">
        <ele>76</ele>
        <time>2013-04-21T13:04:32.000Z</time>
      </trkpt>
      <trkpt lat="47.53545" lon="-0.07922">
        <ele>76</ele>
        <time>2013-04-21T13:04:37.000Z</time>
      </trkpt>
      <trkpt lat="47.53545" lon="-0.07921">
        <ele>76</ele>
        <time>2013-04-21T13:04:38.000Z</time>
      </trkpt>
      <trkpt lat="47.53542" lon="-0.07918">
        <ele>76</ele>
        <time>2013-04-21T13:04:41.000Z</time>
      </trkpt>
      <trkpt lat="47.5354" lon="-0.07917">
        <ele>76</ele>
        <time>2013-04-21T13:04:42.000Z</time>
      </trkpt>
      <trkpt lat="47.53537" lon="-0.07917">
        <ele>76</ele>
        <time>2013-04-21T13:04:45.000Z</time>
      </trkpt>
      <trkpt lat="47.53535" lon="-0.07916">
        <ele>77</ele>
        <time>2013-04-21T13:04:46.000Z</time>
      </trkpt>
      <trkpt lat="47.53532" lon="-0.07916">
        <ele>77</ele>
        <time>2013-04-21T13:04:47.000Z</time>
      </trkpt>
      <trkpt lat="47.53529" lon="-0.07915">
        <ele>77</ele>
        <time>2013-04-21T13:04:48.000Z</time>
      </trkpt>
      <trkpt lat="47.53525" lon="-0.07915">
        <ele>77</ele>
        <time>2013-04-21T13:04:50.000Z</time>
      </trkpt>
      <trkpt lat="47.53524" lon="-0.07916">
        <ele>77</ele>
        <time>2013-04-21T13:04:51.000Z</time>
      </trkpt>
      <trkpt lat="47.5352" lon="-0.07918">
        <ele>76</ele>
        <time>2013-04-21T13:04:54.000Z</time>
      </trkpt>
      <trkpt lat="47.53519" lon="-0.07918">
        <ele>76</ele>
        <time>2013-04-21T13:04:55.000Z</time>
      </trkpt>
      <trkpt lat="47.53517" lon="-0.07915">
        <ele>77</ele>
        <time>2013-04-21T13:05:02.000Z</time>
      </trkpt>
      <trkpt lat="47.53516" lon="-0.07912">
        <ele>77</ele>
        <time>2013-04-21T13:05:03.000Z</time>
      </trkpt>
      <trkpt lat="47.53516" lon="-0.07906">
        <ele>77</ele>
        <time>2013-04-21T13:05:10.000Z</time>
      </trkpt>
      <trkpt lat="47.53516" lon="-0.07905">
        <ele>77</ele>
        <time>2013-04-21T13:05:11.000Z</time>
      </trkpt>
      <trkpt lat="47.53513" lon="-0.07901">
        <ele>77</ele>
        <time>2013-04-21T13:05:14.000Z</time>
      </trkpt>
      <trkpt lat="47.53512" lon="-0.079">
        <ele>77</ele>
        <time>2013-04-21T13:05:15.000Z</time>
      </trkpt>
      <trkpt lat="47.5351" lon="-0.07895">
        <ele>77</ele>
        <time>2013-04-21T13:05:19.000Z</time>
      </trkpt>
      <trkpt lat="47.5351" lon="-0.07893">
        <ele>77</ele>
        <time>2013-04-21T13:05:20.000Z</time>
      </trkpt>
      <trkpt lat="47.53506" lon="-0.0789">
        <ele>77</ele>
        <time>2013-04-21T13:05:34.000Z</time>
      </trkpt>
      <trkpt lat="47.53507" lon="-0.07885">
        <ele>77</ele>
        <time>2013-04-21T13:05:35.000Z</time>
      </trkpt>
      <trkpt lat="47.53506" lon="-0.07879">
        <ele>77</ele>
        <time>2013-04-21T13:05:39.000Z</time>
      </trkpt>
      <trkpt lat="47.53506" lon="-0.07878">
        <ele>77</ele>
        <time>2013-04-21T13:05:40.000Z</time>
      </trkpt>
      <trkpt lat="47.53509" lon="-0.07873">
        <ele>77</ele>
        <time>2013-04-21T13:05:42.000Z</time>
      </trkpt>
      <trkpt lat="47.5351" lon="-0.07871">
        <ele>77</ele>
        <time>2013-04-21T13:05:43.000Z</time>
      </trkpt>
      <trkpt lat="47.53512" lon="-0.07867">
        <ele>77</ele>
        <time>2013-04-21T13:05:47.000Z</time>
      </trkpt>
      <trkpt lat="47.53513" lon="-0.07866">
        <ele>77</ele>
        <time>2013-04-21T13:05:48.000Z</time>
      </trkpt>
      <trkpt lat="47.53514" lon="-0.0786">
        <ele>77</ele>
        <time>2013-04-21T13:05:52.000Z</time>
      </trkpt>
      <trkpt lat="47.53514" lon="-0.07858">
        <ele>77</ele>
        <time>2013-04-21T13:05:53.000Z</time>
      </trkpt>
      <trkpt lat="47.53514" lon="-0.07854">
        <ele>77</ele>
        <time>2013-04-21T13:06:00.000Z</time>
      </trkpt>
      <trkpt lat="47.53513" lon="-0.07852">
        <ele>77</ele>
        <time>2013-04-21T13:06:01.000Z</time>
      </trkpt>
      <trkpt lat="47.53509" lon="-0.07848">
        <ele>77</ele>
        <time>2013-04-21T13:06:05.000Z</time>
      </trkpt>
      <trkpt lat="47.53509" lon="-0.07847">
        <ele>77</ele>
        <time>2013-04-21T13:06:06.000Z</time>
      </trkpt>
      <trkpt lat="47.5351" lon="-0.07841">
        <ele>78</ele>
        <time>2013-04-21T13:06:13.000Z</time>
      </trkpt>
      <trkpt lat="47.5351" lon="-0.07841">
        <ele>78</ele>
        <time>2013-04-21T13:06:14.000Z</time>
      </trkpt>
      <trkpt lat="47.53513" lon="-0.07836">
        <ele>78</ele>
        <time>2013-04-21T13:06:24.000Z</time>
      </trkpt>
      <trkpt lat="47.53513" lon="-0.07835">
        <ele>78</ele>
        <time>2013-04-21T13:06:25.000Z</time>
      </trkpt>
      <trkpt lat="47.53515" lon="-0.0783">
        <ele>78</ele>
        <time>2013-04-21T13:06:30.000Z</time>
      </trkpt>
      <trkpt lat="47.53516" lon="-0.07828">
        <ele>78</ele>
        <time>2013-04-21T13:06:31.000Z</time>
      </trkpt>
      <trkpt lat="47.53516" lon="-0.07822">
        <ele>79</ele>
        <time>2013-04-21T13:06:41.000Z</time>
      </trkpt>
      <trkpt lat="47.53516" lon="-0.07821">
        <ele>79</ele>
        <time>2013-04-21T13:06:42.000Z</time>
      </trkpt>
      <trkpt lat="47.53515" lon="-0.07817">
        <ele>79</ele>
        <time>2013-04-21T13:06:43.000Z</time>
      </trkpt>
      <trkpt lat="47.53515" lon="-0.07812">
        <ele>79</ele>
        <time>2013-04-21T13:06:44.000Z</time>
      </trkpt>
      <trkpt lat="47.53514" lon="-0.07806">
        <ele>79</ele>
        <time>2013-04-21T13:06:52.000Z</time>
      </trkpt>
      <trkpt lat="47.53514" lon="-0.07804">
        <ele>79</ele>
        <time>2013-04-21T13:06:53.000Z</time>
      </trkpt>
      <trkpt lat="47.53513" lon="-0.07799">
        <ele>79</ele>
        <time>2013-04-21T13:06:55.000Z</time>
      </trkpt>
      <trkpt lat="47.53513" lon="-0.07796">
        <ele>79</ele>
        <time>2013-04-21T13:06:56.000Z</time>
      </trkpt>
      <trkpt lat="47.5351" lon="-0.07791">
        <ele>79</ele>
        <time>2013-04-21T13:06:59.000Z</time>
      </trkpt>
      <trkpt lat="47.5351" lon="-0.0779">
        <ele>79</ele>
        <time>2013-04-21T13:07:00.000Z</time>
      </trkpt>
      <trkpt lat="47.53508" lon="-0.07786">
        <ele>79</ele>
        <time>2013-04-21T13:07:03.000Z</time>
      </trkpt>
      <trkpt lat="47.53507" lon="-0.07784">
        <ele>79</ele>
        <time>2013-04-21T13:07:04.000Z</time>
      </trkpt>
      <trkpt lat="47.53504" lon="-0.07779">
        <ele>80</ele>
        <time>2013-04-21T13:07:13.000Z</time>
      </trkpt>
      <trkpt lat="47.53503" lon="-0.07774">
        <ele>80</ele>
        <time>2013-04-21T13:07:14.000Z</time>
      </trkpt>
      <trkpt lat="47.53504" lon="-0.07768">
        <ele>80</ele>
        <time>2013-04-21T13:07:16.000Z</time>
      </trkpt>
      <trkpt lat="47.53504" lon="-0.07766">
        <ele>80</ele>
        <time>2013-04-21T13:07:17.000Z</time>
      </trkpt>
      <trkpt lat="47.53503" lon="-0.0776">
        <ele>80</ele>
        <time>2013-04-21T13:07:19.000Z</time>
      </trkpt>
      <trkpt lat="47.53503" lon="-0.07758">
        <ele>80</ele>
        <time>2013-04-21T13:07:20.000Z</time>
      </trkpt>
      <trkpt lat="47.53503" lon="-0.07752">
        <ele>81</ele>
        <time>2013-04-21T13:07:23.000Z</time>
      </trkpt>
      <trkpt lat="47.53503" lon="-0.0775">
        <ele>81</ele>
        <time>2013-04-21T13:07:24.000Z</time>
      </trkpt>
      <trkpt lat="47.53502" lon="-0.07744">
        <ele>81</ele>
        <time>2013-04-21T13:07:27.000Z</time>
      </trkpt>
      <trkpt lat="47.53502" lon="-0.07742">
        <ele>81</ele>
        <time>2013-04-21T13:07:28.000Z</time>
      </trkpt>
      <trkpt lat="47.53503" lon="-0.07736">
        <ele>81</ele>
        <time>2013-04-21T13:07:32.000Z</time>
      </trkpt>
      <trkpt lat="47.53503" lon="-0.07734">
        <ele>81</ele>
        <time>2013-04-21T13:07:33.000Z</time>
      </trkpt>
      <trkpt lat="47.53504" lon="-0.07728">
        <ele>81</ele>
        <time>2013-04-21T13:07:36.000Z</time>
      </trkpt>
      <trkpt lat="47.53504" lon="-0.07727">
        <ele>81</ele>
        <time>2013-04-21T13:07:37.000Z</time>
      </trkpt>
      <trkpt lat="47.53502" lon="-0.07724">
        <ele>81</ele>
        <time>2013-04-21T13:07:40.000Z</time>
      </trkpt>
      <trkpt lat="47.53501" lon="-0.07721">
        <ele>81</ele>
        <time>2013-04-21T13:07:41.000Z</time>
      </trkpt>
      <trkpt lat="47.53502" lon="-0.07715">
        <ele>81</ele>
        <time>2013-04-21T13:07:48.000Z</time>
      </trkpt>
      <trkpt lat="47.53502" lon="-0.07714">
        <ele>81</ele>
        <time>2013-04-21T13:07:49.000Z</time>
      </trkpt>
      <trkpt lat="47.53502" lon="-0.0771">
        <ele>81</ele>
        <time>2013-04-21T13:07:54.000Z</time>
      </trkpt>
      <trkpt lat="47.53501" lon="-0.07707">
        <ele>81</ele>
        <time>2013-04-21T13:07:55.000Z</time>
      </trkpt>
      <trkpt lat="47.53505" lon="-0.07704">
        <ele>81</ele>
        <time>2013-04-21T13:08:26.000Z</time>
      </trkpt>
      <trkpt lat="47.53506" lon="-0.07703">
        <ele>81</ele>
        <time>2013-04-21T13:08:27.000Z</time>
      </trkpt>
      <trkpt lat="47.53509" lon="-0.07698">
        <ele>81</ele>
        <time>2013-04-21T13:08:31.000Z</time>
      </trkpt>
      <trkpt lat="47.5351" lon="-0.07697">
        <ele>81</ele>
        <time>2013-04-21T13:08:32.000Z</time>
      </trkpt>
      <trkpt lat="47.53513" lon="-0.07695">
        <ele>81</ele>
        <time>2013-04-21T13:08:37.000Z</time>
      </trkpt>
      <trkpt lat="47.53514" lon="-0.07695">
        <ele>81</ele>
        <time>2013-04-21T13:08:38.000Z</time>
      </trkpt>
      <trkpt lat="47.53519" lon="-0.07696">
        <ele>81</ele>
        <time>2013-04-21T13:08:42.000Z</time>
      </trkpt>
      <trkpt lat="47.5352" lon="-0.07695">
        <ele>81</ele>
        <time>2013-04-21T13:08:43.000Z</time>
      </trkpt>
      <trkpt lat="47.53524" lon="-0.07696">
        <ele>81</ele>
        <time>2013-04-21T13:08:46.000Z</time>
      </trkpt>
      <trkpt lat="47.53525" lon="-0.07696">
        <ele>81</ele>
        <time>2013-04-21T13:08:47.000Z</time>
      </trkpt>
      <trkpt lat="47.53528" lon="-0.07697">
        <ele>81</ele>
        <time>2013-04-21T13:08:51.000Z</time>
      </trkpt>
      <trkpt lat="47.5353" lon="-0.07696">
        <ele>81</ele>
        <time>2013-04-21T13:08:52.000Z</time>
      </trkpt>
      <trkpt lat="47.53533" lon="-0.07694">
        <ele>81</ele>
        <time>2013-04-21T13:08:55.000Z</time>
      </trkpt>
      <trkpt lat="47.53535" lon="-0.07694">
        <ele>81</ele>
        <time>2013-04-21T13:08:56.000Z</time>
      </trkpt>
      <trkpt lat="47.53538" lon="-0.07697">
        <ele>81</ele>
        <time>2013-04-21T13:09:02.000Z</time>
      </trkpt>
      <trkpt lat="47.5354" lon="-0.07696">
        <ele>81</ele>
        <time>2013-04-21T13:09:03.000Z</time>
      </trkpt>
      <trkpt lat="47.53542" lon="-0.07693">
        <ele>81</ele>
        <time>2013-04-21T13:09:05.000Z</time>
      </trkpt>
      <trkpt lat="47.53543" lon="-0.07692">
        <ele>81</ele>
        <time>2013-04-21T13:09:06.000Z</time>
      </trkpt>
      <trkpt lat="47.53547" lon="-0.07689">
        <ele>81</ele>
        <time>2013-04-21T13:09:10.000Z</time>
      </trkpt>
      <trkpt lat="47.53548" lon="-0.07688">
        <ele>81</ele>
        <time>2013-04-21T13:09:11.000Z</time>
      </trkpt>
      <trkpt lat="47.53551" lon="-0.07686">
        <ele>81</ele>
        <time>2013-04-21T13:09:15.000Z</time>
      </trkpt>
      <trkpt lat="47.53553" lon="-0.07686">
        <ele>81</ele>
        <time>2013-04-21T13:09:16.000Z</time>
      </trkpt>
      <trkpt lat="47.53557" lon="-0.07685">
        <ele>81</ele>
        <time>2013-04-21T13:09:29.000Z</time>
      </trkpt>
      <trkpt lat="47.53558" lon="-0.07684">
        <ele>81</ele>
        <time>2013-04-21T13:09:30.000Z</time>
      </trkpt>
      <trkpt lat="47.53559" lon="-0.0768">
        <ele>81</ele>
        <time>2013-04-21T13:09:41.000Z</time>
      </trkpt>
      <trkpt lat="47.53561" lon="-0.07678">
        <ele>81</ele>
        <time>2013-04-21T13:09:42.000Z</time>
      </trkpt>
      <trkpt lat="47.53562" lon="-0.07684">
        <ele>81</ele>
        <time>2013-04-21T13:09:52.000Z</time>
      </trkpt>
      <trkpt lat="47.53562" lon="-0.07685">
        <ele>81</ele>
        <time>2013-04-21T13:09:53.000Z</time>
      </trkpt>
      <trkpt lat="47.53558" lon="-0.07681">
        <ele>81</ele>
        <time>2013-04-21T13:10:59.000Z</time>
      </trkpt>
      <trkpt lat="47.53558" lon="-0.07681">
        <ele>81</ele>
        <time>2013-04-21T13:11:00.000Z</time>
      </trkpt>
      <trkpt lat="47.53554" lon="-0.0768">
        <ele>81</ele>
        <time>2013-04-21T13:11:13.000Z</time>
      </trkpt>
      <trkpt lat="47.53553" lon="-0.07679">
        <ele>81</ele>
        <time>2013-04-21T13:11:14.000Z</time>
      </trkpt>
      <trkpt lat="47.53549" lon="-0.07675">
        <ele>81</ele>
        <time>2013-04-21T13:11:19.000Z</time>
      </trkpt>
      <trkpt lat="47.53549" lon="-0.07674">
        <ele>81</ele>
        <time>2013-04-21T13:11:20.000Z</time>
      </trkpt>
      <trkpt lat="47.53547" lon="-0.07668">
        <ele>81</ele>
        <time>2013-04-21T13:11:23.000Z</time>
      </trkpt>
      <trkpt lat="47.53547" lon="-0.07667">
        <ele>81</ele>
        <time>2013-04-21T13:11:24.000Z</time>
      </trkpt>
      <trkpt lat="47.53544" lon="-0.07662">
        <ele>82</ele>
        <time>2013-04-21T13:11:30.000Z</time>
      </trkpt>
      <trkpt lat="47.53544" lon="-0.07661">
        <ele>82</ele>
        <time>2013-04-21T13:11:31.000Z</time>
      </trkpt>
      <trkpt lat="47.53541" lon="-0.07657">
        <ele>82</ele>
        <time>2013-04-21T13:11:35.000Z</time>
      </trkpt>
      <trkpt lat="47.5354" lon="-0.07656">
        <ele>82</ele>
        <time>2013-04-21T13:11:36.000Z</time>
      </trkpt>
      <trkpt lat="47.53537" lon="-0.07651">
        <ele>82</ele>
        <time>2013-04-21T13:11:44.000Z</time>
      </trkpt>
      <trkpt lat="47.53537" lon="-0.07651">
        <ele>82</ele>
        <time>2013-04-21T13:11:45.000Z</time>
      </trkpt>
      <trkpt lat="47.53533" lon="-0.07648">
        <ele>82</ele>
        <time>2013-04-21T13:11:49.000Z</time>
      </trkpt>
      <trkpt lat="47.53532" lon="-0.07646">
        <ele>82</ele>
        <time>2013-04-21T13:11:50.000Z</time>
      </trkpt>
      <trkpt lat="47.53529" lon="-0.07642">
        <ele>82</ele>
        <time>2013-04-21T13:11:53.000Z</time>
      </trkpt>
      <trkpt lat="47.53528" lon="-0.07641">
        <ele>82</ele>
        <time>2013-04-21T13:11:54.000Z</time>
      </trkpt>
      <trkpt lat="47.53526" lon="-0.07637">
        <ele>82</ele>
        <time>2013-04-21T13:11:58.000Z</time>
      </trkpt>
      <trkpt lat="47.53525" lon="-0.07636">
        <ele>82</ele>
        <time>2013-04-21T13:11:59.000Z</time>
      </trkpt>
      <trkpt lat="47.53523" lon="-0.07631">
        <ele>82</ele>
        <time>2013-04-21T13:12:02.000Z</time>
      </trkpt>
      <trkpt lat="47.53522" lon="-0.0763">
        <ele>82</ele>
        <time>2013-04-21T13:12:03.000Z</time>
      </trkpt>
      <trkpt lat="47.5352" lon="-0.07625">
        <ele>82</ele>
        <time>2013-04-21T13:12:07.001Z</time>
      </trkpt>
      <trkpt lat="47.53518" lon="-0.07623">
        <ele>82</ele>
        <time>2013-04-21T13:12:08.001Z</time>
      </trkpt>
      <trkpt lat="47.53516" lon="-0.07619">
        <ele>82</ele>
        <time>2013-04-21T13:12:10.001Z</time>
      </trkpt>
      <trkpt lat="47.53515" lon="-0.07618">
        <ele>82</ele>
        <time>2013-04-21T13:12:11.001Z</time>
      </trkpt>
      <trkpt lat="47.53512" lon="-0.07615">
        <ele>82</ele>
        <time>2013-04-21T13:12:14.001Z</time>
      </trkpt>
      <trkpt lat="47.53511" lon="-0.07613">
        <ele>83</ele>
        <time>2013-04-21T13:12:15.001Z</time>
      </trkpt>
      <trkpt lat="47.53509" lon="-0.07608">
        <ele>83</ele>
        <time>2013-04-21T13:12:18.001Z</time>
      </trkpt>
      <trkpt lat="47.53509" lon="-0.07607">
        <ele>83</ele>
        <time>2013-04-21T13:12:19.001Z</time>
      </trkpt>
      <trkpt lat="47.53507" lon="-0.07601">
        <ele>83</ele>
        <time>2013-04-21T13:12:41.001Z</time>
      </trkpt>
      <trkpt lat="47.53507" lon="-0.07599">
        <ele>83</ele>
        <time>2013-04-21T13:12:42.001Z</time>
      </trkpt>
      <trkpt lat="47.53505" lon="-0.07593">
        <ele>83</ele>
        <time>2013-04-21T13:12:44.001Z</time>
      </trkpt>
      <trkpt lat="47.53505" lon="-0.07591">
        <ele>83</ele>
        <time>2013-04-21T13:12:45.001Z</time>
      </trkpt>
      <trkpt lat="47.53505" lon="-0.07585">
        <ele>84</ele>
        <time>2013-04-21T13:12:50.001Z</time>
      </trkpt>
      <trkpt lat="47.53505" lon="-0.07583">
        <ele>84</ele>
        <time>2013-04-21T13:12:51.001Z</time>
      </trkpt>
      <trkpt lat="47.53503" lon="-0.07577">
        <ele>84</ele>
        <time>2013-04-21T13:12:56.001Z</time>
      </trkpt>
      <trkpt lat="47.53503" lon="-0.07577">
        <ele>84</ele>
        <time>2013-04-21T13:12:57.001Z</time>
      </trkpt>
      <trkpt lat="47.535" lon="-0.07572">
        <ele>84</ele>
        <time>2013-04-21T13:13:03.001Z</time>
      </trkpt>
      <trkpt lat="47.53499" lon="-0.07569">
        <ele>84</ele>
        <time>2013-04-21T13:13:04.001Z</time>
      </trkpt>
      <trkpt lat="47.53498" lon="-0.07563">
        <ele>84</ele>
        <time>2013-04-21T13:13:11.001Z</time>
      </trkpt>
      <trkpt lat="47.53498" lon="-0.0756">
        <ele>84</ele>
        <time>2013-04-21T13:13:12.001Z</time>
      </trkpt>
      <trkpt lat="47.53498" lon="-0.07554">
        <ele>84</ele>
        <time>2013-04-21T13:13:17.001Z</time>
      </trkpt>
      <trkpt lat="47.53498" lon="-0.07552">
        <ele>84</ele>
        <time>2013-04-21T13:13:18.001Z</time>
      </trkpt>
      <trkpt lat="47.53494" lon="-0.07549">
        <ele>84</ele>
        <time>2013-04-21T13:13:32.001Z</time>
      </trkpt>
      <trkpt lat="47.53494" lon="-0.07549">
        <ele>84</ele>
        <time>2013-04-21T13:13:33.001Z</time>
      </trkpt>
      <trkpt lat="47.53492" lon="-0.07545">
        <ele>84</ele>
        <time>2013-04-21T13:13:38.001Z</time>
      </trkpt>
      <trkpt lat="47.5349" lon="-0.07542">
        <ele>84</ele>
        <time>2013-04-21T13:13:39.001Z</time>
      </trkpt>
      <trkpt lat="47.53488" lon="-0.07537">
        <ele>84</ele>
        <time>2013-04-21T13:13:43.001Z</time>
      </trkpt>
      <trkpt lat="47.53488" lon="-0.07536">
        <ele>84</ele>
        <time>2013-04-21T13:13:44.001Z</time>
      </trkpt>
      <trkpt lat="47.53486" lon="-0.0753">
        <ele>84</ele>
        <time>2013-04-21T13:13:50.001Z</time>
      </trkpt>
      <trkpt lat="47.53486" lon="-0.07529">
        <ele>84</ele>
        <time>2013-04-21T13:13:51.001Z</time>
      </trkpt>
      <trkpt lat="47.53484" lon="-0.07524">
        <ele>84</ele>
        <time>2013-04-21T13:13:56.001Z</time>
      </trkpt>
      <trkpt lat="47.53485" lon="-0.07522">
        <ele>84</ele>
        <time>2013-04-21T13:13:57.001Z</time>
      </trkpt>
      <trkpt lat="47.53485" lon="-0.07517">
        <ele>84</ele>
        <time>2013-04-21T13:14:01.001Z</time>
      </trkpt>
      <trkpt lat="47.53484" lon="-0.07515">
        <ele>84</ele>
        <time>2013-04-21T13:14:02.001Z</time>
      </trkpt>
      <trkpt lat="47.53481" lon="-0.07511">
        <ele>84</ele>
        <time>2013-04-21T13:14:04.001Z</time>
      </trkpt>
      <trkpt lat="47.53479" lon="-0.07508">
        <ele>84</ele>
        <time>2013-04-21T13:14:05.001Z</time>
      </trkpt>
      <trkpt lat="47.53476" lon="-0.07507">
        <ele>84</ele>
        <time>2013-04-21T13:14:06.001Z</time>
      </trkpt>
      <trkpt lat="47.53474" lon="-0.07507">
        <ele>84</ele>
        <time>2013-04-21T13:14:07.001Z</time>
      </trkpt>
      <trkpt lat="47.5347" lon="-0.07504">
        <ele>84</ele>
        <time>2013-04-21T13:14:14.001Z</time>
      </trkpt>
      <trkpt lat="47.53469" lon="-0.07502">
        <ele>84</ele>
        <time>2013-04-21T13:14:15.001Z</time>
      </trkpt>
      <trkpt lat="47.53466" lon="-0.07499">
        <ele>84</ele>
        <time>2013-04-21T13:14:20.001Z</time>
      </trkpt>
      <trkpt lat="47.53465" lon="-0.07497">
        <ele>84</ele>
        <time>2013-04-21T13:14:21.001Z</time>
      </trkpt>
      <trkpt lat="47.53463" lon="-0.07493">
        <ele>84</ele>
        <time>2013-04-21T13:14:23.001Z</time>
      </trkpt>
      <trkpt lat="47.53462" lon="-0.07491">
        <ele>84</ele>
        <time>2013-04-21T13:14:24.001Z</time>
      </trkpt>
      <trkpt lat="47.53461" lon="-0.07485">
        <ele>83</ele>
        <time>2013-04-21T13:14:26.001Z</time>
      </trkpt>
      <trkpt lat="47.5346" lon="-0.07482">
        <ele>83</ele>
        <time>2013-04-21T13:14:27.001Z</time>
      </trkpt>
      <trkpt lat="47.53459" lon="-0.07476">
        <ele>83</ele>
        <time>2013-04-21T13:14:29.001Z</time>
      </trkpt>
      <trkpt lat="47.53458" lon="-0.07474">
        <ele>83</ele>
        <time>2013-04-21T13:14:30.001Z</time>
      </trkpt>
      <trkpt lat="47.53456" lon="-0.07468">
        <ele>83</ele>
        <time>2013-04-21T13:14:34.001Z</time>
      </trkpt>
      <trkpt lat="47.53456" lon="-0.07467">
        <ele>83</ele>
        <time>2013-04-21T13:14:35.001Z</time>
      </trkpt>
      <trkpt lat="47.53455" lon="-0.07461">
        <ele>83</ele>
        <time>2013-04-21T13:14:38.001Z</time>
      </trkpt>
      <trkpt lat="47.53455" lon="-0.07458">
        <ele>83</ele>
        <time>2013-04-21T13:14:39.001Z</time>
      </trkpt>
      <trkpt lat="47.53455" lon="-0.07454">
        <ele>83</ele>
        <time>2013-04-21T13:14:40.001Z</time>
      </trkpt>
      <trkpt lat="47.53456" lon="-0.07451">
        <ele>83</ele>
        <time>2013-04-21T13:14:41.001Z</time>
      </trkpt>
      <trkpt lat="47.53456" lon="-0.07445">
        <ele>83</ele>
        <time>2013-04-21T13:14:43.001Z</time>
      </trkpt>
      <trkpt lat="47.53455" lon="-0.07442">
        <ele>83</ele>
        <time>2013-04-21T13:14:44.001Z</time>
      </trkpt>
      <trkpt lat="47.53454" lon="-0.07436">
        <ele>83</ele>
        <time>2013-04-21T13:14:46.001Z</time>
      </trkpt>
      <trkpt lat="47.53454" lon="-0.07434">
        <ele>83</ele>
        <time>2013-04-21T13:14:47.001Z</time>
      </trkpt>
      <trkpt lat="47.53453" lon="-0.0743">
        <ele>82</ele>
        <time>2013-04-21T13:14:49.001Z</time>
      </trkpt>
      <trkpt lat="47.53453" lon="-0.07428">
        <ele>82</ele>
        <time>2013-04-21T13:14:50.001Z</time>
      </trkpt>
      <trkpt lat="47.53452" lon="-0.07423">
        <ele>82</ele>
        <time>2013-04-21T13:14:53.001Z</time>
      </trkpt>
      <trkpt lat="47.53452" lon="-0.07421">
        <ele>82</ele>
        <time>2013-04-21T13:14:54.001Z</time>
      </trkpt>
      <trkpt lat="47.53454" lon="-0.07415">
        <ele>81</ele>
        <time>2013-04-21T13:14:58.001Z</time>
      </trkpt>
      <trkpt lat="47.53456" lon="-0.07414">
        <ele>81</ele>
        <time>2013-04-21T13:14:59.001Z</time>
      </trkpt>
      <trkpt lat="47.53456" lon="-0.07408">
        <ele>81</ele>
        <time>2013-04-21T13:15:06.001Z</time>
      </trkpt>
      <trkpt lat="47.53455" lon="-0.07406">
        <ele>81</ele>
        <time>2013-04-21T13:15:07.001Z</time>
      </trkpt>
      <trkpt lat="47.53455" lon="-0.074">
        <ele>81</ele>
        <time>2013-04-21T13:15:15.001Z</time>
      </trkpt>
      <trkpt lat="47.53454" lon="-0.07399">
        <ele>81</ele>
        <time>2013-04-21T13:15:16.001Z</time>
      </trkpt>
      <trkpt lat="47.53453" lon="-0.07394">
        <ele>81</ele>
        <time>2013-04-21T13:15:21.001Z</time>
      </trkpt>
      <trkpt lat="47.53452" lon="-0.07393">
        <ele>81</ele>
        <time>2013-04-21T13:15:22.001Z</time>
      </trkpt>
      <trkpt lat="47.53449" lon="-0.07388">
        <ele>81</ele>
        <time>2013-04-21T13:15:27.001Z</time>
      </trkpt>
      <trkpt lat="47.53448" lon="-0.07386">
        <ele>81</ele>
        <time>2013-04-21T13:15:28.001Z</time>
      </trkpt>
      <trkpt lat="47.53446" lon="-0.07384">
        <ele>81</ele>
        <time>2013-04-21T13:15:29.001Z</time>
      </trkpt>
      <trkpt lat="47.53443" lon="-0.07381">
        <ele>81</ele>
        <time>2013-04-21T13:15:30.001Z</time>
      </trkpt>
      <trkpt lat="47.53441" lon="-0.07377">
        <ele>81</ele>
        <time>2013-04-21T13:15:33.001Z</time>
      </trkpt>
      <trkpt lat="47.5344" lon="-0.07375">
        <ele>81</ele>
        <time>2013-04-21T13:15:34.001Z</time>
      </trkpt>
      <trkpt lat="47.53436" lon="-0.07374">
        <ele>81</ele>
        <time>2013-04-21T13:15:54.001Z</time>
      </trkpt>
      <trkpt lat="47.53435" lon="-0.07375">
        <ele>81</ele>
        <time>2013-04-21T13:15:55.001Z</time>
      </trkpt>
      <trkpt lat="47.53432" lon="-0.07378">
        <ele>81</ele>
        <time>2013-04-21T13:16:01.001Z</time>
      </trkpt>
      <trkpt lat="47.53431" lon="-0.07377">
        <ele>81</ele>
        <time>2013-04-21T13:16:02.001Z</time>
      </trkpt>
      <trkpt lat="47.53427" lon="-0.07379">
        <ele>81</ele>
        <time>2013-04-21T13:16:06.001Z</time>
      </trkpt>
      <trkpt lat="47.53425" lon="-0.07377">
        <ele>81</ele>
        <time>2013-04-21T13:16:07.001Z</time>
      </trkpt>
      <trkpt lat="47.53422" lon="-0.07375">
        <ele>81</ele>
        <time>2013-04-21T13:16:10.001Z</time>
      </trkpt>
      <trkpt lat="47.53421" lon="-0.07374">
        <ele>81</ele>
        <time>2013-04-21T13:16:11.001Z</time>
      </trkpt>
      <trkpt lat="47.53418" lon="-0.07374">
        <ele>81</ele>
        <time>2013-04-21T13:16:14.001Z</time>
      </trkpt>
      <trkpt lat="47.53415" lon="-0.07376">
        <ele>81</ele>
        <time>2013-04-21T13:16:16.001Z</time>
      </trkpt>
      <trkpt lat="47.53412" lon="-0.0738">
        <ele>81</ele>
        <time>2013-04-21T13:16:27.001Z</time>
      </trkpt>
      <trkpt lat="47.53411" lon="-0.07381">
        <ele>81</ele>
        <time>2013-04-21T13:16:28.001Z</time>
      </trkpt>
      <trkpt lat="47.53408" lon="-0.07385">
        <ele>81</ele>
        <time>2013-04-21T13:16:32.001Z</time>
      </trkpt>
      <trkpt lat="47.53407" lon="-0.07385">
        <ele>81</ele>
        <time>2013-04-21T13:16:33.001Z</time>
      </trkpt>
      <trkpt lat="47.53404" lon="-0.07385">
        <ele>81</ele>
        <time>2013-04-21T13:16:35.001Z</time>
      </trkpt>
      <trkpt lat="47.53403" lon="-0.07385">
        <ele>81</ele>
        <time>2013-04-21T13:16:36.001Z</time>
      </trkpt>
      <trkpt lat="47.53399" lon="-0.07387">
        <ele>81</ele>
        <time>2013-04-21T13:16:39.001Z</time>
      </trkpt>
      <trkpt lat="47.53398" lon="-0.07388">
        <ele>81</ele>
        <time>2013-04-21T13:16:40.001Z</time>
      </trkpt>
      <trkpt lat="47.53395" lon="-0.07389">
        <ele>81</ele>
        <time>2013-04-21T13:16:42.001Z</time>
      </trkpt>
      <trkpt lat="47.53393" lon="-0.07389">
        <ele>81</ele>
        <time>2013-04-21T13:16:43.001Z</time>
      </trkpt>
      <trkpt lat="47.5339" lon="-0.07388">
        <ele>81</ele>
        <time>2013-04-21T13:16:47.001Z</time>
      </trkpt>
      <trkpt lat="47.53389" lon="-0.07387">
        <ele>81</ele>
        <time>2013-04-21T13:16:48.001Z</time>
      </trkpt>
      <trkpt lat="47.53385" lon="-0.07387">
        <ele>81</ele>
        <time>2013-04-21T13:16:58.001Z</time>
      </trkpt>
      <trkpt lat="47.53384" lon="-0.07388">
        <ele>81</ele>
        <time>2013-04-21T13:16:59.001Z</time>
      </trkpt>
      <trkpt lat="47.5338" lon="-0.0739">
        <ele>81</ele>
        <time>2013-04-21T13:17:02.001Z</time>
      </trkpt>
      <trkpt lat="47.53379" lon="-0.07392">
        <ele>81</ele>
        <time>2013-04-21T13:17:03.001Z</time>
      </trkpt>
      <trkpt lat="47.53375" lon="-0.07392">
        <ele>81</ele>
        <time>2013-04-21T13:17:08.001Z</time>
      </trkpt>
      <trkpt lat="47.53373" lon="-0.07392">
        <ele>81</ele>
        <time>2013-04-21T13:17:09.001Z</time>
      </trkpt>
      <trkpt lat="47.5337" lon="-0.07394">
        <ele>81</ele>
        <time>2013-04-21T13:17:13.001Z</time>
      </trkpt>
      <trkpt lat="47.53368" lon="-0.07395">
        <ele>81</ele>
        <time>2013-04-21T13:17:14.001Z</time>
      </trkpt>
      <trkpt lat="47.53365" lon="-0.07397">
        <ele>81</ele>
        <time>2013-04-21T13:17:16.001Z</time>
      </trkpt>
      <trkpt lat="47.53364" lon="-0.07399">
        <ele>81</ele>
        <time>2013-04-21T13:17:17.001Z</time>
      </trkpt>
      <trkpt lat="47.53361" lon="-0.07404">
        <ele>81</ele>
        <time>2013-04-21T13:17:20.001Z</time>
      </trkpt>
      <trkpt lat="47.53361" lon="-0.07406">
        <ele>81</ele>
        <time>2013-04-21T13:17:21.001Z</time>
      </trkpt>
      <trkpt lat="47.53357" lon="-0.07407">
        <ele>81</ele>
        <time>2013-04-21T13:17:25.001Z</time>
      </trkpt>
      <trkpt lat="47.53356" lon="-0.07408">
        <ele>81</ele>
        <time>2013-04-21T13:17:26.001Z</time>
      </trkpt>
      <trkpt lat="47.53351" lon="-0.07409">
        <ele>81</ele>
        <time>2013-04-21T13:17:29.001Z</time>
      </trkpt>
      <trkpt lat="47.5335" lon="-0.07409">
        <ele>81</ele>
        <time>2013-04-21T13:17:30.001Z</time>
      </trkpt>
      <trkpt lat="47.53346" lon="-0.07411">
        <ele>80</ele>
        <time>2013-04-21T13:17:33.001Z</time>
      </trkpt>
      <trkpt lat="47.53345" lon="-0.07411">
        <ele>80</ele>
        <time>2013-04-21T13:17:34.001Z</time>
      </trkpt>
      <trkpt lat="47.53341" lon="-0.07409">
        <ele>80</ele>
        <time>2013-04-21T13:17:38.001Z</time>
      </trkpt>
      <trkpt lat="47.5334" lon="-0.0741">
        <ele>80</ele>
        <time>2013-04-21T13:17:39.001Z</time>
      </trkpt>
      <trkpt lat="47.53338" lon="-0.07414">
        <ele>80</ele>
        <time>2013-04-21T13:17:41.001Z</time>
      </trkpt>
      <trkpt lat="47.53337" lon="-0.07416">
        <ele>80</ele>
        <time>2013-04-21T13:17:42.001Z</time>
      </trkpt>
      <trkpt lat="47.53336" lon="-0.07422">
        <ele>80</ele>
        <time>2013-04-21T13:17:45.001Z</time>
      </trkpt>
      <trkpt lat="47.53336" lon="-0.07424">
        <ele>80</ele>
        <time>2013-04-21T13:17:46.001Z</time>
      </trkpt>
      <trkpt lat="47.53334" lon="-0.07427">
        <ele>80</ele>
        <time>2013-04-21T13:17:48.001Z</time>
      </trkpt>
      <trkpt lat="47.53332" lon="-0.07427">
        <ele>80</ele>
        <time>2013-04-21T13:17:49.001Z</time>
      </trkpt>
      <trkpt lat="47.53329" lon="-0.07426">
        <ele>80</ele>
        <time>2013-04-21T13:17:50.001Z</time>
      </trkpt>
      <trkpt lat="47.53326" lon="-0.07424">
        <ele>80</ele>
        <time>2013-04-21T13:17:51.001Z</time>
      </trkpt>
      <trkpt lat="47.53323" lon="-0.07422">
        <ele>80</ele>
        <time>2013-04-21T13:17:53.001Z</time>
      </trkpt>
      <trkpt lat="47.53322" lon="-0.07422">
        <ele>80</ele>
        <time>2013-04-21T13:17:54.001Z</time>
      </trkpt>
      <trkpt lat="47.53317" lon="-0.07421">
        <ele>80</ele>
        <time>2013-04-21T13:17:58.001Z</time>
      </trkpt>
      <trkpt lat="47.53316" lon="-0.07421">
        <ele>80</ele>
        <time>2013-04-21T13:17:59.001Z</time>
      </trkpt>
      <trkpt lat="47.53312" lon="-0.07423">
        <ele>80</ele>
        <time>2013-04-21T13:18:01.001Z</time>
      </trkpt>
      <trkpt lat="47.53311" lon="-0.07424">
        <ele>80</ele>
        <time>2013-04-21T13:18:02.001Z</time>
      </trkpt>
      <trkpt lat="47.53307" lon="-0.07425">
        <ele>80</ele>
        <time>2013-04-21T13:18:04.001Z</time>
      </trkpt>
      <trkpt lat="47.53306" lon="-0.07426">
        <ele>80</ele>
        <time>2013-04-21T13:18:05.001Z</time>
      </trkpt>
      <trkpt lat="47.53302" lon="-0.07428">
        <ele>80</ele>
        <time>2013-04-21T13:18:08.001Z</time>
      </trkpt>
      <trkpt lat="47.53301" lon="-0.07429">
        <ele>80</ele>
        <time>2013-04-21T13:18:09.001Z</time>
      </trkpt>
      <trkpt lat="47.53297" lon="-0.07431">
        <ele>80</ele>
        <time>2013-04-21T13:18:13.001Z</time>
      </trkpt>
      <trkpt lat="47.53297" lon="-0.07431">
        <ele>80</ele>
        <time>2013-04-21T13:18:14.001Z</time>
      </trkpt>
      <trkpt lat="47.53293" lon="-0.07432">
        <ele>80</ele>
        <time>2013-04-21T13:18:25.001Z</time>
      </trkpt>
      <trkpt lat="47.53292" lon="-0.07432">
        <ele>80</ele>
        <time>2013-04-21T13:18:26.001Z</time>
      </trkpt>
      <trkpt lat="47.53291" lon="-0.07428">
        <ele>80</ele>
        <time>2013-04-21T13:18:30.001Z</time>
      </trkpt>
      <trkpt lat="47.5329" lon="-0.07426">
        <ele>80</ele>
        <time>2013-04-21T13:18:31.001Z</time>
      </trkpt>
      <trkpt lat="47.53289" lon="-0.07422">
        <ele>80</ele>
        <time>2013-04-21T13:18:35.001Z</time>
      </trkpt>
      <trkpt lat="47.53288" lon="-0.0742">
        <ele>80</ele>
        <time>2013-04-21T13:18:36.001Z</time>
      </trkpt>
      <trkpt lat="47.53285" lon="-0.07415">
        <ele>81</ele>
        <time>2013-04-21T13:18:39.001Z</time>
      </trkpt>
      <trkpt lat="47.53285" lon="-0.07413">
        <ele>81</ele>
        <time>2013-04-21T13:18:40.001Z</time>
      </trkpt>
      <trkpt lat="47.53284" lon="-0.07409">
        <ele>81</ele>
        <time>2013-04-21T13:18:43.001Z</time>
      </trkpt>
      <trkpt lat="47.53283" lon="-0.07407">
        <ele>81</ele>
        <time>2013-04-21T13:18:44.001Z</time>
      </trkpt>
      <trkpt lat="47.5328" lon="-0.07402">
        <ele>81</ele>
        <time>2013-04-21T13:18:47.001Z</time>
      </trkpt>
      <trkpt lat="47.5328" lon="-0.074">
        <ele>81</ele>
        <time>2013-04-21T13:18:48.001Z</time>
      </trkpt>
      <trkpt lat="47.5328" lon="-0.07394">
        <ele>81</ele>
        <time>2013-04-21T13:18:51.001Z</time>
      </trkpt>
      <trkpt lat="47.53281" lon="-0.0739">
        <ele>81</ele>
        <time>2013-04-21T13:18:52.001Z</time>
      </trkpt>
      <trkpt lat="47.5328" lon="-0.07384">
        <ele>81</ele>
        <time>2013-04-21T13:18:55.001Z</time>
      </trkpt>
      <trkpt lat="47.53279" lon="-0.07383">
        <ele>81</ele>
        <time>2013-04-21T13:18:56.001Z</time>
      </trkpt>
      <trkpt lat="47.53279" lon="-0.07376">
        <ele>81</ele>
        <time>2013-04-21T13:18:59.001Z</time>
      </trkpt>
      <trkpt lat="47.53279" lon="-0.07374">
        <ele>81</ele>
        <time>2013-04-21T13:19:00.001Z</time>
      </trkpt>
      <trkpt lat="47.53278" lon="-0.07368">
        <ele>81</ele>
        <time>2013-04-21T13:19:05.001Z</time>
      </trkpt>
      <trkpt lat="47.53277" lon="-0.07366">
        <ele>81</ele>
        <time>2013-04-21T13:19:06.001Z</time>
      </trkpt>
      <trkpt lat="47.53276" lon="-0.07361">
        <ele>81</ele>
        <time>2013-04-21T13:19:10.001Z</time>
      </trkpt>
      <trkpt lat="47.53276" lon="-0.0736">
        <ele>81</ele>
        <time>2013-04-21T13:19:11.001Z</time>
      </trkpt>
      <trkpt lat="47.53276" lon="-0.07355">
        <ele>81</ele>
        <time>2013-04-21T13:19:15.001Z</time>
      </trkpt>
      <trkpt lat="47.53275" lon="-0.07352">
        <ele>81</ele>
        <time>2013-04-21T13:19:16.001Z</time>
      </trkpt>
      <trkpt lat="47.53275" lon="-0.07346">
        <ele>81</ele>
        <time>2013-04-21T13:19:20.001Z</time>
      </trkpt>
      <trkpt lat="47.53275" lon="-0.07345">
        <ele>81</ele>
        <time>2013-04-21T13:19:21.001Z</time>
      </trkpt>
      <trkpt lat="47.53273" lon="-0.07341">
        <ele>81</ele>
        <time>2013-04-21T13:19:24.001Z</time>
      </trkpt>
      <trkpt lat="47.53271" lon="-0.0734">
        <ele>81</ele>
        <time>2013-04-21T13:19:25.001Z</time>
      </trkpt>
      <trkpt lat="47.53271" lon="-0.07334">
        <ele>82</ele>
        <time>2013-04-21T13:19:28.001Z</time>
      </trkpt>
      <trkpt lat="47.53271" lon="-0.07332">
        <ele>82</ele>
        <time>2013-04-21T13:19:29.001Z</time>
      </trkpt>
      <trkpt lat="47.5327" lon="-0.07327">
        <ele>82</ele>
        <time>2013-04-21T13:19:32.001Z</time>
      </trkpt>
      <trkpt lat="47.5327" lon="-0.07325">
        <ele>82</ele>
        <time>2013-04-21T13:19:33.001Z</time>
      </trkpt>
      <trkpt lat="47.53268" lon="-0.07319">
        <ele>82</ele>
        <time>2013-04-21T13:19:36.001Z</time>
      </trkpt>
      <trkpt lat="47.53268" lon="-0.07317">
        <ele>82</ele>
        <time>2013-04-21T13:19:37.001Z</time>
      </trkpt>
      <trkpt lat="47.53267" lon="-0.07313">
        <ele>82</ele>
        <time>2013-04-21T13:19:39.001Z</time>
      </trkpt>
      <trkpt lat="47.53266" lon="-0.07311">
        <ele>82</ele>
        <time>2013-04-21T13:19:40.001Z</time>
      </trkpt>
      <trkpt lat="47.53266" lon="-0.07306">
        <ele>82</ele>
        <time>2013-04-21T13:19:43.001Z</time>
      </trkpt>
      <trkpt lat="47.53265" lon="-0.07304">
        <ele>82</ele>
        <time>2013-04-21T13:19:44.001Z</time>
      </trkpt>
      <trkpt lat="47.53265" lon="-0.07299">
        <ele>82</ele>
        <time>2013-04-21T13:19:48.001Z</time>
      </trkpt>
      <trkpt lat="47.53265" lon="-0.07297">
        <ele>82</ele>
        <time>2013-04-21T13:19:49.001Z</time>
      </trkpt>
      <trkpt lat="47.53263" lon="-0.07291">
        <ele>82</ele>
        <time>2013-04-21T13:19:54.001Z</time>
      </trkpt>
      <trkpt lat="47.53263" lon="-0.07289">
        <ele>82</ele>
        <time>2013-04-21T13:19:55.001Z</time>
      </trkpt>
      <trkpt lat="47.53262" lon="-0.07286">
        <ele>82</ele>
        <time>2013-04-21T13:19:57.001Z</time>
      </trkpt>
      <trkpt lat="47.53261" lon="-0.07283">
        <ele>82</ele>
        <time>2013-04-21T13:19:58.001Z</time>
      </trkpt>
      <trkpt lat="47.53259" lon="-0.07277">
        <ele>82</ele>
        <time>2013-04-21T13:20:09.001Z</time>
      </trkpt>
      <trkpt lat="47.53258" lon="-0.07277">
        <ele>82</ele>
        <time>2013-04-21T13:20:10.001Z</time>
      </trkpt>
      <trkpt lat="47.53254" lon="-0.07275">
        <ele>82</ele>
        <time>2013-04-21T13:20:12.001Z</time>
      </trkpt>
      <trkpt lat="47.53251" lon="-0.07276">
        <ele>82</ele>
        <time>2013-04-21T13:20:13.001Z</time>
      </trkpt>
      <trkpt lat="47.53248" lon="-0.07278">
        <ele>82</ele>
        <time>2013-04-21T13:20:15.001Z</time>
      </trkpt>
      <trkpt lat="47.53247" lon="-0.0728">
        <ele>82</ele>
        <time>2013-04-21T13:20:16.001Z</time>
      </trkpt>
      <trkpt lat="47.53242" lon="-0.07279">
        <ele>82</ele>
        <time>2013-04-21T13:20:20.001Z</time>
      </trkpt>
      <trkpt lat="47.53242" lon="-0.0728">
        <ele>82</ele>
        <time>2013-04-21T13:20:21.001Z</time>
      </trkpt>
      <trkpt lat="47.53238" lon="-0.07281">
        <ele>81</ele>
        <time>2013-04-21T13:20:29.001Z</time>
      </trkpt>
      <trkpt lat="47.53236" lon="-0.07281">
        <ele>81</ele>
        <time>2013-04-21T13:20:30.001Z</time>
      </trkpt>
      <trkpt lat="47.53233" lon="-0.07281">
        <ele>81</ele>
        <time>2013-04-21T13:20:31.001Z</time>
      </trkpt>
      <trkpt lat="47.53232" lon="-0.07282">
        <ele>81</ele>
        <time>2013-04-21T13:20:32.001Z</time>
      </trkpt>
      <trkpt lat="47.53228" lon="-0.07282">
        <ele>81</ele>
        <time>2013-04-21T13:20:35.001Z</time>
      </trkpt>
      <trkpt lat="47.53227" lon="-0.07283">
        <ele>81</ele>
        <time>2013-04-21T13:20:36.001Z</time>
      </trkpt>
      <trkpt lat="47.53223" lon="-0.07286">
        <ele>81</ele>
        <time>2013-04-21T13:20:42.001Z</time>
      </trkpt>
      <trkpt lat="47.53222" lon="-0.07286">
        <ele>81</ele>
        <time>2013-04-21T13:20:43.001Z</time>
      </trkpt>
      <trkpt lat="47.53219" lon="-0.07284">
        <ele>81</ele>
        <time>2013-04-21T13:20:45.001Z</time>
      </trkpt>
      <trkpt lat="47.53217" lon="-0.07284">
        <ele>81</ele>
        <time>2013-04-21T13:20:46.001Z</time>
      </trkpt>
      <trkpt lat="47.53214" lon="-0.07284">
        <ele>81</ele>
        <time>2013-04-21T13:20:48.001Z</time>
      </trkpt>
      <trkpt lat="47.53212" lon="-0.07284">
        <ele>81</ele>
        <time>2013-04-21T13:20:49.001Z</time>
      </trkpt>
      <trkpt lat="47.53209" lon="-0.07285">
        <ele>81</ele>
        <time>2013-04-21T13:20:52.001Z</time>
      </trkpt>
      <trkpt lat="47.53207" lon="-0.07285">
        <ele>81</ele>
        <time>2013-04-21T13:20:53.001Z</time>
      </trkpt>
      <trkpt lat="47.53203" lon="-0.07285">
        <ele>81</ele>
        <time>2013-04-21T13:20:55.001Z</time>
      </trkpt>
      <trkpt lat="47.53201" lon="-0.07285">
        <ele>81</ele>
        <time>2013-04-21T13:20:56.001Z</time>
      </trkpt>
      <trkpt lat="47.53198" lon="-0.07286">
        <ele>81</ele>
        <time>2013-04-21T13:20:59.001Z</time>
      </trkpt>
      <trkpt lat="47.53196" lon="-0.07287">
        <ele>81</ele>
        <time>2013-04-21T13:21:00.001Z</time>
      </trkpt>
      <trkpt lat="47.53193" lon="-0.07285">
        <ele>81</ele>
        <time>2013-04-21T13:21:03.001Z</time>
      </trkpt>
      <trkpt lat="47.53192" lon="-0.07286">
        <ele>81</ele>
        <time>2013-04-21T13:21:04.001Z</time>
      </trkpt>
      <trkpt lat="47.53188" lon="-0.07287">
        <ele>81</ele>
        <time>2013-04-21T13:21:08.001Z</time>
      </trkpt>
      <trkpt lat="47.53187" lon="-0.07288">
        <ele>81</ele>
        <time>2013-04-21T13:21:09.001Z</time>
      </trkpt>
      <trkpt lat="47.53183" lon="-0.0729">
        <ele>81</ele>
        <time>2013-04-21T13:21:12.001Z</time>
      </trkpt>
      <trkpt lat="47.53181" lon="-0.0729">
        <ele>81</ele>
        <time>2013-04-21T13:21:13.001Z</time>
      </trkpt>
      <trkpt lat="47.53177" lon="-0.07291">
        <ele>81</ele>
        <time>2013-04-21T13:21:20.001Z</time>
      </trkpt>
      <trkpt lat="47.53177" lon="-0.07292">
        <ele>81</ele>
        <time>2013-04-21T13:21:21.001Z</time>
      </trkpt>
      <trkpt lat="47.53174" lon="-0.07291">
        <ele>81</ele>
        <time>2013-04-21T13:21:24.001Z</time>
      </trkpt>
      <trkpt lat="47.53172" lon="-0.07291">
        <ele>81</ele>
        <time>2013-04-21T13:21:25.001Z</time>
      </trkpt>
      <trkpt lat="47.53168" lon="-0.07293">
        <ele>81</ele>
        <time>2013-04-21T13:21:27.001Z</time>
      </trkpt>
      <trkpt lat="47.53166" lon="-0.07294">
        <ele>80</ele>
        <time>2013-04-21T13:21:28.001Z</time>
      </trkpt>
      <trkpt lat="47.53163" lon="-0.07297">
        <ele>80</ele>
        <time>2013-04-21T13:21:29.001Z</time>
      </trkpt>
      <trkpt lat="47.53162" lon="-0.07298">
        <ele>80</ele>
        <time>2013-04-21T13:21:30.001Z</time>
      </trkpt>
      <trkpt lat="47.53159" lon="-0.07302">
        <ele>80</ele>
        <time>2013-04-21T13:21:33.001Z</time>
      </trkpt>
      <trkpt lat="47.53158" lon="-0.07303">
        <ele>80</ele>
        <time>2013-04-21T13:21:34.001Z</time>
      </trkpt>
      <trkpt lat="47.53154" lon="-0.07305">
        <ele>80</ele>
        <time>2013-04-21T13:21:37.001Z</time>
      </trkpt>
      <trkpt lat="47.53153" lon="-0.07305">
        <ele>80</ele>
        <time>2013-04-21T13:21:38.001Z</time>
      </trkpt>
      <trkpt lat="47.53148" lon="-0.07308">
        <ele>80</ele>
        <time>2013-04-21T13:21:43.001Z</time>
      </trkpt>
      <trkpt lat="47.53148" lon="-0.07308">
        <ele>80</ele>
        <time>2013-04-21T13:21:44.001Z</time>
      </trkpt>
      <trkpt lat="47.53144" lon="-0.0731">
        <ele>80</ele>
        <time>2013-04-21T13:21:49.001Z</time>
      </trkpt>
      <trkpt lat="47.53143" lon="-0.0731">
        <ele>80</ele>
        <time>2013-04-21T13:21:50.001Z</time>
      </trkpt>
      <trkpt lat="47.5314" lon="-0.07311">
        <ele>80</ele>
        <time>2013-04-21T13:21:53.001Z</time>
      </trkpt>
      <trkpt lat="47.53139" lon="-0.07311">
        <ele>80</ele>
        <time>2013-04-21T13:21:54.001Z</time>
      </trkpt>
      <trkpt lat="47.53137" lon="-0.07312">
        <ele>80</ele>
        <time>2013-04-21T13:21:55.001Z</time>
      </trkpt>
      <trkpt lat="47.53134" lon="-0.07314">
        <ele>80</ele>
        <time>2013-04-21T13:21:56.001Z</time>
      </trkpt>
      <trkpt lat="47.53131" lon="-0.07316">
        <ele>80</ele>
        <time>2013-04-21T13:21:58.001Z</time>
      </trkpt>
      <trkpt lat="47.53129" lon="-0.07316">
        <ele>80</ele>
        <time>2013-04-21T13:21:59.001Z</time>
      </trkpt>
      <trkpt lat="47.53125" lon="-0.07317">
        <ele>80</ele>
        <time>2013-04-21T13:22:02.001Z</time>
      </trkpt>
      <trkpt lat="47.53124" lon="-0.07318">
        <ele>80</ele>
        <time>2013-04-21T13:22:03.001Z</time>
      </trkpt>
      <trkpt lat="47.5312" lon="-0.07318">
        <ele>80</ele>
        <time>2013-04-21T13:22:07.001Z</time>
      </trkpt>
      <trkpt lat="47.53119" lon="-0.07318">
        <ele>80</ele>
        <time>2013-04-21T13:22:08.001Z</time>
      </trkpt>
      <trkpt lat="47.53114" lon="-0.07318">
        <ele>80</ele>
        <time>2013-04-21T13:22:13.001Z</time>
      </trkpt>
      <trkpt lat="47.53113" lon="-0.07319">
        <ele>80</ele>
        <time>2013-04-21T13:22:14.001Z</time>
      </trkpt>
      <trkpt lat="47.53109" lon="-0.07317">
        <ele>80</ele>
        <time>2013-04-21T13:22:19.001Z</time>
      </trkpt>
      <trkpt lat="47.53107" lon="-0.07317">
        <ele>80</ele>
        <time>2013-04-21T13:22:20.001Z</time>
      </trkpt>
      <trkpt lat="47.53102" lon="-0.07318">
        <ele>80</ele>
        <time>2013-04-21T13:22:23.001Z</time>
      </trkpt>
      <trkpt lat="47.53101" lon="-0.07319">
        <ele>80</ele>
        <time>2013-04-21T13:22:24.001Z</time>
      </trkpt>
      <trkpt lat="47.53097" lon="-0.0732">
        <ele>80</ele>
        <time>2013-04-21T13:22:29.001Z</time>
      </trkpt>
      <trkpt lat="47.53096" lon="-0.0732">
        <ele>80</ele>
        <time>2013-04-21T13:22:30.001Z</time>
      </trkpt>
      <trkpt lat="47.53092" lon="-0.07321">
        <ele>80</ele>
        <time>2013-04-21T13:22:34.001Z</time>
      </trkpt>
      <trkpt lat="47.5309" lon="-0.07321">
        <ele>80</ele>
        <time>2013-04-21T13:22:35.001Z</time>
      </trkpt>
      <trkpt lat="47.53086" lon="-0.07322">
        <ele>80</ele>
        <time>2013-04-21T13:22:38.001Z</time>
      </trkpt>
      <trkpt lat="47.53085" lon="-0.07322">
        <ele>80</ele>
        <time>2013-04-21T13:22:39.001Z</time>
      </trkpt>
      <trkpt lat="47.53081" lon="-0.07321">
        <ele>81</ele>
        <time>2013-04-21T13:22:43.001Z</time>
      </trkpt>
      <trkpt lat="47.5308" lon="-0.07321">
        <ele>81</ele>
        <time>2013-04-21T13:22:44.001Z</time>
      </trkpt>
      <trkpt lat="47.53077" lon="-0.07322">
        <ele>81</ele>
        <time>2013-04-21T13:22:46.001Z</time>
      </trkpt>
      <trkpt lat="47.53075" lon="-0.07323">
        <ele>81</ele>
        <time>2013-04-21T13:22:47.001Z</time>
      </trkpt>
      <trkpt lat="47.53073" lon="-0.07325">
        <ele>81</ele>
        <time>2013-04-21T13:22:49.001Z</time>
      </trkpt>
      <trkpt lat="47.5307" lon="-0.07325">
        <ele>81</ele>
        <time>2013-04-21T13:22:50.001Z</time>
      </trkpt>
      <trkpt lat="47.53067" lon="-0.07326">
        <ele>81</ele>
        <time>2013-04-21T13:22:52.001Z</time>
      </trkpt>
      <trkpt lat="47.53066" lon="-0.07326">
        <ele>81</ele>
        <time>2013-04-21T13:22:53.001Z</time>
      </trkpt>
      <trkpt lat="47.53061" lon="-0.07324">
        <ele>82</ele>
        <time>2013-04-21T13:22:59.001Z</time>
      </trkpt>
      <trkpt lat="47.5306" lon="-0.07324">
        <ele>82</ele>
        <time>2013-04-21T13:23:00.001Z</time>
      </trkpt>
      <trkpt lat="47.53056" lon="-0.07325">
        <ele>82</ele>
        <time>2013-04-21T13:23:04.001Z</time>
      </trkpt>
      <trkpt lat="47.53055" lon="-0.07326">
        <ele>82</ele>
        <time>2013-04-21T13:23:05.001Z</time>
      </trkpt>
      <trkpt lat="47.53051" lon="-0.07327">
        <ele>82</ele>
        <time>2013-04-21T13:23:09.001Z</time>
      </trkpt>
      <trkpt lat="47.5305" lon="-0.07327">
        <ele>82</ele>
        <time>2013-04-21T13:23:10.001Z</time>
      </trkpt>
      <trkpt lat="47.53047" lon="-0.07328">
        <ele>82</ele>
        <time>2013-04-21T13:23:13.001Z</time>
      </trkpt>
      <trkpt lat="47.53046" lon="-0.07328">
        <ele>82</ele>
        <time>2013-04-21T13:23:14.001Z</time>
      </trkpt>
      <trkpt lat="47.53042" lon="-0.0733">
        <ele>82</ele>
        <time>2013-04-21T13:23:18.001Z</time>
      </trkpt>
      <trkpt lat="47.53041" lon="-0.07331">
        <ele>83</ele>
        <time>2013-04-21T13:23:19.001Z</time>
      </trkpt>
      <trkpt lat="47.53039" lon="-0.07333">
        <ele>83</ele>
        <time>2013-04-21T13:23:21.001Z</time>
      </trkpt>
      <trkpt lat="47.53036" lon="-0.07333">
        <ele>83</ele>
        <time>2013-04-21T13:23:22.001Z</time>
      </trkpt>
      <trkpt lat="47.53032" lon="-0.07331">
        <ele>83</ele>
        <time>2013-04-21T13:23:26.001Z</time>
      </trkpt>
      <trkpt lat="47.53031" lon="-0.07332">
        <ele>83</ele>
        <time>2013-04-21T13:23:27.001Z</time>
      </trkpt>
      <trkpt lat="47.53027" lon="-0.07332">
        <ele>83</ele>
        <time>2013-04-21T13:23:30.001Z</time>
      </trkpt>
      <trkpt lat="47.53025" lon="-0.07333">
        <ele>83</ele>
        <time>2013-04-21T13:23:31.001Z</time>
      </trkpt>
      <trkpt lat="47.53021" lon="-0.07334">
        <ele>83</ele>
        <time>2013-04-21T13:23:35.001Z</time>
      </trkpt>
      <trkpt lat="47.53021" lon="-0.07334">
        <ele>83</ele>
        <time>2013-04-21T13:23:36.001Z</time>
      </trkpt>
      <trkpt lat="47.53016" lon="-0.07335">
        <ele>83</ele>
        <time>2013-04-21T13:23:40.001Z</time>
      </trkpt>
      <trkpt lat="47.53015" lon="-0.07335">
        <ele>83</ele>
        <time>2013-04-21T13:23:41.001Z</time>
      </trkpt>
      <trkpt lat="47.53011" lon="-0.07337">
        <ele>84</ele>
        <time>2013-04-21T13:23:47.001Z</time>
      </trkpt>
      <trkpt lat="47.5301" lon="-0.07337">
        <ele>84</ele>
        <time>2013-04-21T13:23:48.001Z</time>
      </trkpt>
      <trkpt lat="47.53006" lon="-0.07339">
        <ele>84</ele>
        <time>2013-04-21T13:23:54.001Z</time>
      </trkpt>
      <trkpt lat="47.53005" lon="-0.07339">
        <ele>84</ele>
        <time>2013-04-21T13:23:55.001Z</time>
      </trkpt>
      <trkpt lat="47.53001" lon="-0.07338">
        <ele>84</ele>
        <time>2013-04-21T13:23:58.001Z</time>
      </trkpt>
      <trkpt lat="47.53" lon="-0.07337">
        <ele>86</ele>
        <time>2013-04-21T13:23:59.001Z</time>
      </trkpt>
      <trkpt lat="47.52996" lon="-0.07339">
        <ele>86</ele>
        <time>2013-04-21T13:24:05.001Z</time>
      </trkpt>
      <trkpt lat="47.52995" lon="-0.07339">
        <ele>87</ele>
        <time>2013-04-21T13:24:06.001Z</time>
      </trkpt>
      <trkpt lat="47.52991" lon="-0.0734">
        <ele>87</ele>
        <time>2013-04-21T13:24:10.001Z</time>
      </trkpt>
      <trkpt lat="47.52991" lon="-0.07341">
        <ele>87</ele>
        <time>2013-04-21T13:24:11.001Z</time>
      </trkpt>
      <trkpt lat="47.52987" lon="-0.07339">
        <ele>88</ele>
        <time>2013-04-21T13:24:15.001Z</time>
      </trkpt>
      <trkpt lat="47.52983" lon="-0.07338">
        <ele>88</ele>
        <time>2013-04-21T13:24:16.001Z</time>
      </trkpt>
      <trkpt lat="47.5298" lon="-0.07338">
        <ele>89</ele>
        <time>2013-04-21T13:24:18.001Z</time>
      </trkpt>
      <trkpt lat="47.52978" lon="-0.07339">
        <ele>89</ele>
        <time>2013-04-21T13:24:19.001Z</time>
      </trkpt>
      <trkpt lat="47.52975" lon="-0.0734">
        <ele>89</ele>
        <time>2013-04-21T13:24:20.001Z</time>
      </trkpt>
      <trkpt lat="47.52972" lon="-0.07341">
        <ele>90</ele>
        <time>2013-04-21T13:24:21.001Z</time>
      </trkpt>
      <trkpt lat="47.52969" lon="-0.07344">
        <ele>90</ele>
        <time>2013-04-21T13:24:24.001Z</time>
      </trkpt>
      <trkpt lat="47.52968" lon="-0.07345">
        <ele>90</ele>
        <time>2013-04-21T13:24:25.001Z</time>
      </trkpt>
      <trkpt lat="47.52964" lon="-0.07346">
        <ele>91</ele>
        <time>2013-04-21T13:24:35.001Z</time>
      </trkpt>
      <trkpt lat="47.52963" lon="-0.07346">
        <ele>91</ele>
        <time>2013-04-21T13:24:36.001Z</time>
      </trkpt>
      <trkpt lat="47.52959" lon="-0.07348">
        <ele>91</ele>
        <time>2013-04-21T13:24:44.001Z</time>
      </trkpt>
      <trkpt lat="47.52959" lon="-0.07351">
        <ele>91</ele>
        <time>2013-04-21T13:24:45.001Z</time>
      </trkpt>
      <trkpt lat="47.52956" lon="-0.07354">
        <ele>92</ele>
        <time>2013-04-21T13:24:48.001Z</time>
      </trkpt>
      <trkpt lat="47.52955" lon="-0.07355">
        <ele>92</ele>
        <time>2013-04-21T13:24:49.001Z</time>
      </trkpt>
      <trkpt lat="47.52952" lon="-0.07355">
        <ele>92</ele>
        <time>2013-04-21T13:24:51.001Z</time>
      </trkpt>
      <trkpt lat="47.5295" lon="-0.07356">
        <ele>92</ele>
        <time>2013-04-21T13:24:52.001Z</time>
      </trkpt>
      <trkpt lat="47.52947" lon="-0.07357">
        <ele>93</ele>
        <time>2013-04-21T13:24:55.001Z</time>
      </trkpt>
      <trkpt lat="47.52945" lon="-0.07358">
        <ele>93</ele>
        <time>2013-04-21T13:24:56.001Z</time>
      </trkpt>
      <trkpt lat="47.52944" lon="-0.07361">
        <ele>93</ele>
        <time>2013-04-21T13:24:59.001Z</time>
      </trkpt>
      <trkpt lat="47.52942" lon="-0.07364">
        <ele>93</ele>
        <time>2013-04-21T13:25:00.001Z</time>
      </trkpt>
      <trkpt lat="47.52941" lon="-0.07366">
        <ele>93</ele>
        <time>2013-04-21T13:25:03.001Z</time>
      </trkpt>
      <trkpt lat="47.52937" lon="-0.0737">
        <ele>93</ele>
        <time>2013-04-21T13:25:04.001Z</time>
      </trkpt>
      <trkpt lat="47.52934" lon="-0.07374">
        <ele>93</ele>
        <time>2013-04-21T13:25:09.001Z</time>
      </trkpt>
      <trkpt lat="47.52934" lon="-0.07375">
        <ele>93</ele>
        <time>2013-04-21T13:25:10.001Z</time>
      </trkpt>
      <trkpt lat="47.52932" lon="-0.07378">
        <ele>93</ele>
        <time>2013-04-21T13:25:13.001Z</time>
      </trkpt>
      <trkpt lat="47.52932" lon="-0.07381">
        <ele>93</ele>
        <time>2013-04-21T13:25:14.001Z</time>
      </trkpt>
      <trkpt lat="47.52929" lon="-0.07385">
        <ele>93</ele>
        <time>2013-04-21T13:25:18.001Z</time>
      </trkpt>
      <trkpt lat="47.52927" lon="-0.07387">
        <ele>93</ele>
        <time>2013-04-21T13:25:19.001Z</time>
      </trkpt>
      <trkpt lat="47.52927" lon="-0.07391">
        <ele>93</ele>
        <time>2013-04-21T13:25:22.001Z</time>
      </trkpt>
      <trkpt lat="47.52928" lon="-0.07395">
        <ele>93</ele>
        <time>2013-04-21T13:25:23.001Z</time>
      </trkpt>
      <trkpt lat="47.52933" lon="-0.07394">
        <ele>93</ele>
        <time>2013-04-21T13:26:05.001Z</time>
      </trkpt>
      <trkpt lat="47.52933" lon="-0.07395">
        <ele>93</ele>
        <time>2013-04-21T13:26:06.001Z</time>
      </trkpt>
      <trkpt lat="47.52932" lon="-0.07401">
        <ele>93</ele>
        <time>2013-04-21T13:26:26.001Z</time>
      </trkpt>
      <trkpt lat="47.52932" lon="-0.07401">
        <ele>93</ele>
        <time>2013-04-21T13:26:27.001Z</time>
      </trkpt>
      <trkpt lat="47.52935" lon="-0.07397">
        <ele>93</ele>
        <time>2013-04-21T13:27:01.001Z</time>
      </trkpt>
      <trkpt lat="47.52935" lon="-0.07396">
        <ele>93</ele>
        <time>2013-04-21T13:27:02.001Z</time>
      </trkpt>
      <trkpt lat="47.52933" lon="-0.07401">
        <ele>93</ele>
        <time>2013-04-21T13:27:15.001Z</time>
      </trkpt>
      <trkpt lat="47.52932" lon="-0.07403">
        <ele>93</ele>
        <time>2013-04-21T13:27:16.001Z</time>
      </trkpt>
      <trkpt lat="47.52931" lon="-0.07409">
        <ele>93</ele>
        <time>2013-04-21T13:27:18.001Z</time>
      </trkpt>
      <trkpt lat="47.52932" lon="-0.07411">
        <ele>93</ele>
        <time>2013-04-21T13:27:19.001Z</time>
      </trkpt>
      <trkpt lat="47.52931" lon="-0.07416">
        <ele>94</ele>
        <time>2013-04-21T13:27:22.001Z</time>
      </trkpt>
      <trkpt lat="47.5293" lon="-0.07418">
        <ele>93</ele>
        <time>2013-04-21T13:27:23.001Z</time>
      </trkpt>
      <trkpt lat="47.52929" lon="-0.07423">
        <ele>93</ele>
        <time>2013-04-21T13:27:26.001Z</time>
      </trkpt>
      <trkpt lat="47.52928" lon="-0.07424">
        <ele>93</ele>
        <time>2013-04-21T13:27:27.001Z</time>
      </trkpt>
      <trkpt lat="47.52925" lon="-0.07428">
        <ele>93</ele>
        <time>2013-04-21T13:27:30.001Z</time>
      </trkpt>
      <trkpt lat="47.52924" lon="-0.07429">
        <ele>93</ele>
        <time>2013-04-21T13:27:31.001Z</time>
      </trkpt>
      <trkpt lat="47.52922" lon="-0.07434">
        <ele>92</ele>
        <time>2013-04-21T13:27:35.001Z</time>
      </trkpt>
      <trkpt lat="47.52922" lon="-0.07436">
        <ele>92</ele>
        <time>2013-04-21T13:27:36.001Z</time>
      </trkpt>
      <trkpt lat="47.5292" lon="-0.07441">
        <ele>91</ele>
        <time>2013-04-21T13:27:42.001Z</time>
      </trkpt>
      <trkpt lat="47.52919" lon="-0.07442">
        <ele>91</ele>
        <time>2013-04-21T13:27:43.001Z</time>
      </trkpt>
      <trkpt lat="47.52916" lon="-0.07446">
        <ele>96</ele>
        <time>2013-04-21T13:27:50.001Z</time>
      </trkpt>
      <trkpt lat="47.52915" lon="-0.07446">
        <ele>96</ele>
        <time>2013-04-21T13:27:51.001Z</time>
      </trkpt>
      <trkpt lat="47.52912" lon="-0.07445">
        <ele>96</ele>
        <time>2013-04-21T13:27:57.001Z</time>
      </trkpt>
      <trkpt lat="47.5291" lon="-0.07445">
        <ele>96</ele>
        <time>2013-04-21T13:27:58.001Z</time>
      </trkpt>
      <trkpt lat="47.52906" lon="-0.07445">
        <ele>96</ele>
        <time>2013-04-21T13:28:01.001Z</time>
      </trkpt>
      <trkpt lat="47.52905" lon="-0.07446">
        <ele>96</ele>
        <time>2013-04-21T13:28:02.001Z</time>
      </trkpt>
      <trkpt lat="47.52901" lon="-0.07447">
        <ele>96</ele>
        <time>2013-04-21T13:28:07.001Z</time>
      </trkpt>
      <trkpt lat="47.529" lon="-0.07448">
        <ele>96</ele>
        <time>2013-04-21T13:28:08.001Z</time>
      </trkpt>
      <trkpt lat="47.52896" lon="-0.07451">
        <ele>96</ele>
        <time>2013-04-21T13:28:15.001Z</time>
      </trkpt>
      <trkpt lat="47.52895" lon="-0.07451">
        <ele>96</ele>
        <time>2013-04-21T13:28:16.001Z</time>
      </trkpt>
      <trkpt lat="47.52894" lon="-0.07456">
        <ele>96</ele>
        <time>2013-04-21T13:28:20.001Z</time>
      </trkpt>
      <trkpt lat="47.52893" lon="-0.07458">
        <ele>96</ele>
        <time>2013-04-21T13:28:21.001Z</time>
      </trkpt>
      <trkpt lat="47.5289" lon="-0.07463">
        <ele>96</ele>
        <time>2013-04-21T13:28:29.001Z</time>
      </trkpt>
      <trkpt lat="47.5289" lon="-0.07463">
        <ele>96</ele>
        <time>2013-04-21T13:28:30.001Z</time>
      </trkpt>
      <trkpt lat="47.52888" lon="-0.07468">
        <ele>96</ele>
        <time>2013-04-21T13:28:36.001Z</time>
      </trkpt>
      <trkpt lat="47.52887" lon="-0.0747">
        <ele>96</ele>
        <time>2013-04-21T13:28:37.001Z</time>
      </trkpt>
      <trkpt lat="47.52884" lon="-0.07474">
        <ele>96</ele>
        <time>2013-04-21T13:28:43.001Z</time>
      </trkpt>
      <trkpt lat="47.52884" lon="-0.07476">
        <ele>96</ele>
        <time>2013-04-21T13:28:44.001Z</time>
      </trkpt>
      <trkpt lat="47.52883" lon="-0.07479">
        <ele>96</ele>
        <time>2013-04-21T13:28:47.001Z</time>
      </trkpt>
      <trkpt lat="47.5288" lon="-0.07482">
        <ele>96</ele>
        <time>2013-04-21T13:28:48.001Z</time>
      </trkpt>
      <trkpt lat="47.52877" lon="-0.07485">
        <ele>96</ele>
        <time>2013-04-21T13:28:57.001Z</time>
      </trkpt>
      <trkpt lat="47.52876" lon="-0.07487">
        <ele>96</ele>
        <time>2013-04-21T13:28:58.001Z</time>
      </trkpt>
      <trkpt lat="47.52872" lon="-0.07489">
        <ele>96</ele>
        <time>2013-04-21T13:29:02.001Z</time>
      </trkpt>
      <trkpt lat="47.5287" lon="-0.0749">
        <ele>96</ele>
        <time>2013-04-21T13:29:03.001Z</time>
      </trkpt>
      <trkpt lat="47.52867" lon="-0.07491">
        <ele>96</ele>
        <time>2013-04-21T13:29:05.001Z</time>
      </trkpt>
      <trkpt lat="47.52866" lon="-0.07492">
        <ele>96</ele>
        <time>2013-04-21T13:29:06.001Z</time>
      </trkpt>
      <trkpt lat="47.52863" lon="-0.07495">
        <ele>96</ele>
        <time>2013-04-21T13:29:15.001Z</time>
      </trkpt>
      <trkpt lat="47.52862" lon="-0.07496">
        <ele>96</ele>
        <time>2013-04-21T13:29:16.001Z</time>
      </trkpt>
      <trkpt lat="47.52859" lon="-0.07499">
        <ele>96</ele>
        <time>2013-04-21T13:29:18.001Z</time>
      </trkpt>
      <trkpt lat="47.52857" lon="-0.075">
        <ele>93</ele>
        <time>2013-04-21T13:29:19.001Z</time>
      </trkpt>
      <trkpt lat="47.52855" lon="-0.07502">
        <ele>93</ele>
        <time>2013-04-21T13:29:20.001Z</time>
      </trkpt>
      <trkpt lat="47.52853" lon="-0.07503">
        <ele>93</ele>
        <time>2013-04-21T13:29:21.001Z</time>
      </trkpt>
      <trkpt lat="47.5285" lon="-0.07506">
        <ele>93</ele>
        <time>2013-04-21T13:29:23.001Z</time>
      </trkpt>
      <trkpt lat="47.52849" lon="-0.07507">
        <ele>93</ele>
        <time>2013-04-21T13:29:24.001Z</time>
      </trkpt>
      <trkpt lat="47.52845" lon="-0.0751">
        <ele>93</ele>
        <time>2013-04-21T13:29:27.001Z</time>
      </trkpt>
      <trkpt lat="47.52845" lon="-0.07511">
        <ele>93</ele>
        <time>2013-04-21T13:29:28.001Z</time>
      </trkpt>
      <trkpt lat="47.5284" lon="-0.07514">
        <ele>93</ele>
        <time>2013-04-21T13:29:33.001Z</time>
      </trkpt>
      <trkpt lat="47.5284" lon="-0.07514">
        <ele>93</ele>
        <time>2013-04-21T13:29:34.001Z</time>
      </trkpt>
      <trkpt lat="47.52837" lon="-0.07517">
        <ele>93</ele>
        <time>2013-04-21T13:29:39.001Z</time>
      </trkpt>
      <trkpt lat="47.52836" lon="-0.07518">
        <ele>93</ele>
        <time>2013-04-21T13:29:40.001Z</time>
      </trkpt>
      <trkpt lat="47.52833" lon="-0.07521">
        <ele>93</ele>
        <time>2013-04-21T13:29:44.001Z</time>
      </trkpt>
      <trkpt lat="47.52832" lon="-0.07521">
        <ele>93</ele>
        <time>2013-04-21T13:29:45.001Z</time>
      </trkpt>
      <trkpt lat="47.52828" lon="-0.07525">
        <ele>93</ele>
        <time>2013-04-21T13:29:47.001Z</time>
      </trkpt>
      <trkpt lat="47.52827" lon="-0.07525">
        <ele>93</ele>
        <time>2013-04-21T13:29:48.001Z</time>
      </trkpt>
      <trkpt lat="47.52825" lon="-0.07529">
        <ele>92</ele>
        <time>2013-04-21T13:29:53.001Z</time>
      </trkpt>
      <trkpt lat="47.52824" lon="-0.0753">
        <ele>92</ele>
        <time>2013-04-21T13:29:54.001Z</time>
      </trkpt>
      <trkpt lat="47.52821" lon="-0.07533">
        <ele>92</ele>
        <time>2013-04-21T13:29:58.001Z</time>
      </trkpt>
      <trkpt lat="47.52819" lon="-0.07534">
        <ele>92</ele>
        <time>2013-04-21T13:29:59.001Z</time>
      </trkpt>
      <trkpt lat="47.52817" lon="-0.07538">
        <ele>92</ele>
        <time>2013-04-21T13:30:01.001Z</time>
      </trkpt>
      <trkpt lat="47.52816" lon="-0.07539">
        <ele>92</ele>
        <time>2013-04-21T13:30:02.001Z</time>
      </trkpt>
      <trkpt lat="47.52813" lon="-0.07542">
        <ele>92</ele>
        <time>2013-04-21T13:30:05.001Z</time>
      </trkpt>
      <trkpt lat="47.52811" lon="-0.07545">
        <ele>92</ele>
        <time>2013-04-21T13:30:06.001Z</time>
      </trkpt>
      <trkpt lat="47.52809" lon="-0.07549">
        <ele>91</ele>
        <time>2013-04-21T13:30:08.001Z</time>
      </trkpt>
      <trkpt lat="47.52808" lon="-0.07551">
        <ele>91</ele>
        <time>2013-04-21T13:30:09.001Z</time>
      </trkpt>
      <trkpt lat="47.52805" lon="-0.07556">
        <ele>91</ele>
        <time>2013-04-21T13:30:13.001Z</time>
      </trkpt>
      <trkpt lat="47.52804" lon="-0.07557">
        <ele>91</ele>
        <time>2013-04-21T13:30:14.001Z</time>
      </trkpt>
      <trkpt lat="47.52801" lon="-0.07559">
        <ele>91</ele>
        <time>2013-04-21T13:30:17.001Z</time>
      </trkpt>
      <trkpt lat="47.528" lon="-0.07561">
        <ele>91</ele>
        <time>2013-04-21T13:30:18.001Z</time>
      </trkpt>
      <trkpt lat="47.52797" lon="-0.07563">
        <ele>91</ele>
        <time>2013-04-21T13:30:22.001Z</time>
      </trkpt>
      <trkpt lat="47.52795" lon="-0.07563">
        <ele>91</ele>
        <time>2013-04-21T13:30:23.001Z</time>
      </trkpt>
      <trkpt lat="47.52792" lon="-0.07565">
        <ele>91</ele>
        <time>2013-04-21T13:30:26.001Z</time>
      </trkpt>
      <trkpt lat="47.5279" lon="-0.07565">
        <ele>91</ele>
        <time>2013-04-21T13:30:27.001Z</time>
      </trkpt>
      <trkpt lat="47.52787" lon="-0.07569">
        <ele>91</ele>
        <time>2013-04-21T13:30:30.001Z</time>
      </trkpt>
      <trkpt lat="47.52786" lon="-0.0757">
        <ele>91</ele>
        <time>2013-04-21T13:30:31.001Z</time>
      </trkpt>
      <trkpt lat="47.52783" lon="-0.07573">
        <ele>91</ele>
        <time>2013-04-21T13:30:36.001Z</time>
      </trkpt>
      <trkpt lat="47.52782" lon="-0.07573">
        <ele>91</ele>
        <time>2013-04-21T13:30:37.001Z</time>
      </trkpt>
      <trkpt lat="47.52779" lon="-0.07577">
        <ele>91</ele>
        <time>2013-04-21T13:30:40.001Z</time>
      </trkpt>
      <trkpt lat="47.52778" lon="-0.07578">
        <ele>91</ele>
        <time>2013-04-21T13:30:41.001Z</time>
      </trkpt>
      <trkpt lat="47.52775" lon="-0.07582">
        <ele>91</ele>
        <time>2013-04-21T13:30:46.001Z</time>
      </trkpt>
      <trkpt lat="47.52774" lon="-0.07582">
        <ele>91</ele>
        <time>2013-04-21T13:30:47.001Z</time>
      </trkpt>
      <trkpt lat="47.5277" lon="-0.07585">
        <ele>90</ele>
        <time>2013-04-21T13:30:52.001Z</time>
      </trkpt>
      <trkpt lat="47.52769" lon="-0.07585">
        <ele>91</ele>
        <time>2013-04-21T13:30:53.001Z</time>
      </trkpt>
      <trkpt lat="47.52765" lon="-0.07586">
        <ele>91</ele>
        <time>2013-04-21T13:30:56.001Z</time>
      </trkpt>
      <trkpt lat="47.52764" lon="-0.07586">
        <ele>91</ele>
        <time>2013-04-21T13:30:57.001Z</time>
      </trkpt>
      <trkpt lat="47.52761" lon="-0.07588">
        <ele>91</ele>
        <time>2013-04-21T13:30:59.001Z</time>
      </trkpt>
      <trkpt lat="47.52759" lon="-0.0759">
        <ele>91</ele>
        <time>2013-04-21T13:31:00.001Z</time>
      </trkpt>
      <trkpt lat="47.52756" lon="-0.07593">
        <ele>91</ele>
        <time>2013-04-21T13:31:02.001Z</time>
      </trkpt>
      <trkpt lat="47.52754" lon="-0.07594">
        <ele>91</ele>
        <time>2013-04-21T13:31:03.001Z</time>
      </trkpt>
      <trkpt lat="47.52751" lon="-0.07597">
        <ele>91</ele>
        <time>2013-04-21T13:31:08.001Z</time>
      </trkpt>
      <trkpt lat="47.5275" lon="-0.07598">
        <ele>91</ele>
        <time>2013-04-21T13:31:09.001Z</time>
      </trkpt>
      <trkpt lat="47.52746" lon="-0.07601">
        <ele>91</ele>
        <time>2013-04-21T13:31:12.001Z</time>
      </trkpt>
      <trkpt lat="47.52745" lon="-0.07601">
        <ele>91</ele>
        <time>2013-04-21T13:31:13.001Z</time>
      </trkpt>
      <trkpt lat="47.52747" lon="-0.07606">
        <ele>91</ele>
        <time>2013-04-21T13:31:23.001Z</time>
      </trkpt>
      <trkpt lat="47.52748" lon="-0.07608">
        <ele>91</ele>
        <time>2013-04-21T13:31:24.001Z</time>
      </trkpt>
      <trkpt lat="47.52749" lon="-0.07612">
        <ele>91</ele>
        <time>2013-04-21T13:31:26.001Z</time>
      </trkpt>
      <trkpt lat="47.5275" lon="-0.07615">
        <ele>91</ele>
        <time>2013-04-21T13:31:27.001Z</time>
      </trkpt>
      <trkpt lat="47.52749" lon="-0.07621">
        <ele>91</ele>
        <time>2013-04-21T13:31:30.001Z</time>
      </trkpt>
      <trkpt lat="47.52749" lon="-0.07622">
        <ele>91</ele>
        <time>2013-04-21T13:31:31.001Z</time>
      </trkpt>
      <trkpt lat="47.5275" lon="-0.07628">
        <ele>90</ele>
        <time>2013-04-21T13:31:35.001Z</time>
      </trkpt>
      <trkpt lat="47.5275" lon="-0.07629">
        <ele>90</ele>
        <time>2013-04-21T13:31:36.001Z</time>
      </trkpt>
      <trkpt lat="47.52752" lon="-0.07635">
        <ele>90</ele>
        <time>2013-04-21T13:31:39.001Z</time>
      </trkpt>
      <trkpt lat="47.52753" lon="-0.07637">
        <ele>90</ele>
        <time>2013-04-21T13:31:40.001Z</time>
      </trkpt>
      <trkpt lat="47.52754" lon="-0.07642">
        <ele>90</ele>
        <time>2013-04-21T13:31:43.001Z</time>
      </trkpt>
      <trkpt lat="47.52754" lon="-0.07644">
        <ele>90</ele>
        <time>2013-04-21T13:31:44.001Z</time>
      </trkpt>
      <trkpt lat="47.52755" lon="-0.07649">
        <ele>90</ele>
        <time>2013-04-21T13:31:47.001Z</time>
      </trkpt>
      <trkpt lat="47.52756" lon="-0.07651">
        <ele>90</ele>
        <time>2013-04-21T13:31:48.001Z</time>
      </trkpt>
      <trkpt lat="47.52757" lon="-0.07656">
        <ele>90</ele>
        <time>2013-04-21T13:31:51.001Z</time>
      </trkpt>
      <trkpt lat="47.52757" lon="-0.07658">
        <ele>90</ele>
        <time>2013-04-21T13:31:52.001Z</time>
      </trkpt>
      <trkpt lat="47.52759" lon="-0.07664">
        <ele>90</ele>
        <time>2013-04-21T13:31:56.001Z</time>
      </trkpt>
      <trkpt lat="47.52759" lon="-0.07665">
        <ele>90</ele>
        <time>2013-04-21T13:31:57.001Z</time>
      </trkpt>
      <trkpt lat="47.52761" lon="-0.07671">
        <ele>90</ele>
        <time>2013-04-21T13:32:01.001Z</time>
      </trkpt>
      <trkpt lat="47.52762" lon="-0.07672">
        <ele>90</ele>
        <time>2013-04-21T13:32:02.001Z</time>
      </trkpt>
      <trkpt lat="47.52764" lon="-0.07678">
        <ele>90</ele>
        <time>2013-04-21T13:32:05.001Z</time>
      </trkpt>
      <trkpt lat="47.52764" lon="-0.07679">
        <ele>90</ele>
        <time>2013-04-21T13:32:06.001Z</time>
      </trkpt>
      <trkpt lat="47.52765" lon="-0.07685">
        <ele>90</ele>
        <time>2013-04-21T13:32:09.001Z</time>
      </trkpt>
      <trkpt lat="47.52765" lon="-0.07686">
        <ele>90</ele>
        <time>2013-04-21T13:32:10.001Z</time>
      </trkpt>
      <trkpt lat="47.52767" lon="-0.07692">
        <ele>91</ele>
        <time>2013-04-21T13:32:14.001Z</time>
      </trkpt>
      <trkpt lat="47.52767" lon="-0.07695">
        <ele>91</ele>
        <time>2013-04-21T13:32:15.001Z</time>
      </trkpt>
      <trkpt lat="47.52769" lon="-0.077">
        <ele>91</ele>
        <time>2013-04-21T13:32:18.001Z</time>
      </trkpt>
      <trkpt lat="47.52769" lon="-0.07702">
        <ele>91</ele>
        <time>2013-04-21T13:32:19.001Z</time>
      </trkpt>
      <trkpt lat="47.52772" lon="-0.07707">
        <ele>91</ele>
        <time>2013-04-21T13:32:22.001Z</time>
      </trkpt>
      <trkpt lat="47.52773" lon="-0.07708">
        <ele>91</ele>
        <time>2013-04-21T13:32:23.001Z</time>
      </trkpt>
      <trkpt lat="47.52775" lon="-0.07713">
        <ele>91</ele>
        <time>2013-04-21T13:32:27.001Z</time>
      </trkpt>
      <trkpt lat="47.52775" lon="-0.07715">
        <ele>91</ele>
        <time>2013-04-21T13:32:28.001Z</time>
      </trkpt>
      <trkpt lat="47.52777" lon="-0.0772">
        <ele>91</ele>
        <time>2013-04-21T13:32:31.001Z</time>
      </trkpt>
      <trkpt lat="47.52777" lon="-0.07722">
        <ele>91</ele>
        <time>2013-04-21T13:32:32.001Z</time>
      </trkpt>
      <trkpt lat="47.5278" lon="-0.07727">
        <ele>91</ele>
        <time>2013-04-21T13:32:36.001Z</time>
      </trkpt>
      <trkpt lat="47.52781" lon="-0.07728">
        <ele>91</ele>
        <time>2013-04-21T13:32:37.001Z</time>
      </trkpt>
      <trkpt lat="47.52782" lon="-0.07733">
        <ele>91</ele>
        <time>2013-04-21T13:32:41.001Z</time>
      </trkpt>
      <trkpt lat="47.52782" lon="-0.07734">
        <ele>91</ele>
        <time>2013-04-21T13:32:42.001Z</time>
      </trkpt>
      <trkpt lat="47.52785" lon="-0.07739">
        <ele>91</ele>
        <time>2013-04-21T13:32:47.001Z</time>
      </trkpt>
      <trkpt lat="47.52785" lon="-0.07741">
        <ele>91</ele>
        <time>2013-04-21T13:32:48.001Z</time>
      </trkpt>
      <trkpt lat="47.52786" lon="-0.07747">
        <ele>91</ele>
        <time>2013-04-21T13:32:52.001Z</time>
      </trkpt>
      <trkpt lat="47.52786" lon="-0.07748">
        <ele>91</ele>
        <time>2013-04-21T13:32:53.001Z</time>
      </trkpt>
      <trkpt lat="47.52787" lon="-0.07752">
        <ele>91</ele>
        <time>2013-04-21T13:32:55.001Z</time>
      </trkpt>
      <trkpt lat="47.52788" lon="-0.07754">
        <ele>91</ele>
        <time>2013-04-21T13:32:56.001Z</time>
      </trkpt>
      <trkpt lat="47.52791" lon="-0.07758">
        <ele>91</ele>
        <time>2013-04-21T13:33:02.001Z</time>
      </trkpt>
      <trkpt lat="47.52792" lon="-0.07758">
        <ele>91</ele>
        <time>2013-04-21T13:33:03.001Z</time>
      </trkpt>
      <trkpt lat="47.52793" lon="-0.07764">
        <ele>90</ele>
        <time>2013-04-21T13:33:08.001Z</time>
      </trkpt>
      <trkpt lat="47.52793" lon="-0.07765">
        <ele>90</ele>
        <time>2013-04-21T13:33:09.001Z</time>
      </trkpt>
      <trkpt lat="47.52795" lon="-0.0777">
        <ele>90</ele>
        <time>2013-04-21T13:33:16.001Z</time>
      </trkpt>
      <trkpt lat="47.52795" lon="-0.07772">
        <ele>90</ele>
        <time>2013-04-21T13:33:17.001Z</time>
      </trkpt>
      <trkpt lat="47.52797" lon="-0.07777">
        <ele>90</ele>
        <time>2013-04-21T13:33:22.001Z</time>
      </trkpt>
      <trkpt lat="47.52797" lon="-0.07778">
        <ele>90</ele>
        <time>2013-04-21T13:33:23.001Z</time>
      </trkpt>
      <trkpt lat="47.528" lon="-0.07783">
        <ele>90</ele>
        <time>2013-04-21T13:33:27.001Z</time>
      </trkpt>
      <trkpt lat="47.528" lon="-0.07785">
        <ele>90</ele>
        <time>2013-04-21T13:33:28.001Z</time>
      </trkpt>
      <trkpt lat="47.52804" lon="-0.07787">
        <ele>90</ele>
        <time>2013-04-21T13:33:39.001Z</time>
      </trkpt>
      <trkpt lat="47.52805" lon="-0.07789">
        <ele>90</ele>
        <time>2013-04-21T13:33:40.001Z</time>
      </trkpt>
      <trkpt lat="47.52806" lon="-0.07793">
        <ele>90</ele>
        <time>2013-04-21T13:33:43.001Z</time>
      </trkpt>
      <trkpt lat="47.52807" lon="-0.07795">
        <ele>90</ele>
        <time>2013-04-21T13:33:44.001Z</time>
      </trkpt>
      <trkpt lat="47.52809" lon="-0.078">
        <ele>90</ele>
        <time>2013-04-21T13:33:47.001Z</time>
      </trkpt>
      <trkpt lat="47.52809" lon="-0.07802">
        <ele>90</ele>
        <time>2013-04-21T13:33:48.001Z</time>
      </trkpt>
      <trkpt lat="47.52811" lon="-0.07808">
        <ele>90</ele>
        <time>2013-04-21T13:33:51.001Z</time>
      </trkpt>
      <trkpt lat="47.52811" lon="-0.07809">
        <ele>90</ele>
        <time>2013-04-21T13:33:52.001Z</time>
      </trkpt>
      <trkpt lat="47.52813" lon="-0.07815">
        <ele>90</ele>
        <time>2013-04-21T13:33:55.001Z</time>
      </trkpt>
      <trkpt lat="47.52813" lon="-0.07817">
        <ele>90</ele>
        <time>2013-04-21T13:33:56.001Z</time>
      </trkpt>
      <trkpt lat="47.52815" lon="-0.07822">
        <ele>90</ele>
        <time>2013-04-21T13:33:59.001Z</time>
      </trkpt>
      <trkpt lat="47.52815" lon="-0.07824">
        <ele>90</ele>
        <time>2013-04-21T13:34:00.001Z</time>
      </trkpt>
      <trkpt lat="47.52817" lon="-0.07828">
        <ele>90</ele>
        <time>2013-04-21T13:34:04.001Z</time>
      </trkpt>
      <trkpt lat="47.52817" lon="-0.0783">
        <ele>90</ele>
        <time>2013-04-21T13:34:05.001Z</time>
      </trkpt>
      <trkpt lat="47.52819" lon="-0.07835">
        <ele>89</ele>
        <time>2013-04-21T13:34:08.001Z</time>
      </trkpt>
      <trkpt lat="47.52819" lon="-0.07836">
        <ele>89</ele>
        <time>2013-04-21T13:34:09.001Z</time>
      </trkpt>
      <trkpt lat="47.52821" lon="-0.0784">
        <ele>89</ele>
        <time>2013-04-21T13:34:12.001Z</time>
      </trkpt>
      <trkpt lat="47.52822" lon="-0.07843">
        <ele>89</ele>
        <time>2013-04-21T13:34:13.001Z</time>
      </trkpt>
      <trkpt lat="47.52824" lon="-0.07847">
        <ele>89</ele>
        <time>2013-04-21T13:34:16.001Z</time>
      </trkpt>
      <trkpt lat="47.52825" lon="-0.07849">
        <ele>89</ele>
        <time>2013-04-21T13:34:17.001Z</time>
      </trkpt>
      <trkpt lat="47.52826" lon="-0.07853">
        <ele>89</ele>
        <time>2013-04-21T13:34:20.001Z</time>
      </trkpt>
      <trkpt lat="47.52827" lon="-0.07855">
        <ele>89</ele>
        <time>2013-04-21T13:34:21.001Z</time>
      </trkpt>
      <trkpt lat="47.52828" lon="-0.07861">
        <ele>89</ele>
        <time>2013-04-21T13:34:25.001Z</time>
      </trkpt>
      <trkpt lat="47.52829" lon="-0.07863">
        <ele>89</ele>
        <time>2013-04-21T13:34:26.001Z</time>
      </trkpt>
      <trkpt lat="47.5283" lon="-0.07868">
        <ele>89</ele>
        <time>2013-04-21T13:34:29.001Z</time>
      </trkpt>
      <trkpt lat="47.52831" lon="-0.0787">
        <ele>89</ele>
        <time>2013-04-21T13:34:30.001Z</time>
      </trkpt>
      <trkpt lat="47.52833" lon="-0.07876">
        <ele>89</ele>
        <time>2013-04-21T13:34:34.001Z</time>
      </trkpt>
      <trkpt lat="47.52833" lon="-0.07877">
        <ele>89</ele>
        <time>2013-04-21T13:34:35.001Z</time>
      </trkpt>
      <trkpt lat="47.52835" lon="-0.07883">
        <ele>87</ele>
        <time>2013-04-21T13:34:38.001Z</time>
      </trkpt>
      <trkpt lat="47.52836" lon="-0.07885">
        <ele>87</ele>
        <time>2013-04-21T13:34:39.001Z</time>
      </trkpt>
      <trkpt lat="47.52837" lon="-0.07891">
        <ele>87</ele>
        <time>2013-04-21T13:34:42.001Z</time>
      </trkpt>
      <trkpt lat="47.52838" lon="-0.07892">
        <ele>87</ele>
        <time>2013-04-21T13:34:43.001Z</time>
      </trkpt>
      <trkpt lat="47.52839" lon="-0.07898">
        <ele>87</ele>
        <time>2013-04-21T13:34:46.001Z</time>
      </trkpt>
      <trkpt lat="47.5284" lon="-0.07899">
        <ele>87</ele>
        <time>2013-04-21T13:34:47.001Z</time>
      </trkpt>
      <trkpt lat="47.52841" lon="-0.07905">
        <ele>88</ele>
        <time>2013-04-21T13:34:50.001Z</time>
      </trkpt>
      <trkpt lat="47.52842" lon="-0.07907">
        <ele>88</ele>
        <time>2013-04-21T13:34:51.001Z</time>
      </trkpt>
      <trkpt lat="47.52844" lon="-0.07912">
        <ele>88</ele>
        <time>2013-04-21T13:34:54.001Z</time>
      </trkpt>
      <trkpt lat="47.52844" lon="-0.07913">
        <ele>88</ele>
        <time>2013-04-21T13:34:55.001Z</time>
      </trkpt>
      <trkpt lat="47.52845" lon="-0.07919">
        <ele>88</ele>
        <time>2013-04-21T13:34:58.001Z</time>
      </trkpt>
      <trkpt lat="47.52846" lon="-0.07921">
        <ele>88</ele>
        <time>2013-04-21T13:34:59.001Z</time>
      </trkpt>
      <trkpt lat="47.52848" lon="-0.07925">
        <ele>87</ele>
        <time>2013-04-21T13:35:01.001Z</time>
      </trkpt>
      <trkpt lat="47.52848" lon="-0.07927">
        <ele>87</ele>
        <time>2013-04-21T13:35:02.001Z</time>
      </trkpt>
      <trkpt lat="47.52849" lon="-0.07932">
        <ele>87</ele>
        <time>2013-04-21T13:35:07.001Z</time>
      </trkpt>
      <trkpt lat="47.52849" lon="-0.07934">
        <ele>87</ele>
        <time>2013-04-21T13:35:08.001Z</time>
      </trkpt>
      <trkpt lat="47.52851" lon="-0.07938">
        <ele>87</ele>
        <time>2013-04-21T13:35:11.001Z</time>
      </trkpt>
      <trkpt lat="47.52852" lon="-0.0794">
        <ele>87</ele>
        <time>2013-04-21T13:35:12.001Z</time>
      </trkpt>
      <trkpt lat="47.52853" lon="-0.07945">
        <ele>87</ele>
        <time>2013-04-21T13:35:14.001Z</time>
      </trkpt>
      <trkpt lat="47.52854" lon="-0.07947">
        <ele>87</ele>
        <time>2013-04-21T13:35:15.001Z</time>
      </trkpt>
      <trkpt lat="47.52856" lon="-0.07952">
        <ele>87</ele>
        <time>2013-04-21T13:35:18.001Z</time>
      </trkpt>
      <trkpt lat="47.52856" lon="-0.07954">
        <ele>87</ele>
        <time>2013-04-21T13:35:19.001Z</time>
      </trkpt>
      <trkpt lat="47.52856" lon="-0.0796">
        <ele>87</ele>
        <time>2013-04-21T13:35:24.001Z</time>
      </trkpt>
      <trkpt lat="47.52857" lon="-0.07962">
        <ele>87</ele>
        <time>2013-04-21T13:35:25.001Z</time>
      </trkpt>
      <trkpt lat="47.52858" lon="-0.07968">
        <ele>87</ele>
        <time>2013-04-21T13:35:28.001Z</time>
      </trkpt>
      <trkpt lat="47.52858" lon="-0.0797">
        <ele>87</ele>
        <time>2013-04-21T13:35:29.001Z</time>
      </trkpt>
      <trkpt lat="47.52859" lon="-0.07974">
        <ele>87</ele>
        <time>2013-04-21T13:35:32.001Z</time>
      </trkpt>
      <trkpt lat="47.5286" lon="-0.07976">
        <ele>87</ele>
        <time>2013-04-21T13:35:33.001Z</time>
      </trkpt>
      <trkpt lat="47.52861" lon="-0.07982">
        <ele>87</ele>
        <time>2013-04-21T13:35:36.001Z</time>
      </trkpt>
      <trkpt lat="47.52861" lon="-0.07984">
        <ele>87</ele>
        <time>2013-04-21T13:35:37.001Z</time>
      </trkpt>
      <trkpt lat="47.52862" lon="-0.07989">
        <ele>87</ele>
        <time>2013-04-21T13:35:40.001Z</time>
      </trkpt>
      <trkpt lat="47.52863" lon="-0.07991">
        <ele>87</ele>
        <time>2013-04-21T13:35:41.001Z</time>
      </trkpt>
      <trkpt lat="47.52864" lon="-0.07997">
        <ele>87</ele>
        <time>2013-04-21T13:35:44.001Z</time>
      </trkpt>
      <trkpt lat="47.52864" lon="-0.07998">
        <ele>87</ele>
        <time>2013-04-21T13:35:45.001Z</time>
      </trkpt>
      <trkpt lat="47.52865" lon="-0.08003">
        <ele>86</ele>
        <time>2013-04-21T13:35:48.001Z</time>
      </trkpt>
      <trkpt lat="47.52865" lon="-0.08005">
        <ele>86</ele>
        <time>2013-04-21T13:35:49.001Z</time>
      </trkpt>
      <trkpt lat="47.52865" lon="-0.08009">
        <ele>86</ele>
        <time>2013-04-21T13:35:53.001Z</time>
      </trkpt>
      <trkpt lat="47.52865" lon="-0.08011">
        <ele>86</ele>
        <time>2013-04-21T13:35:54.001Z</time>
      </trkpt>
      <trkpt lat="47.52866" lon="-0.08017">
        <ele>86</ele>
        <time>2013-04-21T13:35:57.001Z</time>
      </trkpt>
      <trkpt lat="47.52866" lon="-0.08019">
        <ele>86</ele>
        <time>2013-04-21T13:35:58.001Z</time>
      </trkpt>
      <trkpt lat="47.52866" lon="-0.08025">
        <ele>86</ele>
        <time>2013-04-21T13:36:01.001Z</time>
      </trkpt>
      <trkpt lat="47.52866" lon="-0.08027">
        <ele>86</ele>
        <time>2013-04-21T13:36:02.001Z</time>
      </trkpt>
      <trkpt lat="47.52866" lon="-0.08034">
        <ele>86</ele>
        <time>2013-04-21T13:36:08.001Z</time>
      </trkpt>
      <trkpt lat="47.52866" lon="-0.08034">
        <ele>86</ele>
        <time>2013-04-21T13:36:09.001Z</time>
      </trkpt>
      <trkpt lat="47.52866" lon="-0.0804">
        <ele>86</ele>
        <time>2013-04-21T13:36:21.001Z</time>
      </trkpt>
      <trkpt lat="47.52866" lon="-0.08042">
        <ele>86</ele>
        <time>2013-04-21T13:36:22.001Z</time>
      </trkpt>
      <trkpt lat="47.52866" lon="-0.08047">
        <ele>86</ele>
        <time>2013-04-21T13:36:24.001Z</time>
      </trkpt>
      <trkpt lat="47.52866" lon="-0.08049">
        <ele>86</ele>
        <time>2013-04-21T13:36:25.001Z</time>
      </trkpt>
      <trkpt lat="47.52866" lon="-0.08055">
        <ele>86</ele>
        <time>2013-04-21T13:36:28.001Z</time>
      </trkpt>
      <trkpt lat="47.52867" lon="-0.08056">
        <ele>86</ele>
        <time>2013-04-21T13:36:29.001Z</time>
      </trkpt>
      <trkpt lat="47.52867" lon="-0.08062">
        <ele>86</ele>
        <time>2013-04-21T13:36:32.001Z</time>
      </trkpt>
      <trkpt lat="47.52867" lon="-0.08065">
        <ele>86</ele>
        <time>2013-04-21T13:36:33.001Z</time>
      </trkpt>
      <trkpt lat="47.52867" lon="-0.08071">
        <ele>86</ele>
        <time>2013-04-21T13:36:38.001Z</time>
      </trkpt>
      <trkpt lat="47.52868" lon="-0.08072">
        <ele>86</ele>
        <time>2013-04-21T13:36:39.001Z</time>
      </trkpt>
      <trkpt lat="47.52869" lon="-0.08077">
        <ele>86</ele>
        <time>2013-04-21T13:36:43.001Z</time>
      </trkpt>
      <trkpt lat="47.52869" lon="-0.08079">
        <ele>86</ele>
        <time>2013-04-21T13:36:44.001Z</time>
      </trkpt>
      <trkpt lat="47.5287" lon="-0.08084">
        <ele>86</ele>
        <time>2013-04-21T13:36:47.001Z</time>
      </trkpt>
      <trkpt lat="47.5287" lon="-0.08085">
        <ele>86</ele>
        <time>2013-04-21T13:36:48.001Z</time>
      </trkpt>
      <trkpt lat="47.52871" lon="-0.08091">
        <ele>86</ele>
        <time>2013-04-21T13:36:53.001Z</time>
      </trkpt>
      <trkpt lat="47.52871" lon="-0.08092">
        <ele>86</ele>
        <time>2013-04-21T13:36:54.001Z</time>
      </trkpt>
      <trkpt lat="47.52871" lon="-0.08097">
        <ele>86</ele>
        <time>2013-04-21T13:36:59.001Z</time>
      </trkpt>
      <trkpt lat="47.5287" lon="-0.08099">
        <ele>86</ele>
        <time>2013-04-21T13:37:00.001Z</time>
      </trkpt>
      <trkpt lat="47.5287" lon="-0.08104">
        <ele>86</ele>
        <time>2013-04-21T13:37:03.001Z</time>
      </trkpt>
      <trkpt lat="47.5287" lon="-0.08107">
        <ele>86</ele>
        <time>2013-04-21T13:37:04.001Z</time>
      </trkpt>
      <trkpt lat="47.52872" lon="-0.08113">
        <ele>86</ele>
        <time>2013-04-21T13:37:07.001Z</time>
      </trkpt>
      <trkpt lat="47.52872" lon="-0.08114">
        <ele>86</ele>
        <time>2013-04-21T13:37:08.001Z</time>
      </trkpt>
      <trkpt lat="47.52872" lon="-0.08121">
        <ele>86</ele>
        <time>2013-04-21T13:37:17.001Z</time>
      </trkpt>
      <trkpt lat="47.52872" lon="-0.08122">
        <ele>86</ele>
        <time>2013-04-21T13:37:18.001Z</time>
      </trkpt>
      <trkpt lat="47.52871" lon="-0.08128">
        <ele>86</ele>
        <time>2013-04-21T13:37:23.001Z</time>
      </trkpt>
      <trkpt lat="47.52871" lon="-0.0813">
        <ele>86</ele>
        <time>2013-04-21T13:37:24.001Z</time>
      </trkpt>
      <trkpt lat="47.52871" lon="-0.08135">
        <ele>86</ele>
        <time>2013-04-21T13:37:27.001Z</time>
      </trkpt>
      <trkpt lat="47.52872" lon="-0.08137">
        <ele>86</ele>
        <time>2013-04-21T13:37:28.001Z</time>
      </trkpt>
      <trkpt lat="47.52872" lon="-0.08142">
        <ele>86</ele>
        <time>2013-04-21T13:37:31.001Z</time>
      </trkpt>
      <trkpt lat="47.52872" lon="-0.08143">
        <ele>86</ele>
        <time>2013-04-21T13:37:32.001Z</time>
      </trkpt>
      <trkpt lat="47.52872" lon="-0.0815">
        <ele>86</ele>
        <time>2013-04-21T13:37:36.001Z</time>
      </trkpt>
      <trkpt lat="47.52871" lon="-0.08151">
        <ele>86</ele>
        <time>2013-04-21T13:37:37.001Z</time>
      </trkpt>
      <trkpt lat="47.52871" lon="-0.08156">
        <ele>86</ele>
        <time>2013-04-21T13:37:41.001Z</time>
      </trkpt>
      <trkpt lat="47.52871" lon="-0.08158">
        <ele>86</ele>
        <time>2013-04-21T13:37:42.001Z</time>
      </trkpt>
      <trkpt lat="47.5287" lon="-0.08162">
        <ele>86</ele>
        <time>2013-04-21T13:37:45.001Z</time>
      </trkpt>
      <trkpt lat="47.5287" lon="-0.08164">
        <ele>86</ele>
        <time>2013-04-21T13:37:46.001Z</time>
      </trkpt>
      <trkpt lat="47.52871" lon="-0.0817">
        <ele>86</ele>
        <time>2013-04-21T13:37:49.001Z</time>
      </trkpt>
      <trkpt lat="47.52871" lon="-0.08172">
        <ele>86</ele>
        <time>2013-04-21T13:37:50.001Z</time>
      </trkpt>
      <trkpt lat="47.52871" lon="-0.08177">
        <ele>86</ele>
        <time>2013-04-21T13:37:53.001Z</time>
      </trkpt>
      <trkpt lat="47.52871" lon="-0.08179">
        <ele>86</ele>
        <time>2013-04-21T13:37:54.001Z</time>
      </trkpt>
      <trkpt lat="47.52872" lon="-0.08184">
        <ele>86</ele>
        <time>2013-04-21T13:38:02.001Z</time>
      </trkpt>
      <trkpt lat="47.52871" lon="-0.08186">
        <ele>86</ele>
        <time>2013-04-21T13:38:03.001Z</time>
      </trkpt>
      <trkpt lat="47.5287" lon="-0.08191">
        <ele>86</ele>
        <time>2013-04-21T13:38:06.001Z</time>
      </trkpt>
      <trkpt lat="47.52869" lon="-0.08192">
        <ele>86</ele>
        <time>2013-04-21T13:38:07.001Z</time>
      </trkpt>
      <trkpt lat="47.52868" lon="-0.08198">
        <ele>86</ele>
        <time>2013-04-21T13:38:10.001Z</time>
      </trkpt>
      <trkpt lat="47.52868" lon="-0.08202">
        <ele>86</ele>
        <time>2013-04-21T13:38:11.001Z</time>
      </trkpt>
      <trkpt lat="47.52869" lon="-0.08208">
        <ele>86</ele>
        <time>2013-04-21T13:38:14.001Z</time>
      </trkpt>
      <trkpt lat="47.5287" lon="-0.0821">
        <ele>86</ele>
        <time>2013-04-21T13:38:15.001Z</time>
      </trkpt>
      <trkpt lat="47.52872" lon="-0.08212">
        <ele>86</ele>
        <time>2013-04-21T13:38:16.001Z</time>
      </trkpt>
      <trkpt lat="47.52874" lon="-0.08215">
        <ele>86</ele>
        <time>2013-04-21T13:38:17.001Z</time>
      </trkpt>
      <trkpt lat="47.52876" lon="-0.08219">
        <ele>86</ele>
        <time>2013-04-21T13:38:21.001Z</time>
      </trkpt>
      <trkpt lat="47.52876" lon="-0.08221">
        <ele>86</ele>
        <time>2013-04-21T13:38:22.001Z</time>
      </trkpt>
      <trkpt lat="47.52877" lon="-0.08227">
        <ele>86</ele>
        <time>2013-04-21T13:38:26.001Z</time>
      </trkpt>
      <trkpt lat="47.52877" lon="-0.08228">
        <ele>86</ele>
        <time>2013-04-21T13:38:27.001Z</time>
      </trkpt>
      <trkpt lat="47.52877" lon="-0.08233">
        <ele>86</ele>
        <time>2013-04-21T13:38:31.001Z</time>
      </trkpt>
      <trkpt lat="47.52877" lon="-0.08235">
        <ele>86</ele>
        <time>2013-04-21T13:38:32.001Z</time>
      </trkpt>
      <trkpt lat="47.52877" lon="-0.0824">
        <ele>86</ele>
        <time>2013-04-21T13:38:37.001Z</time>
      </trkpt>
      <trkpt lat="47.52877" lon="-0.08242">
        <ele>86</ele>
        <time>2013-04-21T13:38:38.001Z</time>
      </trkpt>
      <trkpt lat="47.52876" lon="-0.08247">
        <ele>86</ele>
        <time>2013-04-21T13:38:42.001Z</time>
      </trkpt>
      <trkpt lat="47.52876" lon="-0.08249">
        <ele>86</ele>
        <time>2013-04-21T13:38:43.001Z</time>
      </trkpt>
      <trkpt lat="47.52877" lon="-0.08254">
        <ele>86</ele>
        <time>2013-04-21T13:38:46.001Z</time>
      </trkpt>
      <trkpt lat="47.52877" lon="-0.08255">
        <ele>86</ele>
        <time>2013-04-21T13:38:47.001Z</time>
      </trkpt>
      <trkpt lat="47.52877" lon="-0.0826">
        <ele>86</ele>
        <time>2013-04-21T13:38:49.001Z</time>
      </trkpt>
      <trkpt lat="47.52876" lon="-0.08262">
        <ele>86</ele>
        <time>2013-04-21T13:38:50.001Z</time>
      </trkpt>
      <trkpt lat="47.52877" lon="-0.08268">
        <ele>86</ele>
        <time>2013-04-21T13:38:53.001Z</time>
      </trkpt>
      <trkpt lat="47.52877" lon="-0.08269">
        <ele>86</ele>
        <time>2013-04-21T13:38:54.001Z</time>
      </trkpt>
      <trkpt lat="47.52876" lon="-0.08275">
        <ele>86</ele>
        <time>2013-04-21T13:39:00.001Z</time>
      </trkpt>
      <trkpt lat="47.52876" lon="-0.08276">
        <ele>86</ele>
        <time>2013-04-21T13:39:01.001Z</time>
      </trkpt>
      <trkpt lat="47.52875" lon="-0.08283">
        <ele>86</ele>
        <time>2013-04-21T13:39:06.001Z</time>
      </trkpt>
      <trkpt lat="47.52875" lon="-0.08284">
        <ele>86</ele>
        <time>2013-04-21T13:39:07.001Z</time>
      </trkpt>
      <trkpt lat="47.52875" lon="-0.0829">
        <ele>86</ele>
        <time>2013-04-21T13:39:10.001Z</time>
      </trkpt>
      <trkpt lat="47.52875" lon="-0.08292">
        <ele>85</ele>
        <time>2013-04-21T13:39:11.001Z</time>
      </trkpt>
      <trkpt lat="47.52876" lon="-0.08299">
        <ele>85</ele>
        <time>2013-04-21T13:39:17.001Z</time>
      </trkpt>
      <trkpt lat="47.52875" lon="-0.083">
        <ele>85</ele>
        <time>2013-04-21T13:39:18.001Z</time>
      </trkpt>
      <trkpt lat="47.52876" lon="-0.08305">
        <ele>85</ele>
        <time>2013-04-21T13:39:22.001Z</time>
      </trkpt>
      <trkpt lat="47.52876" lon="-0.08306">
        <ele>85</ele>
        <time>2013-04-21T13:39:23.001Z</time>
      </trkpt>
      <trkpt lat="47.52876" lon="-0.08312">
        <ele>85</ele>
        <time>2013-04-21T13:39:25.001Z</time>
      </trkpt>
      <trkpt lat="47.52876" lon="-0.08314">
        <ele>85</ele>
        <time>2013-04-21T13:39:26.001Z</time>
      </trkpt>
      <trkpt lat="47.52877" lon="-0.08321">
        <ele>85</ele>
        <time>2013-04-21T13:39:29.001Z</time>
      </trkpt>
      <trkpt lat="47.52877" lon="-0.08322">
        <ele>85</ele>
        <time>2013-04-21T13:39:30.001Z</time>
      </trkpt>
      <trkpt lat="47.52878" lon="-0.08328">
        <ele>85</ele>
        <time>2013-04-21T13:39:36.001Z</time>
      </trkpt>
      <trkpt lat="47.52879" lon="-0.0833">
        <ele>85</ele>
        <time>2013-04-21T13:39:37.001Z</time>
      </trkpt>
      <trkpt lat="47.5288" lon="-0.08334">
        <ele>85</ele>
        <time>2013-04-21T13:39:39.001Z</time>
      </trkpt>
      <trkpt lat="47.5288" lon="-0.08337">
        <ele>85</ele>
        <time>2013-04-21T13:39:40.001Z</time>
      </trkpt>
      <trkpt lat="47.52881" lon="-0.08342">
        <ele>85</ele>
        <time>2013-04-21T13:39:43.001Z</time>
      </trkpt>
      <trkpt lat="47.52881" lon="-0.08344">
        <ele>85</ele>
        <time>2013-04-21T13:39:44.001Z</time>
      </trkpt>
      <trkpt lat="47.52882" lon="-0.08349">
        <ele>85</ele>
        <time>2013-04-21T13:39:46.001Z</time>
      </trkpt>
      <trkpt lat="47.52882" lon="-0.08351">
        <ele>85</ele>
        <time>2013-04-21T13:39:47.001Z</time>
      </trkpt>
      <trkpt lat="47.52883" lon="-0.08357">
        <ele>85</ele>
        <time>2013-04-21T13:39:51.001Z</time>
      </trkpt>
      <trkpt lat="47.52883" lon="-0.08358">
        <ele>85</ele>
        <time>2013-04-21T13:39:52.001Z</time>
      </trkpt>
      <trkpt lat="47.52884" lon="-0.08364">
        <ele>85</ele>
        <time>2013-04-21T13:39:55.001Z</time>
      </trkpt>
      <trkpt lat="47.52884" lon="-0.08368">
        <ele>85</ele>
        <time>2013-04-21T13:39:56.001Z</time>
      </trkpt>
      <trkpt lat="47.52885" lon="-0.08371">
        <ele>85</ele>
        <time>2013-04-21T13:39:57.001Z</time>
      </trkpt>
      <trkpt lat="47.52885" lon="-0.08374">
        <ele>85</ele>
        <time>2013-04-21T13:39:58.001Z</time>
      </trkpt>
      <trkpt lat="47.52887" lon="-0.08379">
        <ele>85</ele>
        <time>2013-04-21T13:40:00.001Z</time>
      </trkpt>
      <trkpt lat="47.52887" lon="-0.08382">
        <ele>85</ele>
        <time>2013-04-21T13:40:01.001Z</time>
      </trkpt>
      <trkpt lat="47.52889" lon="-0.08387">
        <ele>85</ele>
        <time>2013-04-21T13:40:05.001Z</time>
      </trkpt>
      <trkpt lat="47.52889" lon="-0.08388">
        <ele>85</ele>
        <time>2013-04-21T13:40:06.001Z</time>
      </trkpt>
      <trkpt lat="47.5289" lon="-0.08394">
        <ele>85</ele>
        <time>2013-04-21T13:40:12.001Z</time>
      </trkpt>
      <trkpt lat="47.5289" lon="-0.08396">
        <ele>85</ele>
        <time>2013-04-21T13:40:13.001Z</time>
      </trkpt>
      <trkpt lat="47.52892" lon="-0.08401">
        <ele>85</ele>
        <time>2013-04-21T13:40:16.001Z</time>
      </trkpt>
      <trkpt lat="47.52893" lon="-0.08404">
        <ele>85</ele>
        <time>2013-04-21T13:40:17.001Z</time>
      </trkpt>
      <trkpt lat="47.52894" lon="-0.08408">
        <ele>85</ele>
        <time>2013-04-21T13:40:19.001Z</time>
      </trkpt>
      <trkpt lat="47.52894" lon="-0.0841">
        <ele>85</ele>
        <time>2013-04-21T13:40:20.001Z</time>
      </trkpt>
      <trkpt lat="47.52896" lon="-0.08416">
        <ele>85</ele>
        <time>2013-04-21T13:40:25.001Z</time>
      </trkpt>
      <trkpt lat="47.52896" lon="-0.08417">
        <ele>85</ele>
        <time>2013-04-21T13:40:26.001Z</time>
      </trkpt>
      <trkpt lat="47.529" lon="-0.08419">
        <ele>85</ele>
        <time>2013-04-21T13:40:30.001Z</time>
      </trkpt>
      <trkpt lat="47.52901" lon="-0.08421">
        <ele>85</ele>
        <time>2013-04-21T13:40:31.001Z</time>
      </trkpt>
      <trkpt lat="47.52903" lon="-0.08427">
        <ele>85</ele>
        <time>2013-04-21T13:40:35.001Z</time>
      </trkpt>
      <trkpt lat="47.52903" lon="-0.08429">
        <ele>85</ele>
        <time>2013-04-21T13:40:36.000Z</time>
      </trkpt>
      <trkpt lat="47.52905" lon="-0.08433">
        <ele>85</ele>
        <time>2013-04-21T13:40:39.000Z</time>
      </trkpt>
      <trkpt lat="47.52906" lon="-0.08434">
        <ele>85</ele>
        <time>2013-04-21T13:40:40.000Z</time>
      </trkpt>
      <trkpt lat="47.52909" lon="-0.08439">
        <ele>85</ele>
        <time>2013-04-21T13:40:43.000Z</time>
      </trkpt>
      <trkpt lat="47.52909" lon="-0.08441">
        <ele>85</ele>
        <time>2013-04-21T13:40:44.000Z</time>
      </trkpt>
      <trkpt lat="47.52912" lon="-0.08445">
        <ele>85</ele>
        <time>2013-04-21T13:40:46.000Z</time>
      </trkpt>
      <trkpt lat="47.52913" lon="-0.08446">
        <ele>85</ele>
        <time>2013-04-21T13:40:47.000Z</time>
      </trkpt>
      <trkpt lat="47.52915" lon="-0.08449">
        <ele>85</ele>
        <time>2013-04-21T13:40:50.000Z</time>
      </trkpt>
      <trkpt lat="47.52916" lon="-0.0845">
        <ele>85</ele>
        <time>2013-04-21T13:40:51.000Z</time>
      </trkpt>
      <trkpt lat="47.52919" lon="-0.08454">
        <ele>82</ele>
        <time>2013-04-21T13:40:53.000Z</time>
      </trkpt>
      <trkpt lat="47.52919" lon="-0.08455">
        <ele>82</ele>
        <time>2013-04-21T13:40:54.000Z</time>
      </trkpt>
      <trkpt lat="47.52922" lon="-0.08459">
        <ele>82</ele>
        <time>2013-04-21T13:40:57.000Z</time>
      </trkpt>
      <trkpt lat="47.52923" lon="-0.08461">
        <ele>82</ele>
        <time>2013-04-21T13:40:58.000Z</time>
      </trkpt>
      <trkpt lat="47.52925" lon="-0.08463">
        <ele>82</ele>
        <time>2013-04-21T13:41:00.000Z</time>
      </trkpt>
      <trkpt lat="47.52927" lon="-0.08466">
        <ele>82</ele>
        <time>2013-04-21T13:41:01.000Z</time>
      </trkpt>
      <trkpt lat="47.5293" lon="-0.08469">
        <ele>82</ele>
        <time>2013-04-21T13:41:04.000Z</time>
      </trkpt>
      <trkpt lat="47.52931" lon="-0.08471">
        <ele>82</ele>
        <time>2013-04-21T13:41:05.000Z</time>
      </trkpt>
      <trkpt lat="47.52933" lon="-0.08474">
        <ele>82</ele>
        <time>2013-04-21T13:41:07.000Z</time>
      </trkpt>
      <trkpt lat="47.52934" lon="-0.08476">
        <ele>82</ele>
        <time>2013-04-21T13:41:08.000Z</time>
      </trkpt>
      <trkpt lat="47.52937" lon="-0.0848">
        <ele>82</ele>
        <time>2013-04-21T13:41:13.000Z</time>
      </trkpt>
      <trkpt lat="47.52938" lon="-0.08481">
        <ele>82</ele>
        <time>2013-04-21T13:41:14.000Z</time>
      </trkpt>
      <trkpt lat="47.52941" lon="-0.08484">
        <ele>82</ele>
        <time>2013-04-21T13:41:20.000Z</time>
      </trkpt>
      <trkpt lat="47.52941" lon="-0.08485">
        <ele>82</ele>
        <time>2013-04-21T13:41:21.000Z</time>
      </trkpt>
      <trkpt lat="47.52943" lon="-0.08488">
        <ele>82</ele>
        <time>2013-04-21T13:41:23.000Z</time>
      </trkpt>
      <trkpt lat="47.52944" lon="-0.0849">
        <ele>82</ele>
        <time>2013-04-21T13:41:24.000Z</time>
      </trkpt>
      <trkpt lat="47.52946" lon="-0.08496">
        <ele>82</ele>
        <time>2013-04-21T13:41:29.000Z</time>
      </trkpt>
      <trkpt lat="47.52946" lon="-0.08497">
        <ele>82</ele>
        <time>2013-04-21T13:41:30.000Z</time>
      </trkpt>
      <trkpt lat="47.52948" lon="-0.08501">
        <ele>83</ele>
        <time>2013-04-21T13:41:32.000Z</time>
      </trkpt>
      <trkpt lat="47.52949" lon="-0.08503">
        <ele>82</ele>
        <time>2013-04-21T13:41:33.000Z</time>
      </trkpt>
      <trkpt lat="47.52952" lon="-0.08508">
        <ele>82</ele>
        <time>2013-04-21T13:41:38.000Z</time>
      </trkpt>
      <trkpt lat="47.52952" lon="-0.08509">
        <ele>82</ele>
        <time>2013-04-21T13:41:39.000Z</time>
      </trkpt>
      <trkpt lat="47.52955" lon="-0.08513">
        <ele>82</ele>
        <time>2013-04-21T13:41:42.000Z</time>
      </trkpt>
      <trkpt lat="47.52956" lon="-0.08515">
        <ele>82</ele>
        <time>2013-04-21T13:41:43.000Z</time>
      </trkpt>
      <trkpt lat="47.52958" lon="-0.0852">
        <ele>82</ele>
        <time>2013-04-21T13:41:48.000Z</time>
      </trkpt>
      <trkpt lat="47.52958" lon="-0.08522">
        <ele>82</ele>
        <time>2013-04-21T13:41:49.000Z</time>
      </trkpt>
      <trkpt lat="47.52959" lon="-0.08526">
        <ele>82</ele>
        <time>2013-04-21T13:41:51.000Z</time>
      </trkpt>
      <trkpt lat="47.5296" lon="-0.08528">
        <ele>82</ele>
        <time>2013-04-21T13:41:52.000Z</time>
      </trkpt>
      <trkpt lat="47.52962" lon="-0.08533">
        <ele>82</ele>
        <time>2013-04-21T13:41:56.000Z</time>
      </trkpt>
      <trkpt lat="47.52963" lon="-0.08535">
        <ele>82</ele>
        <time>2013-04-21T13:41:57.000Z</time>
      </trkpt>
      <trkpt lat="47.52964" lon="-0.08539">
        <ele>82</ele>
        <time>2013-04-21T13:42:01.000Z</time>
      </trkpt>
      <trkpt lat="47.52964" lon="-0.08542">
        <ele>82</ele>
        <time>2013-04-21T13:42:02.000Z</time>
      </trkpt>
      <trkpt lat="47.52964" lon="-0.08548">
        <ele>82</ele>
        <time>2013-04-21T13:42:06.000Z</time>
      </trkpt>
      <trkpt lat="47.52964" lon="-0.0855">
        <ele>82</ele>
        <time>2013-04-21T13:42:07.000Z</time>
      </trkpt>
      <trkpt lat="47.52964" lon="-0.08555">
        <ele>82</ele>
        <time>2013-04-21T13:42:11.000Z</time>
      </trkpt>
      <trkpt lat="47.52964" lon="-0.08557">
        <ele>82</ele>
        <time>2013-04-21T13:42:12.000Z</time>
      </trkpt>
      <trkpt lat="47.52964" lon="-0.08563">
        <ele>82</ele>
        <time>2013-04-21T13:42:16.000Z</time>
      </trkpt>
      <trkpt lat="47.52965" lon="-0.08566">
        <ele>82</ele>
        <time>2013-04-21T13:42:17.000Z</time>
      </trkpt>
      <trkpt lat="47.52966" lon="-0.08572">
        <ele>82</ele>
        <time>2013-04-21T13:42:21.000Z</time>
      </trkpt>
      <trkpt lat="47.52966" lon="-0.08573">
        <ele>82</ele>
        <time>2013-04-21T13:42:22.000Z</time>
      </trkpt>
      <trkpt lat="47.52966" lon="-0.08579">
        <ele>82</ele>
        <time>2013-04-21T13:42:26.000Z</time>
      </trkpt>
      <trkpt lat="47.52966" lon="-0.0858">
        <ele>82</ele>
        <time>2013-04-21T13:42:27.000Z</time>
      </trkpt>
      <trkpt lat="47.52967" lon="-0.08585">
        <ele>82</ele>
        <time>2013-04-21T13:42:31.000Z</time>
      </trkpt>
      <trkpt lat="47.52967" lon="-0.08587">
        <ele>82</ele>
        <time>2013-04-21T13:42:32.000Z</time>
      </trkpt>
      <trkpt lat="47.52967" lon="-0.08593">
        <ele>82</ele>
        <time>2013-04-21T13:42:35.000Z</time>
      </trkpt>
      <trkpt lat="47.52968" lon="-0.08594">
        <ele>82</ele>
        <time>2013-04-21T13:42:36.000Z</time>
      </trkpt>
      <trkpt lat="47.52969" lon="-0.08599">
        <ele>82</ele>
        <time>2013-04-21T13:42:39.000Z</time>
      </trkpt>
      <trkpt lat="47.52969" lon="-0.086">
        <ele>82</ele>
        <time>2013-04-21T13:42:40.000Z</time>
      </trkpt>
      <trkpt lat="47.52971" lon="-0.08606">
        <ele>82</ele>
        <time>2013-04-21T13:42:43.000Z</time>
      </trkpt>
      <trkpt lat="47.52971" lon="-0.08606">
        <ele>82</ele>
        <time>2013-04-21T13:42:44.000Z</time>
      </trkpt>
      <trkpt lat="47.52972" lon="-0.0861">
        <ele>82</ele>
        <time>2013-04-21T13:42:46.000Z</time>
      </trkpt>
      <trkpt lat="47.52973" lon="-0.08613">
        <ele>82</ele>
        <time>2013-04-21T13:42:47.000Z</time>
      </trkpt>
      <trkpt lat="47.52974" lon="-0.08618">
        <ele>82</ele>
        <time>2013-04-21T13:42:50.000Z</time>
      </trkpt>
      <trkpt lat="47.52975" lon="-0.0862">
        <ele>82</ele>
        <time>2013-04-21T13:42:51.000Z</time>
      </trkpt>
      <trkpt lat="47.52975" lon="-0.08626">
        <ele>82</ele>
        <time>2013-04-21T13:42:55.000Z</time>
      </trkpt>
      <trkpt lat="47.52975" lon="-0.08627">
        <ele>82</ele>
        <time>2013-04-21T13:42:56.000Z</time>
      </trkpt>
      <trkpt lat="47.52976" lon="-0.08633">
        <ele>82</ele>
        <time>2013-04-21T13:43:00.000Z</time>
      </trkpt>
      <trkpt lat="47.52976" lon="-0.08634">
        <ele>82</ele>
        <time>2013-04-21T13:43:01.000Z</time>
      </trkpt>
      <trkpt lat="47.52978" lon="-0.0864">
        <ele>82</ele>
        <time>2013-04-21T13:43:04.000Z</time>
      </trkpt>
      <trkpt lat="47.52978" lon="-0.08642">
        <ele>82</ele>
        <time>2013-04-21T13:43:05.000Z</time>
      </trkpt>
      <trkpt lat="47.5298" lon="-0.08647">
        <ele>82</ele>
        <time>2013-04-21T13:43:08.000Z</time>
      </trkpt>
      <trkpt lat="47.5298" lon="-0.08648">
        <ele>82</ele>
        <time>2013-04-21T13:43:09.000Z</time>
      </trkpt>
      <trkpt lat="47.5298" lon="-0.08654">
        <ele>82</ele>
        <time>2013-04-21T13:43:12.000Z</time>
      </trkpt>
      <trkpt lat="47.5298" lon="-0.08655">
        <ele>82</ele>
        <time>2013-04-21T13:43:13.000Z</time>
      </trkpt>
      <trkpt lat="47.52982" lon="-0.0866">
        <ele>82</ele>
        <time>2013-04-21T13:43:15.000Z</time>
      </trkpt>
      <trkpt lat="47.52982" lon="-0.08662">
        <ele>82</ele>
        <time>2013-04-21T13:43:16.000Z</time>
      </trkpt>
      <trkpt lat="47.52983" lon="-0.08668">
        <ele>82</ele>
        <time>2013-04-21T13:43:19.000Z</time>
      </trkpt>
      <trkpt lat="47.52983" lon="-0.0867">
        <ele>82</ele>
        <time>2013-04-21T13:43:20.000Z</time>
      </trkpt>
      <trkpt lat="47.52984" lon="-0.08676">
        <ele>82</ele>
        <time>2013-04-21T13:43:25.000Z</time>
      </trkpt>
      <trkpt lat="47.52984" lon="-0.08678">
        <ele>82</ele>
        <time>2013-04-21T13:43:26.000Z</time>
      </trkpt>
      <trkpt lat="47.52986" lon="-0.08684">
        <ele>82</ele>
        <time>2013-04-21T13:43:29.000Z</time>
      </trkpt>
      <trkpt lat="47.52987" lon="-0.08685">
        <ele>82</ele>
        <time>2013-04-21T13:43:30.000Z</time>
      </trkpt>
      <trkpt lat="47.52988" lon="-0.08691">
        <ele>82</ele>
        <time>2013-04-21T13:43:34.000Z</time>
      </trkpt>
      <trkpt lat="47.52988" lon="-0.08693">
        <ele>82</ele>
        <time>2013-04-21T13:43:35.000Z</time>
      </trkpt>
      <trkpt lat="47.52988" lon="-0.08697">
        <ele>82</ele>
        <time>2013-04-21T13:43:38.000Z</time>
      </trkpt>
      <trkpt lat="47.52988" lon="-0.087">
        <ele>83</ele>
        <time>2013-04-21T13:43:39.000Z</time>
      </trkpt>
      <trkpt lat="47.5299" lon="-0.08706">
        <ele>83</ele>
        <time>2013-04-21T13:43:48.000Z</time>
      </trkpt>
      <trkpt lat="47.5299" lon="-0.08708">
        <ele>83</ele>
        <time>2013-04-21T13:43:49.000Z</time>
      </trkpt>
      <trkpt lat="47.5299" lon="-0.08714">
        <ele>83</ele>
        <time>2013-04-21T13:43:52.000Z</time>
      </trkpt>
      <trkpt lat="47.52989" lon="-0.08716">
        <ele>83</ele>
        <time>2013-04-21T13:43:53.000Z</time>
      </trkpt>
      <trkpt lat="47.52989" lon="-0.08722">
        <ele>82</ele>
        <time>2013-04-21T13:43:56.000Z</time>
      </trkpt>
      <trkpt lat="47.52989" lon="-0.08724">
        <ele>82</ele>
        <time>2013-04-21T13:43:57.000Z</time>
      </trkpt>
      <trkpt lat="47.5299" lon="-0.08729">
        <ele>82</ele>
        <time>2013-04-21T13:44:00.000Z</time>
      </trkpt>
      <trkpt lat="47.52991" lon="-0.08731">
        <ele>82</ele>
        <time>2013-04-21T13:44:01.000Z</time>
      </trkpt>
      <trkpt lat="47.52992" lon="-0.08734">
        <ele>82</ele>
        <time>2013-04-21T13:44:03.000Z</time>
      </trkpt>
      <trkpt lat="47.52993" lon="-0.08736">
        <ele>82</ele>
        <time>2013-04-21T13:44:04.000Z</time>
      </trkpt>
      <trkpt lat="47.52995" lon="-0.08742">
        <ele>82</ele>
        <time>2013-04-21T13:44:08.000Z</time>
      </trkpt>
      <trkpt lat="47.52995" lon="-0.08744">
        <ele>82</ele>
        <time>2013-04-21T13:44:09.000Z</time>
      </trkpt>
      <trkpt lat="47.52997" lon="-0.08749">
        <ele>81</ele>
        <time>2013-04-21T13:44:12.000Z</time>
      </trkpt>
      <trkpt lat="47.52997" lon="-0.08751">
        <ele>81</ele>
        <time>2013-04-21T13:44:13.000Z</time>
      </trkpt>
      <trkpt lat="47.52998" lon="-0.08756">
        <ele>82</ele>
        <time>2013-04-21T13:44:16.000Z</time>
      </trkpt>
      <trkpt lat="47.52999" lon="-0.08758">
        <ele>82</ele>
        <time>2013-04-21T13:44:17.000Z</time>
      </trkpt>
      <trkpt lat="47.52999" lon="-0.08762">
        <ele>82</ele>
        <time>2013-04-21T13:44:21.000Z</time>
      </trkpt>
      <trkpt lat="47.52999" lon="-0.08765">
        <ele>82</ele>
        <time>2013-04-21T13:44:22.000Z</time>
      </trkpt>
      <trkpt lat="47.53001" lon="-0.0877">
        <ele>81</ele>
        <time>2013-04-21T13:44:27.000Z</time>
      </trkpt>
      <trkpt lat="47.53001" lon="-0.08771">
        <ele>81</ele>
        <time>2013-04-21T13:44:28.000Z</time>
      </trkpt>
      <trkpt lat="47.53003" lon="-0.08777">
        <ele>81</ele>
        <time>2013-04-21T13:44:40.000Z</time>
      </trkpt>
      <trkpt lat="47.53003" lon="-0.08777">
        <ele>81</ele>
        <time>2013-04-21T13:44:41.000Z</time>
      </trkpt>
      <trkpt lat="47.53006" lon="-0.08779">
        <ele>81</ele>
        <time>2013-04-21T13:45:04.000Z</time>
      </trkpt>
      <trkpt lat="47.53006" lon="-0.08784">
        <ele>81</ele>
        <time>2013-04-21T13:45:05.000Z</time>
      </trkpt>
      <trkpt lat="47.53007" lon="-0.0879">
        <ele>81</ele>
        <time>2013-04-21T13:45:10.000Z</time>
      </trkpt>
      <trkpt lat="47.53007" lon="-0.08791">
        <ele>81</ele>
        <time>2013-04-21T13:45:11.000Z</time>
      </trkpt>
      <trkpt lat="47.53009" lon="-0.08797">
        <ele>81</ele>
        <time>2013-04-21T13:45:34.000Z</time>
      </trkpt>
      <trkpt lat="47.53009" lon="-0.08798">
        <ele>81</ele>
        <time>2013-04-21T13:45:35.000Z</time>
      </trkpt>
      <trkpt lat="47.5301" lon="-0.08804">
        <ele>81</ele>
        <time>2013-04-21T13:45:40.000Z</time>
      </trkpt>
      <trkpt lat="47.53011" lon="-0.08805">
        <ele>81</ele>
        <time>2013-04-21T13:45:41.000Z</time>
      </trkpt>
      <trkpt lat="47.53012" lon="-0.0881">
        <ele>81</ele>
        <time>2013-04-21T13:45:45.000Z</time>
      </trkpt>
      <trkpt lat="47.53012" lon="-0.08812">
        <ele>81</ele>
        <time>2013-04-21T13:45:46.000Z</time>
      </trkpt>
      <trkpt lat="47.53014" lon="-0.08817">
        <ele>81</ele>
        <time>2013-04-21T13:45:49.000Z</time>
      </trkpt>
      <trkpt lat="47.53015" lon="-0.08819">
        <ele>81</ele>
        <time>2013-04-21T13:45:50.000Z</time>
      </trkpt>
      <trkpt lat="47.53016" lon="-0.08824">
        <ele>81</ele>
        <time>2013-04-21T13:45:55.000Z</time>
      </trkpt>
      <trkpt lat="47.53016" lon="-0.08825">
        <ele>81</ele>
        <time>2013-04-21T13:45:56.000Z</time>
      </trkpt>
      <trkpt lat="47.53017" lon="-0.08832">
        <ele>82</ele>
        <time>2013-04-21T13:46:00.000Z</time>
      </trkpt>
      <trkpt lat="47.53017" lon="-0.08833">
        <ele>82</ele>
        <time>2013-04-21T13:46:01.000Z</time>
      </trkpt>
      <trkpt lat="47.53018" lon="-0.08838">
        <ele>82</ele>
        <time>2013-04-21T13:46:03.000Z</time>
      </trkpt>
      <trkpt lat="47.53018" lon="-0.08841">
        <ele>82</ele>
        <time>2013-04-21T13:46:04.000Z</time>
      </trkpt>
      <trkpt lat="47.53019" lon="-0.08846">
        <ele>82</ele>
        <time>2013-04-21T13:46:07.000Z</time>
      </trkpt>
      <trkpt lat="47.5302" lon="-0.08848">
        <ele>82</ele>
        <time>2013-04-21T13:46:08.000Z</time>
      </trkpt>
      <trkpt lat="47.5302" lon="-0.08854">
        <ele>82</ele>
        <time>2013-04-21T13:46:11.000Z</time>
      </trkpt>
      <trkpt lat="47.5302" lon="-0.08854">
        <ele>82</ele>
        <time>2013-04-21T13:46:12.000Z</time>
      </trkpt>
      <trkpt lat="47.53021" lon="-0.08859">
        <ele>82</ele>
        <time>2013-04-21T13:46:14.000Z</time>
      </trkpt>
      <trkpt lat="47.53022" lon="-0.08862">
        <ele>82</ele>
        <time>2013-04-21T13:46:15.000Z</time>
      </trkpt>
      <trkpt lat="47.53023" lon="-0.08867">
        <ele>82</ele>
        <time>2013-04-21T13:46:18.000Z</time>
      </trkpt>
      <trkpt lat="47.53023" lon="-0.08869">
        <ele>82</ele>
        <time>2013-04-21T13:46:19.000Z</time>
      </trkpt>
      <trkpt lat="47.53023" lon="-0.08875">
        <ele>82</ele>
        <time>2013-04-21T13:46:24.000Z</time>
      </trkpt>
      <trkpt lat="47.53023" lon="-0.08875">
        <ele>82</ele>
        <time>2013-04-21T13:46:25.000Z</time>
      </trkpt>
      <trkpt lat="47.53025" lon="-0.0888">
        <ele>82</ele>
        <time>2013-04-21T13:46:32.000Z</time>
      </trkpt>
      <trkpt lat="47.53026" lon="-0.08882">
        <ele>82</ele>
        <time>2013-04-21T13:46:33.000Z</time>
      </trkpt>
      <trkpt lat="47.53027" lon="-0.08888">
        <ele>82</ele>
        <time>2013-04-21T13:46:36.000Z</time>
      </trkpt>
      <trkpt lat="47.53027" lon="-0.0889">
        <ele>82</ele>
        <time>2013-04-21T13:46:37.000Z</time>
      </trkpt>
      <trkpt lat="47.53027" lon="-0.08894">
        <ele>82</ele>
        <time>2013-04-21T13:46:39.000Z</time>
      </trkpt>
      <trkpt lat="47.53028" lon="-0.08898">
        <ele>82</ele>
        <time>2013-04-21T13:46:40.000Z</time>
      </trkpt>
      <trkpt lat="47.53029" lon="-0.08903">
        <ele>82</ele>
        <time>2013-04-21T13:46:44.000Z</time>
      </trkpt>
      <trkpt lat="47.53029" lon="-0.08904">
        <ele>82</ele>
        <time>2013-04-21T13:46:45.000Z</time>
      </trkpt>
      <trkpt lat="47.53031" lon="-0.08909">
        <ele>82</ele>
        <time>2013-04-21T13:46:48.000Z</time>
      </trkpt>
      <trkpt lat="47.53031" lon="-0.0891">
        <ele>82</ele>
        <time>2013-04-21T13:46:49.000Z</time>
      </trkpt>
      <trkpt lat="47.53032" lon="-0.08916">
        <ele>82</ele>
        <time>2013-04-21T13:46:53.000Z</time>
      </trkpt>
      <trkpt lat="47.53032" lon="-0.08918">
        <ele>82</ele>
        <time>2013-04-21T13:46:54.000Z</time>
      </trkpt>
      <trkpt lat="47.53032" lon="-0.08924">
        <ele>82</ele>
        <time>2013-04-21T13:46:58.000Z</time>
      </trkpt>
      <trkpt lat="47.53033" lon="-0.08925">
        <ele>82</ele>
        <time>2013-04-21T13:46:59.000Z</time>
      </trkpt>
      <trkpt lat="47.53035" lon="-0.0893">
        <ele>83</ele>
        <time>2013-04-21T13:47:02.000Z</time>
      </trkpt>
      <trkpt lat="47.53036" lon="-0.08933">
        <ele>83</ele>
        <time>2013-04-21T13:47:03.000Z</time>
      </trkpt>
      <trkpt lat="47.53039" lon="-0.08938">
        <ele>83</ele>
        <time>2013-04-21T13:47:06.000Z</time>
      </trkpt>
      <trkpt lat="47.53039" lon="-0.08939">
        <ele>83</ele>
        <time>2013-04-21T13:47:07.000Z</time>
      </trkpt>
      <trkpt lat="47.5304" lon="-0.08945">
        <ele>83</ele>
        <time>2013-04-21T13:47:11.000Z</time>
      </trkpt>
      <trkpt lat="47.5304" lon="-0.08948">
        <ele>83</ele>
        <time>2013-04-21T13:47:12.000Z</time>
      </trkpt>
      <trkpt lat="47.53042" lon="-0.08953">
        <ele>83</ele>
        <time>2013-04-21T13:47:16.000Z</time>
      </trkpt>
      <trkpt lat="47.53042" lon="-0.08955">
        <ele>83</ele>
        <time>2013-04-21T13:47:17.000Z</time>
      </trkpt>
      <trkpt lat="47.53043" lon="-0.0896">
        <ele>83</ele>
        <time>2013-04-21T13:47:20.000Z</time>
      </trkpt>
      <trkpt lat="47.53043" lon="-0.08961">
        <ele>83</ele>
        <time>2013-04-21T13:47:21.000Z</time>
      </trkpt>
      <trkpt lat="47.53043" lon="-0.08965">
        <ele>83</ele>
        <time>2013-04-21T13:47:23.000Z</time>
      </trkpt>
      <trkpt lat="47.53044" lon="-0.08968">
        <ele>83</ele>
        <time>2013-04-21T13:47:24.000Z</time>
      </trkpt>
      <trkpt lat="47.53046" lon="-0.08974">
        <ele>83</ele>
        <time>2013-04-21T13:47:28.000Z</time>
      </trkpt>
      <trkpt lat="47.53046" lon="-0.08975">
        <ele>83</ele>
        <time>2013-04-21T13:47:29.000Z</time>
      </trkpt>
      <trkpt lat="47.53047" lon="-0.0898">
        <ele>83</ele>
        <time>2013-04-21T13:47:32.000Z</time>
      </trkpt>
      <trkpt lat="47.53048" lon="-0.08982">
        <ele>83</ele>
        <time>2013-04-21T13:47:33.000Z</time>
      </trkpt>
      <trkpt lat="47.5305" lon="-0.08988">
        <ele>83</ele>
        <time>2013-04-21T13:47:37.000Z</time>
      </trkpt>
      <trkpt lat="47.5305" lon="-0.08989">
        <ele>83</ele>
        <time>2013-04-21T13:47:38.000Z</time>
      </trkpt>
      <trkpt lat="47.5305" lon="-0.08995">
        <ele>83</ele>
        <time>2013-04-21T13:47:42.000Z</time>
      </trkpt>
      <trkpt lat="47.5305" lon="-0.08997">
        <ele>83</ele>
        <time>2013-04-21T13:47:43.000Z</time>
      </trkpt>
      <trkpt lat="47.5305" lon="-0.09002">
        <ele>84</ele>
        <time>2013-04-21T13:47:45.000Z</time>
      </trkpt>
      <trkpt lat="47.5305" lon="-0.09005">
        <ele>84</ele>
        <time>2013-04-21T13:47:46.000Z</time>
      </trkpt>
      <trkpt lat="47.53051" lon="-0.09011">
        <ele>84</ele>
        <time>2013-04-21T13:47:50.000Z</time>
      </trkpt>
      <trkpt lat="47.53051" lon="-0.09013">
        <ele>84</ele>
        <time>2013-04-21T13:47:51.000Z</time>
      </trkpt>
      <trkpt lat="47.53052" lon="-0.09017">
        <ele>84</ele>
        <time>2013-04-21T13:47:55.000Z</time>
      </trkpt>
      <trkpt lat="47.53052" lon="-0.09019">
        <ele>84</ele>
        <time>2013-04-21T13:47:56.000Z</time>
      </trkpt>
      <trkpt lat="47.53054" lon="-0.09024">
        <ele>84</ele>
        <time>2013-04-21T13:47:58.000Z</time>
      </trkpt>
      <trkpt lat="47.53054" lon="-0.09026">
        <ele>84</ele>
        <time>2013-04-21T13:47:59.000Z</time>
      </trkpt>
      <trkpt lat="47.53055" lon="-0.09032">
        <ele>84</ele>
        <time>2013-04-21T13:48:02.000Z</time>
      </trkpt>
      <trkpt lat="47.53055" lon="-0.09033">
        <ele>84</ele>
        <time>2013-04-21T13:48:03.000Z</time>
      </trkpt>
      <trkpt lat="47.53056" lon="-0.09038">
        <ele>84</ele>
        <time>2013-04-21T13:48:08.000Z</time>
      </trkpt>
      <trkpt lat="47.53057" lon="-0.09039">
        <ele>84</ele>
        <time>2013-04-21T13:48:09.000Z</time>
      </trkpt>
      <trkpt lat="47.53058" lon="-0.09044">
        <ele>84</ele>
        <time>2013-04-21T13:48:12.000Z</time>
      </trkpt>
      <trkpt lat="47.53058" lon="-0.09047">
        <ele>84</ele>
        <time>2013-04-21T13:48:13.000Z</time>
      </trkpt>
      <trkpt lat="47.53059" lon="-0.09053">
        <ele>84</ele>
        <time>2013-04-21T13:48:15.000Z</time>
      </trkpt>
      <trkpt lat="47.53059" lon="-0.09054">
        <ele>84</ele>
        <time>2013-04-21T13:48:16.000Z</time>
      </trkpt>
      <trkpt lat="47.5306" lon="-0.0906">
        <ele>84</ele>
        <time>2013-04-21T13:48:21.000Z</time>
      </trkpt>
      <trkpt lat="47.53061" lon="-0.09062">
        <ele>84</ele>
        <time>2013-04-21T13:48:22.000Z</time>
      </trkpt>
      <trkpt lat="47.53062" lon="-0.09067">
        <ele>84</ele>
        <time>2013-04-21T13:48:25.000Z</time>
      </trkpt>
      <trkpt lat="47.53062" lon="-0.09068">
        <ele>84</ele>
        <time>2013-04-21T13:48:26.000Z</time>
      </trkpt>
      <trkpt lat="47.53063" lon="-0.09074">
        <ele>84</ele>
        <time>2013-04-21T13:48:28.000Z</time>
      </trkpt>
      <trkpt lat="47.53063" lon="-0.09075">
        <ele>84</ele>
        <time>2013-04-21T13:48:29.000Z</time>
      </trkpt>
      <trkpt lat="47.53063" lon="-0.09082">
        <ele>84</ele>
        <time>2013-04-21T13:48:34.000Z</time>
      </trkpt>
      <trkpt lat="47.53063" lon="-0.09083">
        <ele>84</ele>
        <time>2013-04-21T13:48:35.000Z</time>
      </trkpt>
      <trkpt lat="47.53063" lon="-0.09089">
        <ele>85</ele>
        <time>2013-04-21T13:48:40.000Z</time>
      </trkpt>
      <trkpt lat="47.53063" lon="-0.09091">
        <ele>85</ele>
        <time>2013-04-21T13:48:41.000Z</time>
      </trkpt>
      <trkpt lat="47.53063" lon="-0.09097">
        <ele>85</ele>
        <time>2013-04-21T13:48:46.000Z</time>
      </trkpt>
      <trkpt lat="47.53063" lon="-0.09099">
        <ele>85</ele>
        <time>2013-04-21T13:48:47.000Z</time>
      </trkpt>
      <trkpt lat="47.53064" lon="-0.09104">
        <ele>85</ele>
        <time>2013-04-21T13:48:50.000Z</time>
      </trkpt>
      <trkpt lat="47.53064" lon="-0.09105">
        <ele>85</ele>
        <time>2013-04-21T13:48:51.000Z</time>
      </trkpt>
      <trkpt lat="47.53064" lon="-0.09109">
        <ele>85</ele>
        <time>2013-04-21T13:48:54.000Z</time>
      </trkpt>
      <trkpt lat="47.53064" lon="-0.09114">
        <ele>85</ele>
        <time>2013-04-21T13:48:55.000Z</time>
      </trkpt>
      <trkpt lat="47.53063" lon="-0.0912">
        <ele>86</ele>
        <time>2013-04-21T13:48:57.000Z</time>
      </trkpt>
      <trkpt lat="47.53063" lon="-0.09122">
        <ele>86</ele>
        <time>2013-04-21T13:48:58.000Z</time>
      </trkpt>
      <trkpt lat="47.53061" lon="-0.09128">
        <ele>86</ele>
        <time>2013-04-21T13:49:04.000Z</time>
      </trkpt>
      <trkpt lat="47.53061" lon="-0.09128">
        <ele>86</ele>
        <time>2013-04-21T13:49:05.000Z</time>
      </trkpt>
      <trkpt lat="47.53062" lon="-0.09134">
        <ele>86</ele>
        <time>2013-04-21T13:49:11.000Z</time>
      </trkpt>
      <trkpt lat="47.53062" lon="-0.09135">
        <ele>86</ele>
        <time>2013-04-21T13:49:12.000Z</time>
      </trkpt>
      <trkpt lat="47.53063" lon="-0.09141">
        <ele>86</ele>
        <time>2013-04-21T13:49:18.000Z</time>
      </trkpt>
      <trkpt lat="47.53064" lon="-0.09142">
        <ele>86</ele>
        <time>2013-04-21T13:49:19.000Z</time>
      </trkpt>
      <trkpt lat="47.53067" lon="-0.09145">
        <ele>86</ele>
        <time>2013-04-21T13:49:29.000Z</time>
      </trkpt>
      <trkpt lat="47.53068" lon="-0.09146">
        <ele>86</ele>
        <time>2013-04-21T13:49:30.000Z</time>
      </trkpt>
      <trkpt lat="47.53072" lon="-0.09148">
        <ele>86</ele>
        <time>2013-04-21T13:49:41.000Z</time>
      </trkpt>
      <trkpt lat="47.53072" lon="-0.09148">
        <ele>86</ele>
        <time>2013-04-21T13:49:42.000Z</time>
      </trkpt>
      <trkpt lat="47.53077" lon="-0.09149">
        <ele>86</ele>
        <time>2013-04-21T13:49:56.000Z</time>
      </trkpt>
      <trkpt lat="47.53077" lon="-0.09149">
        <ele>86</ele>
        <time>2013-04-21T13:49:57.000Z</time>
      </trkpt>
      <trkpt lat="47.53081" lon="-0.0915">
        <ele>86</ele>
        <time>2013-04-21T13:50:47.000Z</time>
      </trkpt>
      <trkpt lat="47.53082" lon="-0.0915">
        <ele>86</ele>
        <time>2013-04-21T13:50:48.000Z</time>
      </trkpt>
      <trkpt lat="47.53083" lon="-0.09156">
        <ele>86</ele>
        <time>2013-04-21T13:50:58.000Z</time>
      </trkpt>
      <trkpt lat="47.53083" lon="-0.09157">
        <ele>87</ele>
        <time>2013-04-21T13:50:59.000Z</time>
      </trkpt>
      <trkpt lat="47.53085" lon="-0.09161">
        <ele>87</ele>
        <time>2013-04-21T13:51:03.000Z</time>
      </trkpt>
      <trkpt lat="47.53086" lon="-0.09161">
        <ele>87</ele>
        <time>2013-04-21T13:51:04.000Z</time>
      </trkpt>
      <trkpt lat="47.5309" lon="-0.09165">
        <ele>87</ele>
        <time>2013-04-21T13:51:06.000Z</time>
      </trkpt>
      <trkpt lat="47.53091" lon="-0.09165">
        <ele>87</ele>
        <time>2013-04-21T13:51:07.000Z</time>
      </trkpt>
      <trkpt lat="47.53093" lon="-0.09169">
        <ele>86</ele>
        <time>2013-04-21T13:51:11.000Z</time>
      </trkpt>
      <trkpt lat="47.53094" lon="-0.09171">
        <ele>86</ele>
        <time>2013-04-21T13:51:12.000Z</time>
      </trkpt>
      <trkpt lat="47.53096" lon="-0.09175">
        <ele>86</ele>
        <time>2013-04-21T13:51:15.000Z</time>
      </trkpt>
      <trkpt lat="47.53096" lon="-0.09177">
        <ele>86</ele>
        <time>2013-04-21T13:51:16.000Z</time>
      </trkpt>
      <trkpt lat="47.53098" lon="-0.09181">
        <ele>86</ele>
        <time>2013-04-21T13:51:20.000Z</time>
      </trkpt>
      <trkpt lat="47.531" lon="-0.09183">
        <ele>86</ele>
        <time>2013-04-21T13:51:21.000Z</time>
      </trkpt>
      <trkpt lat="47.53103" lon="-0.09187">
        <ele>86</ele>
        <time>2013-04-21T13:51:26.000Z</time>
      </trkpt>
      <trkpt lat="47.53103" lon="-0.09188">
        <ele>86</ele>
        <time>2013-04-21T13:51:27.000Z</time>
      </trkpt>
      <trkpt lat="47.53106" lon="-0.09193">
        <ele>85</ele>
        <time>2013-04-21T13:51:30.000Z</time>
      </trkpt>
      <trkpt lat="47.53107" lon="-0.09196">
        <ele>85</ele>
        <time>2013-04-21T13:51:31.000Z</time>
      </trkpt>
      <trkpt lat="47.5311" lon="-0.09198">
        <ele>85</ele>
        <time>2013-04-21T13:51:36.000Z</time>
      </trkpt>
      <trkpt lat="47.53111" lon="-0.092">
        <ele>85</ele>
        <time>2013-04-21T13:51:37.000Z</time>
      </trkpt>
      <trkpt lat="47.53113" lon="-0.09202">
        <ele>85</ele>
        <time>2013-04-21T13:51:47.000Z</time>
      </trkpt>
      <trkpt lat="47.53115" lon="-0.09205">
        <ele>85</ele>
        <time>2013-04-21T13:51:48.000Z</time>
      </trkpt>
      <trkpt lat="47.53117" lon="-0.09208">
        <ele>85</ele>
        <time>2013-04-21T13:51:51.000Z</time>
      </trkpt>
      <trkpt lat="47.53119" lon="-0.09209">
        <ele>85</ele>
        <time>2013-04-21T13:51:52.000Z</time>
      </trkpt>
      <trkpt lat="47.53122" lon="-0.09212">
        <ele>85</ele>
        <time>2013-04-21T13:51:56.000Z</time>
      </trkpt>
      <trkpt lat="47.53123" lon="-0.09213">
        <ele>85</ele>
        <time>2013-04-21T13:51:57.000Z</time>
      </trkpt>
      <trkpt lat="47.53126" lon="-0.09217">
        <ele>85</ele>
        <time>2013-04-21T13:52:01.000Z</time>
      </trkpt>
      <trkpt lat="47.53127" lon="-0.09219">
        <ele>85</ele>
        <time>2013-04-21T13:52:02.000Z</time>
      </trkpt>
      <trkpt lat="47.5313" lon="-0.09223">
        <ele>85</ele>
        <time>2013-04-21T13:52:06.000Z</time>
      </trkpt>
      <trkpt lat="47.53131" lon="-0.09225">
        <ele>85</ele>
        <time>2013-04-21T13:52:07.000Z</time>
      </trkpt>
      <trkpt lat="47.53134" lon="-0.09229">
        <ele>85</ele>
        <time>2013-04-21T13:52:10.000Z</time>
      </trkpt>
      <trkpt lat="47.53135" lon="-0.0923">
        <ele>85</ele>
        <time>2013-04-21T13:52:11.000Z</time>
      </trkpt>
      <trkpt lat="47.53137" lon="-0.09234">
        <ele>85</ele>
        <time>2013-04-21T13:52:15.000Z</time>
      </trkpt>
      <trkpt lat="47.53137" lon="-0.09235">
        <ele>85</ele>
        <time>2013-04-21T13:52:16.000Z</time>
      </trkpt>
      <trkpt lat="47.53141" lon="-0.0924">
        <ele>85</ele>
        <time>2013-04-21T13:52:19.000Z</time>
      </trkpt>
      <trkpt lat="47.53142" lon="-0.09241">
        <ele>85</ele>
        <time>2013-04-21T13:52:20.000Z</time>
      </trkpt>
      <trkpt lat="47.53144" lon="-0.09246">
        <ele>85</ele>
        <time>2013-04-21T13:52:24.000Z</time>
      </trkpt>
      <trkpt lat="47.53144" lon="-0.09247">
        <ele>85</ele>
        <time>2013-04-21T13:52:25.000Z</time>
      </trkpt>
      <trkpt lat="47.53146" lon="-0.09251">
        <ele>84</ele>
        <time>2013-04-21T13:52:27.000Z</time>
      </trkpt>
      <trkpt lat="47.53147" lon="-0.09253">
        <ele>84</ele>
        <time>2013-04-21T13:52:28.000Z</time>
      </trkpt>
      <trkpt lat="47.53149" lon="-0.09257">
        <ele>84</ele>
        <time>2013-04-21T13:52:31.000Z</time>
      </trkpt>
      <trkpt lat="47.5315" lon="-0.09258">
        <ele>84</ele>
        <time>2013-04-21T13:52:32.000Z</time>
      </trkpt>
      <trkpt lat="47.53153" lon="-0.09262">
        <ele>84</ele>
        <time>2013-04-21T13:52:34.000Z</time>
      </trkpt>
      <trkpt lat="47.53154" lon="-0.09264">
        <ele>84</ele>
        <time>2013-04-21T13:52:35.000Z</time>
      </trkpt>
      <trkpt lat="47.53156" lon="-0.09268">
        <ele>84</ele>
        <time>2013-04-21T13:52:37.000Z</time>
      </trkpt>
      <trkpt lat="47.53158" lon="-0.09269">
        <ele>84</ele>
        <time>2013-04-21T13:52:38.000Z</time>
      </trkpt>
      <trkpt lat="47.53161" lon="-0.09272">
        <ele>84</ele>
        <time>2013-04-21T13:52:40.000Z</time>
      </trkpt>
      <trkpt lat="47.53162" lon="-0.09274">
        <ele>84</ele>
        <time>2013-04-21T13:52:41.000Z</time>
      </trkpt>
      <trkpt lat="47.53165" lon="-0.09277">
        <ele>84</ele>
        <time>2013-04-21T13:52:44.000Z</time>
      </trkpt>
      <trkpt lat="47.53166" lon="-0.09279">
        <ele>84</ele>
        <time>2013-04-21T13:52:45.000Z</time>
      </trkpt>
      <trkpt lat="47.53169" lon="-0.09283">
        <ele>84</ele>
        <time>2013-04-21T13:52:48.000Z</time>
      </trkpt>
      <trkpt lat="47.5317" lon="-0.09284">
        <ele>84</ele>
        <time>2013-04-21T13:52:49.000Z</time>
      </trkpt>
      <trkpt lat="47.53173" lon="-0.09287">
        <ele>84</ele>
        <time>2013-04-21T13:52:53.000Z</time>
      </trkpt>
      <trkpt lat="47.53174" lon="-0.09288">
        <ele>84</ele>
        <time>2013-04-21T13:52:54.000Z</time>
      </trkpt>
      <trkpt lat="47.53175" lon="-0.09294">
        <ele>84</ele>
        <time>2013-04-21T13:53:00.000Z</time>
      </trkpt>
      <trkpt lat="47.53177" lon="-0.09296">
        <ele>84</ele>
        <time>2013-04-21T13:53:01.000Z</time>
      </trkpt>
      <trkpt lat="47.53178" lon="-0.093">
        <ele>84</ele>
        <time>2013-04-21T13:53:03.000Z</time>
      </trkpt>
      <trkpt lat="47.53179" lon="-0.09301">
        <ele>84</ele>
        <time>2013-04-21T13:53:04.000Z</time>
      </trkpt>
      <trkpt lat="47.53182" lon="-0.09303">
        <ele>84</ele>
        <time>2013-04-21T13:53:05.000Z</time>
      </trkpt>
      <trkpt lat="47.53184" lon="-0.09304">
        <ele>84</ele>
        <time>2013-04-21T13:53:06.000Z</time>
      </trkpt>
      <trkpt lat="47.53188" lon="-0.09306">
        <ele>84</ele>
        <time>2013-04-21T13:53:08.000Z</time>
      </trkpt>
      <trkpt lat="47.53188" lon="-0.09307">
        <ele>84</ele>
        <time>2013-04-21T13:53:09.000Z</time>
      </trkpt>
      <trkpt lat="47.53192" lon="-0.0931">
        <ele>84</ele>
        <time>2013-04-21T13:53:13.000Z</time>
      </trkpt>
      <trkpt lat="47.53192" lon="-0.0931">
        <ele>84</ele>
        <time>2013-04-21T13:53:14.000Z</time>
      </trkpt>
      <trkpt lat="47.53196" lon="-0.09314">
        <ele>84</ele>
        <time>2013-04-21T13:53:20.000Z</time>
      </trkpt>
      <trkpt lat="47.53196" lon="-0.09314">
        <ele>84</ele>
        <time>2013-04-21T13:53:21.000Z</time>
      </trkpt>
      <trkpt lat="47.532" lon="-0.09316">
        <ele>84</ele>
        <time>2013-04-21T13:53:30.000Z</time>
      </trkpt>
      <trkpt lat="47.53201" lon="-0.09317">
        <ele>84</ele>
        <time>2013-04-21T13:53:31.000Z</time>
      </trkpt>
      <trkpt lat="47.53198" lon="-0.09322">
        <ele>84</ele>
        <time>2013-04-21T13:53:42.000Z</time>
      </trkpt>
      <trkpt lat="47.53198" lon="-0.09323">
        <ele>84</ele>
        <time>2013-04-21T13:53:43.000Z</time>
      </trkpt>
      <trkpt lat="47.53202" lon="-0.09326">
        <ele>84</ele>
        <time>2013-04-21T13:54:31.000Z</time>
      </trkpt>
      <trkpt lat="47.53202" lon="-0.09326">
        <ele>84</ele>
        <time>2013-04-21T13:54:32.000Z</time>
      </trkpt>
      <trkpt lat="47.53206" lon="-0.09329">
        <ele>84</ele>
        <time>2013-04-21T13:54:41.000Z</time>
      </trkpt>
      <trkpt lat="47.53207" lon="-0.09329">
        <ele>84</ele>
        <time>2013-04-21T13:54:42.000Z</time>
      </trkpt>
      <trkpt lat="47.53203" lon="-0.0933">
        <ele>84</ele>
        <time>2013-04-21T13:55:12.000Z</time>
      </trkpt>
      <trkpt lat="47.53202" lon="-0.09329">
        <ele>84</ele>
        <time>2013-04-21T13:55:13.000Z</time>
      </trkpt>
      <trkpt lat="47.53203" lon="-0.09323">
        <ele>84</ele>
        <time>2013-04-21T13:55:32.000Z</time>
      </trkpt>
      <trkpt lat="47.53203" lon="-0.09323">
        <ele>84</ele>
        <time>2013-04-21T13:55:33.000Z</time>
      </trkpt>
      <trkpt lat="47.53206" lon="-0.09327">
        <ele>84</ele>
        <time>2013-04-21T13:56:14.000Z</time>
      </trkpt>
      <trkpt lat="47.53206" lon="-0.09327">
        <ele>84</ele>
        <time>2013-04-21T13:56:15.000Z</time>
      </trkpt>
      <trkpt lat="47.5321" lon="-0.0933">
        <ele>84</ele>
        <time>2013-04-21T13:56:20.000Z</time>
      </trkpt>
      <trkpt lat="47.53211" lon="-0.0933">
        <ele>84</ele>
        <time>2013-04-21T13:56:21.000Z</time>
      </trkpt>
      <trkpt lat="47.53213" lon="-0.09333">
        <ele>84</ele>
        <time>2013-04-21T13:56:24.000Z</time>
      </trkpt>
      <trkpt lat="47.53215" lon="-0.09335">
        <ele>84</ele>
        <time>2013-04-21T13:56:25.000Z</time>
      </trkpt>
      <trkpt lat="47.53218" lon="-0.09338">
        <ele>84</ele>
        <time>2013-04-21T13:56:27.000Z</time>
      </trkpt>
      <trkpt lat="47.53219" lon="-0.0934">
        <ele>84</ele>
        <time>2013-04-21T13:56:28.000Z</time>
      </trkpt>
      <trkpt lat="47.53222" lon="-0.09342">
        <ele>84</ele>
        <time>2013-04-21T13:56:31.000Z</time>
      </trkpt>
      <trkpt lat="47.53223" lon="-0.09344">
        <ele>84</ele>
        <time>2013-04-21T13:56:32.000Z</time>
      </trkpt>
      <trkpt lat="47.53227" lon="-0.09347">
        <ele>84</ele>
        <time>2013-04-21T13:56:37.000Z</time>
      </trkpt>
      <trkpt lat="47.53227" lon="-0.09347">
        <ele>84</ele>
        <time>2013-04-21T13:56:38.000Z</time>
      </trkpt>
      <trkpt lat="47.5323" lon="-0.0935">
        <ele>84</ele>
        <time>2013-04-21T13:56:43.000Z</time>
      </trkpt>
      <trkpt lat="47.53231" lon="-0.09352">
        <ele>84</ele>
        <time>2013-04-21T13:56:44.000Z</time>
      </trkpt>
      <trkpt lat="47.53233" lon="-0.09356">
        <ele>84</ele>
        <time>2013-04-21T13:56:48.000Z</time>
      </trkpt>
      <trkpt lat="47.53236" lon="-0.09357">
        <ele>84</ele>
        <time>2013-04-21T13:56:49.000Z</time>
      </trkpt>
      <trkpt lat="47.53239" lon="-0.09361">
        <ele>84</ele>
        <time>2013-04-21T13:56:53.000Z</time>
      </trkpt>
      <trkpt lat="47.5324" lon="-0.09361">
        <ele>84</ele>
        <time>2013-04-21T13:56:54.000Z</time>
      </trkpt>
      <trkpt lat="47.53244" lon="-0.09365">
        <ele>84</ele>
        <time>2013-04-21T13:56:57.000Z</time>
      </trkpt>
      <trkpt lat="47.53245" lon="-0.09365">
        <ele>84</ele>
        <time>2013-04-21T13:56:58.000Z</time>
      </trkpt>
      <trkpt lat="47.53249" lon="-0.09369">
        <ele>84</ele>
        <time>2013-04-21T13:57:03.000Z</time>
      </trkpt>
      <trkpt lat="47.5325" lon="-0.09369">
        <ele>84</ele>
        <time>2013-04-21T13:57:04.000Z</time>
      </trkpt>
      <trkpt lat="47.53251" lon="-0.09374">
        <ele>81</ele>
        <time>2013-04-21T13:57:07.000Z</time>
      </trkpt>
      <trkpt lat="47.53252" lon="-0.09375">
        <ele>81</ele>
        <time>2013-04-21T13:57:08.000Z</time>
      </trkpt>
      <trkpt lat="47.53256" lon="-0.09378">
        <ele>81</ele>
        <time>2013-04-21T13:57:11.000Z</time>
      </trkpt>
      <trkpt lat="47.53256" lon="-0.09378">
        <ele>81</ele>
        <time>2013-04-21T13:57:12.000Z</time>
      </trkpt>
      <trkpt lat="47.53259" lon="-0.09383">
        <ele>81</ele>
        <time>2013-04-21T13:57:16.000Z</time>
      </trkpt>
      <trkpt lat="47.5326" lon="-0.09385">
        <ele>81</ele>
        <time>2013-04-21T13:57:17.000Z</time>
      </trkpt>
      <trkpt lat="47.53263" lon="-0.09391">
        <ele>81</ele>
        <time>2013-04-21T13:57:20.000Z</time>
      </trkpt>
      <trkpt lat="47.53264" lon="-0.09391">
        <ele>81</ele>
        <time>2013-04-21T13:57:21.000Z</time>
      </trkpt>
      <trkpt lat="47.53267" lon="-0.09395">
        <ele>81</ele>
        <time>2013-04-21T13:57:24.000Z</time>
      </trkpt>
      <trkpt lat="47.53268" lon="-0.09396">
        <ele>81</ele>
        <time>2013-04-21T13:57:25.000Z</time>
      </trkpt>
      <trkpt lat="47.53271" lon="-0.09399">
        <ele>81</ele>
        <time>2013-04-21T13:57:27.000Z</time>
      </trkpt>
      <trkpt lat="47.53273" lon="-0.094">
        <ele>81</ele>
        <time>2013-04-21T13:57:28.000Z</time>
      </trkpt>
      <trkpt lat="47.53277" lon="-0.09403">
        <ele>81</ele>
        <time>2013-04-21T13:57:30.000Z</time>
      </trkpt>
      <trkpt lat="47.53278" lon="-0.09405">
        <ele>81</ele>
        <time>2013-04-21T13:57:31.000Z</time>
      </trkpt>
      <trkpt lat="47.53282" lon="-0.09409">
        <ele>81</ele>
        <time>2013-04-21T13:57:38.000Z</time>
      </trkpt>
      <trkpt lat="47.53283" lon="-0.0941">
        <ele>80</ele>
        <time>2013-04-21T13:57:39.000Z</time>
      </trkpt>
      <trkpt lat="47.53284" lon="-0.09414">
        <ele>80</ele>
        <time>2013-04-21T13:57:44.000Z</time>
      </trkpt>
      <trkpt lat="47.53286" lon="-0.09416">
        <ele>80</ele>
        <time>2013-04-21T13:57:45.000Z</time>
      </trkpt>
      <trkpt lat="47.5329" lon="-0.09419">
        <ele>80</ele>
        <time>2013-04-21T13:57:47.000Z</time>
      </trkpt>
      <trkpt lat="47.5329" lon="-0.0942">
        <ele>80</ele>
        <time>2013-04-21T13:57:48.000Z</time>
      </trkpt>
      <trkpt lat="47.53291" lon="-0.09426">
        <ele>80</ele>
        <time>2013-04-21T13:58:03.000Z</time>
      </trkpt>
      <trkpt lat="47.53291" lon="-0.09428">
        <ele>80</ele>
        <time>2013-04-21T13:58:04.000Z</time>
      </trkpt>
      <trkpt lat="47.53292" lon="-0.09433">
        <ele>80</ele>
        <time>2013-04-21T13:58:08.000Z</time>
      </trkpt>
      <trkpt lat="47.53293" lon="-0.09434">
        <ele>80</ele>
        <time>2013-04-21T13:58:09.000Z</time>
      </trkpt>
      <trkpt lat="47.53296" lon="-0.09438">
        <ele>80</ele>
        <time>2013-04-21T13:58:11.000Z</time>
      </trkpt>
      <trkpt lat="47.53299" lon="-0.09441">
        <ele>80</ele>
        <time>2013-04-21T13:58:12.000Z</time>
      </trkpt>
      <trkpt lat="47.533" lon="-0.09443">
        <ele>80</ele>
        <time>2013-04-21T13:58:13.000Z</time>
      </trkpt>
      <trkpt lat="47.53302" lon="-0.09445">
        <ele>80</ele>
        <time>2013-04-21T13:58:14.000Z</time>
      </trkpt>
      <trkpt lat="47.53306" lon="-0.09446">
        <ele>80</ele>
        <time>2013-04-21T13:58:25.000Z</time>
      </trkpt>
      <trkpt lat="47.53307" lon="-0.09447">
        <ele>80</ele>
        <time>2013-04-21T13:58:26.000Z</time>
      </trkpt>
      <trkpt lat="47.53311" lon="-0.09451">
        <ele>79</ele>
        <time>2013-04-21T13:58:34.000Z</time>
      </trkpt>
      <trkpt lat="47.53311" lon="-0.09452">
        <ele>79</ele>
        <time>2013-04-21T13:58:35.000Z</time>
      </trkpt>
      <trkpt lat="47.53313" lon="-0.09457">
        <ele>80</ele>
        <time>2013-04-21T13:58:38.000Z</time>
      </trkpt>
      <trkpt lat="47.53313" lon="-0.09459">
        <ele>80</ele>
        <time>2013-04-21T13:58:39.000Z</time>
      </trkpt>
      <trkpt lat="47.53315" lon="-0.09465">
        <ele>80</ele>
        <time>2013-04-21T13:58:42.000Z</time>
      </trkpt>
      <trkpt lat="47.53315" lon="-0.09465">
        <ele>80</ele>
        <time>2013-04-21T13:58:43.000Z</time>
      </trkpt>
      <trkpt lat="47.53317" lon="-0.09468">
        <ele>80</ele>
        <time>2013-04-21T13:58:50.000Z</time>
      </trkpt>
      <trkpt lat="47.53318" lon="-0.09471">
        <ele>80</ele>
        <time>2013-04-21T13:58:51.000Z</time>
      </trkpt>
      <trkpt lat="47.5332" lon="-0.09476">
        <ele>79</ele>
        <time>2013-04-21T13:58:54.000Z</time>
      </trkpt>
      <trkpt lat="47.53321" lon="-0.09477">
        <ele>79</ele>
        <time>2013-04-21T13:58:55.000Z</time>
      </trkpt>
      <trkpt lat="47.53323" lon="-0.09481">
        <ele>79</ele>
        <time>2013-04-21T13:58:59.000Z</time>
      </trkpt>
      <trkpt lat="47.53324" lon="-0.09481">
        <ele>79</ele>
        <time>2013-04-21T13:59:00.000Z</time>
      </trkpt>
      <trkpt lat="47.53326" lon="-0.09485">
        <ele>79</ele>
        <time>2013-04-21T13:59:03.000Z</time>
      </trkpt>
      <trkpt lat="47.53327" lon="-0.09486">
        <ele>79</ele>
        <time>2013-04-21T13:59:04.000Z</time>
      </trkpt>
      <trkpt lat="47.53331" lon="-0.0949">
        <ele>79</ele>
        <time>2013-04-21T13:59:08.000Z</time>
      </trkpt>
      <trkpt lat="47.53331" lon="-0.09491">
        <ele>79</ele>
        <time>2013-04-21T13:59:09.000Z</time>
      </trkpt>
      <trkpt lat="47.53334" lon="-0.09494">
        <ele>78</ele>
        <time>2013-04-21T13:59:12.000Z</time>
      </trkpt>
      <trkpt lat="47.53335" lon="-0.09495">
        <ele>79</ele>
        <time>2013-04-21T13:59:13.000Z</time>
      </trkpt>
      <trkpt lat="47.53338" lon="-0.09498">
        <ele>79</ele>
        <time>2013-04-21T13:59:25.000Z</time>
      </trkpt>
      <trkpt lat="47.53339" lon="-0.09499">
        <ele>78</ele>
        <time>2013-04-21T13:59:26.000Z</time>
      </trkpt>
      <trkpt lat="47.53342" lon="-0.09503">
        <ele>79</ele>
        <time>2013-04-21T13:59:29.000Z</time>
      </trkpt>
      <trkpt lat="47.53342" lon="-0.09503">
        <ele>79</ele>
        <time>2013-04-21T13:59:30.000Z</time>
      </trkpt>
      <trkpt lat="47.53345" lon="-0.09507">
        <ele>78</ele>
        <time>2013-04-21T13:59:35.000Z</time>
      </trkpt>
      <trkpt lat="47.53345" lon="-0.09508">
        <ele>78</ele>
        <time>2013-04-21T13:59:36.000Z</time>
      </trkpt>
      <trkpt lat="47.53348" lon="-0.09513">
        <ele>78</ele>
        <time>2013-04-21T13:59:42.000Z</time>
      </trkpt>
      <trkpt lat="47.53348" lon="-0.09514">
        <ele>78</ele>
        <time>2013-04-21T13:59:43.000Z</time>
      </trkpt>
      <trkpt lat="47.53351" lon="-0.09517">
        <ele>78</ele>
        <time>2013-04-21T13:59:46.000Z</time>
      </trkpt>
      <trkpt lat="47.53352" lon="-0.09519">
        <ele>78</ele>
        <time>2013-04-21T13:59:47.000Z</time>
      </trkpt>
      <trkpt lat="47.53355" lon="-0.09523">
        <ele>78</ele>
        <time>2013-04-21T13:59:51.000Z</time>
      </trkpt>
      <trkpt lat="47.53355" lon="-0.09523">
        <ele>78</ele>
        <time>2013-04-21T13:59:52.000Z</time>
      </trkpt>
      <trkpt lat="47.53359" lon="-0.09527">
        <ele>78</ele>
        <time>2013-04-21T13:59:56.000Z</time>
      </trkpt>
      <trkpt lat="47.5336" lon="-0.09527">
        <ele>78</ele>
        <time>2013-04-21T13:59:57.000Z</time>
      </trkpt>
      <trkpt lat="47.53364" lon="-0.09529">
        <ele>78</ele>
        <time>2013-04-21T14:00:01.000Z</time>
      </trkpt>
      <trkpt lat="47.53365" lon="-0.09529">
        <ele>78</ele>
        <time>2013-04-21T14:00:02.000Z</time>
      </trkpt>
      <trkpt lat="47.53369" lon="-0.09533">
        <ele>78</ele>
        <time>2013-04-21T14:00:06.000Z</time>
      </trkpt>
      <trkpt lat="47.53369" lon="-0.09534">
        <ele>78</ele>
        <time>2013-04-21T14:00:07.000Z</time>
      </trkpt>
      <trkpt lat="47.53372" lon="-0.09538">
        <ele>78</ele>
        <time>2013-04-21T14:00:13.000Z</time>
      </trkpt>
      <trkpt lat="47.53372" lon="-0.09539">
        <ele>78</ele>
        <time>2013-04-21T14:00:14.000Z</time>
      </trkpt>
      <trkpt lat="47.53373" lon="-0.09544">
        <ele>78</ele>
        <time>2013-04-21T14:00:19.000Z</time>
      </trkpt>
      <trkpt lat="47.53373" lon="-0.09545">
        <ele>78</ele>
        <time>2013-04-21T14:00:20.000Z</time>
      </trkpt>
      <trkpt lat="47.53377" lon="-0.09548">
        <ele>78</ele>
        <time>2013-04-21T14:00:29.000Z</time>
      </trkpt>
      <trkpt lat="47.53378" lon="-0.09548">
        <ele>78</ele>
        <time>2013-04-21T14:00:30.000Z</time>
      </trkpt>
      <trkpt lat="47.53381" lon="-0.09549">
        <ele>78</ele>
        <time>2013-04-21T14:00:33.000Z</time>
      </trkpt>
      <trkpt lat="47.53382" lon="-0.0955">
        <ele>78</ele>
        <time>2013-04-21T14:00:34.000Z</time>
      </trkpt>
      <trkpt lat="47.53384" lon="-0.09552">
        <ele>78</ele>
        <time>2013-04-21T14:00:35.000Z</time>
      </trkpt>
      <trkpt lat="47.53386" lon="-0.09553">
        <ele>78</ele>
        <time>2013-04-21T14:00:36.000Z</time>
      </trkpt>
      <trkpt lat="47.53389" lon="-0.09554">
        <ele>77</ele>
        <time>2013-04-21T14:00:48.000Z</time>
      </trkpt>
      <trkpt lat="47.53392" lon="-0.09554">
        <ele>77</ele>
        <time>2013-04-21T14:00:49.000Z</time>
      </trkpt>
      <trkpt lat="47.53395" lon="-0.09555">
        <ele>77</ele>
        <time>2013-04-21T14:00:51.000Z</time>
      </trkpt>
      <trkpt lat="47.53397" lon="-0.09556">
        <ele>77</ele>
        <time>2013-04-21T14:00:52.000Z</time>
      </trkpt>
      <trkpt lat="47.534" lon="-0.09559">
        <ele>77</ele>
        <time>2013-04-21T14:00:54.000Z</time>
      </trkpt>
      <trkpt lat="47.534" lon="-0.0956">
        <ele>77</ele>
        <time>2013-04-21T14:00:55.000Z</time>
      </trkpt>
      <trkpt lat="47.53404" lon="-0.09563">
        <ele>77</ele>
        <time>2013-04-21T14:00:59.000Z</time>
      </trkpt>
      <trkpt lat="47.53405" lon="-0.09564">
        <ele>77</ele>
        <time>2013-04-21T14:01:00.000Z</time>
      </trkpt>
      <trkpt lat="47.53408" lon="-0.09567">
        <ele>77</ele>
        <time>2013-04-21T14:01:04.000Z</time>
      </trkpt>
      <trkpt lat="47.5341" lon="-0.09568">
        <ele>77</ele>
        <time>2013-04-21T14:01:05.000Z</time>
      </trkpt>
      <trkpt lat="47.53413" lon="-0.09572">
        <ele>77</ele>
        <time>2013-04-21T14:01:10.000Z</time>
      </trkpt>
      <trkpt lat="47.53413" lon="-0.09573">
        <ele>77</ele>
        <time>2013-04-21T14:01:11.000Z</time>
      </trkpt>
      <trkpt lat="47.53415" lon="-0.09577">
        <ele>76</ele>
        <time>2013-04-21T14:01:15.000Z</time>
      </trkpt>
      <trkpt lat="47.53417" lon="-0.09578">
        <ele>76</ele>
        <time>2013-04-21T14:01:16.000Z</time>
      </trkpt>
      <trkpt lat="47.53419" lon="-0.09581">
        <ele>75</ele>
        <time>2013-04-21T14:01:19.000Z</time>
      </trkpt>
      <trkpt lat="47.53421" lon="-0.09584">
        <ele>75</ele>
        <time>2013-04-21T14:01:20.000Z</time>
      </trkpt>
      <trkpt lat="47.53423" lon="-0.09588">
        <ele>74</ele>
        <time>2013-04-21T14:01:21.000Z</time>
      </trkpt>
      <trkpt lat="47.53424" lon="-0.0959">
        <ele>74</ele>
        <time>2013-04-21T14:01:22.000Z</time>
      </trkpt>
      <trkpt lat="47.53425" lon="-0.09595">
        <ele>73</ele>
        <time>2013-04-21T14:01:25.000Z</time>
      </trkpt>
      <trkpt lat="47.53426" lon="-0.09596">
        <ele>73</ele>
        <time>2013-04-21T14:01:26.000Z</time>
      </trkpt>
      <trkpt lat="47.53428" lon="-0.096">
        <ele>73</ele>
        <time>2013-04-21T14:01:30.000Z</time>
      </trkpt>
      <trkpt lat="47.53429" lon="-0.09602">
        <ele>72</ele>
        <time>2013-04-21T14:01:31.000Z</time>
      </trkpt>
      <trkpt lat="47.53432" lon="-0.09606">
        <ele>72</ele>
        <time>2013-04-21T14:01:34.000Z</time>
      </trkpt>
      <trkpt lat="47.53433" lon="-0.09608">
        <ele>72</ele>
        <time>2013-04-21T14:01:35.000Z</time>
      </trkpt>
      <trkpt lat="47.53435" lon="-0.09613">
        <ele>71</ele>
        <time>2013-04-21T14:01:38.000Z</time>
      </trkpt>
      <trkpt lat="47.53435" lon="-0.09615">
        <ele>71</ele>
        <time>2013-04-21T14:01:39.000Z</time>
      </trkpt>
      <trkpt lat="47.53437" lon="-0.0962">
        <ele>71</ele>
        <time>2013-04-21T14:01:43.000Z</time>
      </trkpt>
      <trkpt lat="47.53438" lon="-0.09621">
        <ele>71</ele>
        <time>2013-04-21T14:01:44.000Z</time>
      </trkpt>
      <trkpt lat="47.5344" lon="-0.09624">
        <ele>71</ele>
        <time>2013-04-21T14:01:46.000Z</time>
      </trkpt>
      <trkpt lat="47.53442" lon="-0.09626">
        <ele>71</ele>
        <time>2013-04-21T14:01:47.000Z</time>
      </trkpt>
      <trkpt lat="47.53445" lon="-0.0963">
        <ele>71</ele>
        <time>2013-04-21T14:01:50.000Z</time>
      </trkpt>
      <trkpt lat="47.53446" lon="-0.09632">
        <ele>70</ele>
        <time>2013-04-21T14:01:51.000Z</time>
      </trkpt>
      <trkpt lat="47.53449" lon="-0.09637">
        <ele>70</ele>
        <time>2013-04-21T14:01:54.000Z</time>
      </trkpt>
      <trkpt lat="47.53449" lon="-0.09637">
        <ele>70</ele>
        <time>2013-04-21T14:01:55.000Z</time>
      </trkpt>
      <trkpt lat="47.53453" lon="-0.0964">
        <ele>70</ele>
        <time>2013-04-21T14:01:58.000Z</time>
      </trkpt>
      <trkpt lat="47.53454" lon="-0.09641">
        <ele>70</ele>
        <time>2013-04-21T14:01:59.000Z</time>
      </trkpt>
      <trkpt lat="47.53457" lon="-0.09642">
        <ele>70</ele>
        <time>2013-04-21T14:02:01.000Z</time>
      </trkpt>
      <trkpt lat="47.53458" lon="-0.09643">
        <ele>70</ele>
        <time>2013-04-21T14:02:02.000Z</time>
      </trkpt>
      <trkpt lat="47.53462" lon="-0.09644">
        <ele>69</ele>
        <time>2013-04-21T14:02:09.000Z</time>
      </trkpt>
      <trkpt lat="47.53463" lon="-0.09644">
        <ele>69</ele>
        <time>2013-04-21T14:02:10.000Z</time>
      </trkpt>
      <trkpt lat="47.53466" lon="-0.09646">
        <ele>69</ele>
        <time>2013-04-21T14:02:12.000Z</time>
      </trkpt>
      <trkpt lat="47.53467" lon="-0.09647">
        <ele>69</ele>
        <time>2013-04-21T14:02:13.000Z</time>
      </trkpt>
      <trkpt lat="47.53471" lon="-0.09647">
        <ele>69</ele>
        <time>2013-04-21T14:02:20.000Z</time>
      </trkpt>
      <trkpt lat="47.53472" lon="-0.09648">
        <ele>69</ele>
        <time>2013-04-21T14:02:21.000Z</time>
      </trkpt>
      <trkpt lat="47.53474" lon="-0.09649">
        <ele>69</ele>
        <time>2013-04-21T14:02:27.000Z</time>
      </trkpt>
      <trkpt lat="47.53476" lon="-0.0965">
        <ele>68</ele>
        <time>2013-04-21T14:02:28.000Z</time>
      </trkpt>
      <trkpt lat="47.53478" lon="-0.09653">
        <ele>68</ele>
        <time>2013-04-21T14:02:30.000Z</time>
      </trkpt>
      <trkpt lat="47.5348" lon="-0.09654">
        <ele>68</ele>
        <time>2013-04-21T14:02:31.000Z</time>
      </trkpt>
      <trkpt lat="47.53483" lon="-0.09655">
        <ele>68</ele>
        <time>2013-04-21T14:02:35.000Z</time>
      </trkpt>
      <trkpt lat="47.53484" lon="-0.09656">
        <ele>68</ele>
        <time>2013-04-21T14:02:36.000Z</time>
      </trkpt>
      <trkpt lat="47.53487" lon="-0.0966">
        <ele>67</ele>
        <time>2013-04-21T14:02:42.000Z</time>
      </trkpt>
      <trkpt lat="47.53488" lon="-0.09661">
        <ele>67</ele>
        <time>2013-04-21T14:02:43.000Z</time>
      </trkpt>
      <trkpt lat="47.53491" lon="-0.09665">
        <ele>66</ele>
        <time>2013-04-21T14:02:46.000Z</time>
      </trkpt>
      <trkpt lat="47.53493" lon="-0.09667">
        <ele>66</ele>
        <time>2013-04-21T14:02:47.000Z</time>
      </trkpt>
      <trkpt lat="47.53496" lon="-0.09669">
        <ele>66</ele>
        <time>2013-04-21T14:02:51.000Z</time>
      </trkpt>
      <trkpt lat="47.53497" lon="-0.0967">
        <ele>66</ele>
        <time>2013-04-21T14:02:52.000Z</time>
      </trkpt>
      <trkpt lat="47.535" lon="-0.09674">
        <ele>64</ele>
        <time>2013-04-21T14:02:57.000Z</time>
      </trkpt>
      <trkpt lat="47.53501" lon="-0.09675">
        <ele>64</ele>
        <time>2013-04-21T14:02:58.000Z</time>
      </trkpt>
      <trkpt lat="47.53504" lon="-0.09679">
        <ele>64</ele>
        <time>2013-04-21T14:03:04.000Z</time>
      </trkpt>
      <trkpt lat="47.53506" lon="-0.0968">
        <ele>64</ele>
        <time>2013-04-21T14:03:05.000Z</time>
      </trkpt>
      <trkpt lat="47.53509" lon="-0.09682">
        <ele>64</ele>
        <time>2013-04-21T14:03:07.000Z</time>
      </trkpt>
      <trkpt lat="47.53511" lon="-0.09682">
        <ele>63</ele>
        <time>2013-04-21T14:03:08.000Z</time>
      </trkpt>
      <trkpt lat="47.53515" lon="-0.09685">
        <ele>63</ele>
        <time>2013-04-21T14:03:11.000Z</time>
      </trkpt>
      <trkpt lat="47.53515" lon="-0.09685">
        <ele>63</ele>
        <time>2013-04-21T14:03:12.000Z</time>
      </trkpt>
      <trkpt lat="47.53518" lon="-0.09688">
        <ele>63</ele>
        <time>2013-04-21T14:03:16.000Z</time>
      </trkpt>
      <trkpt lat="47.53519" lon="-0.09689">
        <ele>63</ele>
        <time>2013-04-21T14:03:17.000Z</time>
      </trkpt>
      <trkpt lat="47.53522" lon="-0.09692">
        <ele>63</ele>
        <time>2013-04-21T14:03:21.000Z</time>
      </trkpt>
      <trkpt lat="47.53523" lon="-0.09693">
        <ele>63</ele>
        <time>2013-04-21T14:03:22.000Z</time>
      </trkpt>
      <trkpt lat="47.53526" lon="-0.09696">
        <ele>63</ele>
        <time>2013-04-21T14:03:26.000Z</time>
      </trkpt>
      <trkpt lat="47.53527" lon="-0.09696">
        <ele>63</ele>
        <time>2013-04-21T14:03:27.000Z</time>
      </trkpt>
      <trkpt lat="47.53531" lon="-0.09699">
        <ele>62</ele>
        <time>2013-04-21T14:03:32.000Z</time>
      </trkpt>
      <trkpt lat="47.53532" lon="-0.097">
        <ele>62</ele>
        <time>2013-04-21T14:03:33.000Z</time>
      </trkpt>
      <trkpt lat="47.53534" lon="-0.09701">
        <ele>62</ele>
        <time>2013-04-21T14:03:35.000Z</time>
      </trkpt>
      <trkpt lat="47.53536" lon="-0.09702">
        <ele>62</ele>
        <time>2013-04-21T14:03:36.000Z</time>
      </trkpt>
      <trkpt lat="47.53539" lon="-0.09705">
        <ele>62</ele>
        <time>2013-04-21T14:03:40.000Z</time>
      </trkpt>
      <trkpt lat="47.5354" lon="-0.09706">
        <ele>62</ele>
        <time>2013-04-21T14:03:41.000Z</time>
      </trkpt>
      <trkpt lat="47.53544" lon="-0.0971">
        <ele>62</ele>
        <time>2013-04-21T14:03:47.000Z</time>
      </trkpt>
      <trkpt lat="47.53546" lon="-0.09711">
        <ele>62</ele>
        <time>2013-04-21T14:03:48.000Z</time>
      </trkpt>
      <trkpt lat="47.5355" lon="-0.09712">
        <ele>62</ele>
        <time>2013-04-21T14:03:51.000Z</time>
      </trkpt>
      <trkpt lat="47.53551" lon="-0.09713">
        <ele>62</ele>
        <time>2013-04-21T14:03:52.000Z</time>
      </trkpt>
      <trkpt lat="47.53554" lon="-0.09716">
        <ele>62</ele>
        <time>2013-04-21T14:03:56.000Z</time>
      </trkpt>
      <trkpt lat="47.53556" lon="-0.09717">
        <ele>62</ele>
        <time>2013-04-21T14:03:57.000Z</time>
      </trkpt>
      <trkpt lat="47.53559" lon="-0.09718">
        <ele>61</ele>
        <time>2013-04-21T14:04:00.000Z</time>
      </trkpt>
      <trkpt lat="47.5356" lon="-0.09719">
        <ele>61</ele>
        <time>2013-04-21T14:04:01.000Z</time>
      </trkpt>
      <trkpt lat="47.53563" lon="-0.09721">
        <ele>61</ele>
        <time>2013-04-21T14:04:06.000Z</time>
      </trkpt>
      <trkpt lat="47.53564" lon="-0.09722">
        <ele>61</ele>
        <time>2013-04-21T14:04:07.000Z</time>
      </trkpt>
      <trkpt lat="47.53568" lon="-0.09726">
        <ele>61</ele>
        <time>2013-04-21T14:04:11.000Z</time>
      </trkpt>
      <trkpt lat="47.53568" lon="-0.09726">
        <ele>61</ele>
        <time>2013-04-21T14:04:12.000Z</time>
      </trkpt>
      <trkpt lat="47.53571" lon="-0.09729">
        <ele>61</ele>
        <time>2013-04-21T14:04:17.000Z</time>
      </trkpt>
      <trkpt lat="47.53572" lon="-0.0973">
        <ele>61</ele>
        <time>2013-04-21T14:04:18.000Z</time>
      </trkpt>
      <trkpt lat="47.53576" lon="-0.09733">
        <ele>61</ele>
        <time>2013-04-21T14:04:22.000Z</time>
      </trkpt>
      <trkpt lat="47.53577" lon="-0.09735">
        <ele>60</ele>
        <time>2013-04-21T14:04:23.000Z</time>
      </trkpt>
      <trkpt lat="47.53581" lon="-0.09736">
        <ele>60</ele>
        <time>2013-04-21T14:04:26.000Z</time>
      </trkpt>
      <trkpt lat="47.53581" lon="-0.09737">
        <ele>60</ele>
        <time>2013-04-21T14:04:27.000Z</time>
      </trkpt>
      <trkpt lat="47.53584" lon="-0.09742">
        <ele>59</ele>
        <time>2013-04-21T14:04:33.000Z</time>
      </trkpt>
      <trkpt lat="47.53585" lon="-0.09743">
        <ele>59</ele>
        <time>2013-04-21T14:04:34.000Z</time>
      </trkpt>
      <trkpt lat="47.53587" lon="-0.09748">
        <ele>59</ele>
        <time>2013-04-21T14:04:37.000Z</time>
      </trkpt>
      <trkpt lat="47.53588" lon="-0.09749">
        <ele>59</ele>
        <time>2013-04-21T14:04:38.000Z</time>
      </trkpt>
      <trkpt lat="47.53591" lon="-0.09754">
        <ele>59</ele>
        <time>2013-04-21T14:04:42.000Z</time>
      </trkpt>
      <trkpt lat="47.53591" lon="-0.09755">
        <ele>59</ele>
        <time>2013-04-21T14:04:43.000Z</time>
      </trkpt>
      <trkpt lat="47.53593" lon="-0.0976">
        <ele>58</ele>
        <time>2013-04-21T14:04:48.000Z</time>
      </trkpt>
      <trkpt lat="47.53594" lon="-0.09762">
        <ele>58</ele>
        <time>2013-04-21T14:04:49.000Z</time>
      </trkpt>
      <trkpt lat="47.53595" lon="-0.09767">
        <ele>58</ele>
        <time>2013-04-21T14:04:51.000Z</time>
      </trkpt>
      <trkpt lat="47.53595" lon="-0.09768">
        <ele>58</ele>
        <time>2013-04-21T14:04:52.000Z</time>
      </trkpt>
      <trkpt lat="47.53598" lon="-0.09772">
        <ele>58</ele>
        <time>2013-04-21T14:05:02.000Z</time>
      </trkpt>
      <trkpt lat="47.53599" lon="-0.09773">
        <ele>58</ele>
        <time>2013-04-21T14:05:03.000Z</time>
      </trkpt>
      <trkpt lat="47.53601" lon="-0.09776">
        <ele>58</ele>
        <time>2013-04-21T14:05:06.000Z</time>
      </trkpt>
      <trkpt lat="47.53602" lon="-0.09777">
        <ele>58</ele>
        <time>2013-04-21T14:05:07.000Z</time>
      </trkpt>
      <trkpt lat="47.53605" lon="-0.09781">
        <ele>58</ele>
        <time>2013-04-21T14:05:15.000Z</time>
      </trkpt>
      <trkpt lat="47.53606" lon="-0.09782">
        <ele>58</ele>
        <time>2013-04-21T14:05:16.000Z</time>
      </trkpt>
      <trkpt lat="47.53609" lon="-0.09783">
        <ele>58</ele>
        <time>2013-04-21T14:05:17.000Z</time>
      </trkpt>
      <trkpt lat="47.53611" lon="-0.09784">
        <ele>58</ele>
        <time>2013-04-21T14:05:18.000Z</time>
      </trkpt>
      <trkpt lat="47.53613" lon="-0.09786">
        <ele>58</ele>
        <time>2013-04-21T14:05:21.000Z</time>
      </trkpt>
      <trkpt lat="47.53614" lon="-0.09788">
        <ele>58</ele>
        <time>2013-04-21T14:05:22.000Z</time>
      </trkpt>
      <trkpt lat="47.53617" lon="-0.09793">
        <ele>58</ele>
        <time>2013-04-21T14:05:25.000Z</time>
      </trkpt>
      <trkpt lat="47.53617" lon="-0.09794">
        <ele>58</ele>
        <time>2013-04-21T14:05:26.000Z</time>
      </trkpt>
      <trkpt lat="47.53619" lon="-0.098">
        <ele>57</ele>
        <time>2013-04-21T14:05:30.000Z</time>
      </trkpt>
      <trkpt lat="47.5362" lon="-0.09801">
        <ele>57</ele>
        <time>2013-04-21T14:05:31.000Z</time>
      </trkpt>
      <trkpt lat="47.53623" lon="-0.09806">
        <ele>57</ele>
        <time>2013-04-21T14:05:38.000Z</time>
      </trkpt>
      <trkpt lat="47.53623" lon="-0.09806">
        <ele>57</ele>
        <time>2013-04-21T14:05:39.000Z</time>
      </trkpt>
      <trkpt lat="47.53627" lon="-0.09805">
        <ele>57</ele>
        <time>2013-04-21T14:05:51.000Z</time>
      </trkpt>
      <trkpt lat="47.53627" lon="-0.09805">
        <ele>57</ele>
        <time>2013-04-21T14:05:52.000Z</time>
      </trkpt>
      <trkpt lat="47.5363" lon="-0.0981">
        <ele>57</ele>
        <time>2013-04-21T14:06:13.000Z</time>
      </trkpt>
      <trkpt lat="47.5363" lon="-0.09811">
        <ele>57</ele>
        <time>2013-04-21T14:06:14.000Z</time>
      </trkpt>
      <trkpt lat="47.53634" lon="-0.09811">
        <ele>57</ele>
        <time>2013-04-21T14:06:49.000Z</time>
      </trkpt>
      <trkpt lat="47.53635" lon="-0.0981">
        <ele>57</ele>
        <time>2013-04-21T14:06:50.000Z</time>
      </trkpt>
      <trkpt lat="47.53635" lon="-0.09817">
        <ele>57</ele>
        <time>2013-04-21T14:07:01.000Z</time>
      </trkpt>
      <trkpt lat="47.53636" lon="-0.09817">
        <ele>57</ele>
        <time>2013-04-21T14:07:02.000Z</time>
      </trkpt>
      <trkpt lat="47.53638" lon="-0.09823">
        <ele>57</ele>
        <time>2013-04-21T14:07:48.000Z</time>
      </trkpt>
      <trkpt lat="47.53637" lon="-0.09824">
        <ele>57</ele>
        <time>2013-04-21T14:07:49.000Z</time>
      </trkpt>
      <trkpt lat="47.5364" lon="-0.09828">
        <ele>57</ele>
        <time>2013-04-21T14:08:05.000Z</time>
      </trkpt>
      <trkpt lat="47.53641" lon="-0.0983">
        <ele>57</ele>
        <time>2013-04-21T14:08:06.000Z</time>
      </trkpt>
      <trkpt lat="47.53643" lon="-0.09834">
        <ele>56</ele>
        <time>2013-04-21T14:08:08.000Z</time>
      </trkpt>
      <trkpt lat="47.53643" lon="-0.09836">
        <ele>56</ele>
        <time>2013-04-21T14:08:09.000Z</time>
      </trkpt>
      <trkpt lat="47.53646" lon="-0.09842">
        <ele>56</ele>
        <time>2013-04-21T14:08:13.000Z</time>
      </trkpt>
      <trkpt lat="47.53646" lon="-0.09843">
        <ele>56</ele>
        <time>2013-04-21T14:08:14.000Z</time>
      </trkpt>
      <trkpt lat="47.53648" lon="-0.09846">
        <ele>56</ele>
        <time>2013-04-21T14:08:16.000Z</time>
      </trkpt>
      <trkpt lat="47.53649" lon="-0.09848">
        <ele>56</ele>
        <time>2013-04-21T14:08:17.000Z</time>
      </trkpt>
      <trkpt lat="47.53652" lon="-0.09852">
        <ele>56</ele>
        <time>2013-04-21T14:08:21.000Z</time>
      </trkpt>
      <trkpt lat="47.53652" lon="-0.09852">
        <ele>56</ele>
        <time>2013-04-21T14:08:22.000Z</time>
      </trkpt>
      <trkpt lat="47.53656" lon="-0.09855">
        <ele>56</ele>
        <time>2013-04-21T14:08:26.000Z</time>
      </trkpt>
      <trkpt lat="47.53657" lon="-0.09856">
        <ele>56</ele>
        <time>2013-04-21T14:08:27.000Z</time>
      </trkpt>
      <trkpt lat="47.5366" lon="-0.0986">
        <ele>56</ele>
        <time>2013-04-21T14:08:32.000Z</time>
      </trkpt>
      <trkpt lat="47.53661" lon="-0.09861">
        <ele>56</ele>
        <time>2013-04-21T14:08:33.000Z</time>
      </trkpt>
      <trkpt lat="47.53662" lon="-0.09866">
        <ele>56</ele>
        <time>2013-04-21T14:08:37.000Z</time>
      </trkpt>
      <trkpt lat="47.53663" lon="-0.09868">
        <ele>57</ele>
        <time>2013-04-21T14:08:38.000Z</time>
      </trkpt>
      <trkpt lat="47.53666" lon="-0.09871">
        <ele>57</ele>
        <time>2013-04-21T14:08:40.000Z</time>
      </trkpt>
      <trkpt lat="47.53667" lon="-0.09872">
        <ele>55</ele>
        <time>2013-04-21T14:08:41.000Z</time>
      </trkpt>
      <trkpt lat="47.5367" lon="-0.09876">
        <ele>55</ele>
        <time>2013-04-21T14:08:47.000Z</time>
      </trkpt>
      <trkpt lat="47.5367" lon="-0.09877">
        <ele>55</ele>
        <time>2013-04-21T14:08:48.000Z</time>
      </trkpt>
      <trkpt lat="47.53673" lon="-0.09881">
        <ele>55</ele>
        <time>2013-04-21T14:08:56.000Z</time>
      </trkpt>
      <trkpt lat="47.53673" lon="-0.09882">
        <ele>55</ele>
        <time>2013-04-21T14:08:57.000Z</time>
      </trkpt>
      <trkpt lat="47.53676" lon="-0.09886">
        <ele>55</ele>
        <time>2013-04-21T14:08:59.000Z</time>
      </trkpt>
      <trkpt lat="47.53677" lon="-0.09887">
        <ele>55</ele>
        <time>2013-04-21T14:09:00.000Z</time>
      </trkpt>
      <trkpt lat="47.5368" lon="-0.09889">
        <ele>55</ele>
        <time>2013-04-21T14:09:03.000Z</time>
      </trkpt>
      <trkpt lat="47.53682" lon="-0.0989">
        <ele>55</ele>
        <time>2013-04-21T14:09:04.000Z</time>
      </trkpt>
      <trkpt lat="47.53684" lon="-0.09893">
        <ele>55</ele>
        <time>2013-04-21T14:09:09.000Z</time>
      </trkpt>
      <trkpt lat="47.53685" lon="-0.09894">
        <ele>55</ele>
        <time>2013-04-21T14:09:10.000Z</time>
      </trkpt>
      <trkpt lat="47.53689" lon="-0.09894">
        <ele>55</ele>
        <time>2013-04-21T14:09:33.000Z</time>
      </trkpt>
      <trkpt lat="47.5369" lon="-0.09895">
        <ele>55</ele>
        <time>2013-04-21T14:09:34.000Z</time>
      </trkpt>
      <trkpt lat="47.53692" lon="-0.09899">
        <ele>55</ele>
        <time>2013-04-21T14:09:38.000Z</time>
      </trkpt>
      <trkpt lat="47.53693" lon="-0.09901">
        <ele>55</ele>
        <time>2013-04-21T14:09:39.000Z</time>
      </trkpt>
      <trkpt lat="47.53695" lon="-0.09906">
        <ele>55</ele>
        <time>2013-04-21T14:09:54.000Z</time>
      </trkpt>
      <trkpt lat="47.53695" lon="-0.09906">
        <ele>55</ele>
        <time>2013-04-21T14:09:55.000Z</time>
      </trkpt>
      <trkpt lat="47.53698" lon="-0.09911">
        <ele>55</ele>
        <time>2013-04-21T14:10:26.001Z</time>
      </trkpt>
      <trkpt lat="47.53699" lon="-0.09911">
        <ele>55</ele>
        <time>2013-04-21T14:10:27.001Z</time>
      </trkpt>
      <trkpt lat="47.53701" lon="-0.09915">
        <ele>55</ele>
        <time>2013-04-21T14:10:33.001Z</time>
      </trkpt>
      <trkpt lat="47.53702" lon="-0.09916">
        <ele>55</ele>
        <time>2013-04-21T14:10:34.001Z</time>
      </trkpt>
      <trkpt lat="47.53705" lon="-0.09918">
        <ele>55</ele>
        <time>2013-04-21T14:10:37.001Z</time>
      </trkpt>
      <trkpt lat="47.53706" lon="-0.0992">
        <ele>55</ele>
        <time>2013-04-21T14:10:38.001Z</time>
      </trkpt>
      <trkpt lat="47.5371" lon="-0.09922">
        <ele>55</ele>
        <time>2013-04-21T14:10:41.001Z</time>
      </trkpt>
      <trkpt lat="47.5371" lon="-0.09924">
        <ele>55</ele>
        <time>2013-04-21T14:10:42.001Z</time>
      </trkpt>
      <trkpt lat="47.53713" lon="-0.09928">
        <ele>55</ele>
        <time>2013-04-21T14:10:45.001Z</time>
      </trkpt>
      <trkpt lat="47.53713" lon="-0.09929">
        <ele>55</ele>
        <time>2013-04-21T14:10:46.001Z</time>
      </trkpt>
      <trkpt lat="47.53716" lon="-0.09934">
        <ele>55</ele>
        <time>2013-04-21T14:10:51.001Z</time>
      </trkpt>
      <trkpt lat="47.53716" lon="-0.09935">
        <ele>55</ele>
        <time>2013-04-21T14:10:52.001Z</time>
      </trkpt>
      <trkpt lat="47.53718" lon="-0.09938">
        <ele>55</ele>
        <time>2013-04-21T14:10:55.001Z</time>
      </trkpt>
      <trkpt lat="47.53719" lon="-0.09939">
        <ele>55</ele>
        <time>2013-04-21T14:10:56.001Z</time>
      </trkpt>
      <trkpt lat="47.53722" lon="-0.09943">
        <ele>55</ele>
        <time>2013-04-21T14:11:01.001Z</time>
      </trkpt>
      <trkpt lat="47.53723" lon="-0.09945">
        <ele>55</ele>
        <time>2013-04-21T14:11:02.001Z</time>
      </trkpt>
      <trkpt lat="47.53724" lon="-0.09951">
        <ele>55</ele>
        <time>2013-04-21T14:11:08.001Z</time>
      </trkpt>
      <trkpt lat="47.53724" lon="-0.09952">
        <ele>55</ele>
        <time>2013-04-21T14:11:09.001Z</time>
      </trkpt>
      <trkpt lat="47.53727" lon="-0.09956">
        <ele>55</ele>
        <time>2013-04-21T14:11:13.001Z</time>
      </trkpt>
      <trkpt lat="47.53728" lon="-0.09958">
        <ele>55</ele>
        <time>2013-04-21T14:11:14.001Z</time>
      </trkpt>
      <trkpt lat="47.5373" lon="-0.09962">
        <ele>55</ele>
        <time>2013-04-21T14:11:17.001Z</time>
      </trkpt>
      <trkpt lat="47.53731" lon="-0.09964">
        <ele>55</ele>
        <time>2013-04-21T14:11:18.001Z</time>
      </trkpt>
      <trkpt lat="47.53731" lon="-0.09968">
        <ele>55</ele>
        <time>2013-04-21T14:11:21.001Z</time>
      </trkpt>
      <trkpt lat="47.53732" lon="-0.0997">
        <ele>55</ele>
        <time>2013-04-21T14:11:22.001Z</time>
      </trkpt>
      <trkpt lat="47.53736" lon="-0.09974">
        <ele>55</ele>
        <time>2013-04-21T14:11:27.001Z</time>
      </trkpt>
      <trkpt lat="47.53736" lon="-0.09975">
        <ele>55</ele>
        <time>2013-04-21T14:11:28.001Z</time>
      </trkpt>
      <trkpt lat="47.53738" lon="-0.09979">
        <ele>55</ele>
        <time>2013-04-21T14:11:32.001Z</time>
      </trkpt>
      <trkpt lat="47.53738" lon="-0.0998">
        <ele>55</ele>
        <time>2013-04-21T14:11:33.001Z</time>
      </trkpt>
      <trkpt lat="47.53741" lon="-0.09984">
        <ele>54</ele>
        <time>2013-04-21T14:11:37.001Z</time>
      </trkpt>
      <trkpt lat="47.53742" lon="-0.09986">
        <ele>54</ele>
        <time>2013-04-21T14:11:38.001Z</time>
      </trkpt>
      <trkpt lat="47.53744" lon="-0.09991">
        <ele>54</ele>
        <time>2013-04-21T14:11:42.001Z</time>
      </trkpt>
      <trkpt lat="47.53744" lon="-0.09992">
        <ele>54</ele>
        <time>2013-04-21T14:11:43.001Z</time>
      </trkpt>
      <trkpt lat="47.53746" lon="-0.09997">
        <ele>54</ele>
        <time>2013-04-21T14:11:48.001Z</time>
      </trkpt>
      <trkpt lat="47.53746" lon="-0.09998">
        <ele>54</ele>
        <time>2013-04-21T14:11:49.001Z</time>
      </trkpt>
      <trkpt lat="47.53746" lon="-0.10004">
        <ele>54</ele>
        <time>2013-04-21T14:11:53.001Z</time>
      </trkpt>
      <trkpt lat="47.53747" lon="-0.10005">
        <ele>54</ele>
        <time>2013-04-21T14:11:54.001Z</time>
      </trkpt>
      <trkpt lat="47.5375" lon="-0.10008">
        <ele>54</ele>
        <time>2013-04-21T14:11:58.001Z</time>
      </trkpt>
      <trkpt lat="47.5375" lon="-0.10009">
        <ele>54</ele>
        <time>2013-04-21T14:11:59.001Z</time>
      </trkpt>
      <trkpt lat="47.53752" lon="-0.10014">
        <ele>54</ele>
        <time>2013-04-21T14:12:05.001Z</time>
      </trkpt>
      <trkpt lat="47.53754" lon="-0.10016">
        <ele>54</ele>
        <time>2013-04-21T14:12:06.001Z</time>
      </trkpt>
      <trkpt lat="47.53756" lon="-0.10021">
        <ele>54</ele>
        <time>2013-04-21T14:12:09.001Z</time>
      </trkpt>
      <trkpt lat="47.53756" lon="-0.10023">
        <ele>54</ele>
        <time>2013-04-21T14:12:10.001Z</time>
      </trkpt>
      <trkpt lat="47.53758" lon="-0.10028">
        <ele>54</ele>
        <time>2013-04-21T14:12:13.001Z</time>
      </trkpt>
      <trkpt lat="47.53759" lon="-0.1003">
        <ele>54</ele>
        <time>2013-04-21T14:12:14.001Z</time>
      </trkpt>
      <trkpt lat="47.53758" lon="-0.10035">
        <ele>54</ele>
        <time>2013-04-21T14:12:17.001Z</time>
      </trkpt>
      <trkpt lat="47.53758" lon="-0.10037">
        <ele>54</ele>
        <time>2013-04-21T14:12:18.001Z</time>
      </trkpt>
      <trkpt lat="47.53757" lon="-0.10043">
        <ele>54</ele>
        <time>2013-04-21T14:12:20.001Z</time>
      </trkpt>
      <trkpt lat="47.53755" lon="-0.10043">
        <ele>54</ele>
        <time>2013-04-21T14:12:21.001Z</time>
      </trkpt>
      <trkpt lat="47.53757" lon="-0.10047">
        <ele>54</ele>
        <time>2013-04-21T14:12:24.001Z</time>
      </trkpt>
      <trkpt lat="47.53758" lon="-0.10048">
        <ele>54</ele>
        <time>2013-04-21T14:12:25.001Z</time>
      </trkpt>
      <trkpt lat="47.53761" lon="-0.10053">
        <ele>54</ele>
        <time>2013-04-21T14:12:29.001Z</time>
      </trkpt>
      <trkpt lat="47.53761" lon="-0.10054">
        <ele>54</ele>
        <time>2013-04-21T14:12:30.001Z</time>
      </trkpt>
      <trkpt lat="47.53764" lon="-0.10055">
        <ele>54</ele>
        <time>2013-04-21T14:12:32.001Z</time>
      </trkpt>
      <trkpt lat="47.53766" lon="-0.10056">
        <ele>54</ele>
        <time>2013-04-21T14:12:33.001Z</time>
      </trkpt>
      <trkpt lat="47.5377" lon="-0.1006">
        <ele>54</ele>
        <time>2013-04-21T14:12:39.001Z</time>
      </trkpt>
      <trkpt lat="47.53771" lon="-0.10061">
        <ele>54</ele>
        <time>2013-04-21T14:12:40.001Z</time>
      </trkpt>
      <trkpt lat="47.53772" lon="-0.10067">
        <ele>54</ele>
        <time>2013-04-21T14:12:45.001Z</time>
      </trkpt>
      <trkpt lat="47.53773" lon="-0.10068">
        <ele>54</ele>
        <time>2013-04-21T14:12:46.001Z</time>
      </trkpt>
      <trkpt lat="47.53774" lon="-0.10074">
        <ele>54</ele>
        <time>2013-04-21T14:12:50.001Z</time>
      </trkpt>
      <trkpt lat="47.53775" lon="-0.10076">
        <ele>54</ele>
        <time>2013-04-21T14:12:51.001Z</time>
      </trkpt>
      <trkpt lat="47.53778" lon="-0.1008">
        <ele>54</ele>
        <time>2013-04-21T14:12:56.001Z</time>
      </trkpt>
      <trkpt lat="47.53778" lon="-0.10081">
        <ele>54</ele>
        <time>2013-04-21T14:12:57.001Z</time>
      </trkpt>
      <trkpt lat="47.53782" lon="-0.10084">
        <ele>54</ele>
        <time>2013-04-21T14:13:00.001Z</time>
      </trkpt>
      <trkpt lat="47.53784" lon="-0.10086">
        <ele>54</ele>
        <time>2013-04-21T14:13:01.001Z</time>
      </trkpt>
      <trkpt lat="47.53787" lon="-0.10087">
        <ele>54</ele>
        <time>2013-04-21T14:13:03.001Z</time>
      </trkpt>
      <trkpt lat="47.53788" lon="-0.10087">
        <ele>54</ele>
        <time>2013-04-21T14:13:04.001Z</time>
      </trkpt>
      <trkpt lat="47.53792" lon="-0.10089">
        <ele>54</ele>
        <time>2013-04-21T14:13:28.001Z</time>
      </trkpt>
      <trkpt lat="47.53792" lon="-0.10089">
        <ele>54</ele>
        <time>2013-04-21T14:13:29.001Z</time>
      </trkpt>
      <trkpt lat="47.53794" lon="-0.10084">
        <ele>53</ele>
        <time>2013-04-21T14:13:35.001Z</time>
      </trkpt>
      <trkpt lat="47.53794" lon="-0.10082">
        <ele>54</ele>
        <time>2013-04-21T14:13:36.001Z</time>
      </trkpt>
      <trkpt lat="47.53797" lon="-0.10079">
        <ele>54</ele>
        <time>2013-04-21T14:13:43.001Z</time>
      </trkpt>
      <trkpt lat="47.53797" lon="-0.10077">
        <ele>54</ele>
        <time>2013-04-21T14:13:44.001Z</time>
      </trkpt>
      <trkpt lat="47.53801" lon="-0.10074">
        <ele>54</ele>
        <time>2013-04-21T14:13:53.001Z</time>
      </trkpt>
      <trkpt lat="47.53802" lon="-0.10072">
        <ele>54</ele>
        <time>2013-04-21T14:13:54.001Z</time>
      </trkpt>
      <trkpt lat="47.53804" lon="-0.10069">
        <ele>54</ele>
        <time>2013-04-21T14:13:55.001Z</time>
      </trkpt>
      <trkpt lat="47.53805" lon="-0.10066">
        <ele>54</ele>
        <time>2013-04-21T14:13:56.001Z</time>
      </trkpt>
      <trkpt lat="47.53807" lon="-0.10061">
        <ele>54</ele>
        <time>2013-04-21T14:14:04.001Z</time>
      </trkpt>
      <trkpt lat="47.53808" lon="-0.1006">
        <ele>54</ele>
        <time>2013-04-21T14:14:05.001Z</time>
      </trkpt>
      <trkpt lat="47.5381" lon="-0.10056">
        <ele>54</ele>
        <time>2013-04-21T14:14:08.001Z</time>
      </trkpt>
      <trkpt lat="47.53811" lon="-0.10055">
        <ele>54</ele>
        <time>2013-04-21T14:14:09.001Z</time>
      </trkpt>
      <trkpt lat="47.53814" lon="-0.1005">
        <ele>54</ele>
        <time>2013-04-21T14:14:12.001Z</time>
      </trkpt>
      <trkpt lat="47.53815" lon="-0.10048">
        <ele>54</ele>
        <time>2013-04-21T14:14:13.001Z</time>
      </trkpt>
      <trkpt lat="47.53818" lon="-0.10044">
        <ele>54</ele>
        <time>2013-04-21T14:14:16.001Z</time>
      </trkpt>
      <trkpt lat="47.53819" lon="-0.10044">
        <ele>54</ele>
        <time>2013-04-21T14:14:17.001Z</time>
      </trkpt>
      <trkpt lat="47.53822" lon="-0.10039">
        <ele>54</ele>
        <time>2013-04-21T14:14:20.001Z</time>
      </trkpt>
      <trkpt lat="47.53822" lon="-0.10038">
        <ele>54</ele>
        <time>2013-04-21T14:14:21.001Z</time>
      </trkpt>
      <trkpt lat="47.53825" lon="-0.10035">
        <ele>54</ele>
        <time>2013-04-21T14:14:24.001Z</time>
      </trkpt>
      <trkpt lat="47.53826" lon="-0.10034">
        <ele>54</ele>
        <time>2013-04-21T14:14:25.001Z</time>
      </trkpt>
      <trkpt lat="47.53828" lon="-0.10028">
        <ele>54</ele>
        <time>2013-04-21T14:14:31.001Z</time>
      </trkpt>
      <trkpt lat="47.53828" lon="-0.10027">
        <ele>54</ele>
        <time>2013-04-21T14:14:32.001Z</time>
      </trkpt>
      <trkpt lat="47.53831" lon="-0.10022">
        <ele>54</ele>
        <time>2013-04-21T14:14:36.001Z</time>
      </trkpt>
      <trkpt lat="47.53831" lon="-0.10021">
        <ele>54</ele>
        <time>2013-04-21T14:14:37.001Z</time>
      </trkpt>
      <trkpt lat="47.53832" lon="-0.10015">
        <ele>55</ele>
        <time>2013-04-21T14:14:44.001Z</time>
      </trkpt>
      <trkpt lat="47.53833" lon="-0.10013">
        <ele>55</ele>
        <time>2013-04-21T14:14:45.001Z</time>
      </trkpt>
      <trkpt lat="47.53835" lon="-0.10008">
        <ele>54</ele>
        <time>2013-04-21T14:14:49.001Z</time>
      </trkpt>
      <trkpt lat="47.53836" lon="-0.10008">
        <ele>54</ele>
        <time>2013-04-21T14:14:50.001Z</time>
      </trkpt>
      <trkpt lat="47.53839" lon="-0.10004">
        <ele>54</ele>
        <time>2013-04-21T14:14:55.001Z</time>
      </trkpt>
      <trkpt lat="47.53839" lon="-0.10002">
        <ele>54</ele>
        <time>2013-04-21T14:14:56.001Z</time>
      </trkpt>
      <trkpt lat="47.53841" lon="-0.09996">
        <ele>55</ele>
        <time>2013-04-21T14:15:00.001Z</time>
      </trkpt>
      <trkpt lat="47.53841" lon="-0.09995">
        <ele>55</ele>
        <time>2013-04-21T14:15:01.001Z</time>
      </trkpt>
      <trkpt lat="47.53844" lon="-0.0999">
        <ele>54</ele>
        <time>2013-04-21T14:15:06.001Z</time>
      </trkpt>
      <trkpt lat="47.53844" lon="-0.09989">
        <ele>54</ele>
        <time>2013-04-21T14:15:07.001Z</time>
      </trkpt>
      <trkpt lat="47.53845" lon="-0.09983">
        <ele>54</ele>
        <time>2013-04-21T14:15:11.001Z</time>
      </trkpt>
      <trkpt lat="47.53845" lon="-0.09982">
        <ele>54</ele>
        <time>2013-04-21T14:15:12.001Z</time>
      </trkpt>
      <trkpt lat="47.53846" lon="-0.09976">
        <ele>54</ele>
        <time>2013-04-21T14:15:16.001Z</time>
      </trkpt>
      <trkpt lat="47.53847" lon="-0.09974">
        <ele>54</ele>
        <time>2013-04-21T14:15:17.001Z</time>
      </trkpt>
      <trkpt lat="47.53848" lon="-0.09968">
        <ele>54</ele>
        <time>2013-04-21T14:15:21.001Z</time>
      </trkpt>
      <trkpt lat="47.53849" lon="-0.09967">
        <ele>54</ele>
        <time>2013-04-21T14:15:22.001Z</time>
      </trkpt>
      <trkpt lat="47.53851" lon="-0.09963">
        <ele>54</ele>
        <time>2013-04-21T14:15:24.001Z</time>
      </trkpt>
      <trkpt lat="47.53854" lon="-0.09959">
        <ele>54</ele>
        <time>2013-04-21T14:15:25.001Z</time>
      </trkpt>
      <trkpt lat="47.53856" lon="-0.09955">
        <ele>54</ele>
        <time>2013-04-21T14:15:28.001Z</time>
      </trkpt>
      <trkpt lat="47.53858" lon="-0.09952">
        <ele>54</ele>
        <time>2013-04-21T14:15:29.001Z</time>
      </trkpt>
      <trkpt lat="47.53859" lon="-0.09948">
        <ele>54</ele>
        <time>2013-04-21T14:15:32.001Z</time>
      </trkpt>
      <trkpt lat="47.53861" lon="-0.09946">
        <ele>54</ele>
        <time>2013-04-21T14:15:33.001Z</time>
      </trkpt>
      <trkpt lat="47.53863" lon="-0.09941">
        <ele>54</ele>
        <time>2013-04-21T14:15:39.001Z</time>
      </trkpt>
      <trkpt lat="47.53863" lon="-0.0994">
        <ele>54</ele>
        <time>2013-04-21T14:15:40.001Z</time>
      </trkpt>
      <trkpt lat="47.53866" lon="-0.09935">
        <ele>54</ele>
        <time>2013-04-21T14:15:44.001Z</time>
      </trkpt>
      <trkpt lat="47.53866" lon="-0.09933">
        <ele>54</ele>
        <time>2013-04-21T14:15:45.001Z</time>
      </trkpt>
      <trkpt lat="47.53868" lon="-0.09928">
        <ele>54</ele>
        <time>2013-04-21T14:15:47.001Z</time>
      </trkpt>
      <trkpt lat="47.53867" lon="-0.09926">
        <ele>54</ele>
        <time>2013-04-21T14:15:48.001Z</time>
      </trkpt>
      <trkpt lat="47.5387" lon="-0.09921">
        <ele>54</ele>
        <time>2013-04-21T14:15:53.001Z</time>
      </trkpt>
      <trkpt lat="47.5387" lon="-0.0992">
        <ele>54</ele>
        <time>2013-04-21T14:15:54.001Z</time>
      </trkpt>
      <trkpt lat="47.53872" lon="-0.09916">
        <ele>54</ele>
        <time>2013-04-21T14:15:56.001Z</time>
      </trkpt>
      <trkpt lat="47.53872" lon="-0.09913">
        <ele>54</ele>
        <time>2013-04-21T14:15:57.001Z</time>
      </trkpt>
      <trkpt lat="47.53873" lon="-0.09907">
        <ele>54</ele>
        <time>2013-04-21T14:16:00.001Z</time>
      </trkpt>
      <trkpt lat="47.53874" lon="-0.09906">
        <ele>54</ele>
        <time>2013-04-21T14:16:01.001Z</time>
      </trkpt>
      <trkpt lat="47.53876" lon="-0.09901">
        <ele>54</ele>
        <time>2013-04-21T14:16:05.001Z</time>
      </trkpt>
      <trkpt lat="47.53876" lon="-0.099">
        <ele>54</ele>
        <time>2013-04-21T14:16:06.001Z</time>
      </trkpt>
      <trkpt lat="47.53879" lon="-0.09896">
        <ele>54</ele>
        <time>2013-04-21T14:16:09.001Z</time>
      </trkpt>
      <trkpt lat="47.5388" lon="-0.09896">
        <ele>54</ele>
        <time>2013-04-21T14:16:10.001Z</time>
      </trkpt>
      <trkpt lat="47.53883" lon="-0.09893">
        <ele>54</ele>
        <time>2013-04-21T14:16:13.001Z</time>
      </trkpt>
      <trkpt lat="47.53883" lon="-0.09891">
        <ele>54</ele>
        <time>2013-04-21T14:16:14.001Z</time>
      </trkpt>
      <trkpt lat="47.53885" lon="-0.09887">
        <ele>54</ele>
        <time>2013-04-21T14:16:19.001Z</time>
      </trkpt>
      <trkpt lat="47.53886" lon="-0.09885">
        <ele>54</ele>
        <time>2013-04-21T14:16:20.001Z</time>
      </trkpt>
      <trkpt lat="47.53888" lon="-0.09879">
        <ele>54</ele>
        <time>2013-04-21T14:16:23.001Z</time>
      </trkpt>
      <trkpt lat="47.53888" lon="-0.09879">
        <ele>54</ele>
        <time>2013-04-21T14:16:24.001Z</time>
      </trkpt>
      <trkpt lat="47.53891" lon="-0.09874">
        <ele>54</ele>
        <time>2013-04-21T14:16:29.001Z</time>
      </trkpt>
      <trkpt lat="47.53891" lon="-0.09872">
        <ele>54</ele>
        <time>2013-04-21T14:16:30.001Z</time>
      </trkpt>
      <trkpt lat="47.53891" lon="-0.09867">
        <ele>54</ele>
        <time>2013-04-21T14:16:33.001Z</time>
      </trkpt>
      <trkpt lat="47.53892" lon="-0.09866">
        <ele>54</ele>
        <time>2013-04-21T14:16:34.001Z</time>
      </trkpt>
      <trkpt lat="47.53894" lon="-0.0986">
        <ele>54</ele>
        <time>2013-04-21T14:16:40.001Z</time>
      </trkpt>
      <trkpt lat="47.53894" lon="-0.09858">
        <ele>54</ele>
        <time>2013-04-21T14:16:41.001Z</time>
      </trkpt>
      <trkpt lat="47.53895" lon="-0.09856">
        <ele>54</ele>
        <time>2013-04-21T14:16:46.001Z</time>
      </trkpt>
      <trkpt lat="47.53898" lon="-0.09853">
        <ele>54</ele>
        <time>2013-04-21T14:16:47.001Z</time>
      </trkpt>
      <trkpt lat="47.539" lon="-0.09851">
        <ele>54</ele>
        <time>2013-04-21T14:16:48.001Z</time>
      </trkpt>
      <trkpt lat="47.53901" lon="-0.09848">
        <ele>54</ele>
        <time>2013-04-21T14:16:49.001Z</time>
      </trkpt>
      <trkpt lat="47.53901" lon="-0.09842">
        <ele>55</ele>
        <time>2013-04-21T14:16:54.001Z</time>
      </trkpt>
      <trkpt lat="47.53901" lon="-0.09841">
        <ele>55</ele>
        <time>2013-04-21T14:16:55.001Z</time>
      </trkpt>
      <trkpt lat="47.53898" lon="-0.09838">
        <ele>55</ele>
        <time>2013-04-21T14:17:22.001Z</time>
      </trkpt>
      <trkpt lat="47.53897" lon="-0.09837">
        <ele>55</ele>
        <time>2013-04-21T14:17:23.001Z</time>
      </trkpt>
      <trkpt lat="47.53899" lon="-0.09832">
        <ele>55</ele>
        <time>2013-04-21T14:17:27.001Z</time>
      </trkpt>
      <trkpt lat="47.539" lon="-0.0983">
        <ele>55</ele>
        <time>2013-04-21T14:17:28.001Z</time>
      </trkpt>
      <trkpt lat="47.53901" lon="-0.09824">
        <ele>55</ele>
        <time>2013-04-21T14:17:35.001Z</time>
      </trkpt>
      <trkpt lat="47.53901" lon="-0.09819">
        <ele>55</ele>
        <time>2013-04-21T14:17:36.001Z</time>
      </trkpt>
      <trkpt lat="47.53904" lon="-0.09813">
        <ele>55</ele>
        <time>2013-04-21T14:17:38.001Z</time>
      </trkpt>
      <trkpt lat="47.53904" lon="-0.09812">
        <ele>55</ele>
        <time>2013-04-21T14:17:39.001Z</time>
      </trkpt>
      <trkpt lat="47.53907" lon="-0.09807">
        <ele>55</ele>
        <time>2013-04-21T14:17:41.001Z</time>
      </trkpt>
      <trkpt lat="47.53908" lon="-0.09805">
        <ele>55</ele>
        <time>2013-04-21T14:17:42.001Z</time>
      </trkpt>
      <trkpt lat="47.53912" lon="-0.09803">
        <ele>55</ele>
        <time>2013-04-21T14:17:48.001Z</time>
      </trkpt>
      <trkpt lat="47.53912" lon="-0.09802">
        <ele>55</ele>
        <time>2013-04-21T14:17:49.001Z</time>
      </trkpt>
      <trkpt lat="47.53914" lon="-0.09797">
        <ele>55</ele>
        <time>2013-04-21T14:17:53.001Z</time>
      </trkpt>
      <trkpt lat="47.53915" lon="-0.09796">
        <ele>55</ele>
        <time>2013-04-21T14:17:54.001Z</time>
      </trkpt>
      <trkpt lat="47.53918" lon="-0.09793">
        <ele>55</ele>
        <time>2013-04-21T14:17:58.001Z</time>
      </trkpt>
      <trkpt lat="47.53921" lon="-0.09791">
        <ele>55</ele>
        <time>2013-04-21T14:17:59.001Z</time>
      </trkpt>
      <trkpt lat="47.53924" lon="-0.09789">
        <ele>55</ele>
        <time>2013-04-21T14:18:03.001Z</time>
      </trkpt>
      <trkpt lat="47.53925" lon="-0.09788">
        <ele>55</ele>
        <time>2013-04-21T14:18:04.001Z</time>
      </trkpt>
      <trkpt lat="47.53928" lon="-0.09785">
        <ele>55</ele>
        <time>2013-04-21T14:18:07.001Z</time>
      </trkpt>
      <trkpt lat="47.53929" lon="-0.09784">
        <ele>55</ele>
        <time>2013-04-21T14:18:08.001Z</time>
      </trkpt>
      <trkpt lat="47.5393" lon="-0.09783">
        <ele>55</ele>
        <time>2013-04-21T14:18:09.001Z</time>
      </trkpt>
      <trkpt lat="47.53933" lon="-0.09781">
        <ele>55</ele>
        <time>2013-04-21T14:18:10.001Z</time>
      </trkpt>
      <trkpt lat="47.53936" lon="-0.09778">
        <ele>55</ele>
        <time>2013-04-21T14:18:12.001Z</time>
      </trkpt>
      <trkpt lat="47.53939" lon="-0.09775">
        <ele>55</ele>
        <time>2013-04-21T14:18:13.001Z</time>
      </trkpt>
      <trkpt lat="47.53943" lon="-0.09771">
        <ele>55</ele>
        <time>2013-04-21T14:18:17.001Z</time>
      </trkpt>
      <trkpt lat="47.53944" lon="-0.0977">
        <ele>55</ele>
        <time>2013-04-21T14:18:18.001Z</time>
      </trkpt>
      <trkpt lat="47.53947" lon="-0.09765">
        <ele>55</ele>
        <time>2013-04-21T14:18:27.001Z</time>
      </trkpt>
      <trkpt lat="47.53947" lon="-0.09764">
        <ele>55</ele>
        <time>2013-04-21T14:18:28.001Z</time>
      </trkpt>
      <trkpt lat="47.53949" lon="-0.09758">
        <ele>55</ele>
        <time>2013-04-21T14:18:33.001Z</time>
      </trkpt>
      <trkpt lat="47.5395" lon="-0.09758">
        <ele>55</ele>
        <time>2013-04-21T14:18:34.001Z</time>
      </trkpt>
      <trkpt lat="47.5395" lon="-0.09757">
        <ele>55</ele>
        <time>2013-04-21T14:18:35.001Z</time>
      </trkpt>
      <trkpt lat="47.53955" lon="-0.09754">
        <ele>54</ele>
        <time>2013-04-21T14:18:36.001Z</time>
      </trkpt>
      <trkpt lat="47.53958" lon="-0.09748">
        <ele>54</ele>
        <time>2013-04-21T14:18:37.001Z</time>
      </trkpt>
      <trkpt lat="47.53962" lon="-0.09745">
        <ele>54</ele>
        <time>2013-04-21T14:18:40.001Z</time>
      </trkpt>
      <trkpt lat="47.53963" lon="-0.09744">
        <ele>54</ele>
        <time>2013-04-21T14:18:41.001Z</time>
      </trkpt>
      <trkpt lat="47.53966" lon="-0.09741">
        <ele>54</ele>
        <time>2013-04-21T14:18:43.001Z</time>
      </trkpt>
      <trkpt lat="47.53967" lon="-0.0974">
        <ele>54</ele>
        <time>2013-04-21T14:18:44.001Z</time>
      </trkpt>
      <trkpt lat="47.53969" lon="-0.09737">
        <ele>54</ele>
        <time>2013-04-21T14:18:47.001Z</time>
      </trkpt>
      <trkpt lat="47.53971" lon="-0.09734">
        <ele>54</ele>
        <time>2013-04-21T14:18:48.001Z</time>
      </trkpt>
      <trkpt lat="47.53974" lon="-0.09729">
        <ele>54</ele>
        <time>2013-04-21T14:18:52.001Z</time>
      </trkpt>
      <trkpt lat="47.53974" lon="-0.09728">
        <ele>54</ele>
        <time>2013-04-21T14:18:53.001Z</time>
      </trkpt>
      <trkpt lat="47.53977" lon="-0.09724">
        <ele>54</ele>
        <time>2013-04-21T14:19:04.001Z</time>
      </trkpt>
      <trkpt lat="47.53978" lon="-0.09723">
        <ele>54</ele>
        <time>2013-04-21T14:19:05.001Z</time>
      </trkpt>
      <trkpt lat="47.5398" lon="-0.09719">
        <ele>54</ele>
        <time>2013-04-21T14:19:14.001Z</time>
      </trkpt>
      <trkpt lat="47.53981" lon="-0.09716">
        <ele>54</ele>
        <time>2013-04-21T14:19:15.001Z</time>
      </trkpt>
      <trkpt lat="47.53982" lon="-0.0971">
        <ele>54</ele>
        <time>2013-04-21T14:19:18.001Z</time>
      </trkpt>
      <trkpt lat="47.53981" lon="-0.09709">
        <ele>54</ele>
        <time>2013-04-21T14:19:19.001Z</time>
      </trkpt>
      <trkpt lat="47.53982" lon="-0.09708">
        <ele>54</ele>
        <time>2013-04-21T14:19:20.001Z</time>
      </trkpt>
      <trkpt lat="47.53986" lon="-0.09706">
        <ele>54</ele>
        <time>2013-04-21T14:19:21.001Z</time>
      </trkpt>
      <trkpt lat="47.53984" lon="-0.09701">
        <ele>54</ele>
        <time>2013-04-21T14:19:57.001Z</time>
      </trkpt>
      <trkpt lat="47.53983" lon="-0.09698">
        <ele>54</ele>
        <time>2013-04-21T14:19:58.001Z</time>
      </trkpt>
      <trkpt lat="47.53983" lon="-0.09692">
        <ele>54</ele>
        <time>2013-04-21T14:20:04.001Z</time>
      </trkpt>
      <trkpt lat="47.53983" lon="-0.09691">
        <ele>54</ele>
        <time>2013-04-21T14:20:05.001Z</time>
      </trkpt>
      <trkpt lat="47.53982" lon="-0.09686">
        <ele>54</ele>
        <time>2013-04-21T14:20:09.001Z</time>
      </trkpt>
      <trkpt lat="47.53982" lon="-0.09684">
        <ele>54</ele>
        <time>2013-04-21T14:20:10.001Z</time>
      </trkpt>
      <trkpt lat="47.5398" lon="-0.09679">
        <ele>54</ele>
        <time>2013-04-21T14:20:17.001Z</time>
      </trkpt>
      <trkpt lat="47.53979" lon="-0.09678">
        <ele>54</ele>
        <time>2013-04-21T14:20:18.001Z</time>
      </trkpt>
      <trkpt lat="47.53977" lon="-0.09677">
        <ele>54</ele>
        <time>2013-04-21T14:20:19.001Z</time>
      </trkpt>
      <trkpt lat="47.53974" lon="-0.09675">
        <ele>54</ele>
        <time>2013-04-21T14:20:20.001Z</time>
      </trkpt>
      <trkpt lat="47.53972" lon="-0.09673">
        <ele>54</ele>
        <time>2013-04-21T14:20:22.001Z</time>
      </trkpt>
      <trkpt lat="47.5397" lon="-0.09671">
        <ele>54</ele>
        <time>2013-04-21T14:20:23.001Z</time>
      </trkpt>
      <trkpt lat="47.53967" lon="-0.09668">
        <ele>54</ele>
        <time>2013-04-21T14:20:26.001Z</time>
      </trkpt>
      <trkpt lat="47.53966" lon="-0.09667">
        <ele>54</ele>
        <time>2013-04-21T14:20:27.001Z</time>
      </trkpt>
      <trkpt lat="47.53963" lon="-0.09665">
        <ele>52</ele>
        <time>2013-04-21T14:20:33.001Z</time>
      </trkpt>
      <trkpt lat="47.53961" lon="-0.09664">
        <ele>52</ele>
        <time>2013-04-21T14:20:34.001Z</time>
      </trkpt>
      <trkpt lat="47.53959" lon="-0.09661">
        <ele>52</ele>
        <time>2013-04-21T14:20:37.001Z</time>
      </trkpt>
      <trkpt lat="47.53958" lon="-0.09658">
        <ele>52</ele>
        <time>2013-04-21T14:20:38.001Z</time>
      </trkpt>
      <trkpt lat="47.53955" lon="-0.09654">
        <ele>52</ele>
        <time>2013-04-21T14:20:49.001Z</time>
      </trkpt>
      <trkpt lat="47.53954" lon="-0.09653">
        <ele>52</ele>
        <time>2013-04-21T14:20:50.001Z</time>
      </trkpt>
      <trkpt lat="47.53952" lon="-0.0965">
        <ele>52</ele>
        <time>2013-04-21T14:20:53.001Z</time>
      </trkpt>
      <trkpt lat="47.53949" lon="-0.09649">
        <ele>52</ele>
        <time>2013-04-21T14:20:54.001Z</time>
      </trkpt>
      <trkpt lat="47.53945" lon="-0.09652">
        <ele>52</ele>
        <time>2013-04-21T14:21:02.001Z</time>
      </trkpt>
      <trkpt lat="47.53945" lon="-0.09651">
        <ele>52</ele>
        <time>2013-04-21T14:21:03.001Z</time>
      </trkpt>
      <trkpt lat="47.53942" lon="-0.09648">
        <ele>52</ele>
        <time>2013-04-21T14:21:07.001Z</time>
      </trkpt>
      <trkpt lat="47.5394" lon="-0.09647">
        <ele>52</ele>
        <time>2013-04-21T14:21:08.001Z</time>
      </trkpt>
      <trkpt lat="47.53937" lon="-0.09643">
        <ele>52</ele>
        <time>2013-04-21T14:21:13.001Z</time>
      </trkpt>
      <trkpt lat="47.53936" lon="-0.09643">
        <ele>52</ele>
        <time>2013-04-21T14:21:14.001Z</time>
      </trkpt>
      <trkpt lat="47.53933" lon="-0.09642">
        <ele>52</ele>
        <time>2013-04-21T14:21:21.001Z</time>
      </trkpt>
      <trkpt lat="47.53932" lon="-0.09641">
        <ele>52</ele>
        <time>2013-04-21T14:21:22.001Z</time>
      </trkpt>
      <trkpt lat="47.53929" lon="-0.09637">
        <ele>52</ele>
        <time>2013-04-21T14:21:25.001Z</time>
      </trkpt>
      <trkpt lat="47.53928" lon="-0.09636">
        <ele>52</ele>
        <time>2013-04-21T14:21:26.001Z</time>
      </trkpt>
      <trkpt lat="47.53925" lon="-0.09633">
        <ele>52</ele>
        <time>2013-04-21T14:21:28.001Z</time>
      </trkpt>
      <trkpt lat="47.53924" lon="-0.09632">
        <ele>51</ele>
        <time>2013-04-21T14:21:29.001Z</time>
      </trkpt>
      <trkpt lat="47.5392" lon="-0.09629">
        <ele>51</ele>
        <time>2013-04-21T14:21:32.001Z</time>
      </trkpt>
      <trkpt lat="47.53919" lon="-0.09628">
        <ele>51</ele>
        <time>2013-04-21T14:21:33.001Z</time>
      </trkpt>
      <trkpt lat="47.53916" lon="-0.09625">
        <ele>51</ele>
        <time>2013-04-21T14:21:37.001Z</time>
      </trkpt>
      <trkpt lat="47.53915" lon="-0.09625">
        <ele>51</ele>
        <time>2013-04-21T14:21:38.001Z</time>
      </trkpt>
      <trkpt lat="47.53913" lon="-0.09623">
        <ele>51</ele>
        <time>2013-04-21T14:22:20.001Z</time>
      </trkpt>
      <trkpt lat="47.5391" lon="-0.0962">
        <ele>51</ele>
        <time>2013-04-21T14:22:21.001Z</time>
      </trkpt>
      <trkpt lat="47.53907" lon="-0.09618">
        <ele>51</ele>
        <time>2013-04-21T14:22:24.001Z</time>
      </trkpt>
      <trkpt lat="47.53906" lon="-0.09617">
        <ele>51</ele>
        <time>2013-04-21T14:22:25.001Z</time>
      </trkpt>
      <trkpt lat="47.53902" lon="-0.09615">
        <ele>51</ele>
        <time>2013-04-21T14:22:30.001Z</time>
      </trkpt>
      <trkpt lat="47.539" lon="-0.09614">
        <ele>51</ele>
        <time>2013-04-21T14:22:31.001Z</time>
      </trkpt>
      <trkpt lat="47.53897" lon="-0.09612">
        <ele>51</ele>
        <time>2013-04-21T14:22:38.001Z</time>
      </trkpt>
      <trkpt lat="47.53896" lon="-0.0961">
        <ele>51</ele>
        <time>2013-04-21T14:22:39.001Z</time>
      </trkpt>
      <trkpt lat="47.53895" lon="-0.09608">
        <ele>51</ele>
        <time>2013-04-21T14:22:40.001Z</time>
      </trkpt>
      <trkpt lat="47.53892" lon="-0.09607">
        <ele>51</ele>
        <time>2013-04-21T14:22:41.001Z</time>
      </trkpt>
      <trkpt lat="47.53888" lon="-0.09605">
        <ele>51</ele>
        <time>2013-04-21T14:22:45.001Z</time>
      </trkpt>
      <trkpt lat="47.53887" lon="-0.09604">
        <ele>51</ele>
        <time>2013-04-21T14:22:46.001Z</time>
      </trkpt>
      <trkpt lat="47.53884" lon="-0.09601">
        <ele>51</ele>
        <time>2013-04-21T14:22:50.001Z</time>
      </trkpt>
      <trkpt lat="47.53883" lon="-0.09601">
        <ele>51</ele>
        <time>2013-04-21T14:22:51.001Z</time>
      </trkpt>
      <trkpt lat="47.5388" lon="-0.09598">
        <ele>51</ele>
        <time>2013-04-21T14:22:55.001Z</time>
      </trkpt>
      <trkpt lat="47.53878" lon="-0.09597">
        <ele>51</ele>
        <time>2013-04-21T14:22:56.001Z</time>
      </trkpt>
      <trkpt lat="47.53876" lon="-0.09596">
        <ele>51</ele>
        <time>2013-04-21T14:22:57.001Z</time>
      </trkpt>
      <trkpt lat="47.53874" lon="-0.09595">
        <ele>52</ele>
        <time>2013-04-21T14:22:58.001Z</time>
      </trkpt>
      <trkpt lat="47.53871" lon="-0.09593">
        <ele>52</ele>
        <time>2013-04-21T14:23:01.001Z</time>
      </trkpt>
      <trkpt lat="47.5387" lon="-0.09592">
        <ele>52</ele>
        <time>2013-04-21T14:23:02.001Z</time>
      </trkpt>
      <trkpt lat="47.53866" lon="-0.0959">
        <ele>52</ele>
        <time>2013-04-21T14:23:08.001Z</time>
      </trkpt>
      <trkpt lat="47.53865" lon="-0.0959">
        <ele>52</ele>
        <time>2013-04-21T14:23:09.001Z</time>
      </trkpt>
      <trkpt lat="47.53861" lon="-0.09589">
        <ele>52</ele>
        <time>2013-04-21T14:23:11.001Z</time>
      </trkpt>
      <trkpt lat="47.5386" lon="-0.09589">
        <ele>52</ele>
        <time>2013-04-21T14:23:12.001Z</time>
      </trkpt>
      <trkpt lat="47.53857" lon="-0.09586">
        <ele>52</ele>
        <time>2013-04-21T14:23:15.001Z</time>
      </trkpt>
      <trkpt lat="47.53856" lon="-0.09584">
        <ele>52</ele>
        <time>2013-04-21T14:23:16.001Z</time>
      </trkpt>
      <trkpt lat="47.53853" lon="-0.0958">
        <ele>52</ele>
        <time>2013-04-21T14:23:20.001Z</time>
      </trkpt>
      <trkpt lat="47.53852" lon="-0.09579">
        <ele>52</ele>
        <time>2013-04-21T14:23:21.001Z</time>
      </trkpt>
      <trkpt lat="47.53849" lon="-0.09575">
        <ele>52</ele>
        <time>2013-04-21T14:23:24.001Z</time>
      </trkpt>
      <trkpt lat="47.53848" lon="-0.09574">
        <ele>52</ele>
        <time>2013-04-21T14:23:25.001Z</time>
      </trkpt>
      <trkpt lat="47.53845" lon="-0.0957">
        <ele>52</ele>
        <time>2013-04-21T14:23:30.001Z</time>
      </trkpt>
      <trkpt lat="47.53844" lon="-0.0957">
        <ele>52</ele>
        <time>2013-04-21T14:23:31.001Z</time>
      </trkpt>
      <trkpt lat="47.53841" lon="-0.09569">
        <ele>52</ele>
        <time>2013-04-21T14:23:32.001Z</time>
      </trkpt>
      <trkpt lat="47.53839" lon="-0.09568">
        <ele>52</ele>
        <time>2013-04-21T14:23:33.001Z</time>
      </trkpt>
      <trkpt lat="47.53835" lon="-0.09566">
        <ele>52</ele>
        <time>2013-04-21T14:23:38.001Z</time>
      </trkpt>
      <trkpt lat="47.53834" lon="-0.09566">
        <ele>52</ele>
        <time>2013-04-21T14:23:39.001Z</time>
      </trkpt>
      <trkpt lat="47.53831" lon="-0.09564">
        <ele>54</ele>
        <time>2013-04-21T14:23:42.001Z</time>
      </trkpt>
      <trkpt lat="47.53829" lon="-0.09563">
        <ele>54</ele>
        <time>2013-04-21T14:23:43.001Z</time>
      </trkpt>
      <trkpt lat="47.53825" lon="-0.0956">
        <ele>54</ele>
        <time>2013-04-21T14:23:46.001Z</time>
      </trkpt>
      <trkpt lat="47.53824" lon="-0.0956">
        <ele>54</ele>
        <time>2013-04-21T14:23:47.001Z</time>
      </trkpt>
      <trkpt lat="47.5382" lon="-0.09557">
        <ele>54</ele>
        <time>2013-04-21T14:23:52.001Z</time>
      </trkpt>
      <trkpt lat="47.53819" lon="-0.09556">
        <ele>54</ele>
        <time>2013-04-21T14:23:53.001Z</time>
      </trkpt>
      <trkpt lat="47.53815" lon="-0.09555">
        <ele>54</ele>
        <time>2013-04-21T14:23:58.001Z</time>
      </trkpt>
      <trkpt lat="47.53814" lon="-0.09553">
        <ele>54</ele>
        <time>2013-04-21T14:23:59.001Z</time>
      </trkpt>
      <trkpt lat="47.53812" lon="-0.09548">
        <ele>54</ele>
        <time>2013-04-21T14:24:02.001Z</time>
      </trkpt>
      <trkpt lat="47.53811" lon="-0.09547">
        <ele>54</ele>
        <time>2013-04-21T14:24:03.001Z</time>
      </trkpt>
      <trkpt lat="47.5381" lon="-0.09542">
        <ele>54</ele>
        <time>2013-04-21T14:24:07.001Z</time>
      </trkpt>
      <trkpt lat="47.5381" lon="-0.0954">
        <ele>54</ele>
        <time>2013-04-21T14:24:08.001Z</time>
      </trkpt>
      <trkpt lat="47.53808" lon="-0.09535">
        <ele>54</ele>
        <time>2013-04-21T14:24:12.001Z</time>
      </trkpt>
      <trkpt lat="47.53808" lon="-0.09534">
        <ele>54</ele>
        <time>2013-04-21T14:24:13.001Z</time>
      </trkpt>
      <trkpt lat="47.53808" lon="-0.09533">
        <ele>54</ele>
        <time>2013-04-21T14:24:21.001Z</time>
      </trkpt>
    </trkseg>
  </trk>
</gpx>